<?xml version="1.0" encoding="UTF-8" standalone="no" ?>
<gpx xmlns="http://www.topografix.com/GPX/1/1" xmlns:xsi="http://www.w3.org/2001/XMLSchema-instance" xsi:schemaLocation="http://www.topografix.com/GPX/1/1 http://www.topografix.com/GPX/1/1/gpx.xsd" version="1.1" creator="VisuGPX - https://www.visugpx.com">
  <metadata>
    <name>Sortie naussannes </name>
    <desc><![CDATA[ssssssssuuuuuuuuuuuuuuuupppppppppppppperrrrrrrr]]></desc>
  </metadata>
  <trk>
    <name><![CDATA[Sortie naussannes ]]></name>
    <trkseg>
      <trkpt lat="44.7575" lon="0.72441">
        <ele>151.6</ele>
        <time>2022-12-04T07:12:38Z</time>
      </trkpt>
      <trkpt lat="44.75739" lon="0.72454">
        <ele>151.5</ele>
        <time>2022-12-04T07:12:43Z</time>
      </trkpt>
      <trkpt lat="44.75718" lon="0.72478">
        <ele>150.8</ele>
        <time>2022-12-04T07:12:50Z</time>
      </trkpt>
      <trkpt lat="44.75714" lon="0.72482">
        <ele>150.7</ele>
        <time>2022-12-04T07:12:51Z</time>
      </trkpt>
      <trkpt lat="44.75688" lon="0.72513">
        <ele>149.7</ele>
        <time>2022-12-04T07:12:58Z</time>
      </trkpt>
      <trkpt lat="44.75675" lon="0.72527">
        <ele>149.1</ele>
        <time>2022-12-04T07:13:01Z</time>
      </trkpt>
      <trkpt lat="44.75664" lon="0.72532">
        <ele>148.7</ele>
        <time>2022-12-04T07:13:03Z</time>
      </trkpt>
      <trkpt lat="44.75651" lon="0.72529">
        <ele>148.3</ele>
        <time>2022-12-04T07:13:05Z</time>
      </trkpt>
      <trkpt lat="44.75645" lon="0.72526">
        <ele>148</ele>
        <time>2022-12-04T07:13:06Z</time>
      </trkpt>
      <trkpt lat="44.75603" lon="0.725">
        <ele>146.9</ele>
        <time>2022-12-04T07:13:13Z</time>
      </trkpt>
      <trkpt lat="44.75562" lon="0.72478">
        <ele>146.6</ele>
        <time>2022-12-04T07:13:20Z</time>
      </trkpt>
      <trkpt lat="44.75546" lon="0.72469">
        <ele>146.4</ele>
        <time>2022-12-04T07:13:23Z</time>
      </trkpt>
      <trkpt lat="44.75535" lon="0.7247">
        <ele>146.2</ele>
        <time>2022-12-04T07:13:25Z</time>
      </trkpt>
      <trkpt lat="44.75527" lon="0.7248">
        <ele>145.9</ele>
        <time>2022-12-04T07:13:27Z</time>
      </trkpt>
      <trkpt lat="44.75524" lon="0.72487">
        <ele>145.7</ele>
        <time>2022-12-04T07:13:28Z</time>
      </trkpt>
      <trkpt lat="44.75516" lon="0.72499">
        <ele>145.4</ele>
        <time>2022-12-04T07:13:30Z</time>
      </trkpt>
      <trkpt lat="44.75505" lon="0.72507">
        <ele>145.2</ele>
        <time>2022-12-04T07:13:32Z</time>
      </trkpt>
      <trkpt lat="44.75492" lon="0.72508">
        <ele>145.1</ele>
        <time>2022-12-04T07:13:34Z</time>
      </trkpt>
      <trkpt lat="44.75485" lon="0.72507">
        <ele>145</ele>
        <time>2022-12-04T07:13:35Z</time>
      </trkpt>
      <trkpt lat="44.75448" lon="0.72501">
        <ele>145.3</ele>
        <time>2022-12-04T07:13:41Z</time>
      </trkpt>
      <trkpt lat="44.75411" lon="0.72494">
        <ele>146</ele>
        <time>2022-12-04T07:13:48Z</time>
      </trkpt>
      <trkpt lat="44.75375" lon="0.72488">
        <ele>146.3</ele>
        <time>2022-12-04T07:13:55Z</time>
      </trkpt>
      <trkpt lat="44.75333" lon="0.7248">
        <ele>146.3</ele>
        <time>2022-12-04T07:14:03Z</time>
      </trkpt>
      <trkpt lat="44.75294" lon="0.72483">
        <ele>146</ele>
        <time>2022-12-04T07:14:10Z</time>
      </trkpt>
      <trkpt lat="44.75256" lon="0.7249">
        <ele>145.5</ele>
        <time>2022-12-04T07:14:17Z</time>
      </trkpt>
      <trkpt lat="44.75215" lon="0.72488">
        <ele>145.3</ele>
        <time>2022-12-04T07:14:24Z</time>
      </trkpt>
      <trkpt lat="44.75182" lon="0.72485">
        <ele>145.9</ele>
        <time>2022-12-04T07:14:30Z</time>
      </trkpt>
      <trkpt lat="44.75141" lon="0.72481">
        <ele>147</ele>
        <time>2022-12-04T07:14:38Z</time>
      </trkpt>
      <trkpt lat="44.75121" lon="0.72478">
        <ele>147.4</ele>
        <time>2022-12-04T07:14:42Z</time>
      </trkpt>
      <trkpt lat="44.75106" lon="0.72476">
        <ele>147.6</ele>
        <time>2022-12-04T07:14:45Z</time>
      </trkpt>
      <trkpt lat="44.75065" lon="0.72468">
        <ele>148.1</ele>
        <time>2022-12-04T07:14:53Z</time>
      </trkpt>
      <trkpt lat="44.7502" lon="0.72449">
        <ele>148.9</ele>
        <time>2022-12-04T07:15:02Z</time>
      </trkpt>
      <trkpt lat="44.74989" lon="0.72427">
        <ele>149.4</ele>
        <time>2022-12-04T07:15:09Z</time>
      </trkpt>
      <trkpt lat="44.74971" lon="0.72414">
        <ele>149.9</ele>
        <time>2022-12-04T07:15:13Z</time>
      </trkpt>
      <trkpt lat="44.74962" lon="0.72407">
        <ele>150.1</ele>
        <time>2022-12-04T07:15:15Z</time>
      </trkpt>
      <trkpt lat="44.7493" lon="0.7238">
        <ele>150.9</ele>
        <time>2022-12-04T07:15:23Z</time>
      </trkpt>
      <trkpt lat="44.74905" lon="0.72361">
        <ele>151.3</ele>
        <time>2022-12-04T07:15:30Z</time>
      </trkpt>
      <trkpt lat="44.74879" lon="0.72344">
        <ele>151.7</ele>
        <time>2022-12-04T07:15:36Z</time>
      </trkpt>
      <trkpt lat="44.74856" lon="0.72333">
        <ele>152</ele>
        <time>2022-12-04T07:15:41Z</time>
      </trkpt>
      <trkpt lat="44.74847" lon="0.72329">
        <ele>152</ele>
        <time>2022-12-04T07:15:43Z</time>
      </trkpt>
      <trkpt lat="44.74815" lon="0.72315">
        <ele>152.1</ele>
        <time>2022-12-04T07:15:50Z</time>
      </trkpt>
      <trkpt lat="44.74782" lon="0.72299">
        <ele>152.5</ele>
        <time>2022-12-04T07:15:58Z</time>
      </trkpt>
      <trkpt lat="44.74777" lon="0.72308">
        <ele>152.2</ele>
        <time>2022-12-04T07:16:01Z</time>
      </trkpt>
      <trkpt lat="44.74779" lon="0.72328">
        <ele>151.8</ele>
        <time>2022-12-04T07:16:05Z</time>
      </trkpt>
      <trkpt lat="44.7478" lon="0.72347">
        <ele>151.5</ele>
        <time>2022-12-04T07:16:08Z</time>
      </trkpt>
      <trkpt lat="44.74781" lon="0.72366">
        <ele>151.1</ele>
        <time>2022-12-04T07:16:11Z</time>
      </trkpt>
      <trkpt lat="44.74782" lon="0.72414">
        <ele>150.4</ele>
        <time>2022-12-04T07:16:18Z</time>
      </trkpt>
      <trkpt lat="44.74783" lon="0.72434">
        <ele>150.1</ele>
        <time>2022-12-04T07:16:21Z</time>
      </trkpt>
      <trkpt lat="44.74783" lon="0.72455">
        <ele>150</ele>
        <time>2022-12-04T07:16:24Z</time>
      </trkpt>
      <trkpt lat="44.74784" lon="0.72487">
        <ele>149.9</ele>
        <time>2022-12-04T07:16:29Z</time>
      </trkpt>
      <trkpt lat="44.74784" lon="0.725">
        <ele>149.7</ele>
        <time>2022-12-04T07:16:31Z</time>
      </trkpt>
      <trkpt lat="44.74786" lon="0.7254">
        <ele>149.3</ele>
        <time>2022-12-04T07:16:37Z</time>
      </trkpt>
      <trkpt lat="44.74788" lon="0.72588">
        <ele>148.4</ele>
        <time>2022-12-04T07:16:44Z</time>
      </trkpt>
      <trkpt lat="44.7479" lon="0.72637">
        <ele>147.6</ele>
        <time>2022-12-04T07:16:51Z</time>
      </trkpt>
      <trkpt lat="44.74791" lon="0.72691">
        <ele>146.9</ele>
        <time>2022-12-04T07:16:59Z</time>
      </trkpt>
      <trkpt lat="44.74793" lon="0.72722">
        <ele>146.8</ele>
        <time>2022-12-04T07:17:04Z</time>
      </trkpt>
      <trkpt lat="44.74795" lon="0.72753">
        <ele>146.9</ele>
        <time>2022-12-04T07:17:09Z</time>
      </trkpt>
      <trkpt lat="44.74796" lon="0.72765">
        <ele>146.9</ele>
        <time>2022-12-04T07:17:11Z</time>
      </trkpt>
      <trkpt lat="44.74795" lon="0.72776">
        <ele>146.9</ele>
        <time>2022-12-04T07:17:14Z</time>
      </trkpt>
      <trkpt lat="44.7478" lon="0.72777">
        <ele>146.9</ele>
        <time>2022-12-04T07:17:18Z</time>
      </trkpt>
      <trkpt lat="44.74758" lon="0.72775">
        <ele>147</ele>
        <time>2022-12-04T07:17:23Z</time>
      </trkpt>
      <trkpt lat="44.74753" lon="0.72776">
        <ele>147</ele>
        <time>2022-12-04T07:17:24Z</time>
      </trkpt>
      <trkpt lat="44.7474" lon="0.72777">
        <ele>147.1</ele>
        <time>2022-12-04T07:17:28Z</time>
      </trkpt>
      <trkpt lat="44.74717" lon="0.72785">
        <ele>147.2</ele>
        <time>2022-12-04T07:17:34Z</time>
      </trkpt>
      <trkpt lat="44.7469" lon="0.72794">
        <ele>147.3</ele>
        <time>2022-12-04T07:17:41Z</time>
      </trkpt>
      <trkpt lat="44.74668" lon="0.72801">
        <ele>147.4</ele>
        <time>2022-12-04T07:17:47Z</time>
      </trkpt>
      <trkpt lat="44.7466" lon="0.72804">
        <ele>147.5</ele>
        <time>2022-12-04T07:17:49Z</time>
      </trkpt>
      <trkpt lat="44.74633" lon="0.72815">
        <ele>148.1</ele>
        <time>2022-12-04T07:17:57Z</time>
      </trkpt>
      <trkpt lat="44.74602" lon="0.72826">
        <ele>148.8</ele>
        <time>2022-12-04T07:18:06Z</time>
      </trkpt>
      <trkpt lat="44.74575" lon="0.72836">
        <ele>148.8</ele>
        <time>2022-12-04T07:18:14Z</time>
      </trkpt>
      <trkpt lat="44.74554" lon="0.72843">
        <ele>149.1</ele>
        <time>2022-12-04T07:18:20Z</time>
      </trkpt>
      <trkpt lat="44.74552" lon="0.72846">
        <ele>149.2</ele>
        <time>2022-12-04T07:18:21Z</time>
      </trkpt>
      <trkpt lat="44.74549" lon="0.72855">
        <ele>149.4</ele>
        <time>2022-12-04T07:18:23Z</time>
      </trkpt>
      <trkpt lat="44.74544" lon="0.72883">
        <ele>149.5</ele>
        <time>2022-12-04T07:18:29Z</time>
      </trkpt>
      <trkpt lat="44.74538" lon="0.72912">
        <ele>149.8</ele>
        <time>2022-12-04T07:18:35Z</time>
      </trkpt>
      <trkpt lat="44.74535" lon="0.72936">
        <ele>150.2</ele>
        <time>2022-12-04T07:18:40Z</time>
      </trkpt>
      <trkpt lat="44.74531" lon="0.72959">
        <ele>150.4</ele>
        <time>2022-12-04T07:18:45Z</time>
      </trkpt>
      <trkpt lat="44.74528" lon="0.72977">
        <ele>150.4</ele>
        <time>2022-12-04T07:18:49Z</time>
      </trkpt>
      <trkpt lat="44.74523" lon="0.73002">
        <ele>150.6</ele>
        <time>2022-12-04T07:18:54Z</time>
      </trkpt>
      <trkpt lat="44.7452" lon="0.73026">
        <ele>150.8</ele>
        <time>2022-12-04T07:18:59Z</time>
      </trkpt>
      <trkpt lat="44.74517" lon="0.73046">
        <ele>151</ele>
        <time>2022-12-04T07:19:04Z</time>
      </trkpt>
      <trkpt lat="44.74514" lon="0.73066">
        <ele>151.1</ele>
        <time>2022-12-04T07:19:09Z</time>
      </trkpt>
      <trkpt lat="44.74513" lon="0.73094">
        <ele>151.4</ele>
        <time>2022-12-04T07:19:15Z</time>
      </trkpt>
      <trkpt lat="44.74515" lon="0.73121">
        <ele>151.5</ele>
        <time>2022-12-04T07:19:21Z</time>
      </trkpt>
      <trkpt lat="44.74521" lon="0.7315">
        <ele>151.7</ele>
        <time>2022-12-04T07:19:27Z</time>
      </trkpt>
      <trkpt lat="44.74524" lon="0.73163">
        <ele>151.7</ele>
        <time>2022-12-04T07:19:29Z</time>
      </trkpt>
      <trkpt lat="44.74529" lon="0.73185">
        <ele>151.6</ele>
        <time>2022-12-04T07:19:33Z</time>
      </trkpt>
      <trkpt lat="44.74536" lon="0.73207">
        <ele>151.5</ele>
        <time>2022-12-04T07:19:38Z</time>
      </trkpt>
      <trkpt lat="44.74549" lon="0.73245">
        <ele>151.4</ele>
        <time>2022-12-04T07:19:45Z</time>
      </trkpt>
      <trkpt lat="44.74555" lon="0.73262">
        <ele>151.3</ele>
        <time>2022-12-04T07:19:48Z</time>
      </trkpt>
      <trkpt lat="44.74557" lon="0.73267">
        <ele>151.2</ele>
        <time>2022-12-04T07:19:49Z</time>
      </trkpt>
      <trkpt lat="44.74559" lon="0.73273">
        <ele>151.1</ele>
        <time>2022-12-04T07:19:50Z</time>
      </trkpt>
      <trkpt lat="44.74567" lon="0.73303">
        <ele>150.8</ele>
        <time>2022-12-04T07:19:55Z</time>
      </trkpt>
      <trkpt lat="44.74576" lon="0.73333">
        <ele>150.6</ele>
        <time>2022-12-04T07:20:00Z</time>
      </trkpt>
      <trkpt lat="44.74585" lon="0.73354">
        <ele>150.9</ele>
        <time>2022-12-04T07:20:04Z</time>
      </trkpt>
      <trkpt lat="44.74598" lon="0.73381">
        <ele>150.8</ele>
        <time>2022-12-04T07:20:09Z</time>
      </trkpt>
      <trkpt lat="44.7461" lon="0.73402">
        <ele>150.9</ele>
        <time>2022-12-04T07:20:13Z</time>
      </trkpt>
      <trkpt lat="44.74616" lon="0.73413">
        <ele>151</ele>
        <time>2022-12-04T07:20:15Z</time>
      </trkpt>
      <trkpt lat="44.74621" lon="0.73423">
        <ele>151</ele>
        <time>2022-12-04T07:20:17Z</time>
      </trkpt>
      <trkpt lat="44.74635" lon="0.73446">
        <ele>150.9</ele>
        <time>2022-12-04T07:20:22Z</time>
      </trkpt>
      <trkpt lat="44.74647" lon="0.73465">
        <ele>150.8</ele>
        <time>2022-12-04T07:20:26Z</time>
      </trkpt>
      <trkpt lat="44.7465" lon="0.73469">
        <ele>150.9</ele>
        <time>2022-12-04T07:20:27Z</time>
      </trkpt>
      <trkpt lat="44.74667" lon="0.73486">
        <ele>151</ele>
        <time>2022-12-04T07:20:32Z</time>
      </trkpt>
      <trkpt lat="44.74669" lon="0.73489">
        <ele>150.9</ele>
        <time>2022-12-04T07:20:33Z</time>
      </trkpt>
      <trkpt lat="44.74671" lon="0.73498">
        <ele>150.9</ele>
        <time>2022-12-04T07:20:35Z</time>
      </trkpt>
      <trkpt lat="44.74661" lon="0.73523">
        <ele>151.3</ele>
        <time>2022-12-04T07:20:40Z</time>
      </trkpt>
      <trkpt lat="44.74642" lon="0.73572">
        <ele>152.2</ele>
        <time>2022-12-04T07:20:49Z</time>
      </trkpt>
      <trkpt lat="44.74629" lon="0.73602">
        <ele>152.8</ele>
        <time>2022-12-04T07:20:55Z</time>
      </trkpt>
      <trkpt lat="44.74611" lon="0.73644">
        <ele>153.7</ele>
        <time>2022-12-04T07:21:03Z</time>
      </trkpt>
      <trkpt lat="44.74597" lon="0.73674">
        <ele>154.2</ele>
        <time>2022-12-04T07:21:09Z</time>
      </trkpt>
      <trkpt lat="44.74578" lon="0.73721">
        <ele>154.9</ele>
        <time>2022-12-04T07:21:18Z</time>
      </trkpt>
      <trkpt lat="44.74561" lon="0.7376">
        <ele>155.6</ele>
        <time>2022-12-04T07:21:25Z</time>
      </trkpt>
      <trkpt lat="44.74539" lon="0.73811">
        <ele>156.6</ele>
        <time>2022-12-04T07:21:35Z</time>
      </trkpt>
      <trkpt lat="44.74523" lon="0.7385">
        <ele>157.5</ele>
        <time>2022-12-04T07:21:43Z</time>
      </trkpt>
      <trkpt lat="44.74514" lon="0.73876">
        <ele>158</ele>
        <time>2022-12-04T07:21:48Z</time>
      </trkpt>
      <trkpt lat="44.74493" lon="0.73923">
        <ele>158.8</ele>
        <time>2022-12-04T07:21:57Z</time>
      </trkpt>
      <trkpt lat="44.74469" lon="0.73977">
        <ele>159.2</ele>
        <time>2022-12-04T07:22:07Z</time>
      </trkpt>
      <trkpt lat="44.74448" lon="0.74029">
        <ele>159.3</ele>
        <time>2022-12-04T07:22:16Z</time>
      </trkpt>
      <trkpt lat="44.74428" lon="0.74088">
        <ele>159.3</ele>
        <time>2022-12-04T07:22:26Z</time>
      </trkpt>
      <trkpt lat="44.74412" lon="0.74135">
        <ele>159.3</ele>
        <time>2022-12-04T07:22:34Z</time>
      </trkpt>
      <trkpt lat="44.74387" lon="0.74186">
        <ele>159.4</ele>
        <time>2022-12-04T07:22:43Z</time>
      </trkpt>
      <trkpt lat="44.74362" lon="0.74233">
        <ele>159.8</ele>
        <time>2022-12-04T07:22:52Z</time>
      </trkpt>
      <trkpt lat="44.74353" lon="0.74248">
        <ele>160</ele>
        <time>2022-12-04T07:22:55Z</time>
      </trkpt>
      <trkpt lat="44.74352" lon="0.7426">
        <ele>160</ele>
        <time>2022-12-04T07:22:57Z</time>
      </trkpt>
      <trkpt lat="44.74361" lon="0.74271">
        <ele>159.8</ele>
        <time>2022-12-04T07:23:00Z</time>
      </trkpt>
      <trkpt lat="44.74368" lon="0.74278">
        <ele>159.7</ele>
        <time>2022-12-04T07:23:02Z</time>
      </trkpt>
      <trkpt lat="44.74379" lon="0.74289">
        <ele>159.4</ele>
        <time>2022-12-04T07:23:05Z</time>
      </trkpt>
      <trkpt lat="44.74412" lon="0.74316">
        <ele>159.5</ele>
        <time>2022-12-04T07:23:13Z</time>
      </trkpt>
      <trkpt lat="44.74454" lon="0.74353">
        <ele>160.1</ele>
        <time>2022-12-04T07:23:24Z</time>
      </trkpt>
      <trkpt lat="44.74486" lon="0.7438">
        <ele>160.9</ele>
        <time>2022-12-04T07:23:33Z</time>
      </trkpt>
      <trkpt lat="44.74496" lon="0.74388">
        <ele>160.9</ele>
        <time>2022-12-04T07:23:36Z</time>
      </trkpt>
      <trkpt lat="44.74503" lon="0.74394">
        <ele>160.9</ele>
        <time>2022-12-04T07:23:38Z</time>
      </trkpt>
      <trkpt lat="44.74506" lon="0.74397">
        <ele>161</ele>
        <time>2022-12-04T07:23:39Z</time>
      </trkpt>
      <trkpt lat="44.74509" lon="0.74401">
        <ele>161</ele>
        <time>2022-12-04T07:23:40Z</time>
      </trkpt>
      <trkpt lat="44.74527" lon="0.74431">
        <ele>161.4</ele>
        <time>2022-12-04T07:23:46Z</time>
      </trkpt>
      <trkpt lat="44.74544" lon="0.7446">
        <ele>161.9</ele>
        <time>2022-12-04T07:23:52Z</time>
      </trkpt>
      <trkpt lat="44.74547" lon="0.74464">
        <ele>162</ele>
        <time>2022-12-04T07:23:53Z</time>
      </trkpt>
      <trkpt lat="44.74562" lon="0.74489">
        <ele>162.4</ele>
        <time>2022-12-04T07:23:59Z</time>
      </trkpt>
      <trkpt lat="44.74564" lon="0.74493">
        <ele>162.5</ele>
        <time>2022-12-04T07:24:00Z</time>
      </trkpt>
      <trkpt lat="44.74579" lon="0.74514">
        <ele>162.9</ele>
        <time>2022-12-04T07:24:05Z</time>
      </trkpt>
      <trkpt lat="44.74601" lon="0.74545">
        <ele>163.4</ele>
        <time>2022-12-04T07:24:13Z</time>
      </trkpt>
      <trkpt lat="44.74623" lon="0.74578">
        <ele>164.1</ele>
        <time>2022-12-04T07:24:21Z</time>
      </trkpt>
      <trkpt lat="44.74642" lon="0.74594">
        <ele>164.6</ele>
        <time>2022-12-04T07:24:27Z</time>
      </trkpt>
      <trkpt lat="44.74666" lon="0.74614">
        <ele>165</ele>
        <time>2022-12-04T07:24:34Z</time>
      </trkpt>
      <trkpt lat="44.74682" lon="0.74627">
        <ele>165.2</ele>
        <time>2022-12-04T07:24:39Z</time>
      </trkpt>
      <trkpt lat="44.74705" lon="0.74643">
        <ele>165.4</ele>
        <time>2022-12-04T07:24:46Z</time>
      </trkpt>
      <trkpt lat="44.74732" lon="0.74663">
        <ele>165.5</ele>
        <time>2022-12-04T07:24:54Z</time>
      </trkpt>
      <trkpt lat="44.74751" lon="0.74679">
        <ele>165.7</ele>
        <time>2022-12-04T07:25:00Z</time>
      </trkpt>
      <trkpt lat="44.74774" lon="0.74697">
        <ele>165.9</ele>
        <time>2022-12-04T07:25:07Z</time>
      </trkpt>
      <trkpt lat="44.74801" lon="0.7472">
        <ele>165.3</ele>
        <time>2022-12-04T07:25:15Z</time>
      </trkpt>
      <trkpt lat="44.74839" lon="0.74752">
        <ele>164.3</ele>
        <time>2022-12-04T07:25:25Z</time>
      </trkpt>
      <trkpt lat="44.74868" lon="0.74776">
        <ele>162.9</ele>
        <time>2022-12-04T07:25:33Z</time>
      </trkpt>
      <trkpt lat="44.74901" lon="0.74803">
        <ele>160.8</ele>
        <time>2022-12-04T07:25:41Z</time>
      </trkpt>
      <trkpt lat="44.74936" lon="0.74832">
        <ele>159.6</ele>
        <time>2022-12-04T07:25:49Z</time>
      </trkpt>
      <trkpt lat="44.74972" lon="0.74863">
        <ele>159.9</ele>
        <time>2022-12-04T07:25:58Z</time>
      </trkpt>
      <trkpt lat="44.74987" lon="0.74876">
        <ele>160.7</ele>
        <time>2022-12-04T07:26:02Z</time>
      </trkpt>
      <trkpt lat="44.74993" lon="0.74882">
        <ele>161.1</ele>
        <time>2022-12-04T07:26:04Z</time>
      </trkpt>
      <trkpt lat="44.75016" lon="0.74898">
        <ele>162.1</ele>
        <time>2022-12-04T07:26:10Z</time>
      </trkpt>
      <trkpt lat="44.7502" lon="0.749">
        <ele>162.2</ele>
        <time>2022-12-04T07:26:11Z</time>
      </trkpt>
      <trkpt lat="44.75024" lon="0.74901">
        <ele>162.3</ele>
        <time>2022-12-04T07:26:12Z</time>
      </trkpt>
      <trkpt lat="44.75045" lon="0.74907">
        <ele>162.2</ele>
        <time>2022-12-04T07:26:17Z</time>
      </trkpt>
      <trkpt lat="44.75073" lon="0.74923">
        <ele>161.7</ele>
        <time>2022-12-04T07:26:24Z</time>
      </trkpt>
      <trkpt lat="44.75097" lon="0.74949">
        <ele>161.2</ele>
        <time>2022-12-04T07:26:31Z</time>
      </trkpt>
      <trkpt lat="44.75112" lon="0.74963">
        <ele>160.7</ele>
        <time>2022-12-04T07:26:36Z</time>
      </trkpt>
      <trkpt lat="44.7513" lon="0.74985">
        <ele>160.5</ele>
        <time>2022-12-04T07:26:42Z</time>
      </trkpt>
      <trkpt lat="44.75148" lon="0.75009">
        <ele>160.5</ele>
        <time>2022-12-04T07:26:48Z</time>
      </trkpt>
      <trkpt lat="44.75165" lon="0.75033">
        <ele>160.8</ele>
        <time>2022-12-04T07:26:54Z</time>
      </trkpt>
      <trkpt lat="44.75179" lon="0.75045">
        <ele>160.9</ele>
        <time>2022-12-04T07:26:59Z</time>
      </trkpt>
      <trkpt lat="44.75196" lon="0.75057">
        <ele>160.5</ele>
        <time>2022-12-04T07:27:04Z</time>
      </trkpt>
      <trkpt lat="44.75228" lon="0.75079">
        <ele>159.2</ele>
        <time>2022-12-04T07:27:11Z</time>
      </trkpt>
      <trkpt lat="44.75278" lon="0.75113">
        <ele>157.7</ele>
        <time>2022-12-04T07:27:20Z</time>
      </trkpt>
      <trkpt lat="44.75312" lon="0.75131">
        <ele>157.2</ele>
        <time>2022-12-04T07:27:26Z</time>
      </trkpt>
      <trkpt lat="44.75351" lon="0.75146">
        <ele>156.9</ele>
        <time>2022-12-04T07:27:33Z</time>
      </trkpt>
      <trkpt lat="44.75387" lon="0.75159">
        <ele>156.9</ele>
        <time>2022-12-04T07:27:40Z</time>
      </trkpt>
      <trkpt lat="44.7544" lon="0.7517">
        <ele>156.3</ele>
        <time>2022-12-04T07:27:50Z</time>
      </trkpt>
      <trkpt lat="44.7545" lon="0.75172">
        <ele>156.2</ele>
        <time>2022-12-04T07:27:52Z</time>
      </trkpt>
      <trkpt lat="44.7546" lon="0.75178">
        <ele>156.2</ele>
        <time>2022-12-04T07:27:54Z</time>
      </trkpt>
      <trkpt lat="44.75464" lon="0.75183">
        <ele>156.3</ele>
        <time>2022-12-04T07:27:55Z</time>
      </trkpt>
      <trkpt lat="44.75467" lon="0.7519">
        <ele>156.5</ele>
        <time>2022-12-04T07:27:56Z</time>
      </trkpt>
      <trkpt lat="44.75473" lon="0.75209">
        <ele>157</ele>
        <time>2022-12-04T07:27:59Z</time>
      </trkpt>
      <trkpt lat="44.75485" lon="0.75246">
        <ele>158</ele>
        <time>2022-12-04T07:28:05Z</time>
      </trkpt>
      <trkpt lat="44.75487" lon="0.75252">
        <ele>158.1</ele>
        <time>2022-12-04T07:28:06Z</time>
      </trkpt>
      <trkpt lat="44.75497" lon="0.75281">
        <ele>158.7</ele>
        <time>2022-12-04T07:28:11Z</time>
      </trkpt>
      <trkpt lat="44.75511" lon="0.7532">
        <ele>158.7</ele>
        <time>2022-12-04T07:28:18Z</time>
      </trkpt>
      <trkpt lat="44.75516" lon="0.7533">
        <ele>158.4</ele>
        <time>2022-12-04T07:28:20Z</time>
      </trkpt>
      <trkpt lat="44.75525" lon="0.75343">
        <ele>157.9</ele>
        <time>2022-12-04T07:28:23Z</time>
      </trkpt>
      <trkpt lat="44.75535" lon="0.75358">
        <ele>157.3</ele>
        <time>2022-12-04T07:28:26Z</time>
      </trkpt>
      <trkpt lat="44.75542" lon="0.75368">
        <ele>156.9</ele>
        <time>2022-12-04T07:28:28Z</time>
      </trkpt>
      <trkpt lat="44.75564" lon="0.75391">
        <ele>155.8</ele>
        <time>2022-12-04T07:28:33Z</time>
      </trkpt>
      <trkpt lat="44.75584" lon="0.75409">
        <ele>155.4</ele>
        <time>2022-12-04T07:28:37Z</time>
      </trkpt>
      <trkpt lat="44.756" lon="0.75418">
        <ele>155.5</ele>
        <time>2022-12-04T07:28:40Z</time>
      </trkpt>
      <trkpt lat="44.75637" lon="0.75431">
        <ele>155.7</ele>
        <time>2022-12-04T07:28:47Z</time>
      </trkpt>
      <trkpt lat="44.75688" lon="0.75445">
        <ele>155.7</ele>
        <time>2022-12-04T07:28:57Z</time>
      </trkpt>
      <trkpt lat="44.75702" lon="0.7545">
        <ele>155.7</ele>
        <time>2022-12-04T07:29:00Z</time>
      </trkpt>
      <trkpt lat="44.75711" lon="0.75453">
        <ele>155.7</ele>
        <time>2022-12-04T07:29:02Z</time>
      </trkpt>
      <trkpt lat="44.75716" lon="0.75455">
        <ele>155.6</ele>
        <time>2022-12-04T07:29:03Z</time>
      </trkpt>
      <trkpt lat="44.7574" lon="0.75465">
        <ele>155.5</ele>
        <time>2022-12-04T07:29:08Z</time>
      </trkpt>
      <trkpt lat="44.75766" lon="0.75479">
        <ele>155.4</ele>
        <time>2022-12-04T07:29:13Z</time>
      </trkpt>
      <trkpt lat="44.75799" lon="0.75503">
        <ele>155.1</ele>
        <time>2022-12-04T07:29:20Z</time>
      </trkpt>
      <trkpt lat="44.75808" lon="0.7551">
        <ele>155</ele>
        <time>2022-12-04T07:29:22Z</time>
      </trkpt>
      <trkpt lat="44.75824" lon="0.75529">
        <ele>154.8</ele>
        <time>2022-12-04T07:29:26Z</time>
      </trkpt>
      <trkpt lat="44.75828" lon="0.75534">
        <ele>154.7</ele>
        <time>2022-12-04T07:29:27Z</time>
      </trkpt>
      <trkpt lat="44.75839" lon="0.75549">
        <ele>154.5</ele>
        <time>2022-12-04T07:29:30Z</time>
      </trkpt>
      <trkpt lat="44.75843" lon="0.75554">
        <ele>154.4</ele>
        <time>2022-12-04T07:29:31Z</time>
      </trkpt>
      <trkpt lat="44.75855" lon="0.75573">
        <ele>154.1</ele>
        <time>2022-12-04T07:29:35Z</time>
      </trkpt>
      <trkpt lat="44.75858" lon="0.7558">
        <ele>154</ele>
        <time>2022-12-04T07:29:36Z</time>
      </trkpt>
      <trkpt lat="44.75865" lon="0.75594">
        <ele>153.7</ele>
        <time>2022-12-04T07:29:38Z</time>
      </trkpt>
      <trkpt lat="44.75873" lon="0.75616">
        <ele>153.1</ele>
        <time>2022-12-04T07:29:41Z</time>
      </trkpt>
      <trkpt lat="44.75878" lon="0.75638">
        <ele>152</ele>
        <time>2022-12-04T07:29:45Z</time>
      </trkpt>
      <trkpt lat="44.7588" lon="0.75649">
        <ele>151.3</ele>
        <time>2022-12-04T07:29:48Z</time>
      </trkpt>
      <trkpt lat="44.75884" lon="0.75663">
        <ele>150.1</ele>
        <time>2022-12-04T07:29:51Z</time>
      </trkpt>
      <trkpt lat="44.75888" lon="0.75665">
        <ele>149.7</ele>
        <time>2022-12-04T07:29:52Z</time>
      </trkpt>
      <trkpt lat="44.75897" lon="0.75663">
        <ele>149.6</ele>
        <time>2022-12-04T07:29:55Z</time>
      </trkpt>
      <trkpt lat="44.75905" lon="0.7566">
        <ele>149.6</ele>
        <time>2022-12-04T07:29:57Z</time>
      </trkpt>
      <trkpt lat="44.75919" lon="0.75655">
        <ele>149.5</ele>
        <time>2022-12-04T07:30:00Z</time>
      </trkpt>
      <trkpt lat="44.75923" lon="0.75654">
        <ele>149.5</ele>
        <time>2022-12-04T07:30:01Z</time>
      </trkpt>
      <trkpt lat="44.75945" lon="0.7565">
        <ele>149.2</ele>
        <time>2022-12-04T07:30:05Z</time>
      </trkpt>
      <trkpt lat="44.75972" lon="0.75644">
        <ele>149.3</ele>
        <time>2022-12-04T07:30:10Z</time>
      </trkpt>
      <trkpt lat="44.75998" lon="0.75641">
        <ele>149.6</ele>
        <time>2022-12-04T07:30:15Z</time>
      </trkpt>
      <trkpt lat="44.76004" lon="0.75642">
        <ele>149.7</ele>
        <time>2022-12-04T07:30:16Z</time>
      </trkpt>
      <trkpt lat="44.76009" lon="0.75642">
        <ele>149.8</ele>
        <time>2022-12-04T07:30:17Z</time>
      </trkpt>
      <trkpt lat="44.76019" lon="0.75643">
        <ele>149.7</ele>
        <time>2022-12-04T07:30:19Z</time>
      </trkpt>
      <trkpt lat="44.7603" lon="0.75645">
        <ele>149.3</ele>
        <time>2022-12-04T07:30:21Z</time>
      </trkpt>
      <trkpt lat="44.76048" lon="0.75648">
        <ele>148.3</ele>
        <time>2022-12-04T07:30:24Z</time>
      </trkpt>
      <trkpt lat="44.76066" lon="0.75647">
        <ele>147</ele>
        <time>2022-12-04T07:30:27Z</time>
      </trkpt>
      <trkpt lat="44.76072" lon="0.75648">
        <ele>146.5</ele>
        <time>2022-12-04T07:30:28Z</time>
      </trkpt>
      <trkpt lat="44.76097" lon="0.75655">
        <ele>144.5</ele>
        <time>2022-12-04T07:30:32Z</time>
      </trkpt>
      <trkpt lat="44.76128" lon="0.75666">
        <ele>142.8</ele>
        <time>2022-12-04T07:30:37Z</time>
      </trkpt>
      <trkpt lat="44.76141" lon="0.75671">
        <ele>142.7</ele>
        <time>2022-12-04T07:30:39Z</time>
      </trkpt>
      <trkpt lat="44.76151" lon="0.75673">
        <ele>142.7</ele>
        <time>2022-12-04T07:30:41Z</time>
      </trkpt>
      <trkpt lat="44.76163" lon="0.75678">
        <ele>142.3</ele>
        <time>2022-12-04T07:30:44Z</time>
      </trkpt>
      <trkpt lat="44.76177" lon="0.75675">
        <ele>141.3</ele>
        <time>2022-12-04T07:30:47Z</time>
      </trkpt>
      <trkpt lat="44.76188" lon="0.75673">
        <ele>140.4</ele>
        <time>2022-12-04T07:30:49Z</time>
      </trkpt>
      <trkpt lat="44.7622" lon="0.75668">
        <ele>138.1</ele>
        <time>2022-12-04T07:30:54Z</time>
      </trkpt>
      <trkpt lat="44.76226" lon="0.75666">
        <ele>138</ele>
        <time>2022-12-04T07:30:55Z</time>
      </trkpt>
      <trkpt lat="44.76244" lon="0.75659">
        <ele>137.1</ele>
        <time>2022-12-04T07:30:58Z</time>
      </trkpt>
      <trkpt lat="44.76249" lon="0.75656">
        <ele>136.4</ele>
        <time>2022-12-04T07:30:59Z</time>
      </trkpt>
      <trkpt lat="44.76267" lon="0.75646">
        <ele>133.4</ele>
        <time>2022-12-04T07:31:02Z</time>
      </trkpt>
      <trkpt lat="44.76274" lon="0.75642">
        <ele>132.4</ele>
        <time>2022-12-04T07:31:03Z</time>
      </trkpt>
      <trkpt lat="44.76287" lon="0.75635">
        <ele>130.8</ele>
        <time>2022-12-04T07:31:05Z</time>
      </trkpt>
      <trkpt lat="44.76317" lon="0.75639">
        <ele>128.5</ele>
        <time>2022-12-04T07:31:09Z</time>
      </trkpt>
      <trkpt lat="44.76373" lon="0.75641">
        <ele>124.2</ele>
        <time>2022-12-04T07:31:16Z</time>
      </trkpt>
      <trkpt lat="44.76425" lon="0.75644">
        <ele>121.7</ele>
        <time>2022-12-04T07:31:22Z</time>
      </trkpt>
      <trkpt lat="44.76475" lon="0.75647">
        <ele>119.5</ele>
        <time>2022-12-04T07:31:28Z</time>
      </trkpt>
      <trkpt lat="44.76534" lon="0.7565">
        <ele>117.6</ele>
        <time>2022-12-04T07:31:35Z</time>
      </trkpt>
      <trkpt lat="44.76542" lon="0.7565">
        <ele>117.7</ele>
        <time>2022-12-04T07:31:36Z</time>
      </trkpt>
      <trkpt lat="44.76585" lon="0.75652">
        <ele>118.4</ele>
        <time>2022-12-04T07:31:42Z</time>
      </trkpt>
      <trkpt lat="44.76624" lon="0.75654">
        <ele>118.8</ele>
        <time>2022-12-04T07:31:48Z</time>
      </trkpt>
      <trkpt lat="44.76659" lon="0.75654">
        <ele>119.3</ele>
        <time>2022-12-04T07:31:54Z</time>
      </trkpt>
      <trkpt lat="44.76699" lon="0.75656">
        <ele>119.3</ele>
        <time>2022-12-04T07:32:01Z</time>
      </trkpt>
      <trkpt lat="44.76743" lon="0.75658">
        <ele>119.1</ele>
        <time>2022-12-04T07:32:08Z</time>
      </trkpt>
      <trkpt lat="44.76793" lon="0.75655">
        <ele>117.7</ele>
        <time>2022-12-04T07:32:16Z</time>
      </trkpt>
      <trkpt lat="44.76849" lon="0.75651">
        <ele>113.7</ele>
        <time>2022-12-04T07:32:24Z</time>
      </trkpt>
      <trkpt lat="44.76856" lon="0.7565">
        <ele>113.2</ele>
        <time>2022-12-04T07:32:25Z</time>
      </trkpt>
      <trkpt lat="44.76884" lon="0.75646">
        <ele>111.4</ele>
        <time>2022-12-04T07:32:30Z</time>
      </trkpt>
      <trkpt lat="44.7689" lon="0.75646">
        <ele>111.1</ele>
        <time>2022-12-04T07:32:32Z</time>
      </trkpt>
      <trkpt lat="44.76892" lon="0.75647">
        <ele>110.8</ele>
        <time>2022-12-04T07:32:33Z</time>
      </trkpt>
      <trkpt lat="44.76894" lon="0.75646">
        <ele>110.8</ele>
        <time>2022-12-04T07:32:34Z</time>
      </trkpt>
      <trkpt lat="44.76895" lon="0.75641">
        <ele>110.9</ele>
        <time>2022-12-04T07:32:36Z</time>
      </trkpt>
      <trkpt lat="44.76892" lon="0.7564">
        <ele>110.9</ele>
        <time>2022-12-04T07:32:39Z</time>
      </trkpt>
      <trkpt lat="44.76891" lon="0.75642">
        <ele>110.9</ele>
        <time>2022-12-04T07:32:40Z</time>
      </trkpt>
      <trkpt lat="44.76892" lon="0.75646">
        <ele>111</ele>
        <time>2022-12-04T07:32:43Z</time>
      </trkpt>
      <trkpt lat="44.76896" lon="0.75658">
        <ele>111</ele>
        <time>2022-12-04T07:32:46Z</time>
      </trkpt>
      <trkpt lat="44.76895" lon="0.75685">
        <ele>110.3</ele>
        <time>2022-12-04T07:32:51Z</time>
      </trkpt>
      <trkpt lat="44.76897" lon="0.75704">
        <ele>108.8</ele>
        <time>2022-12-04T07:32:54Z</time>
      </trkpt>
      <trkpt lat="44.76899" lon="0.7572">
        <ele>107.1</ele>
        <time>2022-12-04T07:32:56Z</time>
      </trkpt>
      <trkpt lat="44.76901" lon="0.75741">
        <ele>104.6</ele>
        <time>2022-12-04T07:32:58Z</time>
      </trkpt>
      <trkpt lat="44.76903" lon="0.75755">
        <ele>103</ele>
        <time>2022-12-04T07:32:59Z</time>
      </trkpt>
      <trkpt lat="44.76914" lon="0.75818">
        <ele>95.6</ele>
        <time>2022-12-04T07:33:03Z</time>
      </trkpt>
      <trkpt lat="44.76923" lon="0.75877">
        <ele>88.1</ele>
        <time>2022-12-04T07:33:07Z</time>
      </trkpt>
      <trkpt lat="44.76931" lon="0.75927">
        <ele>84.4</ele>
        <time>2022-12-04T07:33:10Z</time>
      </trkpt>
      <trkpt lat="44.76933" lon="0.75963">
        <ele>83.7</ele>
        <time>2022-12-04T07:33:12Z</time>
      </trkpt>
      <trkpt lat="44.76932" lon="0.75979">
        <ele>83.7</ele>
        <time>2022-12-04T07:33:13Z</time>
      </trkpt>
      <trkpt lat="44.76928" lon="0.76021">
        <ele>83.3</ele>
        <time>2022-12-04T07:33:16Z</time>
      </trkpt>
      <trkpt lat="44.76928" lon="0.76034">
        <ele>83.4</ele>
        <time>2022-12-04T07:33:17Z</time>
      </trkpt>
      <trkpt lat="44.76927" lon="0.76064">
        <ele>84</ele>
        <time>2022-12-04T07:33:20Z</time>
      </trkpt>
      <trkpt lat="44.76928" lon="0.76072">
        <ele>84.5</ele>
        <time>2022-12-04T07:33:21Z</time>
      </trkpt>
      <trkpt lat="44.76929" lon="0.76088">
        <ele>85.4</ele>
        <time>2022-12-04T07:33:23Z</time>
      </trkpt>
      <trkpt lat="44.76929" lon="0.76103">
        <ele>86.2</ele>
        <time>2022-12-04T07:33:25Z</time>
      </trkpt>
      <trkpt lat="44.76929" lon="0.7611">
        <ele>86.6</ele>
        <time>2022-12-04T07:33:26Z</time>
      </trkpt>
      <trkpt lat="44.7693" lon="0.76134">
        <ele>88.2</ele>
        <time>2022-12-04T07:33:30Z</time>
      </trkpt>
      <trkpt lat="44.76931" lon="0.76145">
        <ele>89</ele>
        <time>2022-12-04T07:33:32Z</time>
      </trkpt>
      <trkpt lat="44.76931" lon="0.76176">
        <ele>91.3</ele>
        <time>2022-12-04T07:33:39Z</time>
      </trkpt>
      <trkpt lat="44.76931" lon="0.76195">
        <ele>92.8</ele>
        <time>2022-12-04T07:33:45Z</time>
      </trkpt>
      <trkpt lat="44.76931" lon="0.76212">
        <ele>94</ele>
        <time>2022-12-04T07:33:51Z</time>
      </trkpt>
      <trkpt lat="44.76932" lon="0.76234">
        <ele>95.7</ele>
        <time>2022-12-04T07:33:58Z</time>
      </trkpt>
      <trkpt lat="44.76931" lon="0.76258">
        <ele>97.6</ele>
        <time>2022-12-04T07:34:04Z</time>
      </trkpt>
      <trkpt lat="44.76929" lon="0.76277">
        <ele>99.1</ele>
        <time>2022-12-04T07:34:09Z</time>
      </trkpt>
      <trkpt lat="44.76929" lon="0.76294">
        <ele>100.6</ele>
        <time>2022-12-04T07:34:14Z</time>
      </trkpt>
      <trkpt lat="44.76925" lon="0.76308">
        <ele>101.9</ele>
        <time>2022-12-04T07:34:19Z</time>
      </trkpt>
      <trkpt lat="44.76924" lon="0.76331">
        <ele>103.8</ele>
        <time>2022-12-04T07:34:26Z</time>
      </trkpt>
      <trkpt lat="44.76924" lon="0.76333">
        <ele>104</ele>
        <time>2022-12-04T07:34:27Z</time>
      </trkpt>
      <trkpt lat="44.76921" lon="0.76341">
        <ele>104.7</ele>
        <time>2022-12-04T07:34:30Z</time>
      </trkpt>
      <trkpt lat="44.7692" lon="0.76357">
        <ele>106.1</ele>
        <time>2022-12-04T07:34:36Z</time>
      </trkpt>
      <trkpt lat="44.76918" lon="0.76375">
        <ele>107.6</ele>
        <time>2022-12-04T07:34:43Z</time>
      </trkpt>
      <trkpt lat="44.76915" lon="0.76391">
        <ele>109.2</ele>
        <time>2022-12-04T07:34:49Z</time>
      </trkpt>
      <trkpt lat="44.76913" lon="0.76409">
        <ele>111</ele>
        <time>2022-12-04T07:34:56Z</time>
      </trkpt>
      <trkpt lat="44.76913" lon="0.7643">
        <ele>113.1</ele>
        <time>2022-12-04T07:35:04Z</time>
      </trkpt>
      <trkpt lat="44.76911" lon="0.76446">
        <ele>114.6</ele>
        <time>2022-12-04T07:35:10Z</time>
      </trkpt>
      <trkpt lat="44.76908" lon="0.76465">
        <ele>116.3</ele>
        <time>2022-12-04T07:35:17Z</time>
      </trkpt>
      <trkpt lat="44.76908" lon="0.76482">
        <ele>118</ele>
        <time>2022-12-04T07:35:24Z</time>
      </trkpt>
      <trkpt lat="44.76907" lon="0.76498">
        <ele>119.6</ele>
        <time>2022-12-04T07:35:31Z</time>
      </trkpt>
      <trkpt lat="44.76906" lon="0.765">
        <ele>119.9</ele>
        <time>2022-12-04T07:35:32Z</time>
      </trkpt>
      <trkpt lat="44.76905" lon="0.76509">
        <ele>120.8</ele>
        <time>2022-12-04T07:35:36Z</time>
      </trkpt>
      <trkpt lat="44.76904" lon="0.76529">
        <ele>122.7</ele>
        <time>2022-12-04T07:35:44Z</time>
      </trkpt>
      <trkpt lat="44.76902" lon="0.76544">
        <ele>124</ele>
        <time>2022-12-04T07:35:50Z</time>
      </trkpt>
      <trkpt lat="44.769" lon="0.76561">
        <ele>125.6</ele>
        <time>2022-12-04T07:35:58Z</time>
      </trkpt>
      <trkpt lat="44.76901" lon="0.76576">
        <ele>127</ele>
        <time>2022-12-04T07:36:04Z</time>
      </trkpt>
      <trkpt lat="44.769" lon="0.76582">
        <ele>127.6</ele>
        <time>2022-12-04T07:36:07Z</time>
      </trkpt>
      <trkpt lat="44.76899" lon="0.76588">
        <ele>128.2</ele>
        <time>2022-12-04T07:36:10Z</time>
      </trkpt>
      <trkpt lat="44.76899" lon="0.76603">
        <ele>129.5</ele>
        <time>2022-12-04T07:36:16Z</time>
      </trkpt>
      <trkpt lat="44.76897" lon="0.76613">
        <ele>130.4</ele>
        <time>2022-12-04T07:36:21Z</time>
      </trkpt>
      <trkpt lat="44.76897" lon="0.76617">
        <ele>130.7</ele>
        <time>2022-12-04T07:36:23Z</time>
      </trkpt>
      <trkpt lat="44.76898" lon="0.76624">
        <ele>131.3</ele>
        <time>2022-12-04T07:36:26Z</time>
      </trkpt>
      <trkpt lat="44.76896" lon="0.76636">
        <ele>132.3</ele>
        <time>2022-12-04T07:36:32Z</time>
      </trkpt>
      <trkpt lat="44.76897" lon="0.76645">
        <ele>132.9</ele>
        <time>2022-12-04T07:36:38Z</time>
      </trkpt>
      <trkpt lat="44.76897" lon="0.76646">
        <ele>132.9</ele>
        <time>2022-12-04T07:36:39Z</time>
      </trkpt>
      <trkpt lat="44.76898" lon="0.76656">
        <ele>132.2</ele>
        <time>2022-12-04T07:36:46Z</time>
      </trkpt>
      <trkpt lat="44.76899" lon="0.76661">
        <ele>132</ele>
        <time>2022-12-04T07:36:48Z</time>
      </trkpt>
      <trkpt lat="44.769" lon="0.76664">
        <ele>132.1</ele>
        <time>2022-12-04T07:36:49Z</time>
      </trkpt>
      <trkpt lat="44.76898" lon="0.76675">
        <ele>132.8</ele>
        <time>2022-12-04T07:36:54Z</time>
      </trkpt>
      <trkpt lat="44.76899" lon="0.76681">
        <ele>133.1</ele>
        <time>2022-12-04T07:36:58Z</time>
      </trkpt>
      <trkpt lat="44.76892" lon="0.76684">
        <ele>133.2</ele>
        <time>2022-12-04T07:37:13Z</time>
      </trkpt>
      <trkpt lat="44.76885" lon="0.76686">
        <ele>133.2</ele>
        <time>2022-12-04T07:37:18Z</time>
      </trkpt>
      <trkpt lat="44.76874" lon="0.76687">
        <ele>133.2</ele>
        <time>2022-12-04T07:37:23Z</time>
      </trkpt>
      <trkpt lat="44.76872" lon="0.76686">
        <ele>133.2</ele>
        <time>2022-12-04T07:37:24Z</time>
      </trkpt>
      <trkpt lat="44.76872" lon="0.76684">
        <ele>133.2</ele>
        <time>2022-12-04T07:37:27Z</time>
      </trkpt>
      <trkpt lat="44.76882" lon="0.76683">
        <ele>133.2</ele>
        <time>2022-12-04T07:37:32Z</time>
      </trkpt>
      <trkpt lat="44.76897" lon="0.7668">
        <ele>133.4</ele>
        <time>2022-12-04T07:37:38Z</time>
      </trkpt>
      <trkpt lat="44.76911" lon="0.76672">
        <ele>134.6</ele>
        <time>2022-12-04T07:37:43Z</time>
      </trkpt>
      <trkpt lat="44.76928" lon="0.76663">
        <ele>136.1</ele>
        <time>2022-12-04T07:37:49Z</time>
      </trkpt>
      <trkpt lat="44.76955" lon="0.76652">
        <ele>138</ele>
        <time>2022-12-04T07:37:56Z</time>
      </trkpt>
      <trkpt lat="44.76975" lon="0.76646">
        <ele>139.2</ele>
        <time>2022-12-04T07:38:02Z</time>
      </trkpt>
      <trkpt lat="44.76978" lon="0.76647">
        <ele>139.4</ele>
        <time>2022-12-04T07:38:03Z</time>
      </trkpt>
      <trkpt lat="44.76983" lon="0.76653">
        <ele>139.7</ele>
        <time>2022-12-04T07:38:05Z</time>
      </trkpt>
      <trkpt lat="44.76984" lon="0.76673">
        <ele>141.6</ele>
        <time>2022-12-04T07:38:10Z</time>
      </trkpt>
      <trkpt lat="44.76984" lon="0.76676">
        <ele>141.6</ele>
        <time>2022-12-04T07:38:11Z</time>
      </trkpt>
      <trkpt lat="44.76978" lon="0.7668">
        <ele>141.6</ele>
        <time>2022-12-04T07:38:13Z</time>
      </trkpt>
      <trkpt lat="44.76957" lon="0.76687">
        <ele>141.6</ele>
        <time>2022-12-04T07:38:19Z</time>
      </trkpt>
      <trkpt lat="44.7693" lon="0.76698">
        <ele>141.2</ele>
        <time>2022-12-04T07:38:27Z</time>
      </trkpt>
      <trkpt lat="44.76903" lon="0.76709">
        <ele>141.1</ele>
        <time>2022-12-04T07:38:34Z</time>
      </trkpt>
      <trkpt lat="44.76893" lon="0.76716">
        <ele>141.1</ele>
        <time>2022-12-04T07:38:38Z</time>
      </trkpt>
      <trkpt lat="44.7689" lon="0.76723">
        <ele>141.2</ele>
        <time>2022-12-04T07:38:40Z</time>
      </trkpt>
      <trkpt lat="44.76889" lon="0.76733">
        <ele>141.4</ele>
        <time>2022-12-04T07:38:42Z</time>
      </trkpt>
      <trkpt lat="44.76892" lon="0.76741">
        <ele>141.5</ele>
        <time>2022-12-04T07:38:44Z</time>
      </trkpt>
      <trkpt lat="44.76894" lon="0.76744">
        <ele>141.6</ele>
        <time>2022-12-04T07:38:45Z</time>
      </trkpt>
      <trkpt lat="44.76901" lon="0.76759">
        <ele>141.9</ele>
        <time>2022-12-04T07:38:49Z</time>
      </trkpt>
      <trkpt lat="44.76903" lon="0.76762">
        <ele>142</ele>
        <time>2022-12-04T07:38:50Z</time>
      </trkpt>
      <trkpt lat="44.76907" lon="0.76779">
        <ele>140.5</ele>
        <time>2022-12-04T07:38:54Z</time>
      </trkpt>
      <trkpt lat="44.76909" lon="0.76799">
        <ele>138.5</ele>
        <time>2022-12-04T07:38:57Z</time>
      </trkpt>
      <trkpt lat="44.76909" lon="0.76813">
        <ele>137.5</ele>
        <time>2022-12-04T07:38:59Z</time>
      </trkpt>
      <trkpt lat="44.7691" lon="0.76829">
        <ele>136.4</ele>
        <time>2022-12-04T07:39:01Z</time>
      </trkpt>
      <trkpt lat="44.76911" lon="0.76849">
        <ele>135.3</ele>
        <time>2022-12-04T07:39:04Z</time>
      </trkpt>
      <trkpt lat="44.7691" lon="0.76853">
        <ele>134.9</ele>
        <time>2022-12-04T07:39:07Z</time>
      </trkpt>
      <trkpt lat="44.76908" lon="0.76857">
        <ele>134.9</ele>
        <time>2022-12-04T07:39:09Z</time>
      </trkpt>
      <trkpt lat="44.76909" lon="0.7686">
        <ele>134.6</ele>
        <time>2022-12-04T07:39:10Z</time>
      </trkpt>
      <trkpt lat="44.76913" lon="0.76874">
        <ele>133.4</ele>
        <time>2022-12-04T07:39:13Z</time>
      </trkpt>
      <trkpt lat="44.76913" lon="0.76882">
        <ele>132.8</ele>
        <time>2022-12-04T07:39:14Z</time>
      </trkpt>
      <trkpt lat="44.76909" lon="0.76921">
        <ele>130.4</ele>
        <time>2022-12-04T07:39:18Z</time>
      </trkpt>
      <trkpt lat="44.76905" lon="0.7699">
        <ele>126.3</ele>
        <time>2022-12-04T07:39:24Z</time>
      </trkpt>
      <trkpt lat="44.76902" lon="0.77024">
        <ele>125.8</ele>
        <time>2022-12-04T07:39:27Z</time>
      </trkpt>
      <trkpt lat="44.769" lon="0.77034">
        <ele>125.8</ele>
        <time>2022-12-04T07:39:28Z</time>
      </trkpt>
      <trkpt lat="44.76897" lon="0.77042">
        <ele>126</ele>
        <time>2022-12-04T07:39:29Z</time>
      </trkpt>
      <trkpt lat="44.76889" lon="0.77062">
        <ele>126.8</ele>
        <time>2022-12-04T07:39:32Z</time>
      </trkpt>
      <trkpt lat="44.76886" lon="0.77067">
        <ele>127.2</ele>
        <time>2022-12-04T07:39:33Z</time>
      </trkpt>
      <trkpt lat="44.7688" lon="0.77073">
        <ele>128.1</ele>
        <time>2022-12-04T07:39:35Z</time>
      </trkpt>
      <trkpt lat="44.76875" lon="0.77079">
        <ele>128.4</ele>
        <time>2022-12-04T07:39:37Z</time>
      </trkpt>
      <trkpt lat="44.76872" lon="0.77089">
        <ele>128.8</ele>
        <time>2022-12-04T07:39:39Z</time>
      </trkpt>
      <trkpt lat="44.76865" lon="0.77112">
        <ele>130</ele>
        <time>2022-12-04T07:39:44Z</time>
      </trkpt>
      <trkpt lat="44.76857" lon="0.77138">
        <ele>131.2</ele>
        <time>2022-12-04T07:39:49Z</time>
      </trkpt>
      <trkpt lat="44.76846" lon="0.77179">
        <ele>133.3</ele>
        <time>2022-12-04T07:39:57Z</time>
      </trkpt>
      <trkpt lat="44.76838" lon="0.7721">
        <ele>134.1</ele>
        <time>2022-12-04T07:40:04Z</time>
      </trkpt>
      <trkpt lat="44.7683" lon="0.77243">
        <ele>133.6</ele>
        <time>2022-12-04T07:40:11Z</time>
      </trkpt>
      <trkpt lat="44.7682" lon="0.77282">
        <ele>132.6</ele>
        <time>2022-12-04T07:40:17Z</time>
      </trkpt>
      <trkpt lat="44.76814" lon="0.77326">
        <ele>130</ele>
        <time>2022-12-04T07:40:22Z</time>
      </trkpt>
      <trkpt lat="44.76806" lon="0.77366">
        <ele>127.5</ele>
        <time>2022-12-04T07:40:26Z</time>
      </trkpt>
      <trkpt lat="44.76791" lon="0.77408">
        <ele>122.9</ele>
        <time>2022-12-04T07:40:31Z</time>
      </trkpt>
      <trkpt lat="44.76789" lon="0.77416">
        <ele>121.6</ele>
        <time>2022-12-04T07:40:32Z</time>
      </trkpt>
      <trkpt lat="44.76788" lon="0.77439">
        <ele>118.2</ele>
        <time>2022-12-04T07:40:34Z</time>
      </trkpt>
      <trkpt lat="44.76797" lon="0.77492">
        <ele>112</ele>
        <time>2022-12-04T07:40:38Z</time>
      </trkpt>
      <trkpt lat="44.7681" lon="0.77547">
        <ele>110.5</ele>
        <time>2022-12-04T07:40:42Z</time>
      </trkpt>
      <trkpt lat="44.76814" lon="0.77571">
        <ele>110.8</ele>
        <time>2022-12-04T07:40:44Z</time>
      </trkpt>
      <trkpt lat="44.76817" lon="0.77581">
        <ele>111.3</ele>
        <time>2022-12-04T07:40:45Z</time>
      </trkpt>
      <trkpt lat="44.76821" lon="0.77589">
        <ele>111.9</ele>
        <time>2022-12-04T07:40:46Z</time>
      </trkpt>
      <trkpt lat="44.76831" lon="0.77601">
        <ele>113.5</ele>
        <time>2022-12-04T07:40:48Z</time>
      </trkpt>
      <trkpt lat="44.76837" lon="0.77613">
        <ele>115.1</ele>
        <time>2022-12-04T07:40:50Z</time>
      </trkpt>
      <trkpt lat="44.7684" lon="0.77622">
        <ele>116.4</ele>
        <time>2022-12-04T07:40:52Z</time>
      </trkpt>
      <trkpt lat="44.76844" lon="0.77641">
        <ele>118.9</ele>
        <time>2022-12-04T07:40:57Z</time>
      </trkpt>
      <trkpt lat="44.76845" lon="0.77667">
        <ele>122.1</ele>
        <time>2022-12-04T07:41:04Z</time>
      </trkpt>
      <trkpt lat="44.76844" lon="0.77687">
        <ele>124.4</ele>
        <time>2022-12-04T07:41:11Z</time>
      </trkpt>
      <trkpt lat="44.76847" lon="0.77698">
        <ele>125.5</ele>
        <time>2022-12-04T07:41:15Z</time>
      </trkpt>
      <trkpt lat="44.76847" lon="0.77701">
        <ele>125.8</ele>
        <time>2022-12-04T07:41:16Z</time>
      </trkpt>
      <trkpt lat="44.76849" lon="0.7772">
        <ele>127.4</ele>
        <time>2022-12-04T07:41:22Z</time>
      </trkpt>
      <trkpt lat="44.76851" lon="0.77739">
        <ele>128.6</ele>
        <time>2022-12-04T07:41:27Z</time>
      </trkpt>
      <trkpt lat="44.76853" lon="0.77759">
        <ele>129.5</ele>
        <time>2022-12-04T07:41:32Z</time>
      </trkpt>
      <trkpt lat="44.76857" lon="0.77783">
        <ele>130.5</ele>
        <time>2022-12-04T07:41:38Z</time>
      </trkpt>
      <trkpt lat="44.76863" lon="0.77817">
        <ele>131.5</ele>
        <time>2022-12-04T07:41:46Z</time>
      </trkpt>
      <trkpt lat="44.76865" lon="0.77844">
        <ele>132.4</ele>
        <time>2022-12-04T07:41:52Z</time>
      </trkpt>
      <trkpt lat="44.76867" lon="0.77883">
        <ele>133.6</ele>
        <time>2022-12-04T07:42:00Z</time>
      </trkpt>
      <trkpt lat="44.76868" lon="0.77916">
        <ele>134.5</ele>
        <time>2022-12-04T07:42:07Z</time>
      </trkpt>
      <trkpt lat="44.76866" lon="0.77957">
        <ele>134.9</ele>
        <time>2022-12-04T07:42:15Z</time>
      </trkpt>
      <trkpt lat="44.76865" lon="0.78001">
        <ele>135.5</ele>
        <time>2022-12-04T07:42:23Z</time>
      </trkpt>
      <trkpt lat="44.76866" lon="0.78032">
        <ele>136.3</ele>
        <time>2022-12-04T07:42:29Z</time>
      </trkpt>
      <trkpt lat="44.76868" lon="0.78081">
        <ele>137.2</ele>
        <time>2022-12-04T07:42:38Z</time>
      </trkpt>
      <trkpt lat="44.76868" lon="0.78087">
        <ele>137.3</ele>
        <time>2022-12-04T07:42:39Z</time>
      </trkpt>
      <trkpt lat="44.76873" lon="0.78132">
        <ele>137.8</ele>
        <time>2022-12-04T07:42:47Z</time>
      </trkpt>
      <trkpt lat="44.76874" lon="0.78161">
        <ele>138.5</ele>
        <time>2022-12-04T07:42:52Z</time>
      </trkpt>
      <trkpt lat="44.76873" lon="0.78172">
        <ele>138.8</ele>
        <time>2022-12-04T07:42:54Z</time>
      </trkpt>
      <trkpt lat="44.7687" lon="0.78216">
        <ele>140.5</ele>
        <time>2022-12-04T07:43:02Z</time>
      </trkpt>
      <trkpt lat="44.76865" lon="0.78247">
        <ele>142</ele>
        <time>2022-12-04T07:43:09Z</time>
      </trkpt>
      <trkpt lat="44.76857" lon="0.78275">
        <ele>141.5</ele>
        <time>2022-12-04T07:43:15Z</time>
      </trkpt>
      <trkpt lat="44.76847" lon="0.78311">
        <ele>140.1</ele>
        <time>2022-12-04T07:43:20Z</time>
      </trkpt>
      <trkpt lat="44.76835" lon="0.78356">
        <ele>138</ele>
        <time>2022-12-04T07:43:26Z</time>
      </trkpt>
      <trkpt lat="44.76831" lon="0.78372">
        <ele>137.2</ele>
        <time>2022-12-04T07:43:28Z</time>
      </trkpt>
      <trkpt lat="44.76824" lon="0.78396">
        <ele>136.1</ele>
        <time>2022-12-04T07:43:31Z</time>
      </trkpt>
      <trkpt lat="44.76823" lon="0.78404">
        <ele>135.8</ele>
        <time>2022-12-04T07:43:32Z</time>
      </trkpt>
      <trkpt lat="44.76816" lon="0.78437">
        <ele>134.4</ele>
        <time>2022-12-04T07:43:36Z</time>
      </trkpt>
      <trkpt lat="44.76808" lon="0.78489">
        <ele>132.5</ele>
        <time>2022-12-04T07:43:42Z</time>
      </trkpt>
      <trkpt lat="44.76807" lon="0.78514">
        <ele>131.9</ele>
        <time>2022-12-04T07:43:45Z</time>
      </trkpt>
      <trkpt lat="44.76808" lon="0.78529">
        <ele>132.1</ele>
        <time>2022-12-04T07:43:47Z</time>
      </trkpt>
      <trkpt lat="44.76811" lon="0.78551">
        <ele>132.4</ele>
        <time>2022-12-04T07:43:50Z</time>
      </trkpt>
      <trkpt lat="44.76813" lon="0.78571">
        <ele>132.9</ele>
        <time>2022-12-04T07:43:53Z</time>
      </trkpt>
      <trkpt lat="44.76816" lon="0.78597">
        <ele>133.6</ele>
        <time>2022-12-04T07:43:57Z</time>
      </trkpt>
      <trkpt lat="44.7682" lon="0.78616">
        <ele>134.1</ele>
        <time>2022-12-04T07:44:00Z</time>
      </trkpt>
      <trkpt lat="44.76826" lon="0.78641">
        <ele>135.1</ele>
        <time>2022-12-04T07:44:04Z</time>
      </trkpt>
      <trkpt lat="44.76829" lon="0.78645">
        <ele>135.4</ele>
        <time>2022-12-04T07:44:05Z</time>
      </trkpt>
      <trkpt lat="44.76842" lon="0.78657">
        <ele>137.1</ele>
        <time>2022-12-04T07:44:10Z</time>
      </trkpt>
      <trkpt lat="44.76853" lon="0.78667">
        <ele>138.8</ele>
        <time>2022-12-04T07:44:16Z</time>
      </trkpt>
      <trkpt lat="44.76857" lon="0.78685">
        <ele>140.3</ele>
        <time>2022-12-04T07:44:22Z</time>
      </trkpt>
      <trkpt lat="44.76859" lon="0.78711">
        <ele>141.4</ele>
        <time>2022-12-04T07:44:29Z</time>
      </trkpt>
      <trkpt lat="44.76857" lon="0.78736">
        <ele>142.2</ele>
        <time>2022-12-04T07:44:35Z</time>
      </trkpt>
      <trkpt lat="44.76856" lon="0.78766">
        <ele>142.8</ele>
        <time>2022-12-04T07:44:42Z</time>
      </trkpt>
      <trkpt lat="44.76855" lon="0.78791">
        <ele>142.7</ele>
        <time>2022-12-04T07:44:47Z</time>
      </trkpt>
      <trkpt lat="44.76852" lon="0.78817">
        <ele>142.3</ele>
        <time>2022-12-04T07:44:52Z</time>
      </trkpt>
      <trkpt lat="44.76852" lon="0.78844">
        <ele>141.8</ele>
        <time>2022-12-04T07:44:57Z</time>
      </trkpt>
      <trkpt lat="44.76852" lon="0.78863">
        <ele>141.2</ele>
        <time>2022-12-04T07:45:00Z</time>
      </trkpt>
      <trkpt lat="44.76849" lon="0.78875">
        <ele>140.7</ele>
        <time>2022-12-04T07:45:02Z</time>
      </trkpt>
      <trkpt lat="44.76837" lon="0.78899">
        <ele>139.6</ele>
        <time>2022-12-04T07:45:06Z</time>
      </trkpt>
      <trkpt lat="44.76836" lon="0.78905">
        <ele>139.2</ele>
        <time>2022-12-04T07:45:07Z</time>
      </trkpt>
      <trkpt lat="44.76836" lon="0.78913">
        <ele>138.7</ele>
        <time>2022-12-04T07:45:08Z</time>
      </trkpt>
      <trkpt lat="44.76838" lon="0.78932">
        <ele>137.8</ele>
        <time>2022-12-04T07:45:10Z</time>
      </trkpt>
      <trkpt lat="44.76839" lon="0.78961">
        <ele>137.1</ele>
        <time>2022-12-04T07:45:13Z</time>
      </trkpt>
      <trkpt lat="44.7684" lon="0.78978">
        <ele>137</ele>
        <time>2022-12-04T07:45:15Z</time>
      </trkpt>
      <trkpt lat="44.76843" lon="0.79007">
        <ele>136.9</ele>
        <time>2022-12-04T07:45:19Z</time>
      </trkpt>
      <trkpt lat="44.76843" lon="0.7902">
        <ele>136.8</ele>
        <time>2022-12-04T07:45:21Z</time>
      </trkpt>
      <trkpt lat="44.76835" lon="0.79032">
        <ele>135.6</ele>
        <time>2022-12-04T07:45:24Z</time>
      </trkpt>
      <trkpt lat="44.76812" lon="0.79059">
        <ele>131.1</ele>
        <time>2022-12-04T07:45:29Z</time>
      </trkpt>
      <trkpt lat="44.76796" lon="0.79078">
        <ele>127.6</ele>
        <time>2022-12-04T07:45:32Z</time>
      </trkpt>
      <trkpt lat="44.76791" lon="0.79084">
        <ele>126.4</ele>
        <time>2022-12-04T07:45:33Z</time>
      </trkpt>
      <trkpt lat="44.76787" lon="0.79092">
        <ele>125</ele>
        <time>2022-12-04T07:45:34Z</time>
      </trkpt>
      <trkpt lat="44.76782" lon="0.79111">
        <ele>122.1</ele>
        <time>2022-12-04T07:45:36Z</time>
      </trkpt>
      <trkpt lat="44.76781" lon="0.79121">
        <ele>120.7</ele>
        <time>2022-12-04T07:45:37Z</time>
      </trkpt>
      <trkpt lat="44.76781" lon="0.79143">
        <ele>117.7</ele>
        <time>2022-12-04T07:45:39Z</time>
      </trkpt>
      <trkpt lat="44.76779" lon="0.79175">
        <ele>114.3</ele>
        <time>2022-12-04T07:45:42Z</time>
      </trkpt>
      <trkpt lat="44.76781" lon="0.79193">
        <ele>112.2</ele>
        <time>2022-12-04T07:45:44Z</time>
      </trkpt>
      <trkpt lat="44.76783" lon="0.79201">
        <ele>111.1</ele>
        <time>2022-12-04T07:45:45Z</time>
      </trkpt>
      <trkpt lat="44.7679" lon="0.79239">
        <ele>106.2</ele>
        <time>2022-12-04T07:45:50Z</time>
      </trkpt>
      <trkpt lat="44.76792" lon="0.79245">
        <ele>105.3</ele>
        <time>2022-12-04T07:45:51Z</time>
      </trkpt>
      <trkpt lat="44.76794" lon="0.79259">
        <ele>103.5</ele>
        <time>2022-12-04T07:45:53Z</time>
      </trkpt>
      <trkpt lat="44.76794" lon="0.79267">
        <ele>102.4</ele>
        <time>2022-12-04T07:45:54Z</time>
      </trkpt>
      <trkpt lat="44.76792" lon="0.79276">
        <ele>101.4</ele>
        <time>2022-12-04T07:45:55Z</time>
      </trkpt>
      <trkpt lat="44.76786" lon="0.79295">
        <ele>99.6</ele>
        <time>2022-12-04T07:45:58Z</time>
      </trkpt>
      <trkpt lat="44.76782" lon="0.79302">
        <ele>98.8</ele>
        <time>2022-12-04T07:46:00Z</time>
      </trkpt>
      <trkpt lat="44.7678" lon="0.79304">
        <ele>98.6</ele>
        <time>2022-12-04T07:46:01Z</time>
      </trkpt>
      <trkpt lat="44.76778" lon="0.79306">
        <ele>97.7</ele>
        <time>2022-12-04T07:46:02Z</time>
      </trkpt>
      <trkpt lat="44.76773" lon="0.79312">
        <ele>97</ele>
        <time>2022-12-04T07:46:05Z</time>
      </trkpt>
      <trkpt lat="44.76759" lon="0.79312">
        <ele>95.5</ele>
        <time>2022-12-04T07:46:08Z</time>
      </trkpt>
      <trkpt lat="44.76753" lon="0.79312">
        <ele>95.1</ele>
        <time>2022-12-04T07:46:09Z</time>
      </trkpt>
      <trkpt lat="44.76712" lon="0.7931">
        <ele>94.1</ele>
        <time>2022-12-04T07:46:16Z</time>
      </trkpt>
      <trkpt lat="44.76708" lon="0.79316">
        <ele>94.1</ele>
        <time>2022-12-04T07:46:18Z</time>
      </trkpt>
      <trkpt lat="44.76707" lon="0.7932">
        <ele>94.1</ele>
        <time>2022-12-04T07:46:19Z</time>
      </trkpt>
      <trkpt lat="44.76708" lon="0.79344">
        <ele>94.1</ele>
        <time>2022-12-04T07:46:24Z</time>
      </trkpt>
      <trkpt lat="44.76709" lon="0.79354">
        <ele>94.2</ele>
        <time>2022-12-04T07:46:27Z</time>
      </trkpt>
      <trkpt lat="44.7671" lon="0.79355">
        <ele>94.1</ele>
        <time>2022-12-04T07:46:28Z</time>
      </trkpt>
      <trkpt lat="44.76711" lon="0.79356">
        <ele>94.1</ele>
        <time>2022-12-04T07:46:29Z</time>
      </trkpt>
      <trkpt lat="44.76715" lon="0.7936">
        <ele>94</ele>
        <time>2022-12-04T07:46:32Z</time>
      </trkpt>
      <trkpt lat="44.76724" lon="0.79371">
        <ele>93.8</ele>
        <time>2022-12-04T07:46:36Z</time>
      </trkpt>
      <trkpt lat="44.76728" lon="0.79375">
        <ele>93.8</ele>
        <time>2022-12-04T07:46:37Z</time>
      </trkpt>
      <trkpt lat="44.76734" lon="0.79381">
        <ele>93.7</ele>
        <time>2022-12-04T07:46:39Z</time>
      </trkpt>
      <trkpt lat="44.76751" lon="0.79396">
        <ele>93.6</ele>
        <time>2022-12-04T07:46:44Z</time>
      </trkpt>
      <trkpt lat="44.76767" lon="0.79412">
        <ele>93.2</ele>
        <time>2022-12-04T07:46:48Z</time>
      </trkpt>
      <trkpt lat="44.76771" lon="0.79415">
        <ele>93.1</ele>
        <time>2022-12-04T07:46:49Z</time>
      </trkpt>
      <trkpt lat="44.76787" lon="0.7943">
        <ele>92.7</ele>
        <time>2022-12-04T07:46:53Z</time>
      </trkpt>
      <trkpt lat="44.7681" lon="0.79453">
        <ele>91.8</ele>
        <time>2022-12-04T07:46:58Z</time>
      </trkpt>
      <trkpt lat="44.76822" lon="0.79467">
        <ele>90.9</ele>
        <time>2022-12-04T07:47:01Z</time>
      </trkpt>
      <trkpt lat="44.76826" lon="0.79473">
        <ele>90.4</ele>
        <time>2022-12-04T07:47:02Z</time>
      </trkpt>
      <trkpt lat="44.76846" lon="0.795">
        <ele>88.3</ele>
        <time>2022-12-04T07:47:06Z</time>
      </trkpt>
      <trkpt lat="44.7685" lon="0.79507">
        <ele>87.9</ele>
        <time>2022-12-04T07:47:07Z</time>
      </trkpt>
      <trkpt lat="44.76871" lon="0.79549">
        <ele>86.4</ele>
        <time>2022-12-04T07:47:12Z</time>
      </trkpt>
      <trkpt lat="44.76886" lon="0.79583">
        <ele>85.8</ele>
        <time>2022-12-04T07:47:17Z</time>
      </trkpt>
      <trkpt lat="44.76904" lon="0.79612">
        <ele>85.3</ele>
        <time>2022-12-04T07:47:22Z</time>
      </trkpt>
      <trkpt lat="44.76928" lon="0.79648">
        <ele>84.7</ele>
        <time>2022-12-04T07:47:28Z</time>
      </trkpt>
      <trkpt lat="44.76935" lon="0.79661">
        <ele>84.5</ele>
        <time>2022-12-04T07:47:30Z</time>
      </trkpt>
      <trkpt lat="44.76942" lon="0.79674">
        <ele>84.4</ele>
        <time>2022-12-04T07:47:32Z</time>
      </trkpt>
      <trkpt lat="44.76945" lon="0.7968">
        <ele>84.3</ele>
        <time>2022-12-04T07:47:33Z</time>
      </trkpt>
      <trkpt lat="44.76952" lon="0.79689">
        <ele>84.1</ele>
        <time>2022-12-04T07:47:35Z</time>
      </trkpt>
      <trkpt lat="44.76957" lon="0.79691">
        <ele>83.3</ele>
        <time>2022-12-04T07:47:36Z</time>
      </trkpt>
      <trkpt lat="44.76974" lon="0.79703">
        <ele>80.7</ele>
        <time>2022-12-04T07:47:41Z</time>
      </trkpt>
      <trkpt lat="44.76986" lon="0.79715">
        <ele>80</ele>
        <time>2022-12-04T07:47:45Z</time>
      </trkpt>
      <trkpt lat="44.76997" lon="0.79736">
        <ele>77.8</ele>
        <time>2022-12-04T07:47:49Z</time>
      </trkpt>
      <trkpt lat="44.77003" lon="0.79748">
        <ele>76.5</ele>
        <time>2022-12-04T07:47:51Z</time>
      </trkpt>
      <trkpt lat="44.77005" lon="0.7976">
        <ele>76</ele>
        <time>2022-12-04T07:47:53Z</time>
      </trkpt>
      <trkpt lat="44.76995" lon="0.79772">
        <ele>76</ele>
        <time>2022-12-04T07:47:56Z</time>
      </trkpt>
      <trkpt lat="44.76991" lon="0.79775">
        <ele>76.2</ele>
        <time>2022-12-04T07:47:57Z</time>
      </trkpt>
      <trkpt lat="44.76975" lon="0.79792">
        <ele>76.6</ele>
        <time>2022-12-04T07:48:01Z</time>
      </trkpt>
      <trkpt lat="44.76948" lon="0.79823">
        <ele>77.4</ele>
        <time>2022-12-04T07:48:08Z</time>
      </trkpt>
      <trkpt lat="44.76929" lon="0.79847">
        <ele>78</ele>
        <time>2022-12-04T07:48:14Z</time>
      </trkpt>
      <trkpt lat="44.76926" lon="0.79861">
        <ele>77.5</ele>
        <time>2022-12-04T07:48:18Z</time>
      </trkpt>
      <trkpt lat="44.76928" lon="0.79866">
        <ele>77.5</ele>
        <time>2022-12-04T07:48:19Z</time>
      </trkpt>
      <trkpt lat="44.76931" lon="0.79887">
        <ele>77</ele>
        <time>2022-12-04T07:48:22Z</time>
      </trkpt>
      <trkpt lat="44.76934" lon="0.79909">
        <ele>76.8</ele>
        <time>2022-12-04T07:48:25Z</time>
      </trkpt>
      <trkpt lat="44.76936" lon="0.79929">
        <ele>76.4</ele>
        <time>2022-12-04T07:48:28Z</time>
      </trkpt>
      <trkpt lat="44.76938" lon="0.79981">
        <ele>76.1</ele>
        <time>2022-12-04T07:48:35Z</time>
      </trkpt>
      <trkpt lat="44.76941" lon="0.80021">
        <ele>76.2</ele>
        <time>2022-12-04T07:48:41Z</time>
      </trkpt>
      <trkpt lat="44.76945" lon="0.80076">
        <ele>77.1</ele>
        <time>2022-12-04T07:48:49Z</time>
      </trkpt>
      <trkpt lat="44.76946" lon="0.80095">
        <ele>78</ele>
        <time>2022-12-04T07:48:53Z</time>
      </trkpt>
      <trkpt lat="44.76949" lon="0.80113">
        <ele>78.3</ele>
        <time>2022-12-04T07:48:58Z</time>
      </trkpt>
      <trkpt lat="44.76954" lon="0.80138">
        <ele>78.3</ele>
        <time>2022-12-04T07:49:03Z</time>
      </trkpt>
      <trkpt lat="44.76962" lon="0.80161">
        <ele>78.7</ele>
        <time>2022-12-04T07:49:08Z</time>
      </trkpt>
      <trkpt lat="44.76972" lon="0.80195">
        <ele>80.2</ele>
        <time>2022-12-04T07:49:16Z</time>
      </trkpt>
      <trkpt lat="44.76974" lon="0.8021">
        <ele>80.9</ele>
        <time>2022-12-04T07:49:20Z</time>
      </trkpt>
      <trkpt lat="44.76976" lon="0.80226">
        <ele>81.8</ele>
        <time>2022-12-04T07:49:24Z</time>
      </trkpt>
      <trkpt lat="44.76976" lon="0.80252">
        <ele>83</ele>
        <time>2022-12-04T07:49:30Z</time>
      </trkpt>
      <trkpt lat="44.76975" lon="0.80258">
        <ele>83.3</ele>
        <time>2022-12-04T07:49:32Z</time>
      </trkpt>
      <trkpt lat="44.76976" lon="0.80268">
        <ele>83.7</ele>
        <time>2022-12-04T07:49:34Z</time>
      </trkpt>
      <trkpt lat="44.76979" lon="0.8029">
        <ele>84.5</ele>
        <time>2022-12-04T07:49:39Z</time>
      </trkpt>
      <trkpt lat="44.76985" lon="0.80319">
        <ele>85.4</ele>
        <time>2022-12-04T07:49:45Z</time>
      </trkpt>
      <trkpt lat="44.7699" lon="0.80346">
        <ele>86</ele>
        <time>2022-12-04T07:49:50Z</time>
      </trkpt>
      <trkpt lat="44.76993" lon="0.80363">
        <ele>86.4</ele>
        <time>2022-12-04T07:49:54Z</time>
      </trkpt>
      <trkpt lat="44.77001" lon="0.80388">
        <ele>86.9</ele>
        <time>2022-12-04T07:49:59Z</time>
      </trkpt>
      <trkpt lat="44.77007" lon="0.80408">
        <ele>87.1</ele>
        <time>2022-12-04T07:50:03Z</time>
      </trkpt>
      <trkpt lat="44.7701" lon="0.80412">
        <ele>87.2</ele>
        <time>2022-12-04T07:50:04Z</time>
      </trkpt>
      <trkpt lat="44.77015" lon="0.80431">
        <ele>87.1</ele>
        <time>2022-12-04T07:50:08Z</time>
      </trkpt>
      <trkpt lat="44.77024" lon="0.80461">
        <ele>86.6</ele>
        <time>2022-12-04T07:50:14Z</time>
      </trkpt>
      <trkpt lat="44.77036" lon="0.8049">
        <ele>86</ele>
        <time>2022-12-04T07:50:20Z</time>
      </trkpt>
      <trkpt lat="44.77044" lon="0.8053">
        <ele>84.3</ele>
        <time>2022-12-04T07:50:26Z</time>
      </trkpt>
      <trkpt lat="44.77053" lon="0.80585">
        <ele>83.2</ele>
        <time>2022-12-04T07:50:33Z</time>
      </trkpt>
      <trkpt lat="44.77062" lon="0.80625">
        <ele>83.2</ele>
        <time>2022-12-04T07:50:39Z</time>
      </trkpt>
      <trkpt lat="44.77069" lon="0.80652">
        <ele>84.5</ele>
        <time>2022-12-04T07:50:44Z</time>
      </trkpt>
      <trkpt lat="44.77068" lon="0.80669">
        <ele>85.5</ele>
        <time>2022-12-04T07:50:49Z</time>
      </trkpt>
      <trkpt lat="44.77065" lon="0.80696">
        <ele>87.1</ele>
        <time>2022-12-04T07:50:56Z</time>
      </trkpt>
      <trkpt lat="44.77062" lon="0.8072">
        <ele>88.4</ele>
        <time>2022-12-04T07:51:02Z</time>
      </trkpt>
      <trkpt lat="44.7706" lon="0.80739">
        <ele>89.1</ele>
        <time>2022-12-04T07:51:07Z</time>
      </trkpt>
      <trkpt lat="44.77057" lon="0.80761">
        <ele>89.8</ele>
        <time>2022-12-04T07:51:12Z</time>
      </trkpt>
      <trkpt lat="44.77054" lon="0.80784">
        <ele>90.4</ele>
        <time>2022-12-04T07:51:18Z</time>
      </trkpt>
      <trkpt lat="44.7705" lon="0.80815">
        <ele>91.2</ele>
        <time>2022-12-04T07:51:25Z</time>
      </trkpt>
      <trkpt lat="44.77047" lon="0.80839">
        <ele>91.9</ele>
        <time>2022-12-04T07:51:31Z</time>
      </trkpt>
      <trkpt lat="44.77043" lon="0.8086">
        <ele>92.7</ele>
        <time>2022-12-04T07:51:37Z</time>
      </trkpt>
      <trkpt lat="44.77041" lon="0.80879">
        <ele>93.4</ele>
        <time>2022-12-04T07:51:42Z</time>
      </trkpt>
      <trkpt lat="44.7704" lon="0.80907">
        <ele>94.3</ele>
        <time>2022-12-04T07:51:49Z</time>
      </trkpt>
      <trkpt lat="44.7704" lon="0.80931">
        <ele>94.3</ele>
        <time>2022-12-04T07:51:54Z</time>
      </trkpt>
      <trkpt lat="44.77044" lon="0.80961">
        <ele>93.9</ele>
        <time>2022-12-04T07:52:00Z</time>
      </trkpt>
      <trkpt lat="44.77055" lon="0.8099">
        <ele>93.8</ele>
        <time>2022-12-04T07:52:06Z</time>
      </trkpt>
      <trkpt lat="44.77064" lon="0.81021">
        <ele>94.1</ele>
        <time>2022-12-04T07:52:12Z</time>
      </trkpt>
      <trkpt lat="44.77071" lon="0.81053">
        <ele>94.7</ele>
        <time>2022-12-04T07:52:18Z</time>
      </trkpt>
      <trkpt lat="44.77084" lon="0.81079">
        <ele>95.3</ele>
        <time>2022-12-04T07:52:24Z</time>
      </trkpt>
      <trkpt lat="44.77099" lon="0.81096">
        <ele>96</ele>
        <time>2022-12-04T07:52:29Z</time>
      </trkpt>
      <trkpt lat="44.77112" lon="0.81108">
        <ele>96.9</ele>
        <time>2022-12-04T07:52:34Z</time>
      </trkpt>
      <trkpt lat="44.77128" lon="0.81121">
        <ele>98.1</ele>
        <time>2022-12-04T07:52:40Z</time>
      </trkpt>
      <trkpt lat="44.77144" lon="0.81135">
        <ele>99.3</ele>
        <time>2022-12-04T07:52:46Z</time>
      </trkpt>
      <trkpt lat="44.77156" lon="0.81149">
        <ele>100.1</ele>
        <time>2022-12-04T07:52:51Z</time>
      </trkpt>
      <trkpt lat="44.77168" lon="0.81169">
        <ele>100.9</ele>
        <time>2022-12-04T07:52:56Z</time>
      </trkpt>
      <trkpt lat="44.77179" lon="0.81186">
        <ele>101.8</ele>
        <time>2022-12-04T07:53:02Z</time>
      </trkpt>
      <trkpt lat="44.77189" lon="0.81203">
        <ele>102.7</ele>
        <time>2022-12-04T07:53:08Z</time>
      </trkpt>
      <trkpt lat="44.77197" lon="0.81218">
        <ele>103.9</ele>
        <time>2022-12-04T07:53:14Z</time>
      </trkpt>
      <trkpt lat="44.77205" lon="0.81226">
        <ele>105</ele>
        <time>2022-12-04T07:53:20Z</time>
      </trkpt>
      <trkpt lat="44.77215" lon="0.8124">
        <ele>106.6</ele>
        <time>2022-12-04T07:53:27Z</time>
      </trkpt>
      <trkpt lat="44.77225" lon="0.81252">
        <ele>108.2</ele>
        <time>2022-12-04T07:53:34Z</time>
      </trkpt>
      <trkpt lat="44.7723" lon="0.8126">
        <ele>109</ele>
        <time>2022-12-04T07:53:38Z</time>
      </trkpt>
      <trkpt lat="44.77232" lon="0.81264">
        <ele>109.4</ele>
        <time>2022-12-04T07:53:40Z</time>
      </trkpt>
      <trkpt lat="44.7724" lon="0.81275">
        <ele>110.7</ele>
        <time>2022-12-04T07:53:46Z</time>
      </trkpt>
      <trkpt lat="44.77246" lon="0.81284">
        <ele>111.6</ele>
        <time>2022-12-04T07:53:51Z</time>
      </trkpt>
      <trkpt lat="44.77251" lon="0.81293">
        <ele>112.4</ele>
        <time>2022-12-04T07:53:56Z</time>
      </trkpt>
      <trkpt lat="44.77257" lon="0.81303">
        <ele>113.2</ele>
        <time>2022-12-04T07:54:01Z</time>
      </trkpt>
      <trkpt lat="44.77266" lon="0.81314">
        <ele>114</ele>
        <time>2022-12-04T07:54:07Z</time>
      </trkpt>
      <trkpt lat="44.77267" lon="0.81316">
        <ele>114.1</ele>
        <time>2022-12-04T07:54:08Z</time>
      </trkpt>
      <trkpt lat="44.77274" lon="0.81323">
        <ele>114.5</ele>
        <time>2022-12-04T07:54:12Z</time>
      </trkpt>
      <trkpt lat="44.77281" lon="0.81338">
        <ele>115.2</ele>
        <time>2022-12-04T07:54:17Z</time>
      </trkpt>
      <trkpt lat="44.77288" lon="0.8135">
        <ele>115.9</ele>
        <time>2022-12-04T07:54:22Z</time>
      </trkpt>
      <trkpt lat="44.77294" lon="0.81363">
        <ele>116.7</ele>
        <time>2022-12-04T07:54:28Z</time>
      </trkpt>
      <trkpt lat="44.77297" lon="0.81371">
        <ele>117.4</ele>
        <time>2022-12-04T07:54:32Z</time>
      </trkpt>
      <trkpt lat="44.773" lon="0.81375">
        <ele>117.8</ele>
        <time>2022-12-04T07:54:34Z</time>
      </trkpt>
      <trkpt lat="44.77299" lon="0.81379">
        <ele>118.1</ele>
        <time>2022-12-04T07:54:36Z</time>
      </trkpt>
      <trkpt lat="44.77297" lon="0.81382">
        <ele>118.4</ele>
        <time>2022-12-04T07:54:38Z</time>
      </trkpt>
      <trkpt lat="44.77295" lon="0.81384">
        <ele>118.8</ele>
        <time>2022-12-04T07:54:41Z</time>
      </trkpt>
      <trkpt lat="44.77291" lon="0.81385">
        <ele>119.3</ele>
        <time>2022-12-04T07:54:43Z</time>
      </trkpt>
      <trkpt lat="44.7728" lon="0.81382">
        <ele>120.7</ele>
        <time>2022-12-04T07:54:50Z</time>
      </trkpt>
      <trkpt lat="44.77269" lon="0.81381">
        <ele>122.2</ele>
        <time>2022-12-04T07:54:56Z</time>
      </trkpt>
      <trkpt lat="44.77259" lon="0.81384">
        <ele>123.4</ele>
        <time>2022-12-04T07:55:02Z</time>
      </trkpt>
      <trkpt lat="44.77259" lon="0.81387">
        <ele>123.8</ele>
        <time>2022-12-04T07:55:04Z</time>
      </trkpt>
      <trkpt lat="44.77262" lon="0.81391">
        <ele>124</ele>
        <time>2022-12-04T07:55:06Z</time>
      </trkpt>
      <trkpt lat="44.77274" lon="0.81406">
        <ele>124.7</ele>
        <time>2022-12-04T07:55:14Z</time>
      </trkpt>
      <trkpt lat="44.7729" lon="0.81413">
        <ele>125.3</ele>
        <time>2022-12-04T07:55:22Z</time>
      </trkpt>
      <trkpt lat="44.77291" lon="0.81417">
        <ele>125.9</ele>
        <time>2022-12-04T07:55:24Z</time>
      </trkpt>
      <trkpt lat="44.7729" lon="0.81421">
        <ele>126.3</ele>
        <time>2022-12-04T07:55:26Z</time>
      </trkpt>
      <trkpt lat="44.77287" lon="0.81433">
        <ele>127.8</ele>
        <time>2022-12-04T07:55:32Z</time>
      </trkpt>
      <trkpt lat="44.77284" lon="0.81442">
        <ele>129.2</ele>
        <time>2022-12-04T07:55:37Z</time>
      </trkpt>
      <trkpt lat="44.77283" lon="0.81445">
        <ele>129.5</ele>
        <time>2022-12-04T07:55:38Z</time>
      </trkpt>
      <trkpt lat="44.77281" lon="0.81451">
        <ele>130.6</ele>
        <time>2022-12-04T07:55:42Z</time>
      </trkpt>
      <trkpt lat="44.7728" lon="0.81454">
        <ele>131.2</ele>
        <time>2022-12-04T07:55:44Z</time>
      </trkpt>
      <trkpt lat="44.77277" lon="0.81464">
        <ele>132.8</ele>
        <time>2022-12-04T07:55:50Z</time>
      </trkpt>
      <trkpt lat="44.77273" lon="0.81477">
        <ele>135.1</ele>
        <time>2022-12-04T07:55:57Z</time>
      </trkpt>
      <trkpt lat="44.77269" lon="0.8149">
        <ele>137.1</ele>
        <time>2022-12-04T07:56:04Z</time>
      </trkpt>
      <trkpt lat="44.77267" lon="0.81496">
        <ele>138.3</ele>
        <time>2022-12-04T07:56:08Z</time>
      </trkpt>
      <trkpt lat="44.77268" lon="0.815">
        <ele>138.9</ele>
        <time>2022-12-04T07:56:10Z</time>
      </trkpt>
      <trkpt lat="44.77267" lon="0.81502">
        <ele>139.3</ele>
        <time>2022-12-04T07:56:11Z</time>
      </trkpt>
      <trkpt lat="44.77265" lon="0.81511">
        <ele>140.8</ele>
        <time>2022-12-04T07:56:16Z</time>
      </trkpt>
      <trkpt lat="44.77266" lon="0.81511">
        <ele>141.3</ele>
        <time>2022-12-04T07:56:17Z</time>
      </trkpt>
      <trkpt lat="44.77272" lon="0.81515">
        <ele>143.1</ele>
        <time>2022-12-04T07:56:22Z</time>
      </trkpt>
      <trkpt lat="44.77274" lon="0.81515">
        <ele>143.4</ele>
        <time>2022-12-04T07:56:23Z</time>
      </trkpt>
      <trkpt lat="44.77274" lon="0.81515">
        <ele>143.5</ele>
        <time>2022-12-04T07:56:24Z</time>
      </trkpt>
      <trkpt lat="44.77281" lon="0.81513">
        <ele>145.6</ele>
        <time>2022-12-04T07:56:53Z</time>
      </trkpt>
      <trkpt lat="44.77283" lon="0.81512">
        <ele>146.3</ele>
        <time>2022-12-04T07:56:55Z</time>
      </trkpt>
      <trkpt lat="44.77285" lon="0.81512">
        <ele>146.7</ele>
        <time>2022-12-04T07:56:58Z</time>
      </trkpt>
      <trkpt lat="44.7731" lon="0.81506">
        <ele>153.6</ele>
        <time>2022-12-04T07:57:39Z</time>
      </trkpt>
      <trkpt lat="44.77321" lon="0.81503">
        <ele>155.7</ele>
        <time>2022-12-04T07:57:46Z</time>
      </trkpt>
      <trkpt lat="44.77326" lon="0.81505">
        <ele>156.4</ele>
        <time>2022-12-04T07:57:49Z</time>
      </trkpt>
      <trkpt lat="44.7733" lon="0.81508">
        <ele>157.1</ele>
        <time>2022-12-04T07:57:52Z</time>
      </trkpt>
      <trkpt lat="44.77337" lon="0.81516">
        <ele>158.4</ele>
        <time>2022-12-04T07:57:58Z</time>
      </trkpt>
      <trkpt lat="44.77342" lon="0.81525">
        <ele>159.6</ele>
        <time>2022-12-04T07:58:04Z</time>
      </trkpt>
      <trkpt lat="44.77352" lon="0.81539">
        <ele>161.5</ele>
        <time>2022-12-04T07:58:13Z</time>
      </trkpt>
      <trkpt lat="44.77361" lon="0.81548">
        <ele>163.3</ele>
        <time>2022-12-04T07:58:21Z</time>
      </trkpt>
      <trkpt lat="44.77363" lon="0.81548">
        <ele>163.6</ele>
        <time>2022-12-04T07:58:23Z</time>
      </trkpt>
      <trkpt lat="44.77368" lon="0.81553">
        <ele>164.4</ele>
        <time>2022-12-04T07:58:27Z</time>
      </trkpt>
      <trkpt lat="44.77378" lon="0.81558">
        <ele>165.6</ele>
        <time>2022-12-04T07:58:34Z</time>
      </trkpt>
      <trkpt lat="44.77387" lon="0.8157">
        <ele>165.8</ele>
        <time>2022-12-04T07:58:40Z</time>
      </trkpt>
      <trkpt lat="44.77388" lon="0.81575">
        <ele>165.8</ele>
        <time>2022-12-04T07:58:42Z</time>
      </trkpt>
      <trkpt lat="44.77386" lon="0.81583">
        <ele>165.7</ele>
        <time>2022-12-04T07:58:45Z</time>
      </trkpt>
      <trkpt lat="44.77379" lon="0.8161">
        <ele>165.3</ele>
        <time>2022-12-04T07:58:53Z</time>
      </trkpt>
      <trkpt lat="44.77382" lon="0.81633">
        <ele>165</ele>
        <time>2022-12-04T07:58:59Z</time>
      </trkpt>
      <trkpt lat="44.77388" lon="0.81653">
        <ele>164.8</ele>
        <time>2022-12-04T07:59:05Z</time>
      </trkpt>
      <trkpt lat="44.77392" lon="0.81665">
        <ele>164.7</ele>
        <time>2022-12-04T07:59:10Z</time>
      </trkpt>
      <trkpt lat="44.77391" lon="0.81667">
        <ele>164.8</ele>
        <time>2022-12-04T07:59:11Z</time>
      </trkpt>
      <trkpt lat="44.7739" lon="0.81668">
        <ele>164.8</ele>
        <time>2022-12-04T07:59:12Z</time>
      </trkpt>
      <trkpt lat="44.77388" lon="0.81665">
        <ele>164.9</ele>
        <time>2022-12-04T07:59:14Z</time>
      </trkpt>
      <trkpt lat="44.77392" lon="0.81661">
        <ele>165</ele>
        <time>2022-12-04T07:59:16Z</time>
      </trkpt>
      <trkpt lat="44.77394" lon="0.81661">
        <ele>165.1</ele>
        <time>2022-12-04T07:59:17Z</time>
      </trkpt>
      <trkpt lat="44.77406" lon="0.81667">
        <ele>165.5</ele>
        <time>2022-12-04T07:59:22Z</time>
      </trkpt>
      <trkpt lat="44.77413" lon="0.81669">
        <ele>165.8</ele>
        <time>2022-12-04T07:59:25Z</time>
      </trkpt>
      <trkpt lat="44.77416" lon="0.81668">
        <ele>166</ele>
        <time>2022-12-04T07:59:27Z</time>
      </trkpt>
      <trkpt lat="44.77418" lon="0.81655">
        <ele>166.7</ele>
        <time>2022-12-04T07:59:33Z</time>
      </trkpt>
      <trkpt lat="44.77421" lon="0.81642">
        <ele>167.2</ele>
        <time>2022-12-04T07:59:38Z</time>
      </trkpt>
      <trkpt lat="44.77421" lon="0.81612">
        <ele>167.4</ele>
        <time>2022-12-04T07:59:44Z</time>
      </trkpt>
      <trkpt lat="44.77425" lon="0.81596">
        <ele>166.9</ele>
        <time>2022-12-04T07:59:48Z</time>
      </trkpt>
      <trkpt lat="44.77426" lon="0.81584">
        <ele>165.6</ele>
        <time>2022-12-04T07:59:55Z</time>
      </trkpt>
      <trkpt lat="44.77432" lon="0.81577">
        <ele>167.2</ele>
        <time>2022-12-04T07:59:59Z</time>
      </trkpt>
      <trkpt lat="44.77436" lon="0.81574">
        <ele>167.2</ele>
        <time>2022-12-04T08:00:01Z</time>
      </trkpt>
      <trkpt lat="44.77439" lon="0.81569">
        <ele>167.3</ele>
        <time>2022-12-04T08:00:03Z</time>
      </trkpt>
      <trkpt lat="44.77444" lon="0.81569">
        <ele>167.3</ele>
        <time>2022-12-04T08:00:05Z</time>
      </trkpt>
      <trkpt lat="44.77464" lon="0.81576">
        <ele>167.5</ele>
        <time>2022-12-04T08:00:11Z</time>
      </trkpt>
      <trkpt lat="44.77478" lon="0.81586">
        <ele>167.7</ele>
        <time>2022-12-04T08:00:15Z</time>
      </trkpt>
      <trkpt lat="44.77485" lon="0.816">
        <ele>168.1</ele>
        <time>2022-12-04T08:00:18Z</time>
      </trkpt>
      <trkpt lat="44.77485" lon="0.81605">
        <ele>168.1</ele>
        <time>2022-12-04T08:00:19Z</time>
      </trkpt>
      <trkpt lat="44.77479" lon="0.81628">
        <ele>168.5</ele>
        <time>2022-12-04T08:00:24Z</time>
      </trkpt>
      <trkpt lat="44.77474" lon="0.81656">
        <ele>168.1</ele>
        <time>2022-12-04T08:00:30Z</time>
      </trkpt>
      <trkpt lat="44.77461" lon="0.8166">
        <ele>168</ele>
        <time>2022-12-04T08:00:34Z</time>
      </trkpt>
      <trkpt lat="44.77458" lon="0.81662">
        <ele>167.9</ele>
        <time>2022-12-04T08:00:35Z</time>
      </trkpt>
      <trkpt lat="44.77452" lon="0.81668">
        <ele>167.7</ele>
        <time>2022-12-04T08:00:37Z</time>
      </trkpt>
      <trkpt lat="44.77448" lon="0.81669">
        <ele>167.6</ele>
        <time>2022-12-04T08:00:38Z</time>
      </trkpt>
      <trkpt lat="44.77438" lon="0.81667">
        <ele>167.3</ele>
        <time>2022-12-04T08:00:40Z</time>
      </trkpt>
      <trkpt lat="44.77422" lon="0.81665">
        <ele>166.3</ele>
        <time>2022-12-04T08:00:43Z</time>
      </trkpt>
      <trkpt lat="44.77418" lon="0.81665">
        <ele>166</ele>
        <time>2022-12-04T08:00:44Z</time>
      </trkpt>
      <trkpt lat="44.77409" lon="0.81667">
        <ele>165.6</ele>
        <time>2022-12-04T08:00:46Z</time>
      </trkpt>
      <trkpt lat="44.774" lon="0.81665">
        <ele>165.1</ele>
        <time>2022-12-04T08:00:48Z</time>
      </trkpt>
      <trkpt lat="44.77393" lon="0.81669">
        <ele>164.5</ele>
        <time>2022-12-04T08:00:50Z</time>
      </trkpt>
      <trkpt lat="44.77391" lon="0.81674">
        <ele>164.3</ele>
        <time>2022-12-04T08:00:51Z</time>
      </trkpt>
      <trkpt lat="44.77388" lon="0.81682">
        <ele>163.6</ele>
        <time>2022-12-04T08:00:53Z</time>
      </trkpt>
      <trkpt lat="44.77385" lon="0.81682">
        <ele>163.3</ele>
        <time>2022-12-04T08:00:54Z</time>
      </trkpt>
      <trkpt lat="44.77379" lon="0.81679">
        <ele>162.3</ele>
        <time>2022-12-04T08:00:56Z</time>
      </trkpt>
      <trkpt lat="44.77375" lon="0.81681">
        <ele>161.6</ele>
        <time>2022-12-04T08:00:57Z</time>
      </trkpt>
      <trkpt lat="44.77362" lon="0.81702">
        <ele>158.2</ele>
        <time>2022-12-04T08:01:01Z</time>
      </trkpt>
      <trkpt lat="44.77357" lon="0.81714">
        <ele>155.6</ele>
        <time>2022-12-04T08:01:04Z</time>
      </trkpt>
      <trkpt lat="44.77358" lon="0.81718">
        <ele>155.2</ele>
        <time>2022-12-04T08:01:05Z</time>
      </trkpt>
      <trkpt lat="44.7736" lon="0.81723">
        <ele>154.5</ele>
        <time>2022-12-04T08:01:06Z</time>
      </trkpt>
      <trkpt lat="44.77366" lon="0.81733">
        <ele>152.6</ele>
        <time>2022-12-04T08:01:08Z</time>
      </trkpt>
      <trkpt lat="44.77367" lon="0.81738">
        <ele>152.2</ele>
        <time>2022-12-04T08:01:09Z</time>
      </trkpt>
      <trkpt lat="44.77361" lon="0.81744">
        <ele>151.3</ele>
        <time>2022-12-04T08:01:11Z</time>
      </trkpt>
      <trkpt lat="44.77342" lon="0.81746">
        <ele>149.5</ele>
        <time>2022-12-04T08:01:14Z</time>
      </trkpt>
      <trkpt lat="44.77319" lon="0.81737">
        <ele>148.3</ele>
        <time>2022-12-04T08:01:17Z</time>
      </trkpt>
      <trkpt lat="44.77306" lon="0.81742">
        <ele>147.8</ele>
        <time>2022-12-04T08:01:19Z</time>
      </trkpt>
      <trkpt lat="44.773" lon="0.81759">
        <ele>147.6</ele>
        <time>2022-12-04T08:01:21Z</time>
      </trkpt>
      <trkpt lat="44.77298" lon="0.81768">
        <ele>147.8</ele>
        <time>2022-12-04T08:01:22Z</time>
      </trkpt>
      <trkpt lat="44.77296" lon="0.81791">
        <ele>148.9</ele>
        <time>2022-12-04T08:01:25Z</time>
      </trkpt>
      <trkpt lat="44.77296" lon="0.81798">
        <ele>149.4</ele>
        <time>2022-12-04T08:01:26Z</time>
      </trkpt>
      <trkpt lat="44.77297" lon="0.81809">
        <ele>150.4</ele>
        <time>2022-12-04T08:01:28Z</time>
      </trkpt>
      <trkpt lat="44.77298" lon="0.81814">
        <ele>150.9</ele>
        <time>2022-12-04T08:01:29Z</time>
      </trkpt>
      <trkpt lat="44.77298" lon="0.81835">
        <ele>153.3</ele>
        <time>2022-12-04T08:01:35Z</time>
      </trkpt>
      <trkpt lat="44.77299" lon="0.8186">
        <ele>156</ele>
        <time>2022-12-04T08:01:41Z</time>
      </trkpt>
      <trkpt lat="44.77302" lon="0.81882">
        <ele>158.1</ele>
        <time>2022-12-04T08:01:47Z</time>
      </trkpt>
      <trkpt lat="44.77306" lon="0.81902">
        <ele>159.9</ele>
        <time>2022-12-04T08:01:52Z</time>
      </trkpt>
      <trkpt lat="44.77307" lon="0.81921">
        <ele>161.5</ele>
        <time>2022-12-04T08:01:57Z</time>
      </trkpt>
      <trkpt lat="44.77307" lon="0.81924">
        <ele>161.7</ele>
        <time>2022-12-04T08:01:58Z</time>
      </trkpt>
      <trkpt lat="44.77304" lon="0.81939">
        <ele>162.9</ele>
        <time>2022-12-04T08:02:03Z</time>
      </trkpt>
      <trkpt lat="44.77302" lon="0.81952">
        <ele>163.8</ele>
        <time>2022-12-04T08:02:08Z</time>
      </trkpt>
      <trkpt lat="44.77301" lon="0.81954">
        <ele>164</ele>
        <time>2022-12-04T08:02:09Z</time>
      </trkpt>
      <trkpt lat="44.77293" lon="0.81964">
        <ele>165</ele>
        <time>2022-12-04T08:02:15Z</time>
      </trkpt>
      <trkpt lat="44.77275" lon="0.81974">
        <ele>166.4</ele>
        <time>2022-12-04T08:02:24Z</time>
      </trkpt>
      <trkpt lat="44.77256" lon="0.81984">
        <ele>167.2</ele>
        <time>2022-12-04T08:02:31Z</time>
      </trkpt>
      <trkpt lat="44.77243" lon="0.81993">
        <ele>167.3</ele>
        <time>2022-12-04T08:02:36Z</time>
      </trkpt>
      <trkpt lat="44.77228" lon="0.82014">
        <ele>166.9</ele>
        <time>2022-12-04T08:02:42Z</time>
      </trkpt>
      <trkpt lat="44.77224" lon="0.82036">
        <ele>166</ele>
        <time>2022-12-04T08:02:46Z</time>
      </trkpt>
      <trkpt lat="44.77218" lon="0.82077">
        <ele>164</ele>
        <time>2022-12-04T08:02:52Z</time>
      </trkpt>
      <trkpt lat="44.77216" lon="0.82124">
        <ele>162.5</ele>
        <time>2022-12-04T08:02:58Z</time>
      </trkpt>
      <trkpt lat="44.77213" lon="0.82155">
        <ele>162.4</ele>
        <time>2022-12-04T08:03:03Z</time>
      </trkpt>
      <trkpt lat="44.77207" lon="0.82199">
        <ele>163.5</ele>
        <time>2022-12-04T08:03:10Z</time>
      </trkpt>
      <trkpt lat="44.77202" lon="0.82226">
        <ele>164.5</ele>
        <time>2022-12-04T08:03:15Z</time>
      </trkpt>
      <trkpt lat="44.77194" lon="0.82257">
        <ele>166</ele>
        <time>2022-12-04T08:03:21Z</time>
      </trkpt>
      <trkpt lat="44.7719" lon="0.82275">
        <ele>166.9</ele>
        <time>2022-12-04T08:03:25Z</time>
      </trkpt>
      <trkpt lat="44.77189" lon="0.82296">
        <ele>167.7</ele>
        <time>2022-12-04T08:03:30Z</time>
      </trkpt>
      <trkpt lat="44.77185" lon="0.82314">
        <ele>168.3</ele>
        <time>2022-12-04T08:03:34Z</time>
      </trkpt>
      <trkpt lat="44.77173" lon="0.82326">
        <ele>168.5</ele>
        <time>2022-12-04T08:03:38Z</time>
      </trkpt>
      <trkpt lat="44.77155" lon="0.82342">
        <ele>168.7</ele>
        <time>2022-12-04T08:03:44Z</time>
      </trkpt>
      <trkpt lat="44.77146" lon="0.82358">
        <ele>168.7</ele>
        <time>2022-12-04T08:03:48Z</time>
      </trkpt>
      <trkpt lat="44.77139" lon="0.82391">
        <ele>167.7</ele>
        <time>2022-12-04T08:03:55Z</time>
      </trkpt>
      <trkpt lat="44.7714" lon="0.82397">
        <ele>167.4</ele>
        <time>2022-12-04T08:03:56Z</time>
      </trkpt>
      <trkpt lat="44.77144" lon="0.82409">
        <ele>166.5</ele>
        <time>2022-12-04T08:03:58Z</time>
      </trkpt>
      <trkpt lat="44.77146" lon="0.82416">
        <ele>166</ele>
        <time>2022-12-04T08:03:59Z</time>
      </trkpt>
      <trkpt lat="44.77148" lon="0.82431">
        <ele>164.9</ele>
        <time>2022-12-04T08:04:01Z</time>
      </trkpt>
      <trkpt lat="44.77148" lon="0.82438">
        <ele>164.4</ele>
        <time>2022-12-04T08:04:02Z</time>
      </trkpt>
      <trkpt lat="44.77147" lon="0.82443">
        <ele>163.9</ele>
        <time>2022-12-04T08:04:03Z</time>
      </trkpt>
      <trkpt lat="44.77144" lon="0.82452">
        <ele>162.9</ele>
        <time>2022-12-04T08:04:05Z</time>
      </trkpt>
      <trkpt lat="44.77137" lon="0.82469">
        <ele>160.8</ele>
        <time>2022-12-04T08:04:10Z</time>
      </trkpt>
      <trkpt lat="44.77129" lon="0.82487">
        <ele>158.3</ele>
        <time>2022-12-04T08:04:14Z</time>
      </trkpt>
      <trkpt lat="44.77122" lon="0.82503">
        <ele>155.2</ele>
        <time>2022-12-04T08:04:18Z</time>
      </trkpt>
      <trkpt lat="44.77115" lon="0.82517">
        <ele>151.7</ele>
        <time>2022-12-04T08:04:23Z</time>
      </trkpt>
      <trkpt lat="44.77116" lon="0.82521">
        <ele>150.8</ele>
        <time>2022-12-04T08:04:24Z</time>
      </trkpt>
      <trkpt lat="44.77119" lon="0.82529">
        <ele>149.1</ele>
        <time>2022-12-04T08:04:26Z</time>
      </trkpt>
      <trkpt lat="44.77124" lon="0.82545">
        <ele>145.9</ele>
        <time>2022-12-04T08:04:31Z</time>
      </trkpt>
      <trkpt lat="44.77125" lon="0.82553">
        <ele>144.3</ele>
        <time>2022-12-04T08:04:33Z</time>
      </trkpt>
      <trkpt lat="44.77124" lon="0.82559">
        <ele>142.9</ele>
        <time>2022-12-04T08:04:35Z</time>
      </trkpt>
      <trkpt lat="44.77121" lon="0.8256">
        <ele>141.9</ele>
        <time>2022-12-04T08:04:37Z</time>
      </trkpt>
      <trkpt lat="44.77117" lon="0.82557">
        <ele>140.6</ele>
        <time>2022-12-04T08:04:39Z</time>
      </trkpt>
      <trkpt lat="44.77111" lon="0.82553">
        <ele>138.2</ele>
        <time>2022-12-04T08:04:43Z</time>
      </trkpt>
      <trkpt lat="44.77109" lon="0.82553">
        <ele>137.4</ele>
        <time>2022-12-04T08:04:44Z</time>
      </trkpt>
      <trkpt lat="44.77104" lon="0.82554">
        <ele>135.8</ele>
        <time>2022-12-04T08:04:46Z</time>
      </trkpt>
      <trkpt lat="44.77103" lon="0.82553">
        <ele>135.2</ele>
        <time>2022-12-04T08:04:47Z</time>
      </trkpt>
      <trkpt lat="44.77099" lon="0.82552">
        <ele>133.8</ele>
        <time>2022-12-04T08:04:49Z</time>
      </trkpt>
      <trkpt lat="44.77093" lon="0.8255">
        <ele>132</ele>
        <time>2022-12-04T08:04:52Z</time>
      </trkpt>
      <trkpt lat="44.77083" lon="0.82542">
        <ele>128.4</ele>
        <time>2022-12-04T08:04:58Z</time>
      </trkpt>
      <trkpt lat="44.77083" lon="0.82541">
        <ele>128.1</ele>
        <time>2022-12-04T08:04:59Z</time>
      </trkpt>
      <trkpt lat="44.7707" lon="0.8256">
        <ele>122.2</ele>
        <time>2022-12-04T08:05:24Z</time>
      </trkpt>
      <trkpt lat="44.7707" lon="0.82563">
        <ele>121.4</ele>
        <time>2022-12-04T08:05:26Z</time>
      </trkpt>
      <trkpt lat="44.77061" lon="0.82582">
        <ele>115.7</ele>
        <time>2022-12-04T08:05:52Z</time>
      </trkpt>
      <trkpt lat="44.77056" lon="0.82594">
        <ele>112.6</ele>
        <time>2022-12-04T08:05:56Z</time>
      </trkpt>
      <trkpt lat="44.77056" lon="0.82596">
        <ele>112.1</ele>
        <time>2022-12-04T08:05:57Z</time>
      </trkpt>
      <trkpt lat="44.77051" lon="0.82606">
        <ele>109.6</ele>
        <time>2022-12-04T08:06:01Z</time>
      </trkpt>
      <trkpt lat="44.7705" lon="0.8261">
        <ele>108.7</ele>
        <time>2022-12-04T08:06:02Z</time>
      </trkpt>
      <trkpt lat="44.77051" lon="0.82615">
        <ele>108.3</ele>
        <time>2022-12-04T08:06:03Z</time>
      </trkpt>
      <trkpt lat="44.77057" lon="0.82636">
        <ele>109.3</ele>
        <time>2022-12-04T08:06:08Z</time>
      </trkpt>
      <trkpt lat="44.77068" lon="0.82653">
        <ele>110.3</ele>
        <time>2022-12-04T08:06:14Z</time>
      </trkpt>
      <trkpt lat="44.77074" lon="0.82668">
        <ele>110.8</ele>
        <time>2022-12-04T08:06:18Z</time>
      </trkpt>
      <trkpt lat="44.77086" lon="0.82691">
        <ele>111</ele>
        <time>2022-12-04T08:06:24Z</time>
      </trkpt>
      <trkpt lat="44.77092" lon="0.82706">
        <ele>111</ele>
        <time>2022-12-04T08:06:28Z</time>
      </trkpt>
      <trkpt lat="44.77101" lon="0.82727">
        <ele>110.9</ele>
        <time>2022-12-04T08:06:33Z</time>
      </trkpt>
      <trkpt lat="44.77119" lon="0.82756">
        <ele>110.9</ele>
        <time>2022-12-04T08:06:39Z</time>
      </trkpt>
      <trkpt lat="44.77127" lon="0.82772">
        <ele>110.7</ele>
        <time>2022-12-04T08:06:42Z</time>
      </trkpt>
      <trkpt lat="44.77137" lon="0.82792">
        <ele>110.5</ele>
        <time>2022-12-04T08:06:46Z</time>
      </trkpt>
      <trkpt lat="44.77148" lon="0.82811">
        <ele>110.6</ele>
        <time>2022-12-04T08:06:50Z</time>
      </trkpt>
      <trkpt lat="44.77154" lon="0.82819">
        <ele>110.8</ele>
        <time>2022-12-04T08:06:52Z</time>
      </trkpt>
      <trkpt lat="44.77163" lon="0.82829">
        <ele>111.2</ele>
        <time>2022-12-04T08:06:55Z</time>
      </trkpt>
      <trkpt lat="44.77174" lon="0.82838">
        <ele>111.8</ele>
        <time>2022-12-04T08:06:59Z</time>
      </trkpt>
      <trkpt lat="44.77189" lon="0.82851">
        <ele>112.3</ele>
        <time>2022-12-04T08:07:04Z</time>
      </trkpt>
      <trkpt lat="44.77209" lon="0.82864">
        <ele>113.1</ele>
        <time>2022-12-04T08:07:10Z</time>
      </trkpt>
      <trkpt lat="44.77223" lon="0.82873">
        <ele>113.8</ele>
        <time>2022-12-04T08:07:15Z</time>
      </trkpt>
      <trkpt lat="44.77236" lon="0.82886">
        <ele>113.3</ele>
        <time>2022-12-04T08:07:20Z</time>
      </trkpt>
      <trkpt lat="44.77244" lon="0.82909">
        <ele>111.9</ele>
        <time>2022-12-04T08:07:23Z</time>
      </trkpt>
      <trkpt lat="44.77246" lon="0.82917">
        <ele>111.7</ele>
        <time>2022-12-04T08:07:24Z</time>
      </trkpt>
      <trkpt lat="44.77248" lon="0.82924">
        <ele>111.4</ele>
        <time>2022-12-04T08:07:25Z</time>
      </trkpt>
      <trkpt lat="44.77255" lon="0.82942">
        <ele>111</ele>
        <time>2022-12-04T08:07:28Z</time>
      </trkpt>
      <trkpt lat="44.77262" lon="0.82955">
        <ele>110.4</ele>
        <time>2022-12-04T08:07:32Z</time>
      </trkpt>
      <trkpt lat="44.77262" lon="0.82955">
        <ele>110.4</ele>
        <time>2022-12-04T08:07:33Z</time>
      </trkpt>
      <trkpt lat="44.77264" lon="0.82957">
        <ele>110.3</ele>
        <time>2022-12-04T08:07:38Z</time>
      </trkpt>
      <trkpt lat="44.77269" lon="0.82963">
        <ele>110</ele>
        <time>2022-12-04T08:07:40Z</time>
      </trkpt>
      <trkpt lat="44.77284" lon="0.82982">
        <ele>109.1</ele>
        <time>2022-12-04T08:07:44Z</time>
      </trkpt>
      <trkpt lat="44.77301" lon="0.83">
        <ele>108.7</ele>
        <time>2022-12-04T08:07:48Z</time>
      </trkpt>
      <trkpt lat="44.77305" lon="0.83004">
        <ele>108.6</ele>
        <time>2022-12-04T08:07:49Z</time>
      </trkpt>
      <trkpt lat="44.77325" lon="0.83017">
        <ele>108.4</ele>
        <time>2022-12-04T08:07:53Z</time>
      </trkpt>
      <trkpt lat="44.77348" lon="0.8303">
        <ele>108.4</ele>
        <time>2022-12-04T08:07:58Z</time>
      </trkpt>
      <trkpt lat="44.77378" lon="0.83047">
        <ele>109.5</ele>
        <time>2022-12-04T08:08:05Z</time>
      </trkpt>
      <trkpt lat="44.77392" lon="0.83059">
        <ele>109.8</ele>
        <time>2022-12-04T08:08:10Z</time>
      </trkpt>
      <trkpt lat="44.77398" lon="0.83078">
        <ele>109.8</ele>
        <time>2022-12-04T08:08:14Z</time>
      </trkpt>
      <trkpt lat="44.77403" lon="0.83125">
        <ele>110.2</ele>
        <time>2022-12-04T08:08:22Z</time>
      </trkpt>
      <trkpt lat="44.77409" lon="0.83172">
        <ele>110.5</ele>
        <time>2022-12-04T08:08:30Z</time>
      </trkpt>
      <trkpt lat="44.77411" lon="0.83176">
        <ele>110.6</ele>
        <time>2022-12-04T08:08:31Z</time>
      </trkpt>
      <trkpt lat="44.77419" lon="0.83186">
        <ele>110.7</ele>
        <time>2022-12-04T08:08:34Z</time>
      </trkpt>
      <trkpt lat="44.77434" lon="0.83207">
        <ele>111.2</ele>
        <time>2022-12-04T08:08:40Z</time>
      </trkpt>
      <trkpt lat="44.77446" lon="0.83222">
        <ele>112.8</ele>
        <time>2022-12-04T08:08:45Z</time>
      </trkpt>
      <trkpt lat="44.77453" lon="0.83229">
        <ele>114.3</ele>
        <time>2022-12-04T08:08:50Z</time>
      </trkpt>
      <trkpt lat="44.77461" lon="0.83237">
        <ele>116.2</ele>
        <time>2022-12-04T08:08:57Z</time>
      </trkpt>
      <trkpt lat="44.77469" lon="0.83244">
        <ele>118</ele>
        <time>2022-12-04T08:09:02Z</time>
      </trkpt>
      <trkpt lat="44.77471" lon="0.83249">
        <ele>118.8</ele>
        <time>2022-12-04T08:09:04Z</time>
      </trkpt>
      <trkpt lat="44.77474" lon="0.83253">
        <ele>119.5</ele>
        <time>2022-12-04T08:09:06Z</time>
      </trkpt>
      <trkpt lat="44.77479" lon="0.83261">
        <ele>120.8</ele>
        <time>2022-12-04T08:09:11Z</time>
      </trkpt>
      <trkpt lat="44.77483" lon="0.83269">
        <ele>122.1</ele>
        <time>2022-12-04T08:09:16Z</time>
      </trkpt>
      <trkpt lat="44.77487" lon="0.83282">
        <ele>123.7</ele>
        <time>2022-12-04T08:09:23Z</time>
      </trkpt>
      <trkpt lat="44.77492" lon="0.83296">
        <ele>125.1</ele>
        <time>2022-12-04T08:09:31Z</time>
      </trkpt>
      <trkpt lat="44.77499" lon="0.83311">
        <ele>126</ele>
        <time>2022-12-04T08:09:38Z</time>
      </trkpt>
      <trkpt lat="44.77508" lon="0.83327">
        <ele>126.3</ele>
        <time>2022-12-04T08:09:44Z</time>
      </trkpt>
      <trkpt lat="44.7752" lon="0.83346">
        <ele>126.5</ele>
        <time>2022-12-04T08:09:51Z</time>
      </trkpt>
      <trkpt lat="44.77528" lon="0.83359">
        <ele>126.7</ele>
        <time>2022-12-04T08:09:56Z</time>
      </trkpt>
      <trkpt lat="44.77536" lon="0.83374">
        <ele>127.1</ele>
        <time>2022-12-04T08:10:01Z</time>
      </trkpt>
      <trkpt lat="44.77542" lon="0.83385">
        <ele>127.6</ele>
        <time>2022-12-04T08:10:06Z</time>
      </trkpt>
      <trkpt lat="44.7755" lon="0.83403">
        <ele>128.6</ele>
        <time>2022-12-04T08:10:12Z</time>
      </trkpt>
      <trkpt lat="44.7756" lon="0.83425">
        <ele>129.8</ele>
        <time>2022-12-04T08:10:19Z</time>
      </trkpt>
      <trkpt lat="44.77564" lon="0.83441">
        <ele>130.3</ele>
        <time>2022-12-04T08:10:24Z</time>
      </trkpt>
      <trkpt lat="44.7757" lon="0.83457">
        <ele>131</ele>
        <time>2022-12-04T08:10:29Z</time>
      </trkpt>
      <trkpt lat="44.77573" lon="0.83474">
        <ele>131.7</ele>
        <time>2022-12-04T08:10:34Z</time>
      </trkpt>
      <trkpt lat="44.77577" lon="0.83493">
        <ele>132.5</ele>
        <time>2022-12-04T08:10:40Z</time>
      </trkpt>
      <trkpt lat="44.77582" lon="0.83521">
        <ele>133.5</ele>
        <time>2022-12-04T08:10:48Z</time>
      </trkpt>
      <trkpt lat="44.77585" lon="0.83538">
        <ele>134.1</ele>
        <time>2022-12-04T08:10:53Z</time>
      </trkpt>
      <trkpt lat="44.77588" lon="0.83557">
        <ele>134.6</ele>
        <time>2022-12-04T08:10:58Z</time>
      </trkpt>
      <trkpt lat="44.77588" lon="0.8356">
        <ele>134.8</ele>
        <time>2022-12-04T08:10:59Z</time>
      </trkpt>
      <trkpt lat="44.77592" lon="0.83578">
        <ele>135.4</ele>
        <time>2022-12-04T08:11:04Z</time>
      </trkpt>
      <trkpt lat="44.77594" lon="0.836">
        <ele>136.3</ele>
        <time>2022-12-04T08:11:10Z</time>
      </trkpt>
      <trkpt lat="44.77597" lon="0.83614">
        <ele>136.7</ele>
        <time>2022-12-04T08:11:14Z</time>
      </trkpt>
      <trkpt lat="44.77598" lon="0.83617">
        <ele>136.8</ele>
        <time>2022-12-04T08:11:15Z</time>
      </trkpt>
      <trkpt lat="44.77599" lon="0.8362">
        <ele>136.9</ele>
        <time>2022-12-04T08:11:16Z</time>
      </trkpt>
      <trkpt lat="44.77601" lon="0.83629">
        <ele>137.1</ele>
        <time>2022-12-04T08:11:19Z</time>
      </trkpt>
      <trkpt lat="44.77606" lon="0.83649">
        <ele>137.5</ele>
        <time>2022-12-04T08:11:25Z</time>
      </trkpt>
      <trkpt lat="44.77613" lon="0.83671">
        <ele>137.8</ele>
        <time>2022-12-04T08:11:31Z</time>
      </trkpt>
      <trkpt lat="44.77622" lon="0.83695">
        <ele>138</ele>
        <time>2022-12-04T08:11:38Z</time>
      </trkpt>
      <trkpt lat="44.77627" lon="0.8371">
        <ele>138.2</ele>
        <time>2022-12-04T08:11:43Z</time>
      </trkpt>
      <trkpt lat="44.77635" lon="0.8373">
        <ele>138.5</ele>
        <time>2022-12-04T08:11:49Z</time>
      </trkpt>
      <trkpt lat="44.77643" lon="0.8375">
        <ele>139.3</ele>
        <time>2022-12-04T08:11:55Z</time>
      </trkpt>
      <trkpt lat="44.77647" lon="0.83764">
        <ele>140.2</ele>
        <time>2022-12-04T08:12:00Z</time>
      </trkpt>
      <trkpt lat="44.77651" lon="0.83777">
        <ele>141.3</ele>
        <time>2022-12-04T08:12:06Z</time>
      </trkpt>
      <trkpt lat="44.77648" lon="0.83792">
        <ele>142.6</ele>
        <time>2022-12-04T08:12:13Z</time>
      </trkpt>
      <trkpt lat="44.77649" lon="0.83808">
        <ele>143.9</ele>
        <time>2022-12-04T08:12:18Z</time>
      </trkpt>
      <trkpt lat="44.77651" lon="0.83824">
        <ele>145.1</ele>
        <time>2022-12-04T08:12:24Z</time>
      </trkpt>
      <trkpt lat="44.77651" lon="0.83826">
        <ele>145.2</ele>
        <time>2022-12-04T08:12:25Z</time>
      </trkpt>
      <trkpt lat="44.77652" lon="0.83836">
        <ele>145.9</ele>
        <time>2022-12-04T08:12:30Z</time>
      </trkpt>
      <trkpt lat="44.77657" lon="0.83853">
        <ele>147</ele>
        <time>2022-12-04T08:12:36Z</time>
      </trkpt>
      <trkpt lat="44.77658" lon="0.83859">
        <ele>147.4</ele>
        <time>2022-12-04T08:12:40Z</time>
      </trkpt>
      <trkpt lat="44.77663" lon="0.83864">
        <ele>147.9</ele>
        <time>2022-12-04T08:12:44Z</time>
      </trkpt>
      <trkpt lat="44.77676" lon="0.83871">
        <ele>149.3</ele>
        <time>2022-12-04T08:12:51Z</time>
      </trkpt>
      <trkpt lat="44.77678" lon="0.83872">
        <ele>149.5</ele>
        <time>2022-12-04T08:12:52Z</time>
      </trkpt>
      <trkpt lat="44.77691" lon="0.83874">
        <ele>150.3</ele>
        <time>2022-12-04T08:12:56Z</time>
      </trkpt>
      <trkpt lat="44.77712" lon="0.83878">
        <ele>150.5</ele>
        <time>2022-12-04T08:13:02Z</time>
      </trkpt>
      <trkpt lat="44.7773" lon="0.83882">
        <ele>150.4</ele>
        <time>2022-12-04T08:13:07Z</time>
      </trkpt>
      <trkpt lat="44.77744" lon="0.83886">
        <ele>150.1</ele>
        <time>2022-12-04T08:13:11Z</time>
      </trkpt>
      <trkpt lat="44.77758" lon="0.83892">
        <ele>149.5</ele>
        <time>2022-12-04T08:13:14Z</time>
      </trkpt>
      <trkpt lat="44.77767" lon="0.83896">
        <ele>148</ele>
        <time>2022-12-04T08:13:16Z</time>
      </trkpt>
      <trkpt lat="44.77775" lon="0.83898">
        <ele>145.6</ele>
        <time>2022-12-04T08:13:19Z</time>
      </trkpt>
      <trkpt lat="44.77775" lon="0.8389">
        <ele>142.4</ele>
        <time>2022-12-04T08:13:21Z</time>
      </trkpt>
      <trkpt lat="44.77775" lon="0.83884">
        <ele>141.9</ele>
        <time>2022-12-04T08:13:22Z</time>
      </trkpt>
      <trkpt lat="44.77771" lon="0.83873">
        <ele>141.1</ele>
        <time>2022-12-04T08:13:24Z</time>
      </trkpt>
      <trkpt lat="44.77766" lon="0.83861">
        <ele>140.1</ele>
        <time>2022-12-04T08:13:26Z</time>
      </trkpt>
      <trkpt lat="44.77752" lon="0.83836">
        <ele>138.1</ele>
        <time>2022-12-04T08:13:30Z</time>
      </trkpt>
      <trkpt lat="44.77748" lon="0.83831">
        <ele>137.8</ele>
        <time>2022-12-04T08:13:31Z</time>
      </trkpt>
      <trkpt lat="44.77741" lon="0.83822">
        <ele>137.1</ele>
        <time>2022-12-04T08:13:33Z</time>
      </trkpt>
      <trkpt lat="44.77729" lon="0.83809">
        <ele>137.1</ele>
        <time>2022-12-04T08:13:36Z</time>
      </trkpt>
      <trkpt lat="44.77724" lon="0.83801">
        <ele>135.6</ele>
        <time>2022-12-04T08:13:39Z</time>
      </trkpt>
      <trkpt lat="44.77728" lon="0.83797">
        <ele>134.7</ele>
        <time>2022-12-04T08:13:41Z</time>
      </trkpt>
      <trkpt lat="44.77733" lon="0.83799">
        <ele>133.7</ele>
        <time>2022-12-04T08:13:42Z</time>
      </trkpt>
      <trkpt lat="44.77747" lon="0.83803">
        <ele>131.2</ele>
        <time>2022-12-04T08:13:44Z</time>
      </trkpt>
      <trkpt lat="44.77754" lon="0.83803">
        <ele>130.2</ele>
        <time>2022-12-04T08:13:45Z</time>
      </trkpt>
      <trkpt lat="44.77762" lon="0.83803">
        <ele>129.3</ele>
        <time>2022-12-04T08:13:46Z</time>
      </trkpt>
      <trkpt lat="44.77786" lon="0.83807">
        <ele>126.8</ele>
        <time>2022-12-04T08:13:49Z</time>
      </trkpt>
      <trkpt lat="44.77801" lon="0.83808">
        <ele>125.5</ele>
        <time>2022-12-04T08:13:51Z</time>
      </trkpt>
      <trkpt lat="44.77823" lon="0.83807">
        <ele>123.8</ele>
        <time>2022-12-04T08:13:54Z</time>
      </trkpt>
      <trkpt lat="44.77834" lon="0.83796">
        <ele>122.9</ele>
        <time>2022-12-04T08:13:56Z</time>
      </trkpt>
      <trkpt lat="44.77848" lon="0.83768">
        <ele>122.3</ele>
        <time>2022-12-04T08:14:00Z</time>
      </trkpt>
      <trkpt lat="44.77852" lon="0.83763">
        <ele>122.3</ele>
        <time>2022-12-04T08:14:01Z</time>
      </trkpt>
      <trkpt lat="44.77864" lon="0.83752">
        <ele>122.2</ele>
        <time>2022-12-04T08:14:05Z</time>
      </trkpt>
      <trkpt lat="44.77872" lon="0.83753">
        <ele>122.2</ele>
        <time>2022-12-04T08:14:07Z</time>
      </trkpt>
      <trkpt lat="44.77876" lon="0.83757">
        <ele>122.2</ele>
        <time>2022-12-04T08:14:08Z</time>
      </trkpt>
      <trkpt lat="44.77898" lon="0.83771">
        <ele>122.1</ele>
        <time>2022-12-04T08:14:13Z</time>
      </trkpt>
      <trkpt lat="44.77919" lon="0.83784">
        <ele>121.9</ele>
        <time>2022-12-04T08:14:18Z</time>
      </trkpt>
      <trkpt lat="44.77933" lon="0.83797">
        <ele>121.9</ele>
        <time>2022-12-04T08:14:22Z</time>
      </trkpt>
      <trkpt lat="44.77954" lon="0.83822">
        <ele>122</ele>
        <time>2022-12-04T08:14:28Z</time>
      </trkpt>
      <trkpt lat="44.77971" lon="0.8385">
        <ele>122.4</ele>
        <time>2022-12-04T08:14:34Z</time>
      </trkpt>
      <trkpt lat="44.77985" lon="0.83875">
        <ele>122.7</ele>
        <time>2022-12-04T08:14:39Z</time>
      </trkpt>
      <trkpt lat="44.77987" lon="0.8388">
        <ele>122.8</ele>
        <time>2022-12-04T08:14:40Z</time>
      </trkpt>
      <trkpt lat="44.77995" lon="0.83896">
        <ele>122.9</ele>
        <time>2022-12-04T08:14:43Z</time>
      </trkpt>
      <trkpt lat="44.78009" lon="0.83925">
        <ele>123.2</ele>
        <time>2022-12-04T08:14:49Z</time>
      </trkpt>
      <trkpt lat="44.78023" lon="0.83953">
        <ele>123.8</ele>
        <time>2022-12-04T08:14:55Z</time>
      </trkpt>
      <trkpt lat="44.78044" lon="0.83992">
        <ele>124.7</ele>
        <time>2022-12-04T08:15:02Z</time>
      </trkpt>
      <trkpt lat="44.78054" lon="0.84014">
        <ele>125.4</ele>
        <time>2022-12-04T08:15:06Z</time>
      </trkpt>
      <trkpt lat="44.78058" lon="0.84023">
        <ele>125.5</ele>
        <time>2022-12-04T08:15:08Z</time>
      </trkpt>
      <trkpt lat="44.78071" lon="0.84057">
        <ele>125.7</ele>
        <time>2022-12-04T08:15:15Z</time>
      </trkpt>
      <trkpt lat="44.78081" lon="0.84087">
        <ele>126.1</ele>
        <time>2022-12-04T08:15:21Z</time>
      </trkpt>
      <trkpt lat="44.78092" lon="0.8412">
        <ele>126.4</ele>
        <time>2022-12-04T08:15:28Z</time>
      </trkpt>
      <trkpt lat="44.78102" lon="0.84147">
        <ele>126.7</ele>
        <time>2022-12-04T08:15:33Z</time>
      </trkpt>
      <trkpt lat="44.78116" lon="0.84182">
        <ele>128.1</ele>
        <time>2022-12-04T08:15:41Z</time>
      </trkpt>
      <trkpt lat="44.78133" lon="0.84208">
        <ele>129.7</ele>
        <time>2022-12-04T08:15:49Z</time>
      </trkpt>
      <trkpt lat="44.78146" lon="0.84219">
        <ele>130.7</ele>
        <time>2022-12-04T08:15:55Z</time>
      </trkpt>
      <trkpt lat="44.78159" lon="0.84232">
        <ele>131.5</ele>
        <time>2022-12-04T08:16:01Z</time>
      </trkpt>
      <trkpt lat="44.7817" lon="0.84242">
        <ele>131.9</ele>
        <time>2022-12-04T08:16:06Z</time>
      </trkpt>
      <trkpt lat="44.78182" lon="0.84261">
        <ele>131.7</ele>
        <time>2022-12-04T08:16:11Z</time>
      </trkpt>
      <trkpt lat="44.78184" lon="0.84267">
        <ele>131.6</ele>
        <time>2022-12-04T08:16:12Z</time>
      </trkpt>
      <trkpt lat="44.78191" lon="0.84283">
        <ele>131.3</ele>
        <time>2022-12-04T08:16:15Z</time>
      </trkpt>
      <trkpt lat="44.78193" lon="0.84288">
        <ele>131.2</ele>
        <time>2022-12-04T08:16:16Z</time>
      </trkpt>
      <trkpt lat="44.78202" lon="0.84316">
        <ele>131.6</ele>
        <time>2022-12-04T08:16:22Z</time>
      </trkpt>
      <trkpt lat="44.78209" lon="0.8432">
        <ele>131.7</ele>
        <time>2022-12-04T08:16:25Z</time>
      </trkpt>
      <trkpt lat="44.78217" lon="0.84312">
        <ele>131.8</ele>
        <time>2022-12-04T08:16:29Z</time>
      </trkpt>
      <trkpt lat="44.78236" lon="0.84294">
        <ele>133.1</ele>
        <time>2022-12-04T08:16:38Z</time>
      </trkpt>
      <trkpt lat="44.78249" lon="0.84278">
        <ele>134.4</ele>
        <time>2022-12-04T08:16:45Z</time>
      </trkpt>
      <trkpt lat="44.78257" lon="0.84268">
        <ele>135.2</ele>
        <time>2022-12-04T08:16:49Z</time>
      </trkpt>
      <trkpt lat="44.7827" lon="0.84255">
        <ele>136.4</ele>
        <time>2022-12-04T08:16:55Z</time>
      </trkpt>
      <trkpt lat="44.7828" lon="0.84243">
        <ele>137.4</ele>
        <time>2022-12-04T08:17:00Z</time>
      </trkpt>
      <trkpt lat="44.78285" lon="0.84237">
        <ele>137.9</ele>
        <time>2022-12-04T08:17:03Z</time>
      </trkpt>
      <trkpt lat="44.78287" lon="0.84232">
        <ele>138.2</ele>
        <time>2022-12-04T08:17:05Z</time>
      </trkpt>
      <trkpt lat="44.78296" lon="0.84224">
        <ele>139</ele>
        <time>2022-12-04T08:17:10Z</time>
      </trkpt>
      <trkpt lat="44.78298" lon="0.84222">
        <ele>139.2</ele>
        <time>2022-12-04T08:17:11Z</time>
      </trkpt>
      <trkpt lat="44.78298" lon="0.8422">
        <ele>139.3</ele>
        <time>2022-12-04T08:17:12Z</time>
      </trkpt>
      <trkpt lat="44.78303" lon="0.84211">
        <ele>139.9</ele>
        <time>2022-12-04T08:17:16Z</time>
      </trkpt>
      <trkpt lat="44.78314" lon="0.842">
        <ele>140.9</ele>
        <time>2022-12-04T08:17:22Z</time>
      </trkpt>
      <trkpt lat="44.78331" lon="0.84183">
        <ele>142.5</ele>
        <time>2022-12-04T08:17:30Z</time>
      </trkpt>
      <trkpt lat="44.78344" lon="0.84169">
        <ele>143.8</ele>
        <time>2022-12-04T08:17:36Z</time>
      </trkpt>
      <trkpt lat="44.78358" lon="0.8416">
        <ele>145.1</ele>
        <time>2022-12-04T08:17:42Z</time>
      </trkpt>
      <trkpt lat="44.78374" lon="0.84153">
        <ele>146.4</ele>
        <time>2022-12-04T08:17:48Z</time>
      </trkpt>
      <trkpt lat="44.78394" lon="0.84149">
        <ele>147.8</ele>
        <time>2022-12-04T08:17:56Z</time>
      </trkpt>
      <trkpt lat="44.78415" lon="0.8415">
        <ele>149</ele>
        <time>2022-12-04T08:18:04Z</time>
      </trkpt>
      <trkpt lat="44.78432" lon="0.84154">
        <ele>149.9</ele>
        <time>2022-12-04T08:18:10Z</time>
      </trkpt>
      <trkpt lat="44.78449" lon="0.84159">
        <ele>150.7</ele>
        <time>2022-12-04T08:18:16Z</time>
      </trkpt>
      <trkpt lat="44.78461" lon="0.8416">
        <ele>151.4</ele>
        <time>2022-12-04T08:18:21Z</time>
      </trkpt>
      <trkpt lat="44.78477" lon="0.84166">
        <ele>152.4</ele>
        <time>2022-12-04T08:18:27Z</time>
      </trkpt>
      <trkpt lat="44.78496" lon="0.84174">
        <ele>153.8</ele>
        <time>2022-12-04T08:18:34Z</time>
      </trkpt>
      <trkpt lat="44.78506" lon="0.84177">
        <ele>154.5</ele>
        <time>2022-12-04T08:18:38Z</time>
      </trkpt>
      <trkpt lat="44.78522" lon="0.84182">
        <ele>155.7</ele>
        <time>2022-12-04T08:18:44Z</time>
      </trkpt>
      <trkpt lat="44.78536" lon="0.84185">
        <ele>156.7</ele>
        <time>2022-12-04T08:18:49Z</time>
      </trkpt>
      <trkpt lat="44.78548" lon="0.84184">
        <ele>157.6</ele>
        <time>2022-12-04T08:18:54Z</time>
      </trkpt>
      <trkpt lat="44.78561" lon="0.84182">
        <ele>158.4</ele>
        <time>2022-12-04T08:18:59Z</time>
      </trkpt>
      <trkpt lat="44.78579" lon="0.84175">
        <ele>159.3</ele>
        <time>2022-12-04T08:19:05Z</time>
      </trkpt>
      <trkpt lat="44.78594" lon="0.84169">
        <ele>159.7</ele>
        <time>2022-12-04T08:19:10Z</time>
      </trkpt>
      <trkpt lat="44.7861" lon="0.84164">
        <ele>160.1</ele>
        <time>2022-12-04T08:19:15Z</time>
      </trkpt>
      <trkpt lat="44.78613" lon="0.84163">
        <ele>160.2</ele>
        <time>2022-12-04T08:19:16Z</time>
      </trkpt>
      <trkpt lat="44.78625" lon="0.84163">
        <ele>160.5</ele>
        <time>2022-12-04T08:19:19Z</time>
      </trkpt>
      <trkpt lat="44.78644" lon="0.84164">
        <ele>161.1</ele>
        <time>2022-12-04T08:19:24Z</time>
      </trkpt>
      <trkpt lat="44.78663" lon="0.8417">
        <ele>161.8</ele>
        <time>2022-12-04T08:19:30Z</time>
      </trkpt>
      <trkpt lat="44.7869" lon="0.84171">
        <ele>162.6</ele>
        <time>2022-12-04T08:19:37Z</time>
      </trkpt>
      <trkpt lat="44.7871" lon="0.84174">
        <ele>163.3</ele>
        <time>2022-12-04T08:19:43Z</time>
      </trkpt>
      <trkpt lat="44.78738" lon="0.84179">
        <ele>164.4</ele>
        <time>2022-12-04T08:19:51Z</time>
      </trkpt>
      <trkpt lat="44.78766" lon="0.84188">
        <ele>165.7</ele>
        <time>2022-12-04T08:19:59Z</time>
      </trkpt>
      <trkpt lat="44.78784" lon="0.84191">
        <ele>166.8</ele>
        <time>2022-12-04T08:20:05Z</time>
      </trkpt>
      <trkpt lat="44.78798" lon="0.84195">
        <ele>167.8</ele>
        <time>2022-12-04T08:20:10Z</time>
      </trkpt>
      <trkpt lat="44.78812" lon="0.84206">
        <ele>169.3</ele>
        <time>2022-12-04T08:20:16Z</time>
      </trkpt>
      <trkpt lat="44.78811" lon="0.84227">
        <ele>170</ele>
        <time>2022-12-04T08:20:21Z</time>
      </trkpt>
      <trkpt lat="44.78808" lon="0.84256">
        <ele>170.4</ele>
        <time>2022-12-04T08:20:27Z</time>
      </trkpt>
      <trkpt lat="44.78801" lon="0.84287">
        <ele>171.1</ele>
        <time>2022-12-04T08:20:34Z</time>
      </trkpt>
      <trkpt lat="44.78792" lon="0.843">
        <ele>171.7</ele>
        <time>2022-12-04T08:20:38Z</time>
      </trkpt>
      <trkpt lat="44.78777" lon="0.84317">
        <ele>172.6</ele>
        <time>2022-12-04T08:20:44Z</time>
      </trkpt>
      <trkpt lat="44.78765" lon="0.84337">
        <ele>173.7</ele>
        <time>2022-12-04T08:20:50Z</time>
      </trkpt>
      <trkpt lat="44.78759" lon="0.84358">
        <ele>174.8</ele>
        <time>2022-12-04T08:20:55Z</time>
      </trkpt>
      <trkpt lat="44.78757" lon="0.84371">
        <ele>175.5</ele>
        <time>2022-12-04T08:20:59Z</time>
      </trkpt>
      <trkpt lat="44.78756" lon="0.8439">
        <ele>176.4</ele>
        <time>2022-12-04T08:21:04Z</time>
      </trkpt>
      <trkpt lat="44.78756" lon="0.84418">
        <ele>177.5</ele>
        <time>2022-12-04T08:21:11Z</time>
      </trkpt>
      <trkpt lat="44.78759" lon="0.84441">
        <ele>178.4</ele>
        <time>2022-12-04T08:21:17Z</time>
      </trkpt>
      <trkpt lat="44.78762" lon="0.84464">
        <ele>179.3</ele>
        <time>2022-12-04T08:21:23Z</time>
      </trkpt>
      <trkpt lat="44.78767" lon="0.84489">
        <ele>180.2</ele>
        <time>2022-12-04T08:21:29Z</time>
      </trkpt>
      <trkpt lat="44.78771" lon="0.84513">
        <ele>180.9</ele>
        <time>2022-12-04T08:21:35Z</time>
      </trkpt>
      <trkpt lat="44.78775" lon="0.84539">
        <ele>181.8</ele>
        <time>2022-12-04T08:21:41Z</time>
      </trkpt>
      <trkpt lat="44.78777" lon="0.84561">
        <ele>182.8</ele>
        <time>2022-12-04T08:21:46Z</time>
      </trkpt>
      <trkpt lat="44.78778" lon="0.84588">
        <ele>184</ele>
        <time>2022-12-04T08:21:53Z</time>
      </trkpt>
      <trkpt lat="44.78781" lon="0.8461">
        <ele>184.7</ele>
        <time>2022-12-04T08:21:59Z</time>
      </trkpt>
      <trkpt lat="44.78784" lon="0.84629">
        <ele>185.1</ele>
        <time>2022-12-04T08:22:04Z</time>
      </trkpt>
      <trkpt lat="44.78791" lon="0.84656">
        <ele>185.4</ele>
        <time>2022-12-04T08:22:10Z</time>
      </trkpt>
      <trkpt lat="44.78795" lon="0.84677">
        <ele>185.5</ele>
        <time>2022-12-04T08:22:15Z</time>
      </trkpt>
      <trkpt lat="44.78803" lon="0.84705">
        <ele>185.6</ele>
        <time>2022-12-04T08:22:21Z</time>
      </trkpt>
      <trkpt lat="44.78813" lon="0.84734">
        <ele>185.6</ele>
        <time>2022-12-04T08:22:27Z</time>
      </trkpt>
      <trkpt lat="44.78824" lon="0.84764">
        <ele>185.7</ele>
        <time>2022-12-04T08:22:33Z</time>
      </trkpt>
      <trkpt lat="44.78832" lon="0.84795">
        <ele>186</ele>
        <time>2022-12-04T08:22:39Z</time>
      </trkpt>
      <trkpt lat="44.78841" lon="0.84834">
        <ele>186.5</ele>
        <time>2022-12-04T08:22:47Z</time>
      </trkpt>
      <trkpt lat="44.7885" lon="0.84866">
        <ele>187.1</ele>
        <time>2022-12-04T08:22:53Z</time>
      </trkpt>
      <trkpt lat="44.78862" lon="0.84901">
        <ele>187.6</ele>
        <time>2022-12-04T08:23:00Z</time>
      </trkpt>
      <trkpt lat="44.78875" lon="0.84947">
        <ele>188.2</ele>
        <time>2022-12-04T08:23:09Z</time>
      </trkpt>
      <trkpt lat="44.78889" lon="0.84991">
        <ele>188.8</ele>
        <time>2022-12-04T08:23:18Z</time>
      </trkpt>
      <trkpt lat="44.78903" lon="0.8504">
        <ele>189.6</ele>
        <time>2022-12-04T08:23:27Z</time>
      </trkpt>
      <trkpt lat="44.78904" lon="0.85046">
        <ele>189.7</ele>
        <time>2022-12-04T08:23:28Z</time>
      </trkpt>
      <trkpt lat="44.78916" lon="0.85088">
        <ele>190.6</ele>
        <time>2022-12-04T08:23:36Z</time>
      </trkpt>
      <trkpt lat="44.78919" lon="0.85099">
        <ele>190.9</ele>
        <time>2022-12-04T08:23:38Z</time>
      </trkpt>
      <trkpt lat="44.78919" lon="0.85116">
        <ele>191.2</ele>
        <time>2022-12-04T08:23:41Z</time>
      </trkpt>
      <trkpt lat="44.78925" lon="0.85136">
        <ele>191.4</ele>
        <time>2022-12-04T08:23:45Z</time>
      </trkpt>
      <trkpt lat="44.78937" lon="0.85171">
        <ele>190.9</ele>
        <time>2022-12-04T08:23:51Z</time>
      </trkpt>
      <trkpt lat="44.78949" lon="0.8521">
        <ele>190.3</ele>
        <time>2022-12-04T08:23:58Z</time>
      </trkpt>
      <trkpt lat="44.78963" lon="0.85249">
        <ele>189.6</ele>
        <time>2022-12-04T08:24:04Z</time>
      </trkpt>
      <trkpt lat="44.78979" lon="0.85291">
        <ele>189</ele>
        <time>2022-12-04T08:24:10Z</time>
      </trkpt>
      <trkpt lat="44.7898" lon="0.85297">
        <ele>189</ele>
        <time>2022-12-04T08:24:11Z</time>
      </trkpt>
      <trkpt lat="44.78981" lon="0.85311">
        <ele>188.9</ele>
        <time>2022-12-04T08:24:13Z</time>
      </trkpt>
      <trkpt lat="44.78982" lon="0.85318">
        <ele>188.9</ele>
        <time>2022-12-04T08:24:14Z</time>
      </trkpt>
      <trkpt lat="44.78984" lon="0.85325">
        <ele>188.9</ele>
        <time>2022-12-04T08:24:15Z</time>
      </trkpt>
      <trkpt lat="44.78991" lon="0.85345">
        <ele>188.8</ele>
        <time>2022-12-04T08:24:18Z</time>
      </trkpt>
      <trkpt lat="44.79008" lon="0.85371">
        <ele>188.5</ele>
        <time>2022-12-04T08:24:23Z</time>
      </trkpt>
      <trkpt lat="44.79012" lon="0.85375">
        <ele>188.5</ele>
        <time>2022-12-04T08:24:24Z</time>
      </trkpt>
      <trkpt lat="44.79017" lon="0.85379">
        <ele>188.5</ele>
        <time>2022-12-04T08:24:25Z</time>
      </trkpt>
      <trkpt lat="44.79035" lon="0.85389">
        <ele>188.7</ele>
        <time>2022-12-04T08:24:29Z</time>
      </trkpt>
      <trkpt lat="44.79042" lon="0.85396">
        <ele>189</ele>
        <time>2022-12-04T08:24:31Z</time>
      </trkpt>
      <trkpt lat="44.79048" lon="0.85405">
        <ele>189.2</ele>
        <time>2022-12-04T08:24:33Z</time>
      </trkpt>
      <trkpt lat="44.79071" lon="0.85445">
        <ele>190.4</ele>
        <time>2022-12-04T08:24:41Z</time>
      </trkpt>
      <trkpt lat="44.79083" lon="0.85469">
        <ele>190.8</ele>
        <time>2022-12-04T08:24:46Z</time>
      </trkpt>
      <trkpt lat="44.79099" lon="0.855">
        <ele>189.9</ele>
        <time>2022-12-04T08:24:52Z</time>
      </trkpt>
      <trkpt lat="44.79108" lon="0.85522">
        <ele>188.7</ele>
        <time>2022-12-04T08:24:55Z</time>
      </trkpt>
      <trkpt lat="44.79113" lon="0.85537">
        <ele>188.1</ele>
        <time>2022-12-04T08:24:57Z</time>
      </trkpt>
      <trkpt lat="44.79121" lon="0.85561">
        <ele>187.7</ele>
        <time>2022-12-04T08:25:00Z</time>
      </trkpt>
      <trkpt lat="44.79124" lon="0.85575">
        <ele>187.7</ele>
        <time>2022-12-04T08:25:02Z</time>
      </trkpt>
      <trkpt lat="44.79127" lon="0.85597">
        <ele>187.9</ele>
        <time>2022-12-04T08:25:05Z</time>
      </trkpt>
      <trkpt lat="44.79129" lon="0.85618">
        <ele>188.1</ele>
        <time>2022-12-04T08:25:08Z</time>
      </trkpt>
      <trkpt lat="44.79136" lon="0.8567">
        <ele>187.7</ele>
        <time>2022-12-04T08:25:15Z</time>
      </trkpt>
      <trkpt lat="44.79135" lon="0.85717">
        <ele>184.7</ele>
        <time>2022-12-04T08:25:20Z</time>
      </trkpt>
      <trkpt lat="44.79135" lon="0.85764">
        <ele>180.7</ele>
        <time>2022-12-04T08:25:24Z</time>
      </trkpt>
      <trkpt lat="44.79135" lon="0.85845">
        <ele>177.1</ele>
        <time>2022-12-04T08:25:30Z</time>
      </trkpt>
      <trkpt lat="44.79136" lon="0.85888">
        <ele>178.3</ele>
        <time>2022-12-04T08:25:34Z</time>
      </trkpt>
      <trkpt lat="44.79137" lon="0.85913">
        <ele>179.6</ele>
        <time>2022-12-04T08:25:37Z</time>
      </trkpt>
      <trkpt lat="44.79136" lon="0.8592">
        <ele>180</ele>
        <time>2022-12-04T08:25:38Z</time>
      </trkpt>
      <trkpt lat="44.79137" lon="0.85939">
        <ele>180.8</ele>
        <time>2022-12-04T08:25:41Z</time>
      </trkpt>
      <trkpt lat="44.79138" lon="0.85952">
        <ele>181.3</ele>
        <time>2022-12-04T08:25:43Z</time>
      </trkpt>
      <trkpt lat="44.79141" lon="0.85965">
        <ele>181.7</ele>
        <time>2022-12-04T08:25:45Z</time>
      </trkpt>
      <trkpt lat="44.79146" lon="0.85986">
        <ele>182.4</ele>
        <time>2022-12-04T08:25:48Z</time>
      </trkpt>
      <trkpt lat="44.79149" lon="0.85999">
        <ele>182.9</ele>
        <time>2022-12-04T08:25:50Z</time>
      </trkpt>
      <trkpt lat="44.79153" lon="0.86025">
        <ele>183.7</ele>
        <time>2022-12-04T08:25:54Z</time>
      </trkpt>
      <trkpt lat="44.79158" lon="0.86043">
        <ele>183.8</ele>
        <time>2022-12-04T08:25:58Z</time>
      </trkpt>
      <trkpt lat="44.79166" lon="0.86048">
        <ele>183.4</ele>
        <time>2022-12-04T08:26:00Z</time>
      </trkpt>
      <trkpt lat="44.7917" lon="0.86049">
        <ele>183.3</ele>
        <time>2022-12-04T08:26:01Z</time>
      </trkpt>
      <trkpt lat="44.792" lon="0.86058">
        <ele>182.5</ele>
        <time>2022-12-04T08:26:07Z</time>
      </trkpt>
      <trkpt lat="44.79237" lon="0.86073">
        <ele>183.1</ele>
        <time>2022-12-04T08:26:14Z</time>
      </trkpt>
      <trkpt lat="44.79257" lon="0.86081">
        <ele>183.7</ele>
        <time>2022-12-04T08:26:18Z</time>
      </trkpt>
      <trkpt lat="44.79266" lon="0.86083">
        <ele>184.2</ele>
        <time>2022-12-04T08:26:20Z</time>
      </trkpt>
      <trkpt lat="44.7928" lon="0.86084">
        <ele>185</ele>
        <time>2022-12-04T08:26:23Z</time>
      </trkpt>
      <trkpt lat="44.79287" lon="0.86081">
        <ele>185.6</ele>
        <time>2022-12-04T08:26:25Z</time>
      </trkpt>
      <trkpt lat="44.79302" lon="0.86074">
        <ele>186.8</ele>
        <time>2022-12-04T08:26:30Z</time>
      </trkpt>
      <trkpt lat="44.79317" lon="0.86066">
        <ele>188.2</ele>
        <time>2022-12-04T08:26:36Z</time>
      </trkpt>
      <trkpt lat="44.79333" lon="0.86063">
        <ele>189.8</ele>
        <time>2022-12-04T08:26:42Z</time>
      </trkpt>
      <trkpt lat="44.79344" lon="0.86065">
        <ele>191.1</ele>
        <time>2022-12-04T08:26:46Z</time>
      </trkpt>
      <trkpt lat="44.79356" lon="0.8607">
        <ele>192.5</ele>
        <time>2022-12-04T08:26:50Z</time>
      </trkpt>
      <trkpt lat="44.79373" lon="0.86082">
        <ele>194.4</ele>
        <time>2022-12-04T08:26:56Z</time>
      </trkpt>
      <trkpt lat="44.79389" lon="0.86085">
        <ele>195.5</ele>
        <time>2022-12-04T08:27:01Z</time>
      </trkpt>
      <trkpt lat="44.79412" lon="0.86083">
        <ele>196.9</ele>
        <time>2022-12-04T08:27:08Z</time>
      </trkpt>
      <trkpt lat="44.79432" lon="0.86083">
        <ele>198</ele>
        <time>2022-12-04T08:27:15Z</time>
      </trkpt>
      <trkpt lat="44.79449" lon="0.86083">
        <ele>199.1</ele>
        <time>2022-12-04T08:27:21Z</time>
      </trkpt>
      <trkpt lat="44.79464" lon="0.86083">
        <ele>200</ele>
        <time>2022-12-04T08:27:27Z</time>
      </trkpt>
      <trkpt lat="44.79473" lon="0.86084">
        <ele>200.5</ele>
        <time>2022-12-04T08:27:31Z</time>
      </trkpt>
      <trkpt lat="44.79489" lon="0.86084">
        <ele>200.9</ele>
        <time>2022-12-04T08:27:37Z</time>
      </trkpt>
      <trkpt lat="44.79502" lon="0.86093">
        <ele>200.6</ele>
        <time>2022-12-04T08:27:42Z</time>
      </trkpt>
      <trkpt lat="44.79503" lon="0.86103">
        <ele>200.8</ele>
        <time>2022-12-04T08:27:44Z</time>
      </trkpt>
      <trkpt lat="44.79502" lon="0.86107">
        <ele>201</ele>
        <time>2022-12-04T08:27:45Z</time>
      </trkpt>
      <trkpt lat="44.79493" lon="0.86129">
        <ele>201.5</ele>
        <time>2022-12-04T08:27:51Z</time>
      </trkpt>
      <trkpt lat="44.79486" lon="0.86155">
        <ele>201.8</ele>
        <time>2022-12-04T08:27:56Z</time>
      </trkpt>
      <trkpt lat="44.79479" lon="0.86192">
        <ele>202.2</ele>
        <time>2022-12-04T08:28:03Z</time>
      </trkpt>
      <trkpt lat="44.79474" lon="0.86216">
        <ele>202.5</ele>
        <time>2022-12-04T08:28:08Z</time>
      </trkpt>
      <trkpt lat="44.79471" lon="0.86247">
        <ele>203.1</ele>
        <time>2022-12-04T08:28:14Z</time>
      </trkpt>
      <trkpt lat="44.79468" lon="0.86269">
        <ele>203.7</ele>
        <time>2022-12-04T08:28:19Z</time>
      </trkpt>
      <trkpt lat="44.79467" lon="0.86289">
        <ele>204.1</ele>
        <time>2022-12-04T08:28:23Z</time>
      </trkpt>
      <trkpt lat="44.79466" lon="0.86304">
        <ele>204.3</ele>
        <time>2022-12-04T08:28:26Z</time>
      </trkpt>
      <trkpt lat="44.79465" lon="0.86328">
        <ele>204.4</ele>
        <time>2022-12-04T08:28:30Z</time>
      </trkpt>
      <trkpt lat="44.79459" lon="0.8636">
        <ele>204.2</ele>
        <time>2022-12-04T08:28:35Z</time>
      </trkpt>
      <trkpt lat="44.79456" lon="0.86379">
        <ele>204</ele>
        <time>2022-12-04T08:28:38Z</time>
      </trkpt>
      <trkpt lat="44.79454" lon="0.86392">
        <ele>204</ele>
        <time>2022-12-04T08:28:40Z</time>
      </trkpt>
      <trkpt lat="44.79451" lon="0.86433">
        <ele>204.1</ele>
        <time>2022-12-04T08:28:46Z</time>
      </trkpt>
      <trkpt lat="44.79444" lon="0.86484">
        <ele>204.7</ele>
        <time>2022-12-04T08:28:53Z</time>
      </trkpt>
      <trkpt lat="44.79439" lon="0.86515">
        <ele>205.4</ele>
        <time>2022-12-04T08:28:58Z</time>
      </trkpt>
      <trkpt lat="44.79437" lon="0.86528">
        <ele>205.7</ele>
        <time>2022-12-04T08:29:00Z</time>
      </trkpt>
      <trkpt lat="44.79435" lon="0.8654">
        <ele>206</ele>
        <time>2022-12-04T08:29:02Z</time>
      </trkpt>
      <trkpt lat="44.7943" lon="0.86575">
        <ele>206.9</ele>
        <time>2022-12-04T08:29:08Z</time>
      </trkpt>
      <trkpt lat="44.79422" lon="0.86608">
        <ele>208.1</ele>
        <time>2022-12-04T08:29:14Z</time>
      </trkpt>
      <trkpt lat="44.79417" lon="0.86642">
        <ele>209.7</ele>
        <time>2022-12-04T08:29:21Z</time>
      </trkpt>
      <trkpt lat="44.79414" lon="0.8665">
        <ele>210.2</ele>
        <time>2022-12-04T08:29:24Z</time>
      </trkpt>
      <trkpt lat="44.79413" lon="0.86657">
        <ele>210.6</ele>
        <time>2022-12-04T08:29:26Z</time>
      </trkpt>
      <trkpt lat="44.79413" lon="0.86663">
        <ele>211</ele>
        <time>2022-12-04T08:29:28Z</time>
      </trkpt>
      <trkpt lat="44.79411" lon="0.86682">
        <ele>212</ele>
        <time>2022-12-04T08:29:33Z</time>
      </trkpt>
      <trkpt lat="44.79408" lon="0.86706">
        <ele>213.4</ele>
        <time>2022-12-04T08:29:39Z</time>
      </trkpt>
      <trkpt lat="44.79406" lon="0.86723">
        <ele>214.3</ele>
        <time>2022-12-04T08:29:44Z</time>
      </trkpt>
      <trkpt lat="44.79403" lon="0.86748">
        <ele>216</ele>
        <time>2022-12-04T08:29:51Z</time>
      </trkpt>
      <trkpt lat="44.79401" lon="0.86765">
        <ele>217.1</ele>
        <time>2022-12-04T08:29:57Z</time>
      </trkpt>
      <trkpt lat="44.794" lon="0.8678">
        <ele>218.1</ele>
        <time>2022-12-04T08:30:02Z</time>
      </trkpt>
      <trkpt lat="44.79398" lon="0.86803">
        <ele>219.2</ele>
        <time>2022-12-04T08:30:09Z</time>
      </trkpt>
      <trkpt lat="44.79395" lon="0.86823">
        <ele>219.6</ele>
        <time>2022-12-04T08:30:15Z</time>
      </trkpt>
      <trkpt lat="44.79393" lon="0.86843">
        <ele>219.5</ele>
        <time>2022-12-04T08:30:20Z</time>
      </trkpt>
      <trkpt lat="44.79393" lon="0.86869">
        <ele>219.8</ele>
        <time>2022-12-04T08:30:25Z</time>
      </trkpt>
      <trkpt lat="44.79393" lon="0.86876">
        <ele>219.2</ele>
        <time>2022-12-04T08:30:26Z</time>
      </trkpt>
      <trkpt lat="44.79393" lon="0.86896">
        <ele>218.9</ele>
        <time>2022-12-04T08:30:29Z</time>
      </trkpt>
      <trkpt lat="44.79398" lon="0.86927">
        <ele>218.4</ele>
        <time>2022-12-04T08:30:33Z</time>
      </trkpt>
      <trkpt lat="44.79399" lon="0.86943">
        <ele>217.7</ele>
        <time>2022-12-04T08:30:35Z</time>
      </trkpt>
      <trkpt lat="44.79399" lon="0.86967">
        <ele>216.9</ele>
        <time>2022-12-04T08:30:38Z</time>
      </trkpt>
      <trkpt lat="44.79401" lon="0.87008">
        <ele>216</ele>
        <time>2022-12-04T08:30:44Z</time>
      </trkpt>
      <trkpt lat="44.79401" lon="0.87033">
        <ele>215</ele>
        <time>2022-12-04T08:30:48Z</time>
      </trkpt>
      <trkpt lat="44.794" lon="0.87048">
        <ele>214.3</ele>
        <time>2022-12-04T08:30:50Z</time>
      </trkpt>
      <trkpt lat="44.79397" lon="0.87063">
        <ele>213.7</ele>
        <time>2022-12-04T08:30:52Z</time>
      </trkpt>
      <trkpt lat="44.79397" lon="0.87082">
        <ele>213.3</ele>
        <time>2022-12-04T08:30:55Z</time>
      </trkpt>
      <trkpt lat="44.794" lon="0.87109">
        <ele>213.1</ele>
        <time>2022-12-04T08:30:59Z</time>
      </trkpt>
      <trkpt lat="44.79403" lon="0.87124">
        <ele>213.2</ele>
        <time>2022-12-04T08:31:01Z</time>
      </trkpt>
      <trkpt lat="44.79406" lon="0.87138">
        <ele>213.2</ele>
        <time>2022-12-04T08:31:03Z</time>
      </trkpt>
      <trkpt lat="44.79413" lon="0.87158">
        <ele>213.5</ele>
        <time>2022-12-04T08:31:06Z</time>
      </trkpt>
      <trkpt lat="44.79415" lon="0.87164">
        <ele>213.7</ele>
        <time>2022-12-04T08:31:07Z</time>
      </trkpt>
      <trkpt lat="44.79423" lon="0.87183">
        <ele>214.2</ele>
        <time>2022-12-04T08:31:10Z</time>
      </trkpt>
      <trkpt lat="44.79426" lon="0.87195">
        <ele>214.8</ele>
        <time>2022-12-04T08:31:12Z</time>
      </trkpt>
      <trkpt lat="44.79428" lon="0.87201">
        <ele>215.1</ele>
        <time>2022-12-04T08:31:13Z</time>
      </trkpt>
      <trkpt lat="44.79431" lon="0.87213">
        <ele>215.8</ele>
        <time>2022-12-04T08:31:16Z</time>
      </trkpt>
      <trkpt lat="44.79432" lon="0.87228">
        <ele>216.7</ele>
        <time>2022-12-04T08:31:20Z</time>
      </trkpt>
      <trkpt lat="44.79431" lon="0.87249">
        <ele>218.1</ele>
        <time>2022-12-04T08:31:25Z</time>
      </trkpt>
      <trkpt lat="44.79429" lon="0.87264">
        <ele>219.1</ele>
        <time>2022-12-04T08:31:29Z</time>
      </trkpt>
      <trkpt lat="44.79429" lon="0.87268">
        <ele>219.4</ele>
        <time>2022-12-04T08:31:30Z</time>
      </trkpt>
      <trkpt lat="44.79428" lon="0.87283">
        <ele>220.4</ele>
        <time>2022-12-04T08:31:35Z</time>
      </trkpt>
      <trkpt lat="44.79428" lon="0.87286">
        <ele>220.5</ele>
        <time>2022-12-04T08:31:36Z</time>
      </trkpt>
      <trkpt lat="44.79429" lon="0.873">
        <ele>221.4</ele>
        <time>2022-12-04T08:31:40Z</time>
      </trkpt>
      <trkpt lat="44.79429" lon="0.87324">
        <ele>222.5</ele>
        <time>2022-12-04T08:31:47Z</time>
      </trkpt>
      <trkpt lat="44.79429" lon="0.87327">
        <ele>222.6</ele>
        <time>2022-12-04T08:31:48Z</time>
      </trkpt>
      <trkpt lat="44.79426" lon="0.87336">
        <ele>223</ele>
        <time>2022-12-04T08:31:51Z</time>
      </trkpt>
      <trkpt lat="44.79424" lon="0.87353">
        <ele>223.8</ele>
        <time>2022-12-04T08:31:56Z</time>
      </trkpt>
      <trkpt lat="44.79422" lon="0.87374">
        <ele>225</ele>
        <time>2022-12-04T08:32:02Z</time>
      </trkpt>
      <trkpt lat="44.79426" lon="0.87386">
        <ele>225.9</ele>
        <time>2022-12-04T08:32:07Z</time>
      </trkpt>
      <trkpt lat="44.79429" lon="0.87401">
        <ele>227.1</ele>
        <time>2022-12-04T08:32:13Z</time>
      </trkpt>
      <trkpt lat="44.7943" lon="0.87404">
        <ele>227.2</ele>
        <time>2022-12-04T08:32:14Z</time>
      </trkpt>
      <trkpt lat="44.79429" lon="0.87415">
        <ele>228</ele>
        <time>2022-12-04T08:32:18Z</time>
      </trkpt>
      <trkpt lat="44.79428" lon="0.87428">
        <ele>228.8</ele>
        <time>2022-12-04T08:32:22Z</time>
      </trkpt>
      <trkpt lat="44.79427" lon="0.87431">
        <ele>229</ele>
        <time>2022-12-04T08:32:23Z</time>
      </trkpt>
      <trkpt lat="44.79428" lon="0.87449">
        <ele>229.9</ele>
        <time>2022-12-04T08:32:29Z</time>
      </trkpt>
      <trkpt lat="44.7943" lon="0.87481">
        <ele>231</ele>
        <time>2022-12-04T08:32:37Z</time>
      </trkpt>
      <trkpt lat="44.79421" lon="0.87508">
        <ele>231.9</ele>
        <time>2022-12-04T08:32:45Z</time>
      </trkpt>
      <trkpt lat="44.79415" lon="0.87519">
        <ele>232.2</ele>
        <time>2022-12-04T08:32:50Z</time>
      </trkpt>
      <trkpt lat="44.79407" lon="0.8754">
        <ele>232.9</ele>
        <time>2022-12-04T08:32:55Z</time>
      </trkpt>
      <trkpt lat="44.79407" lon="0.87561">
        <ele>233.4</ele>
        <time>2022-12-04T08:33:00Z</time>
      </trkpt>
      <trkpt lat="44.79403" lon="0.87586">
        <ele>234</ele>
        <time>2022-12-04T08:33:06Z</time>
      </trkpt>
      <trkpt lat="44.794" lon="0.87604">
        <ele>234.3</ele>
        <time>2022-12-04T08:33:10Z</time>
      </trkpt>
      <trkpt lat="44.79396" lon="0.87621">
        <ele>234.5</ele>
        <time>2022-12-04T08:33:14Z</time>
      </trkpt>
      <trkpt lat="44.79393" lon="0.87628">
        <ele>234.6</ele>
        <time>2022-12-04T08:33:16Z</time>
      </trkpt>
      <trkpt lat="44.79393" lon="0.87636">
        <ele>234.7</ele>
        <time>2022-12-04T08:33:18Z</time>
      </trkpt>
      <trkpt lat="44.7939" lon="0.87658">
        <ele>235</ele>
        <time>2022-12-04T08:33:23Z</time>
      </trkpt>
      <trkpt lat="44.79384" lon="0.87674">
        <ele>235.3</ele>
        <time>2022-12-04T08:33:27Z</time>
      </trkpt>
      <trkpt lat="44.79381" lon="0.87691">
        <ele>235.6</ele>
        <time>2022-12-04T08:33:31Z</time>
      </trkpt>
      <trkpt lat="44.79377" lon="0.87713">
        <ele>236</ele>
        <time>2022-12-04T08:33:36Z</time>
      </trkpt>
      <trkpt lat="44.79371" lon="0.87737">
        <ele>236.5</ele>
        <time>2022-12-04T08:33:41Z</time>
      </trkpt>
      <trkpt lat="44.79367" lon="0.8776">
        <ele>237</ele>
        <time>2022-12-04T08:33:46Z</time>
      </trkpt>
      <trkpt lat="44.79365" lon="0.87778">
        <ele>237.5</ele>
        <time>2022-12-04T08:33:50Z</time>
      </trkpt>
      <trkpt lat="44.79362" lon="0.87791">
        <ele>237.9</ele>
        <time>2022-12-04T08:33:54Z</time>
      </trkpt>
      <trkpt lat="44.79363" lon="0.878">
        <ele>238.2</ele>
        <time>2022-12-04T08:33:57Z</time>
      </trkpt>
      <trkpt lat="44.79363" lon="0.87801">
        <ele>238.2</ele>
        <time>2022-12-04T08:33:59Z</time>
      </trkpt>
      <trkpt lat="44.79362" lon="0.87824">
        <ele>238.6</ele>
        <time>2022-12-04T08:34:22Z</time>
      </trkpt>
      <trkpt lat="44.7936" lon="0.87829">
        <ele>238.6</ele>
        <time>2022-12-04T08:34:24Z</time>
      </trkpt>
      <trkpt lat="44.79358" lon="0.87836">
        <ele>238.7</ele>
        <time>2022-12-04T08:34:26Z</time>
      </trkpt>
      <trkpt lat="44.79356" lon="0.87846">
        <ele>238.9</ele>
        <time>2022-12-04T08:34:28Z</time>
      </trkpt>
      <trkpt lat="44.79351" lon="0.87873">
        <ele>239.3</ele>
        <time>2022-12-04T08:34:33Z</time>
      </trkpt>
      <trkpt lat="44.79343" lon="0.87899">
        <ele>239.7</ele>
        <time>2022-12-04T08:34:38Z</time>
      </trkpt>
      <trkpt lat="44.79335" lon="0.87914">
        <ele>239.9</ele>
        <time>2022-12-04T08:34:42Z</time>
      </trkpt>
      <trkpt lat="44.79329" lon="0.87936">
        <ele>240.1</ele>
        <time>2022-12-04T08:34:46Z</time>
      </trkpt>
      <trkpt lat="44.79321" lon="0.87971">
        <ele>240.1</ele>
        <time>2022-12-04T08:34:52Z</time>
      </trkpt>
      <trkpt lat="44.79318" lon="0.87984">
        <ele>240</ele>
        <time>2022-12-04T08:34:54Z</time>
      </trkpt>
      <trkpt lat="44.79316" lon="0.87998">
        <ele>240</ele>
        <time>2022-12-04T08:34:56Z</time>
      </trkpt>
      <trkpt lat="44.79308" lon="0.88037">
        <ele>239.6</ele>
        <time>2022-12-04T08:35:02Z</time>
      </trkpt>
      <trkpt lat="44.79306" lon="0.88053">
        <ele>239.5</ele>
        <time>2022-12-04T08:35:05Z</time>
      </trkpt>
      <trkpt lat="44.79306" lon="0.88066">
        <ele>239.4</ele>
        <time>2022-12-04T08:35:07Z</time>
      </trkpt>
      <trkpt lat="44.79302" lon="0.88089">
        <ele>239.4</ele>
        <time>2022-12-04T08:35:11Z</time>
      </trkpt>
      <trkpt lat="44.79296" lon="0.88104">
        <ele>239.4</ele>
        <time>2022-12-04T08:35:15Z</time>
      </trkpt>
      <trkpt lat="44.79297" lon="0.88112">
        <ele>239.3</ele>
        <time>2022-12-04T08:35:18Z</time>
      </trkpt>
      <trkpt lat="44.79298" lon="0.88119">
        <ele>239.3</ele>
        <time>2022-12-04T08:35:20Z</time>
      </trkpt>
      <trkpt lat="44.79298" lon="0.88127">
        <ele>239.2</ele>
        <time>2022-12-04T08:35:22Z</time>
      </trkpt>
      <trkpt lat="44.79296" lon="0.88138">
        <ele>239</ele>
        <time>2022-12-04T08:35:24Z</time>
      </trkpt>
      <trkpt lat="44.79292" lon="0.88169">
        <ele>238.7</ele>
        <time>2022-12-04T08:35:29Z</time>
      </trkpt>
      <trkpt lat="44.79291" lon="0.88176">
        <ele>238.7</ele>
        <time>2022-12-04T08:35:30Z</time>
      </trkpt>
      <trkpt lat="44.79287" lon="0.88208">
        <ele>238.3</ele>
        <time>2022-12-04T08:35:35Z</time>
      </trkpt>
      <trkpt lat="44.79287" lon="0.88214">
        <ele>238.2</ele>
        <time>2022-12-04T08:35:36Z</time>
      </trkpt>
      <trkpt lat="44.79287" lon="0.88233">
        <ele>238</ele>
        <time>2022-12-04T08:35:39Z</time>
      </trkpt>
      <trkpt lat="44.79287" lon="0.88238">
        <ele>237.9</ele>
        <time>2022-12-04T08:35:40Z</time>
      </trkpt>
      <trkpt lat="44.79287" lon="0.88253">
        <ele>237.8</ele>
        <time>2022-12-04T08:35:42Z</time>
      </trkpt>
      <trkpt lat="44.79287" lon="0.8826">
        <ele>237.7</ele>
        <time>2022-12-04T08:35:43Z</time>
      </trkpt>
      <trkpt lat="44.79287" lon="0.88267">
        <ele>237.6</ele>
        <time>2022-12-04T08:35:44Z</time>
      </trkpt>
      <trkpt lat="44.79284" lon="0.88295">
        <ele>237.3</ele>
        <time>2022-12-04T08:35:48Z</time>
      </trkpt>
      <trkpt lat="44.79281" lon="0.88323">
        <ele>237</ele>
        <time>2022-12-04T08:35:52Z</time>
      </trkpt>
      <trkpt lat="44.79281" lon="0.8833">
        <ele>236.9</ele>
        <time>2022-12-04T08:35:53Z</time>
      </trkpt>
      <trkpt lat="44.79285" lon="0.88348">
        <ele>236.6</ele>
        <time>2022-12-04T08:35:56Z</time>
      </trkpt>
      <trkpt lat="44.79286" lon="0.88354">
        <ele>236.5</ele>
        <time>2022-12-04T08:35:57Z</time>
      </trkpt>
      <trkpt lat="44.79288" lon="0.88382">
        <ele>236.1</ele>
        <time>2022-12-04T08:36:01Z</time>
      </trkpt>
      <trkpt lat="44.79287" lon="0.88398">
        <ele>235.8</ele>
        <time>2022-12-04T08:36:03Z</time>
      </trkpt>
      <trkpt lat="44.79284" lon="0.88438">
        <ele>235.2</ele>
        <time>2022-12-04T08:36:08Z</time>
      </trkpt>
      <trkpt lat="44.79282" lon="0.88475">
        <ele>234.8</ele>
        <time>2022-12-04T08:36:13Z</time>
      </trkpt>
      <trkpt lat="44.79282" lon="0.8849">
        <ele>234.5</ele>
        <time>2022-12-04T08:36:15Z</time>
      </trkpt>
      <trkpt lat="44.79281" lon="0.88511">
        <ele>234.2</ele>
        <time>2022-12-04T08:36:18Z</time>
      </trkpt>
      <trkpt lat="44.79285" lon="0.88556">
        <ele>233.8</ele>
        <time>2022-12-04T08:36:24Z</time>
      </trkpt>
      <trkpt lat="44.7929" lon="0.88588">
        <ele>233.3</ele>
        <time>2022-12-04T08:36:29Z</time>
      </trkpt>
      <trkpt lat="44.79292" lon="0.88594">
        <ele>233.2</ele>
        <time>2022-12-04T08:36:30Z</time>
      </trkpt>
      <trkpt lat="44.79294" lon="0.88598">
        <ele>233.2</ele>
        <time>2022-12-04T08:36:31Z</time>
      </trkpt>
      <trkpt lat="44.793" lon="0.88602">
        <ele>232.9</ele>
        <time>2022-12-04T08:36:33Z</time>
      </trkpt>
      <trkpt lat="44.79304" lon="0.88603">
        <ele>232.9</ele>
        <time>2022-12-04T08:36:34Z</time>
      </trkpt>
      <trkpt lat="44.79314" lon="0.88603">
        <ele>232.8</ele>
        <time>2022-12-04T08:36:36Z</time>
      </trkpt>
      <trkpt lat="44.79318" lon="0.88602">
        <ele>232.8</ele>
        <time>2022-12-04T08:36:37Z</time>
      </trkpt>
      <trkpt lat="44.79323" lon="0.88601">
        <ele>232.8</ele>
        <time>2022-12-04T08:36:38Z</time>
      </trkpt>
      <trkpt lat="44.79336" lon="0.88599">
        <ele>232.8</ele>
        <time>2022-12-04T08:36:41Z</time>
      </trkpt>
      <trkpt lat="44.79355" lon="0.886">
        <ele>232.9</ele>
        <time>2022-12-04T08:36:46Z</time>
      </trkpt>
      <trkpt lat="44.79377" lon="0.88598">
        <ele>233</ele>
        <time>2022-12-04T08:36:51Z</time>
      </trkpt>
      <trkpt lat="44.79381" lon="0.88598">
        <ele>233.1</ele>
        <time>2022-12-04T08:36:52Z</time>
      </trkpt>
      <trkpt lat="44.79389" lon="0.88604">
        <ele>233.1</ele>
        <time>2022-12-04T08:36:54Z</time>
      </trkpt>
      <trkpt lat="44.79392" lon="0.88608">
        <ele>233.1</ele>
        <time>2022-12-04T08:36:55Z</time>
      </trkpt>
      <trkpt lat="44.79402" lon="0.88625">
        <ele>233</ele>
        <time>2022-12-04T08:36:59Z</time>
      </trkpt>
      <trkpt lat="44.79407" lon="0.88628">
        <ele>233</ele>
        <time>2022-12-04T08:37:00Z</time>
      </trkpt>
      <trkpt lat="44.79412" lon="0.88631">
        <ele>233</ele>
        <time>2022-12-04T08:37:01Z</time>
      </trkpt>
      <trkpt lat="44.79421" lon="0.88637">
        <ele>232.9</ele>
        <time>2022-12-04T08:37:03Z</time>
      </trkpt>
      <trkpt lat="44.79425" lon="0.88642">
        <ele>232.8</ele>
        <time>2022-12-04T08:37:04Z</time>
      </trkpt>
      <trkpt lat="44.79428" lon="0.88647">
        <ele>232.8</ele>
        <time>2022-12-04T08:37:05Z</time>
      </trkpt>
      <trkpt lat="44.79437" lon="0.88661">
        <ele>232.6</ele>
        <time>2022-12-04T08:37:08Z</time>
      </trkpt>
      <trkpt lat="44.7945" lon="0.88678">
        <ele>232.2</ele>
        <time>2022-12-04T08:37:12Z</time>
      </trkpt>
      <trkpt lat="44.79454" lon="0.88681">
        <ele>232.1</ele>
        <time>2022-12-04T08:37:13Z</time>
      </trkpt>
      <trkpt lat="44.79464" lon="0.88691">
        <ele>231.7</ele>
        <time>2022-12-04T08:37:16Z</time>
      </trkpt>
      <trkpt lat="44.7947" lon="0.88699">
        <ele>231.4</ele>
        <time>2022-12-04T08:37:18Z</time>
      </trkpt>
      <trkpt lat="44.79481" lon="0.88708">
        <ele>231</ele>
        <time>2022-12-04T08:37:21Z</time>
      </trkpt>
      <trkpt lat="44.79502" lon="0.88724">
        <ele>230.2</ele>
        <time>2022-12-04T08:37:26Z</time>
      </trkpt>
      <trkpt lat="44.79508" lon="0.88727">
        <ele>230</ele>
        <time>2022-12-04T08:37:27Z</time>
      </trkpt>
      <trkpt lat="44.79518" lon="0.88731">
        <ele>229.7</ele>
        <time>2022-12-04T08:37:29Z</time>
      </trkpt>
      <trkpt lat="44.79527" lon="0.88736">
        <ele>229.5</ele>
        <time>2022-12-04T08:37:31Z</time>
      </trkpt>
      <trkpt lat="44.79534" lon="0.8875">
        <ele>229.2</ele>
        <time>2022-12-04T08:37:34Z</time>
      </trkpt>
      <trkpt lat="44.79537" lon="0.88756">
        <ele>229</ele>
        <time>2022-12-04T08:37:36Z</time>
      </trkpt>
      <trkpt lat="44.79544" lon="0.88759">
        <ele>228.7</ele>
        <time>2022-12-04T08:37:38Z</time>
      </trkpt>
      <trkpt lat="44.79561" lon="0.88774">
        <ele>227.9</ele>
        <time>2022-12-04T08:37:43Z</time>
      </trkpt>
      <trkpt lat="44.79573" lon="0.88784">
        <ele>227.3</ele>
        <time>2022-12-04T08:37:46Z</time>
      </trkpt>
      <trkpt lat="44.79584" lon="0.88797">
        <ele>226.6</ele>
        <time>2022-12-04T08:37:49Z</time>
      </trkpt>
      <trkpt lat="44.79588" lon="0.88801">
        <ele>226.4</ele>
        <time>2022-12-04T08:37:50Z</time>
      </trkpt>
      <trkpt lat="44.796" lon="0.88815">
        <ele>225.7</ele>
        <time>2022-12-04T08:37:53Z</time>
      </trkpt>
      <trkpt lat="44.79609" lon="0.88824">
        <ele>225.1</ele>
        <time>2022-12-04T08:37:55Z</time>
      </trkpt>
      <trkpt lat="44.79622" lon="0.88846">
        <ele>224</ele>
        <time>2022-12-04T08:37:59Z</time>
      </trkpt>
      <trkpt lat="44.79629" lon="0.8886">
        <ele>223.2</ele>
        <time>2022-12-04T08:38:01Z</time>
      </trkpt>
      <trkpt lat="44.79639" lon="0.88873">
        <ele>222.1</ele>
        <time>2022-12-04T08:38:03Z</time>
      </trkpt>
      <trkpt lat="44.79667" lon="0.889">
        <ele>219.1</ele>
        <time>2022-12-04T08:38:08Z</time>
      </trkpt>
      <trkpt lat="44.79673" lon="0.88905">
        <ele>218.5</ele>
        <time>2022-12-04T08:38:09Z</time>
      </trkpt>
      <trkpt lat="44.79686" lon="0.88923">
        <ele>216.8</ele>
        <time>2022-12-04T08:38:12Z</time>
      </trkpt>
      <trkpt lat="44.79695" lon="0.88934">
        <ele>215.8</ele>
        <time>2022-12-04T08:38:14Z</time>
      </trkpt>
      <trkpt lat="44.79704" lon="0.88942">
        <ele>214.9</ele>
        <time>2022-12-04T08:38:16Z</time>
      </trkpt>
      <trkpt lat="44.79709" lon="0.88946">
        <ele>214.5</ele>
        <time>2022-12-04T08:38:17Z</time>
      </trkpt>
      <trkpt lat="44.79716" lon="0.88956">
        <ele>213.9</ele>
        <time>2022-12-04T08:38:19Z</time>
      </trkpt>
      <trkpt lat="44.7972" lon="0.88961">
        <ele>213.6</ele>
        <time>2022-12-04T08:38:20Z</time>
      </trkpt>
      <trkpt lat="44.79724" lon="0.88966">
        <ele>213.4</ele>
        <time>2022-12-04T08:38:21Z</time>
      </trkpt>
      <trkpt lat="44.79736" lon="0.88979">
        <ele>213.3</ele>
        <time>2022-12-04T08:38:24Z</time>
      </trkpt>
      <trkpt lat="44.79741" lon="0.88982">
        <ele>213.4</ele>
        <time>2022-12-04T08:38:25Z</time>
      </trkpt>
      <trkpt lat="44.79751" lon="0.88988">
        <ele>213.9</ele>
        <time>2022-12-04T08:38:27Z</time>
      </trkpt>
      <trkpt lat="44.79757" lon="0.88993">
        <ele>214.4</ele>
        <time>2022-12-04T08:38:29Z</time>
      </trkpt>
      <trkpt lat="44.79766" lon="0.89002">
        <ele>215.3</ele>
        <time>2022-12-04T08:38:33Z</time>
      </trkpt>
      <trkpt lat="44.79778" lon="0.89014">
        <ele>216.4</ele>
        <time>2022-12-04T08:38:38Z</time>
      </trkpt>
      <trkpt lat="44.79791" lon="0.89023">
        <ele>217.1</ele>
        <time>2022-12-04T08:38:43Z</time>
      </trkpt>
      <trkpt lat="44.79813" lon="0.8904">
        <ele>218</ele>
        <time>2022-12-04T08:38:50Z</time>
      </trkpt>
      <trkpt lat="44.79838" lon="0.89054">
        <ele>218.6</ele>
        <time>2022-12-04T08:38:57Z</time>
      </trkpt>
      <trkpt lat="44.79856" lon="0.89064">
        <ele>219</ele>
        <time>2022-12-04T08:39:02Z</time>
      </trkpt>
      <trkpt lat="44.79878" lon="0.89081">
        <ele>219.8</ele>
        <time>2022-12-04T08:39:09Z</time>
      </trkpt>
      <trkpt lat="44.799" lon="0.89099">
        <ele>220.7</ele>
        <time>2022-12-04T08:39:16Z</time>
      </trkpt>
      <trkpt lat="44.79926" lon="0.89121">
        <ele>221.7</ele>
        <time>2022-12-04T08:39:24Z</time>
      </trkpt>
      <trkpt lat="44.79946" lon="0.89142">
        <ele>222.6</ele>
        <time>2022-12-04T08:39:31Z</time>
      </trkpt>
      <trkpt lat="44.79968" lon="0.89157">
        <ele>223.9</ele>
        <time>2022-12-04T08:39:38Z</time>
      </trkpt>
      <trkpt lat="44.79983" lon="0.89165">
        <ele>224.9</ele>
        <time>2022-12-04T08:39:43Z</time>
      </trkpt>
      <trkpt lat="44.80004" lon="0.89174">
        <ele>226.4</ele>
        <time>2022-12-04T08:39:50Z</time>
      </trkpt>
      <trkpt lat="44.80028" lon="0.89185">
        <ele>227.9</ele>
        <time>2022-12-04T08:39:57Z</time>
      </trkpt>
      <trkpt lat="44.80046" lon="0.89196">
        <ele>229.3</ele>
        <time>2022-12-04T08:40:03Z</time>
      </trkpt>
      <trkpt lat="44.80052" lon="0.89205">
        <ele>230.1</ele>
        <time>2022-12-04T08:40:07Z</time>
      </trkpt>
      <trkpt lat="44.80054" lon="0.89208">
        <ele>230.4</ele>
        <time>2022-12-04T08:40:09Z</time>
      </trkpt>
      <trkpt lat="44.80056" lon="0.89213">
        <ele>230.8</ele>
        <time>2022-12-04T08:40:12Z</time>
      </trkpt>
      <trkpt lat="44.8006" lon="0.89221">
        <ele>231.5</ele>
        <time>2022-12-04T08:40:17Z</time>
      </trkpt>
      <trkpt lat="44.80069" lon="0.89229">
        <ele>232.5</ele>
        <time>2022-12-04T08:40:23Z</time>
      </trkpt>
      <trkpt lat="44.80078" lon="0.89238">
        <ele>233.4</ele>
        <time>2022-12-04T08:40:28Z</time>
      </trkpt>
      <trkpt lat="44.80092" lon="0.89246">
        <ele>234.6</ele>
        <time>2022-12-04T08:40:34Z</time>
      </trkpt>
      <trkpt lat="44.80107" lon="0.8925">
        <ele>235.6</ele>
        <time>2022-12-04T08:40:40Z</time>
      </trkpt>
      <trkpt lat="44.8012" lon="0.89251">
        <ele>236.4</ele>
        <time>2022-12-04T08:40:45Z</time>
      </trkpt>
      <trkpt lat="44.80132" lon="0.89255">
        <ele>237.4</ele>
        <time>2022-12-04T08:40:51Z</time>
      </trkpt>
      <trkpt lat="44.80142" lon="0.89257">
        <ele>238.2</ele>
        <time>2022-12-04T08:40:57Z</time>
      </trkpt>
      <trkpt lat="44.80153" lon="0.89267">
        <ele>239.1</ele>
        <time>2022-12-04T08:41:03Z</time>
      </trkpt>
      <trkpt lat="44.80163" lon="0.89277">
        <ele>239.9</ele>
        <time>2022-12-04T08:41:08Z</time>
      </trkpt>
      <trkpt lat="44.80171" lon="0.89285">
        <ele>240.4</ele>
        <time>2022-12-04T08:41:13Z</time>
      </trkpt>
      <trkpt lat="44.80182" lon="0.89296">
        <ele>241.1</ele>
        <time>2022-12-04T08:41:19Z</time>
      </trkpt>
      <trkpt lat="44.80192" lon="0.89307">
        <ele>241.7</ele>
        <time>2022-12-04T08:41:25Z</time>
      </trkpt>
      <trkpt lat="44.80209" lon="0.89315">
        <ele>242.3</ele>
        <time>2022-12-04T08:41:32Z</time>
      </trkpt>
      <trkpt lat="44.80225" lon="0.8932">
        <ele>242.9</ele>
        <time>2022-12-04T08:41:37Z</time>
      </trkpt>
      <trkpt lat="44.80233" lon="0.89319">
        <ele>243.1</ele>
        <time>2022-12-04T08:41:41Z</time>
      </trkpt>
      <trkpt lat="44.80235" lon="0.89311">
        <ele>243.1</ele>
        <time>2022-12-04T08:41:44Z</time>
      </trkpt>
      <trkpt lat="44.80237" lon="0.89308">
        <ele>243</ele>
        <time>2022-12-04T08:41:45Z</time>
      </trkpt>
      <trkpt lat="44.8025" lon="0.89279">
        <ele>242.8</ele>
        <time>2022-12-04T08:41:51Z</time>
      </trkpt>
      <trkpt lat="44.80263" lon="0.89256">
        <ele>242.6</ele>
        <time>2022-12-04T08:41:56Z</time>
      </trkpt>
      <trkpt lat="44.80274" lon="0.89232">
        <ele>242.6</ele>
        <time>2022-12-04T08:42:01Z</time>
      </trkpt>
      <trkpt lat="44.80289" lon="0.89204">
        <ele>242.7</ele>
        <time>2022-12-04T08:42:07Z</time>
      </trkpt>
      <trkpt lat="44.803" lon="0.89178">
        <ele>242.7</ele>
        <time>2022-12-04T08:42:13Z</time>
      </trkpt>
      <trkpt lat="44.8031" lon="0.89157">
        <ele>242.8</ele>
        <time>2022-12-04T08:42:18Z</time>
      </trkpt>
      <trkpt lat="44.80323" lon="0.89132">
        <ele>243</ele>
        <time>2022-12-04T08:42:24Z</time>
      </trkpt>
      <trkpt lat="44.80338" lon="0.8911">
        <ele>243.1</ele>
        <time>2022-12-04T08:42:30Z</time>
      </trkpt>
      <trkpt lat="44.80349" lon="0.89084">
        <ele>243.1</ele>
        <time>2022-12-04T08:42:36Z</time>
      </trkpt>
      <trkpt lat="44.80363" lon="0.89051">
        <ele>242.8</ele>
        <time>2022-12-04T08:42:42Z</time>
      </trkpt>
      <trkpt lat="44.80377" lon="0.89023">
        <ele>242.6</ele>
        <time>2022-12-04T08:42:48Z</time>
      </trkpt>
      <trkpt lat="44.80388" lon="0.89003">
        <ele>242.3</ele>
        <time>2022-12-04T08:42:52Z</time>
      </trkpt>
      <trkpt lat="44.80394" lon="0.88993">
        <ele>242.1</ele>
        <time>2022-12-04T08:42:54Z</time>
      </trkpt>
      <trkpt lat="44.80411" lon="0.88975">
        <ele>241.8</ele>
        <time>2022-12-04T08:42:59Z</time>
      </trkpt>
      <trkpt lat="44.80414" lon="0.8897">
        <ele>241.8</ele>
        <time>2022-12-04T08:43:00Z</time>
      </trkpt>
      <trkpt lat="44.80426" lon="0.88959">
        <ele>241.8</ele>
        <time>2022-12-04T08:43:03Z</time>
      </trkpt>
      <trkpt lat="44.80445" lon="0.88945">
        <ele>242</ele>
        <time>2022-12-04T08:43:08Z</time>
      </trkpt>
      <trkpt lat="44.80449" lon="0.88943">
        <ele>242.1</ele>
        <time>2022-12-04T08:43:09Z</time>
      </trkpt>
      <trkpt lat="44.80457" lon="0.88938">
        <ele>242.2</ele>
        <time>2022-12-04T08:43:11Z</time>
      </trkpt>
      <trkpt lat="44.80461" lon="0.88935">
        <ele>242.2</ele>
        <time>2022-12-04T08:43:12Z</time>
      </trkpt>
      <trkpt lat="44.80465" lon="0.88933">
        <ele>242.3</ele>
        <time>2022-12-04T08:43:13Z</time>
      </trkpt>
      <trkpt lat="44.80477" lon="0.88923">
        <ele>242.4</ele>
        <time>2022-12-04T08:43:16Z</time>
      </trkpt>
      <trkpt lat="44.8048" lon="0.8892">
        <ele>242.4</ele>
        <time>2022-12-04T08:43:17Z</time>
      </trkpt>
      <trkpt lat="44.80497" lon="0.88902">
        <ele>242.8</ele>
        <time>2022-12-04T08:43:22Z</time>
      </trkpt>
      <trkpt lat="44.80511" lon="0.88885">
        <ele>243.2</ele>
        <time>2022-12-04T08:43:27Z</time>
      </trkpt>
      <trkpt lat="44.80517" lon="0.88878">
        <ele>243.3</ele>
        <time>2022-12-04T08:43:29Z</time>
      </trkpt>
      <trkpt lat="44.80525" lon="0.88869">
        <ele>243.6</ele>
        <time>2022-12-04T08:43:31Z</time>
      </trkpt>
      <trkpt lat="44.80541" lon="0.8886">
        <ele>243.8</ele>
        <time>2022-12-04T08:43:35Z</time>
      </trkpt>
      <trkpt lat="44.80551" lon="0.88844">
        <ele>243.5</ele>
        <time>2022-12-04T08:43:39Z</time>
      </trkpt>
      <trkpt lat="44.80557" lon="0.8883">
        <ele>243</ele>
        <time>2022-12-04T08:43:42Z</time>
      </trkpt>
      <trkpt lat="44.8056" lon="0.88817">
        <ele>242.5</ele>
        <time>2022-12-04T08:43:44Z</time>
      </trkpt>
      <trkpt lat="44.80564" lon="0.88804">
        <ele>242</ele>
        <time>2022-12-04T08:43:46Z</time>
      </trkpt>
      <trkpt lat="44.80569" lon="0.88795">
        <ele>241.7</ele>
        <time>2022-12-04T08:43:48Z</time>
      </trkpt>
      <trkpt lat="44.80583" lon="0.88777">
        <ele>241.3</ele>
        <time>2022-12-04T08:43:53Z</time>
      </trkpt>
      <trkpt lat="44.80593" lon="0.88762">
        <ele>241</ele>
        <time>2022-12-04T08:43:56Z</time>
      </trkpt>
      <trkpt lat="44.80599" lon="0.88753">
        <ele>240.9</ele>
        <time>2022-12-04T08:43:58Z</time>
      </trkpt>
      <trkpt lat="44.80615" lon="0.88736">
        <ele>240.7</ele>
        <time>2022-12-04T08:44:03Z</time>
      </trkpt>
      <trkpt lat="44.80625" lon="0.88719">
        <ele>239.9</ele>
        <time>2022-12-04T08:44:07Z</time>
      </trkpt>
      <trkpt lat="44.80627" lon="0.88704">
        <ele>238.9</ele>
        <time>2022-12-04T08:44:09Z</time>
      </trkpt>
      <trkpt lat="44.80627" lon="0.88696">
        <ele>238.3</ele>
        <time>2022-12-04T08:44:10Z</time>
      </trkpt>
      <trkpt lat="44.80626" lon="0.88687">
        <ele>237.7</ele>
        <time>2022-12-04T08:44:11Z</time>
      </trkpt>
      <trkpt lat="44.80625" lon="0.88658">
        <ele>235.9</ele>
        <time>2022-12-04T08:44:14Z</time>
      </trkpt>
      <trkpt lat="44.80629" lon="0.88641">
        <ele>235.1</ele>
        <time>2022-12-04T08:44:16Z</time>
      </trkpt>
      <trkpt lat="44.80633" lon="0.88634">
        <ele>234.7</ele>
        <time>2022-12-04T08:44:17Z</time>
      </trkpt>
      <trkpt lat="44.80637" lon="0.88628">
        <ele>234.4</ele>
        <time>2022-12-04T08:44:18Z</time>
      </trkpt>
      <trkpt lat="44.80642" lon="0.88624">
        <ele>234.2</ele>
        <time>2022-12-04T08:44:20Z</time>
      </trkpt>
      <trkpt lat="44.80651" lon="0.88621">
        <ele>233.9</ele>
        <time>2022-12-04T08:44:24Z</time>
      </trkpt>
      <trkpt lat="44.8066" lon="0.88626">
        <ele>233.6</ele>
        <time>2022-12-04T08:44:28Z</time>
      </trkpt>
      <trkpt lat="44.80673" lon="0.88634">
        <ele>233.5</ele>
        <time>2022-12-04T08:44:32Z</time>
      </trkpt>
      <trkpt lat="44.8069" lon="0.88637">
        <ele>233.2</ele>
        <time>2022-12-04T08:44:37Z</time>
      </trkpt>
      <trkpt lat="44.80705" lon="0.88643">
        <ele>232.5</ele>
        <time>2022-12-04T08:44:41Z</time>
      </trkpt>
      <trkpt lat="44.80708" lon="0.88642">
        <ele>232.3</ele>
        <time>2022-12-04T08:44:42Z</time>
      </trkpt>
      <trkpt lat="44.80716" lon="0.88632">
        <ele>231.4</ele>
        <time>2022-12-04T08:44:44Z</time>
      </trkpt>
      <trkpt lat="44.80727" lon="0.88618">
        <ele>229.7</ele>
        <time>2022-12-04T08:44:46Z</time>
      </trkpt>
      <trkpt lat="44.80733" lon="0.88608">
        <ele>228.5</ele>
        <time>2022-12-04T08:44:47Z</time>
      </trkpt>
      <trkpt lat="44.80756" lon="0.88571">
        <ele>224.1</ele>
        <time>2022-12-04T08:44:51Z</time>
      </trkpt>
      <trkpt lat="44.80769" lon="0.8855">
        <ele>221.7</ele>
        <time>2022-12-04T08:44:54Z</time>
      </trkpt>
      <trkpt lat="44.80773" lon="0.88545">
        <ele>220.9</ele>
        <time>2022-12-04T08:44:55Z</time>
      </trkpt>
      <trkpt lat="44.80778" lon="0.88542">
        <ele>220.1</ele>
        <time>2022-12-04T08:44:56Z</time>
      </trkpt>
      <trkpt lat="44.80786" lon="0.88541">
        <ele>218.6</ele>
        <time>2022-12-04T08:44:58Z</time>
      </trkpt>
      <trkpt lat="44.80802" lon="0.88538">
        <ele>215.8</ele>
        <time>2022-12-04T08:45:02Z</time>
      </trkpt>
      <trkpt lat="44.80813" lon="0.88531">
        <ele>214.1</ele>
        <time>2022-12-04T08:45:04Z</time>
      </trkpt>
      <trkpt lat="44.80827" lon="0.88526">
        <ele>212.3</ele>
        <time>2022-12-04T08:45:06Z</time>
      </trkpt>
      <trkpt lat="44.80853" lon="0.88519">
        <ele>208.5</ele>
        <time>2022-12-04T08:45:10Z</time>
      </trkpt>
      <trkpt lat="44.80858" lon="0.88517">
        <ele>207.7</ele>
        <time>2022-12-04T08:45:11Z</time>
      </trkpt>
      <trkpt lat="44.80872" lon="0.88507">
        <ele>205</ele>
        <time>2022-12-04T08:45:14Z</time>
      </trkpt>
      <trkpt lat="44.80904" lon="0.88492">
        <ele>200.1</ele>
        <time>2022-12-04T08:45:20Z</time>
      </trkpt>
      <trkpt lat="44.80934" lon="0.88483">
        <ele>197.2</ele>
        <time>2022-12-04T08:45:25Z</time>
      </trkpt>
      <trkpt lat="44.8094" lon="0.8848">
        <ele>196.8</ele>
        <time>2022-12-04T08:45:26Z</time>
      </trkpt>
      <trkpt lat="44.80951" lon="0.88475">
        <ele>196.1</ele>
        <time>2022-12-04T08:45:28Z</time>
      </trkpt>
      <trkpt lat="44.80956" lon="0.88471">
        <ele>195.7</ele>
        <time>2022-12-04T08:45:29Z</time>
      </trkpt>
      <trkpt lat="44.80961" lon="0.88467">
        <ele>195.4</ele>
        <time>2022-12-04T08:45:30Z</time>
      </trkpt>
      <trkpt lat="44.80971" lon="0.88458">
        <ele>194.9</ele>
        <time>2022-12-04T08:45:32Z</time>
      </trkpt>
      <trkpt lat="44.8098" lon="0.88446">
        <ele>194.3</ele>
        <time>2022-12-04T08:45:34Z</time>
      </trkpt>
      <trkpt lat="44.80988" lon="0.88433">
        <ele>193.8</ele>
        <time>2022-12-04T08:45:36Z</time>
      </trkpt>
      <trkpt lat="44.80991" lon="0.88427">
        <ele>193.6</ele>
        <time>2022-12-04T08:45:37Z</time>
      </trkpt>
      <trkpt lat="44.81005" lon="0.88396">
        <ele>193.2</ele>
        <time>2022-12-04T08:45:42Z</time>
      </trkpt>
      <trkpt lat="44.8101" lon="0.88385">
        <ele>193.1</ele>
        <time>2022-12-04T08:45:44Z</time>
      </trkpt>
      <trkpt lat="44.81015" lon="0.88365">
        <ele>192.9</ele>
        <time>2022-12-04T08:45:47Z</time>
      </trkpt>
      <trkpt lat="44.81017" lon="0.88359">
        <ele>192.8</ele>
        <time>2022-12-04T08:45:48Z</time>
      </trkpt>
      <trkpt lat="44.81021" lon="0.88345">
        <ele>192.7</ele>
        <time>2022-12-04T08:45:50Z</time>
      </trkpt>
      <trkpt lat="44.81023" lon="0.88339">
        <ele>192.7</ele>
        <time>2022-12-04T08:45:51Z</time>
      </trkpt>
      <trkpt lat="44.81031" lon="0.88309">
        <ele>192.9</ele>
        <time>2022-12-04T08:45:56Z</time>
      </trkpt>
      <trkpt lat="44.81034" lon="0.88297">
        <ele>193</ele>
        <time>2022-12-04T08:45:58Z</time>
      </trkpt>
      <trkpt lat="44.81039" lon="0.88271">
        <ele>193.2</ele>
        <time>2022-12-04T08:46:02Z</time>
      </trkpt>
      <trkpt lat="44.81045" lon="0.88246">
        <ele>193.7</ele>
        <time>2022-12-04T08:46:06Z</time>
      </trkpt>
      <trkpt lat="44.81046" lon="0.88235">
        <ele>194.1</ele>
        <time>2022-12-04T08:46:08Z</time>
      </trkpt>
      <trkpt lat="44.81049" lon="0.88201">
        <ele>195.2</ele>
        <time>2022-12-04T08:46:15Z</time>
      </trkpt>
      <trkpt lat="44.81048" lon="0.88175">
        <ele>195.7</ele>
        <time>2022-12-04T08:46:20Z</time>
      </trkpt>
      <trkpt lat="44.8105" lon="0.88145">
        <ele>196</ele>
        <time>2022-12-04T08:46:26Z</time>
      </trkpt>
      <trkpt lat="44.81049" lon="0.8814">
        <ele>196.1</ele>
        <time>2022-12-04T08:46:27Z</time>
      </trkpt>
      <trkpt lat="44.8105" lon="0.88132">
        <ele>196.2</ele>
        <time>2022-12-04T08:46:29Z</time>
      </trkpt>
      <trkpt lat="44.81054" lon="0.88128">
        <ele>196.3</ele>
        <time>2022-12-04T08:46:32Z</time>
      </trkpt>
      <trkpt lat="44.81058" lon="0.88128">
        <ele>196.6</ele>
        <time>2022-12-04T08:46:35Z</time>
      </trkpt>
      <trkpt lat="44.8106" lon="0.88127">
        <ele>196.8</ele>
        <time>2022-12-04T08:46:36Z</time>
      </trkpt>
      <trkpt lat="44.81065" lon="0.88125">
        <ele>197.3</ele>
        <time>2022-12-04T08:46:40Z</time>
      </trkpt>
      <trkpt lat="44.81077" lon="0.8812">
        <ele>198.3</ele>
        <time>2022-12-04T08:46:45Z</time>
      </trkpt>
      <trkpt lat="44.81084" lon="0.88114">
        <ele>198.8</ele>
        <time>2022-12-04T08:46:48Z</time>
      </trkpt>
      <trkpt lat="44.81087" lon="0.88113">
        <ele>198.9</ele>
        <time>2022-12-04T08:46:49Z</time>
      </trkpt>
      <trkpt lat="44.811" lon="0.88114">
        <ele>198.7</ele>
        <time>2022-12-04T08:46:53Z</time>
      </trkpt>
      <trkpt lat="44.81108" lon="0.88117">
        <ele>198.2</ele>
        <time>2022-12-04T08:46:55Z</time>
      </trkpt>
      <trkpt lat="44.81117" lon="0.88115">
        <ele>197.6</ele>
        <time>2022-12-04T08:46:57Z</time>
      </trkpt>
      <trkpt lat="44.81125" lon="0.88099">
        <ele>196.8</ele>
        <time>2022-12-04T08:47:01Z</time>
      </trkpt>
      <trkpt lat="44.81128" lon="0.88084">
        <ele>196.5</ele>
        <time>2022-12-04T08:47:05Z</time>
      </trkpt>
      <trkpt lat="44.81129" lon="0.88075">
        <ele>196.5</ele>
        <time>2022-12-04T08:47:07Z</time>
      </trkpt>
      <trkpt lat="44.81127" lon="0.88064">
        <ele>196.6</ele>
        <time>2022-12-04T08:47:09Z</time>
      </trkpt>
      <trkpt lat="44.8112" lon="0.88042">
        <ele>196.8</ele>
        <time>2022-12-04T08:47:14Z</time>
      </trkpt>
      <trkpt lat="44.81117" lon="0.88017">
        <ele>196.4</ele>
        <time>2022-12-04T08:47:19Z</time>
      </trkpt>
      <trkpt lat="44.8111" lon="0.8799">
        <ele>195.1</ele>
        <time>2022-12-04T08:47:23Z</time>
      </trkpt>
      <trkpt lat="44.81101" lon="0.87958">
        <ele>193.4</ele>
        <time>2022-12-04T08:47:27Z</time>
      </trkpt>
      <trkpt lat="44.811" lon="0.87951">
        <ele>193.1</ele>
        <time>2022-12-04T08:47:28Z</time>
      </trkpt>
      <trkpt lat="44.81098" lon="0.87944">
        <ele>192.7</ele>
        <time>2022-12-04T08:47:29Z</time>
      </trkpt>
      <trkpt lat="44.81093" lon="0.87934">
        <ele>192.1</ele>
        <time>2022-12-04T08:47:31Z</time>
      </trkpt>
      <trkpt lat="44.81092" lon="0.87929">
        <ele>191.8</ele>
        <time>2022-12-04T08:47:32Z</time>
      </trkpt>
      <trkpt lat="44.81091" lon="0.87919">
        <ele>191.3</ele>
        <time>2022-12-04T08:47:34Z</time>
      </trkpt>
      <trkpt lat="44.81087" lon="0.87899">
        <ele>190.3</ele>
        <time>2022-12-04T08:47:38Z</time>
      </trkpt>
      <trkpt lat="44.81079" lon="0.8787">
        <ele>189.2</ele>
        <time>2022-12-04T08:47:44Z</time>
      </trkpt>
      <trkpt lat="44.81079" lon="0.87865">
        <ele>189.1</ele>
        <time>2022-12-04T08:47:45Z</time>
      </trkpt>
      <trkpt lat="44.81079" lon="0.87853">
        <ele>188.7</ele>
        <time>2022-12-04T08:47:47Z</time>
      </trkpt>
      <trkpt lat="44.81081" lon="0.87811">
        <ele>186</ele>
        <time>2022-12-04T08:47:52Z</time>
      </trkpt>
      <trkpt lat="44.81081" lon="0.87802">
        <ele>185.2</ele>
        <time>2022-12-04T08:47:53Z</time>
      </trkpt>
      <trkpt lat="44.81087" lon="0.87774">
        <ele>182.8</ele>
        <time>2022-12-04T08:47:56Z</time>
      </trkpt>
      <trkpt lat="44.81092" lon="0.87745">
        <ele>179.9</ele>
        <time>2022-12-04T08:48:00Z</time>
      </trkpt>
      <trkpt lat="44.81098" lon="0.87717">
        <ele>176.6</ele>
        <time>2022-12-04T08:48:05Z</time>
      </trkpt>
      <trkpt lat="44.81102" lon="0.87697">
        <ele>173.9</ele>
        <time>2022-12-04T08:48:09Z</time>
      </trkpt>
      <trkpt lat="44.81103" lon="0.8769">
        <ele>173</ele>
        <time>2022-12-04T08:48:10Z</time>
      </trkpt>
      <trkpt lat="44.81104" lon="0.87671">
        <ele>171</ele>
        <time>2022-12-04T08:48:13Z</time>
      </trkpt>
      <trkpt lat="44.81105" lon="0.87656">
        <ele>169.7</ele>
        <time>2022-12-04T08:48:15Z</time>
      </trkpt>
      <trkpt lat="44.81105" lon="0.87622">
        <ele>166.6</ele>
        <time>2022-12-04T08:48:19Z</time>
      </trkpt>
      <trkpt lat="44.81104" lon="0.8761">
        <ele>165.3</ele>
        <time>2022-12-04T08:48:21Z</time>
      </trkpt>
      <trkpt lat="44.81104" lon="0.87591">
        <ele>162.6</ele>
        <time>2022-12-04T08:48:26Z</time>
      </trkpt>
      <trkpt lat="44.81104" lon="0.87582">
        <ele>161.2</ele>
        <time>2022-12-04T08:48:28Z</time>
      </trkpt>
      <trkpt lat="44.81107" lon="0.87575">
        <ele>159.6</ele>
        <time>2022-12-04T08:48:30Z</time>
      </trkpt>
      <trkpt lat="44.81111" lon="0.8756">
        <ele>156.7</ele>
        <time>2022-12-04T08:48:34Z</time>
      </trkpt>
      <trkpt lat="44.81112" lon="0.87555">
        <ele>155.7</ele>
        <time>2022-12-04T08:48:36Z</time>
      </trkpt>
      <trkpt lat="44.81113" lon="0.87549">
        <ele>154.5</ele>
        <time>2022-12-04T08:48:38Z</time>
      </trkpt>
      <trkpt lat="44.81115" lon="0.87547">
        <ele>153.9</ele>
        <time>2022-12-04T08:48:39Z</time>
      </trkpt>
      <trkpt lat="44.81118" lon="0.87547">
        <ele>152.7</ele>
        <time>2022-12-04T08:48:41Z</time>
      </trkpt>
      <trkpt lat="44.81126" lon="0.87546">
        <ele>150.4</ele>
        <time>2022-12-04T08:48:43Z</time>
      </trkpt>
      <trkpt lat="44.8113" lon="0.87542">
        <ele>148.9</ele>
        <time>2022-12-04T08:48:44Z</time>
      </trkpt>
      <trkpt lat="44.81146" lon="0.87537">
        <ele>145.2</ele>
        <time>2022-12-04T08:48:48Z</time>
      </trkpt>
      <trkpt lat="44.81163" lon="0.87532">
        <ele>143.9</ele>
        <time>2022-12-04T08:48:53Z</time>
      </trkpt>
      <trkpt lat="44.81184" lon="0.87523">
        <ele>142.6</ele>
        <time>2022-12-04T08:48:59Z</time>
      </trkpt>
      <trkpt lat="44.8119" lon="0.87515">
        <ele>142.1</ele>
        <time>2022-12-04T08:49:02Z</time>
      </trkpt>
      <trkpt lat="44.81191" lon="0.87496">
        <ele>141.2</ele>
        <time>2022-12-04T08:49:06Z</time>
      </trkpt>
      <trkpt lat="44.81192" lon="0.87478">
        <ele>140.4</ele>
        <time>2022-12-04T08:49:09Z</time>
      </trkpt>
      <trkpt lat="44.81191" lon="0.87465">
        <ele>139.8</ele>
        <time>2022-12-04T08:49:11Z</time>
      </trkpt>
      <trkpt lat="44.81192" lon="0.8745">
        <ele>139.1</ele>
        <time>2022-12-04T08:49:13Z</time>
      </trkpt>
      <trkpt lat="44.81192" lon="0.87433">
        <ele>138.4</ele>
        <time>2022-12-04T08:49:15Z</time>
      </trkpt>
      <trkpt lat="44.81191" lon="0.87369">
        <ele>136.4</ele>
        <time>2022-12-04T08:49:22Z</time>
      </trkpt>
      <trkpt lat="44.81189" lon="0.87353">
        <ele>136.1</ele>
        <time>2022-12-04T08:49:24Z</time>
      </trkpt>
      <trkpt lat="44.81187" lon="0.87348">
        <ele>136</ele>
        <time>2022-12-04T08:49:25Z</time>
      </trkpt>
      <trkpt lat="44.81175" lon="0.8734">
        <ele>136.2</ele>
        <time>2022-12-04T08:49:29Z</time>
      </trkpt>
      <trkpt lat="44.81151" lon="0.87331">
        <ele>137.4</ele>
        <time>2022-12-04T08:49:36Z</time>
      </trkpt>
      <trkpt lat="44.81149" lon="0.8733">
        <ele>137.5</ele>
        <time>2022-12-04T08:49:37Z</time>
      </trkpt>
      <trkpt lat="44.81146" lon="0.8733">
        <ele>137.5</ele>
        <time>2022-12-04T08:49:40Z</time>
      </trkpt>
      <trkpt lat="44.81147" lon="0.87333">
        <ele>137.5</ele>
        <time>2022-12-04T08:53:24Z</time>
      </trkpt>
      <trkpt lat="44.81149" lon="0.87333">
        <ele>137.5</ele>
        <time>2022-12-04T08:53:25Z</time>
      </trkpt>
      <trkpt lat="44.81166" lon="0.87329">
        <ele>136.3</ele>
        <time>2022-12-04T08:53:31Z</time>
      </trkpt>
      <trkpt lat="44.81173" lon="0.87313">
        <ele>136.2</ele>
        <time>2022-12-04T08:53:35Z</time>
      </trkpt>
      <trkpt lat="44.81178" lon="0.87279">
        <ele>136.1</ele>
        <time>2022-12-04T08:53:42Z</time>
      </trkpt>
      <trkpt lat="44.81176" lon="0.87264">
        <ele>136</ele>
        <time>2022-12-04T08:53:45Z</time>
      </trkpt>
      <trkpt lat="44.81175" lon="0.8726">
        <ele>136</ele>
        <time>2022-12-04T08:53:46Z</time>
      </trkpt>
      <trkpt lat="44.81167" lon="0.87226">
        <ele>135.6</ele>
        <time>2022-12-04T08:53:53Z</time>
      </trkpt>
      <trkpt lat="44.81166" lon="0.87196">
        <ele>135.1</ele>
        <time>2022-12-04T08:53:58Z</time>
      </trkpt>
      <trkpt lat="44.81166" lon="0.87168">
        <ele>134.7</ele>
        <time>2022-12-04T08:54:03Z</time>
      </trkpt>
      <trkpt lat="44.81162" lon="0.87132">
        <ele>134.5</ele>
        <time>2022-12-04T08:54:09Z</time>
      </trkpt>
      <trkpt lat="44.8116" lon="0.87093">
        <ele>134.5</ele>
        <time>2022-12-04T08:54:16Z</time>
      </trkpt>
      <trkpt lat="44.8116" lon="0.87047">
        <ele>134.3</ele>
        <time>2022-12-04T08:54:23Z</time>
      </trkpt>
      <trkpt lat="44.8116" lon="0.8704">
        <ele>134.4</ele>
        <time>2022-12-04T08:54:24Z</time>
      </trkpt>
      <trkpt lat="44.81161" lon="0.87015">
        <ele>134.6</ele>
        <time>2022-12-04T08:54:28Z</time>
      </trkpt>
      <trkpt lat="44.81162" lon="0.86995">
        <ele>134.7</ele>
        <time>2022-12-04T08:54:31Z</time>
      </trkpt>
      <trkpt lat="44.81163" lon="0.86974">
        <ele>134.9</ele>
        <time>2022-12-04T08:54:34Z</time>
      </trkpt>
      <trkpt lat="44.81164" lon="0.86926">
        <ele>135.4</ele>
        <time>2022-12-04T08:54:41Z</time>
      </trkpt>
      <trkpt lat="44.81167" lon="0.86878">
        <ele>136.1</ele>
        <time>2022-12-04T08:54:48Z</time>
      </trkpt>
      <trkpt lat="44.81172" lon="0.86828">
        <ele>136.5</ele>
        <time>2022-12-04T08:54:55Z</time>
      </trkpt>
      <trkpt lat="44.8118" lon="0.86785">
        <ele>136.7</ele>
        <time>2022-12-04T08:55:01Z</time>
      </trkpt>
      <trkpt lat="44.81182" lon="0.86758">
        <ele>136.7</ele>
        <time>2022-12-04T08:55:05Z</time>
      </trkpt>
      <trkpt lat="44.8118" lon="0.86746">
        <ele>136.5</ele>
        <time>2022-12-04T08:55:07Z</time>
      </trkpt>
      <trkpt lat="44.81179" lon="0.86739">
        <ele>136.4</ele>
        <time>2022-12-04T08:55:08Z</time>
      </trkpt>
      <trkpt lat="44.81174" lon="0.86727">
        <ele>136</ele>
        <time>2022-12-04T08:55:10Z</time>
      </trkpt>
      <trkpt lat="44.8117" lon="0.86721">
        <ele>135.8</ele>
        <time>2022-12-04T08:55:11Z</time>
      </trkpt>
      <trkpt lat="44.81148" lon="0.86694">
        <ele>134.5</ele>
        <time>2022-12-04T08:55:16Z</time>
      </trkpt>
      <trkpt lat="44.81102" lon="0.86662">
        <ele>132.5</ele>
        <time>2022-12-04T08:55:24Z</time>
      </trkpt>
      <trkpt lat="44.81096" lon="0.86657">
        <ele>132.3</ele>
        <time>2022-12-04T08:55:25Z</time>
      </trkpt>
      <trkpt lat="44.81088" lon="0.86644">
        <ele>132</ele>
        <time>2022-12-04T08:55:27Z</time>
      </trkpt>
      <trkpt lat="44.81083" lon="0.8662">
        <ele>132</ele>
        <time>2022-12-04T08:55:30Z</time>
      </trkpt>
      <trkpt lat="44.81076" lon="0.8659">
        <ele>132.2</ele>
        <time>2022-12-04T08:55:34Z</time>
      </trkpt>
      <trkpt lat="44.81069" lon="0.86578">
        <ele>132.4</ele>
        <time>2022-12-04T08:55:36Z</time>
      </trkpt>
      <trkpt lat="44.81053" lon="0.86568">
        <ele>133</ele>
        <time>2022-12-04T08:55:40Z</time>
      </trkpt>
      <trkpt lat="44.81042" lon="0.86561">
        <ele>133.5</ele>
        <time>2022-12-04T08:55:43Z</time>
      </trkpt>
      <trkpt lat="44.81035" lon="0.86555">
        <ele>133.9</ele>
        <time>2022-12-04T08:55:45Z</time>
      </trkpt>
      <trkpt lat="44.81013" lon="0.86532">
        <ele>135.1</ele>
        <time>2022-12-04T08:55:51Z</time>
      </trkpt>
      <trkpt lat="44.80987" lon="0.86505">
        <ele>136.2</ele>
        <time>2022-12-04T08:55:58Z</time>
      </trkpt>
      <trkpt lat="44.8097" lon="0.86488">
        <ele>137.2</ele>
        <time>2022-12-04T08:56:03Z</time>
      </trkpt>
      <trkpt lat="44.80956" lon="0.86468">
        <ele>138.5</ele>
        <time>2022-12-04T08:56:08Z</time>
      </trkpt>
      <trkpt lat="44.80948" lon="0.86452">
        <ele>139.6</ele>
        <time>2022-12-04T08:56:12Z</time>
      </trkpt>
      <trkpt lat="44.80946" lon="0.86434">
        <ele>140.6</ele>
        <time>2022-12-04T08:56:17Z</time>
      </trkpt>
      <trkpt lat="44.80945" lon="0.86415">
        <ele>141.8</ele>
        <time>2022-12-04T08:56:23Z</time>
      </trkpt>
      <trkpt lat="44.80942" lon="0.86397">
        <ele>143.2</ele>
        <time>2022-12-04T08:56:29Z</time>
      </trkpt>
      <trkpt lat="44.80941" lon="0.86392">
        <ele>143.7</ele>
        <time>2022-12-04T08:56:31Z</time>
      </trkpt>
      <trkpt lat="44.80939" lon="0.86384">
        <ele>144.5</ele>
        <time>2022-12-04T08:56:34Z</time>
      </trkpt>
      <trkpt lat="44.80938" lon="0.86371">
        <ele>145.9</ele>
        <time>2022-12-04T08:56:39Z</time>
      </trkpt>
      <trkpt lat="44.80937" lon="0.86368">
        <ele>146.2</ele>
        <time>2022-12-04T08:56:40Z</time>
      </trkpt>
      <trkpt lat="44.80935" lon="0.86357">
        <ele>147.2</ele>
        <time>2022-12-04T08:56:45Z</time>
      </trkpt>
      <trkpt lat="44.80935" lon="0.86352">
        <ele>147.6</ele>
        <time>2022-12-04T08:56:47Z</time>
      </trkpt>
      <trkpt lat="44.80934" lon="0.86344">
        <ele>148.3</ele>
        <time>2022-12-04T08:56:50Z</time>
      </trkpt>
      <trkpt lat="44.80933" lon="0.86337">
        <ele>148.8</ele>
        <time>2022-12-04T08:56:53Z</time>
      </trkpt>
      <trkpt lat="44.80927" lon="0.8632">
        <ele>150.2</ele>
        <time>2022-12-04T08:56:59Z</time>
      </trkpt>
      <trkpt lat="44.80926" lon="0.86316">
        <ele>150.5</ele>
        <time>2022-12-04T08:57:01Z</time>
      </trkpt>
      <trkpt lat="44.8092" lon="0.86302">
        <ele>151.4</ele>
        <time>2022-12-04T08:57:06Z</time>
      </trkpt>
      <trkpt lat="44.80915" lon="0.86291">
        <ele>152.1</ele>
        <time>2022-12-04T08:57:12Z</time>
      </trkpt>
      <trkpt lat="44.8091" lon="0.86278">
        <ele>152.9</ele>
        <time>2022-12-04T08:57:18Z</time>
      </trkpt>
      <trkpt lat="44.80901" lon="0.86268">
        <ele>153.6</ele>
        <time>2022-12-04T08:57:24Z</time>
      </trkpt>
      <trkpt lat="44.80891" lon="0.86255">
        <ele>154.5</ele>
        <time>2022-12-04T08:57:30Z</time>
      </trkpt>
      <trkpt lat="44.80876" lon="0.86237">
        <ele>156</ele>
        <time>2022-12-04T08:57:37Z</time>
      </trkpt>
      <trkpt lat="44.80864" lon="0.86228">
        <ele>157</ele>
        <time>2022-12-04T08:57:43Z</time>
      </trkpt>
      <trkpt lat="44.80854" lon="0.86213">
        <ele>158.5</ele>
        <time>2022-12-04T08:57:50Z</time>
      </trkpt>
      <trkpt lat="44.80847" lon="0.86207">
        <ele>159.2</ele>
        <time>2022-12-04T08:57:54Z</time>
      </trkpt>
      <trkpt lat="44.80846" lon="0.86206">
        <ele>159.3</ele>
        <time>2022-12-04T08:57:55Z</time>
      </trkpt>
      <trkpt lat="44.80839" lon="0.86196">
        <ele>160.3</ele>
        <time>2022-12-04T08:58:00Z</time>
      </trkpt>
      <trkpt lat="44.80828" lon="0.8618">
        <ele>161.9</ele>
        <time>2022-12-04T08:58:07Z</time>
      </trkpt>
      <trkpt lat="44.8082" lon="0.8617">
        <ele>163.2</ele>
        <time>2022-12-04T08:58:13Z</time>
      </trkpt>
      <trkpt lat="44.80811" lon="0.86159">
        <ele>164.6</ele>
        <time>2022-12-04T08:58:19Z</time>
      </trkpt>
      <trkpt lat="44.80806" lon="0.86153">
        <ele>165.3</ele>
        <time>2022-12-04T08:58:23Z</time>
      </trkpt>
      <trkpt lat="44.80805" lon="0.86151">
        <ele>165.5</ele>
        <time>2022-12-04T08:58:24Z</time>
      </trkpt>
      <trkpt lat="44.808" lon="0.86139">
        <ele>166.5</ele>
        <time>2022-12-04T08:58:29Z</time>
      </trkpt>
      <trkpt lat="44.80794" lon="0.86126">
        <ele>167.7</ele>
        <time>2022-12-04T08:58:35Z</time>
      </trkpt>
      <trkpt lat="44.80793" lon="0.86124">
        <ele>167.8</ele>
        <time>2022-12-04T08:58:36Z</time>
      </trkpt>
      <trkpt lat="44.8079" lon="0.86114">
        <ele>168.6</ele>
        <time>2022-12-04T08:58:40Z</time>
      </trkpt>
      <trkpt lat="44.80785" lon="0.86104">
        <ele>169.5</ele>
        <time>2022-12-04T08:58:45Z</time>
      </trkpt>
      <trkpt lat="44.80783" lon="0.86099">
        <ele>170.1</ele>
        <time>2022-12-04T08:58:47Z</time>
      </trkpt>
      <trkpt lat="44.8078" lon="0.86088">
        <ele>171.1</ele>
        <time>2022-12-04T08:58:52Z</time>
      </trkpt>
      <trkpt lat="44.80779" lon="0.86086">
        <ele>171.2</ele>
        <time>2022-12-04T08:58:53Z</time>
      </trkpt>
      <trkpt lat="44.80771" lon="0.86073">
        <ele>172.6</ele>
        <time>2022-12-04T08:59:00Z</time>
      </trkpt>
      <trkpt lat="44.80761" lon="0.86065">
        <ele>173.8</ele>
        <time>2022-12-04T08:59:06Z</time>
      </trkpt>
      <trkpt lat="44.80756" lon="0.86054">
        <ele>174.7</ele>
        <time>2022-12-04T08:59:11Z</time>
      </trkpt>
      <trkpt lat="44.80751" lon="0.86048">
        <ele>175.4</ele>
        <time>2022-12-04T08:59:15Z</time>
      </trkpt>
      <trkpt lat="44.80749" lon="0.86045">
        <ele>175.8</ele>
        <time>2022-12-04T08:59:17Z</time>
      </trkpt>
      <trkpt lat="44.80743" lon="0.86031">
        <ele>177.1</ele>
        <time>2022-12-04T08:59:23Z</time>
      </trkpt>
      <trkpt lat="44.80737" lon="0.86015">
        <ele>179.2</ele>
        <time>2022-12-04T08:59:31Z</time>
      </trkpt>
      <trkpt lat="44.80736" lon="0.86011">
        <ele>179.7</ele>
        <time>2022-12-04T08:59:33Z</time>
      </trkpt>
      <trkpt lat="44.80733" lon="0.86004">
        <ele>180.8</ele>
        <time>2022-12-04T08:59:36Z</time>
      </trkpt>
      <trkpt lat="44.80728" lon="0.85991">
        <ele>182.7</ele>
        <time>2022-12-04T08:59:42Z</time>
      </trkpt>
      <trkpt lat="44.80725" lon="0.8598">
        <ele>184.2</ele>
        <time>2022-12-04T08:59:48Z</time>
      </trkpt>
      <trkpt lat="44.80724" lon="0.85979">
        <ele>184.4</ele>
        <time>2022-12-04T08:59:49Z</time>
      </trkpt>
      <trkpt lat="44.80723" lon="0.85976">
        <ele>184.7</ele>
        <time>2022-12-04T08:59:51Z</time>
      </trkpt>
      <trkpt lat="44.80723" lon="0.85973">
        <ele>185</ele>
        <time>2022-12-04T08:59:53Z</time>
      </trkpt>
      <trkpt lat="44.80719" lon="0.85962">
        <ele>186.2</ele>
        <time>2022-12-04T08:59:59Z</time>
      </trkpt>
      <trkpt lat="44.80719" lon="0.8596">
        <ele>186.3</ele>
        <time>2022-12-04T09:00:00Z</time>
      </trkpt>
      <trkpt lat="44.80715" lon="0.8595">
        <ele>187.3</ele>
        <time>2022-12-04T09:00:06Z</time>
      </trkpt>
      <trkpt lat="44.80713" lon="0.85943">
        <ele>187.9</ele>
        <time>2022-12-04T09:00:10Z</time>
      </trkpt>
      <trkpt lat="44.80711" lon="0.85941">
        <ele>188.1</ele>
        <time>2022-12-04T09:00:12Z</time>
      </trkpt>
      <trkpt lat="44.80708" lon="0.8593">
        <ele>188.9</ele>
        <time>2022-12-04T09:00:17Z</time>
      </trkpt>
      <trkpt lat="44.80707" lon="0.85925">
        <ele>189.2</ele>
        <time>2022-12-04T09:00:19Z</time>
      </trkpt>
      <trkpt lat="44.80705" lon="0.85917">
        <ele>189.7</ele>
        <time>2022-12-04T09:00:23Z</time>
      </trkpt>
      <trkpt lat="44.80705" lon="0.85912">
        <ele>189.9</ele>
        <time>2022-12-04T09:00:25Z</time>
      </trkpt>
      <trkpt lat="44.80702" lon="0.85896">
        <ele>190.6</ele>
        <time>2022-12-04T09:00:32Z</time>
      </trkpt>
      <trkpt lat="44.80698" lon="0.85883">
        <ele>191.1</ele>
        <time>2022-12-04T09:00:37Z</time>
      </trkpt>
      <trkpt lat="44.80695" lon="0.8587">
        <ele>191.4</ele>
        <time>2022-12-04T09:00:42Z</time>
      </trkpt>
      <trkpt lat="44.80689" lon="0.85845">
        <ele>191.4</ele>
        <time>2022-12-04T09:00:48Z</time>
      </trkpt>
      <trkpt lat="44.80684" lon="0.8583">
        <ele>190.7</ele>
        <time>2022-12-04T09:00:51Z</time>
      </trkpt>
      <trkpt lat="44.80683" lon="0.85825">
        <ele>190.5</ele>
        <time>2022-12-04T09:00:52Z</time>
      </trkpt>
      <trkpt lat="44.8068" lon="0.85809">
        <ele>189.9</ele>
        <time>2022-12-04T09:00:55Z</time>
      </trkpt>
      <trkpt lat="44.80677" lon="0.85798">
        <ele>189.4</ele>
        <time>2022-12-04T09:00:57Z</time>
      </trkpt>
      <trkpt lat="44.80675" lon="0.85792">
        <ele>189.1</ele>
        <time>2022-12-04T09:00:58Z</time>
      </trkpt>
      <trkpt lat="44.80667" lon="0.85766">
        <ele>188.1</ele>
        <time>2022-12-04T09:01:02Z</time>
      </trkpt>
      <trkpt lat="44.80662" lon="0.85738">
        <ele>188</ele>
        <time>2022-12-04T09:01:06Z</time>
      </trkpt>
      <trkpt lat="44.80662" lon="0.85731">
        <ele>188.1</ele>
        <time>2022-12-04T09:01:07Z</time>
      </trkpt>
      <trkpt lat="44.80661" lon="0.857">
        <ele>188.8</ele>
        <time>2022-12-04T09:01:12Z</time>
      </trkpt>
      <trkpt lat="44.80659" lon="0.85667">
        <ele>190</ele>
        <time>2022-12-04T09:01:18Z</time>
      </trkpt>
      <trkpt lat="44.80657" lon="0.85633">
        <ele>190.8</ele>
        <time>2022-12-04T09:01:24Z</time>
      </trkpt>
      <trkpt lat="44.80653" lon="0.85605">
        <ele>190.8</ele>
        <time>2022-12-04T09:01:29Z</time>
      </trkpt>
      <trkpt lat="44.80652" lon="0.85599">
        <ele>190.8</ele>
        <time>2022-12-04T09:01:30Z</time>
      </trkpt>
      <trkpt lat="44.80649" lon="0.85552">
        <ele>190</ele>
        <time>2022-12-04T09:01:38Z</time>
      </trkpt>
      <trkpt lat="44.80648" lon="0.85546">
        <ele>189.8</ele>
        <time>2022-12-04T09:01:39Z</time>
      </trkpt>
      <trkpt lat="44.80647" lon="0.85518">
        <ele>189</ele>
        <time>2022-12-04T09:01:43Z</time>
      </trkpt>
      <trkpt lat="44.8064" lon="0.85459">
        <ele>187.5</ele>
        <time>2022-12-04T09:01:50Z</time>
      </trkpt>
      <trkpt lat="44.80635" lon="0.85401">
        <ele>185.5</ele>
        <time>2022-12-04T09:01:57Z</time>
      </trkpt>
      <trkpt lat="44.8064" lon="0.85386">
        <ele>184.9</ele>
        <time>2022-12-04T09:01:59Z</time>
      </trkpt>
      <trkpt lat="44.80644" lon="0.8538">
        <ele>184.6</ele>
        <time>2022-12-04T09:02:00Z</time>
      </trkpt>
      <trkpt lat="44.80673" lon="0.85341">
        <ele>181.1</ele>
        <time>2022-12-04T09:02:06Z</time>
      </trkpt>
      <trkpt lat="44.80699" lon="0.85312">
        <ele>177.6</ele>
        <time>2022-12-04T09:02:10Z</time>
      </trkpt>
      <trkpt lat="44.8071" lon="0.85308">
        <ele>177</ele>
        <time>2022-12-04T09:02:12Z</time>
      </trkpt>
      <trkpt lat="44.80717" lon="0.85314">
        <ele>176.6</ele>
        <time>2022-12-04T09:02:14Z</time>
      </trkpt>
      <trkpt lat="44.80721" lon="0.85319">
        <ele>176.6</ele>
        <time>2022-12-04T09:02:15Z</time>
      </trkpt>
      <trkpt lat="44.80726" lon="0.85323">
        <ele>176.4</ele>
        <time>2022-12-04T09:02:16Z</time>
      </trkpt>
      <trkpt lat="44.80731" lon="0.85324">
        <ele>176.3</ele>
        <time>2022-12-04T09:02:17Z</time>
      </trkpt>
      <trkpt lat="44.80737" lon="0.85323">
        <ele>176.2</ele>
        <time>2022-12-04T09:02:18Z</time>
      </trkpt>
      <trkpt lat="44.80758" lon="0.85317">
        <ele>176.1</ele>
        <time>2022-12-04T09:02:22Z</time>
      </trkpt>
      <trkpt lat="44.80764" lon="0.85315">
        <ele>176.1</ele>
        <time>2022-12-04T09:02:23Z</time>
      </trkpt>
      <trkpt lat="44.80792" lon="0.85312">
        <ele>176.3</ele>
        <time>2022-12-04T09:02:28Z</time>
      </trkpt>
      <trkpt lat="44.80831" lon="0.85315">
        <ele>176.9</ele>
        <time>2022-12-04T09:02:35Z</time>
      </trkpt>
      <trkpt lat="44.80871" lon="0.8532">
        <ele>178.5</ele>
        <time>2022-12-04T09:02:43Z</time>
      </trkpt>
      <trkpt lat="44.8088" lon="0.85321">
        <ele>178.9</ele>
        <time>2022-12-04T09:02:45Z</time>
      </trkpt>
      <trkpt lat="44.80896" lon="0.8532">
        <ele>179.5</ele>
        <time>2022-12-04T09:02:49Z</time>
      </trkpt>
      <trkpt lat="44.80901" lon="0.85314">
        <ele>179.7</ele>
        <time>2022-12-04T09:02:51Z</time>
      </trkpt>
      <trkpt lat="44.80902" lon="0.85308">
        <ele>179.6</ele>
        <time>2022-12-04T09:02:52Z</time>
      </trkpt>
      <trkpt lat="44.80903" lon="0.85303">
        <ele>179.6</ele>
        <time>2022-12-04T09:02:53Z</time>
      </trkpt>
      <trkpt lat="44.80903" lon="0.85283">
        <ele>179.1</ele>
        <time>2022-12-04T09:02:56Z</time>
      </trkpt>
      <trkpt lat="44.80904" lon="0.85256">
        <ele>178.7</ele>
        <time>2022-12-04T09:03:00Z</time>
      </trkpt>
      <trkpt lat="44.80902" lon="0.85243">
        <ele>178.6</ele>
        <time>2022-12-04T09:03:02Z</time>
      </trkpt>
      <trkpt lat="44.809" lon="0.85238">
        <ele>178.5</ele>
        <time>2022-12-04T09:03:03Z</time>
      </trkpt>
      <trkpt lat="44.80897" lon="0.85233">
        <ele>178.4</ele>
        <time>2022-12-04T09:03:04Z</time>
      </trkpt>
      <trkpt lat="44.80889" lon="0.85218">
        <ele>177.9</ele>
        <time>2022-12-04T09:03:07Z</time>
      </trkpt>
      <trkpt lat="44.80886" lon="0.85202">
        <ele>177.1</ele>
        <time>2022-12-04T09:03:09Z</time>
      </trkpt>
      <trkpt lat="44.80887" lon="0.85193">
        <ele>176.6</ele>
        <time>2022-12-04T09:03:10Z</time>
      </trkpt>
      <trkpt lat="44.80888" lon="0.85185">
        <ele>176</ele>
        <time>2022-12-04T09:03:11Z</time>
      </trkpt>
      <trkpt lat="44.80894" lon="0.85167">
        <ele>174.7</ele>
        <time>2022-12-04T09:03:13Z</time>
      </trkpt>
      <trkpt lat="44.80903" lon="0.85149">
        <ele>173.3</ele>
        <time>2022-12-04T09:03:15Z</time>
      </trkpt>
      <trkpt lat="44.80915" lon="0.85132">
        <ele>172.1</ele>
        <time>2022-12-04T09:03:17Z</time>
      </trkpt>
      <trkpt lat="44.80921" lon="0.85124">
        <ele>171.6</ele>
        <time>2022-12-04T09:03:18Z</time>
      </trkpt>
      <trkpt lat="44.80947" lon="0.85097">
        <ele>170.4</ele>
        <time>2022-12-04T09:03:22Z</time>
      </trkpt>
      <trkpt lat="44.80978" lon="0.85073">
        <ele>169.6</ele>
        <time>2022-12-04T09:03:27Z</time>
      </trkpt>
      <trkpt lat="44.80999" lon="0.85062">
        <ele>169.4</ele>
        <time>2022-12-04T09:03:31Z</time>
      </trkpt>
      <trkpt lat="44.8102" lon="0.85049">
        <ele>169</ele>
        <time>2022-12-04T09:03:35Z</time>
      </trkpt>
      <trkpt lat="44.81037" lon="0.85039">
        <ele>168.7</ele>
        <time>2022-12-04T09:03:38Z</time>
      </trkpt>
      <trkpt lat="44.81048" lon="0.85029">
        <ele>168.3</ele>
        <time>2022-12-04T09:03:40Z</time>
      </trkpt>
      <trkpt lat="44.81078" lon="0.85007">
        <ele>167.3</ele>
        <time>2022-12-04T09:03:45Z</time>
      </trkpt>
      <trkpt lat="44.81106" lon="0.84988">
        <ele>166.7</ele>
        <time>2022-12-04T09:03:49Z</time>
      </trkpt>
      <trkpt lat="44.81112" lon="0.84983">
        <ele>166.5</ele>
        <time>2022-12-04T09:03:50Z</time>
      </trkpt>
      <trkpt lat="44.81148" lon="0.84952">
        <ele>165.8</ele>
        <time>2022-12-04T09:03:56Z</time>
      </trkpt>
      <trkpt lat="44.81176" lon="0.84935">
        <ele>166</ele>
        <time>2022-12-04T09:04:01Z</time>
      </trkpt>
      <trkpt lat="44.812" lon="0.84924">
        <ele>166.1</ele>
        <time>2022-12-04T09:04:06Z</time>
      </trkpt>
      <trkpt lat="44.81209" lon="0.84908">
        <ele>165.5</ele>
        <time>2022-12-04T09:04:09Z</time>
      </trkpt>
      <trkpt lat="44.81212" lon="0.84902">
        <ele>165.3</ele>
        <time>2022-12-04T09:04:10Z</time>
      </trkpt>
      <trkpt lat="44.81222" lon="0.84881">
        <ele>164.3</ele>
        <time>2022-12-04T09:04:13Z</time>
      </trkpt>
      <trkpt lat="44.81227" lon="0.84865">
        <ele>163.2</ele>
        <time>2022-12-04T09:04:15Z</time>
      </trkpt>
      <trkpt lat="44.81229" lon="0.84859">
        <ele>162.7</ele>
        <time>2022-12-04T09:04:16Z</time>
      </trkpt>
      <trkpt lat="44.81235" lon="0.84845">
        <ele>161.6</ele>
        <time>2022-12-04T09:04:18Z</time>
      </trkpt>
      <trkpt lat="44.81239" lon="0.84828">
        <ele>160.3</ele>
        <time>2022-12-04T09:04:20Z</time>
      </trkpt>
      <trkpt lat="44.81242" lon="0.8482">
        <ele>159.6</ele>
        <time>2022-12-04T09:04:21Z</time>
      </trkpt>
      <trkpt lat="44.81247" lon="0.84804">
        <ele>157.9</ele>
        <time>2022-12-04T09:04:23Z</time>
      </trkpt>
      <trkpt lat="44.8124" lon="0.84777">
        <ele>155.3</ele>
        <time>2022-12-04T09:04:26Z</time>
      </trkpt>
      <trkpt lat="44.81239" lon="0.84768">
        <ele>154.6</ele>
        <time>2022-12-04T09:04:27Z</time>
      </trkpt>
      <trkpt lat="44.81241" lon="0.8475">
        <ele>153.4</ele>
        <time>2022-12-04T09:04:29Z</time>
      </trkpt>
      <trkpt lat="44.81246" lon="0.84732">
        <ele>152.6</ele>
        <time>2022-12-04T09:04:31Z</time>
      </trkpt>
      <trkpt lat="44.81245" lon="0.84716">
        <ele>152.4</ele>
        <time>2022-12-04T09:04:33Z</time>
      </trkpt>
      <trkpt lat="44.81244" lon="0.8471">
        <ele>152.5</ele>
        <time>2022-12-04T09:04:34Z</time>
      </trkpt>
      <trkpt lat="44.8124" lon="0.84692">
        <ele>153.2</ele>
        <time>2022-12-04T09:04:37Z</time>
      </trkpt>
      <trkpt lat="44.81239" lon="0.84679">
        <ele>154.1</ele>
        <time>2022-12-04T09:04:41Z</time>
      </trkpt>
      <trkpt lat="44.81239" lon="0.84678">
        <ele>154.2</ele>
        <time>2022-12-04T09:04:42Z</time>
      </trkpt>
      <trkpt lat="44.81241" lon="0.84662">
        <ele>155.6</ele>
        <time>2022-12-04T09:04:52Z</time>
      </trkpt>
      <trkpt lat="44.81241" lon="0.84656">
        <ele>156.1</ele>
        <time>2022-12-04T09:04:54Z</time>
      </trkpt>
      <trkpt lat="44.81243" lon="0.84641">
        <ele>157.5</ele>
        <time>2022-12-04T09:05:00Z</time>
      </trkpt>
      <trkpt lat="44.81245" lon="0.8462">
        <ele>159</ele>
        <time>2022-12-04T09:05:07Z</time>
      </trkpt>
      <trkpt lat="44.81246" lon="0.84601">
        <ele>160.1</ele>
        <time>2022-12-04T09:05:13Z</time>
      </trkpt>
      <trkpt lat="44.81247" lon="0.84581">
        <ele>160.7</ele>
        <time>2022-12-04T09:05:19Z</time>
      </trkpt>
      <trkpt lat="44.81246" lon="0.84556">
        <ele>160.5</ele>
        <time>2022-12-04T09:05:24Z</time>
      </trkpt>
      <trkpt lat="44.81246" lon="0.84544">
        <ele>160.2</ele>
        <time>2022-12-04T09:05:26Z</time>
      </trkpt>
      <trkpt lat="44.81245" lon="0.84532">
        <ele>159.8</ele>
        <time>2022-12-04T09:05:28Z</time>
      </trkpt>
      <trkpt lat="44.81245" lon="0.84526">
        <ele>159.6</ele>
        <time>2022-12-04T09:05:29Z</time>
      </trkpt>
      <trkpt lat="44.81244" lon="0.84519">
        <ele>159.3</ele>
        <time>2022-12-04T09:05:30Z</time>
      </trkpt>
      <trkpt lat="44.81238" lon="0.8449">
        <ele>158.2</ele>
        <time>2022-12-04T09:05:34Z</time>
      </trkpt>
      <trkpt lat="44.81237" lon="0.84475">
        <ele>157.9</ele>
        <time>2022-12-04T09:05:36Z</time>
      </trkpt>
      <trkpt lat="44.81237" lon="0.84459">
        <ele>157.7</ele>
        <time>2022-12-04T09:05:38Z</time>
      </trkpt>
      <trkpt lat="44.81238" lon="0.84453">
        <ele>157.7</ele>
        <time>2022-12-04T09:05:39Z</time>
      </trkpt>
      <trkpt lat="44.81238" lon="0.84447">
        <ele>157.8</ele>
        <time>2022-12-04T09:05:40Z</time>
      </trkpt>
      <trkpt lat="44.81237" lon="0.84425">
        <ele>158.4</ele>
        <time>2022-12-04T09:05:44Z</time>
      </trkpt>
      <trkpt lat="44.81237" lon="0.84399">
        <ele>159.7</ele>
        <time>2022-12-04T09:05:49Z</time>
      </trkpt>
      <trkpt lat="44.81238" lon="0.84391">
        <ele>160.2</ele>
        <time>2022-12-04T09:05:51Z</time>
      </trkpt>
      <trkpt lat="44.81237" lon="0.84384">
        <ele>160.6</ele>
        <time>2022-12-04T09:05:53Z</time>
      </trkpt>
      <trkpt lat="44.81234" lon="0.84364">
        <ele>161.4</ele>
        <time>2022-12-04T09:05:58Z</time>
      </trkpt>
      <trkpt lat="44.8123" lon="0.84343">
        <ele>161.4</ele>
        <time>2022-12-04T09:06:03Z</time>
      </trkpt>
      <trkpt lat="44.81218" lon="0.84319">
        <ele>160.7</ele>
        <time>2022-12-04T09:06:08Z</time>
      </trkpt>
      <trkpt lat="44.81216" lon="0.84307">
        <ele>160</ele>
        <time>2022-12-04T09:06:10Z</time>
      </trkpt>
      <trkpt lat="44.81214" lon="0.84301">
        <ele>159.5</ele>
        <time>2022-12-04T09:06:11Z</time>
      </trkpt>
      <trkpt lat="44.81211" lon="0.84288">
        <ele>158.3</ele>
        <time>2022-12-04T09:06:13Z</time>
      </trkpt>
      <trkpt lat="44.81205" lon="0.84275">
        <ele>156.7</ele>
        <time>2022-12-04T09:06:15Z</time>
      </trkpt>
      <trkpt lat="44.812" lon="0.8426">
        <ele>155.1</ele>
        <time>2022-12-04T09:06:17Z</time>
      </trkpt>
      <trkpt lat="44.81195" lon="0.84245">
        <ele>153.8</ele>
        <time>2022-12-04T09:06:19Z</time>
      </trkpt>
      <trkpt lat="44.8119" lon="0.84206">
        <ele>152.9</ele>
        <time>2022-12-04T09:06:24Z</time>
      </trkpt>
      <trkpt lat="44.81189" lon="0.84189">
        <ele>153.3</ele>
        <time>2022-12-04T09:06:27Z</time>
      </trkpt>
      <trkpt lat="44.81187" lon="0.84172">
        <ele>154.2</ele>
        <time>2022-12-04T09:06:31Z</time>
      </trkpt>
      <trkpt lat="44.81184" lon="0.84153">
        <ele>155.4</ele>
        <time>2022-12-04T09:06:36Z</time>
      </trkpt>
      <trkpt lat="44.81183" lon="0.8414">
        <ele>156.4</ele>
        <time>2022-12-04T09:06:40Z</time>
      </trkpt>
      <trkpt lat="44.81183" lon="0.84124">
        <ele>157.9</ele>
        <time>2022-12-04T09:06:46Z</time>
      </trkpt>
      <trkpt lat="44.81184" lon="0.84105">
        <ele>159.7</ele>
        <time>2022-12-04T09:06:52Z</time>
      </trkpt>
      <trkpt lat="44.81185" lon="0.84093">
        <ele>160.9</ele>
        <time>2022-12-04T09:06:56Z</time>
      </trkpt>
      <trkpt lat="44.81186" lon="0.84088">
        <ele>161.4</ele>
        <time>2022-12-04T09:06:58Z</time>
      </trkpt>
      <trkpt lat="44.81186" lon="0.84085">
        <ele>161.6</ele>
        <time>2022-12-04T09:06:59Z</time>
      </trkpt>
      <trkpt lat="44.81183" lon="0.8408">
        <ele>162.1</ele>
        <time>2022-12-04T09:07:01Z</time>
      </trkpt>
      <trkpt lat="44.81181" lon="0.84078">
        <ele>162.5</ele>
        <time>2022-12-04T09:07:02Z</time>
      </trkpt>
      <trkpt lat="44.81167" lon="0.84074">
        <ele>163.2</ele>
        <time>2022-12-04T09:07:08Z</time>
      </trkpt>
      <trkpt lat="44.81147" lon="0.84073">
        <ele>164.3</ele>
        <time>2022-12-04T09:07:16Z</time>
      </trkpt>
      <trkpt lat="44.81129" lon="0.8407">
        <ele>165</ele>
        <time>2022-12-04T09:07:23Z</time>
      </trkpt>
      <trkpt lat="44.81111" lon="0.84065">
        <ele>165.7</ele>
        <time>2022-12-04T09:07:29Z</time>
      </trkpt>
      <trkpt lat="44.81088" lon="0.84061">
        <ele>166.5</ele>
        <time>2022-12-04T09:07:36Z</time>
      </trkpt>
      <trkpt lat="44.81068" lon="0.84056">
        <ele>167.4</ele>
        <time>2022-12-04T09:07:43Z</time>
      </trkpt>
      <trkpt lat="44.81056" lon="0.84046">
        <ele>168.3</ele>
        <time>2022-12-04T09:07:48Z</time>
      </trkpt>
      <trkpt lat="44.81042" lon="0.8403">
        <ele>169.3</ele>
        <time>2022-12-04T09:07:54Z</time>
      </trkpt>
      <trkpt lat="44.81026" lon="0.84012">
        <ele>170.7</ele>
        <time>2022-12-04T09:08:01Z</time>
      </trkpt>
      <trkpt lat="44.81007" lon="0.84002">
        <ele>172.1</ele>
        <time>2022-12-04T09:08:08Z</time>
      </trkpt>
      <trkpt lat="44.80985" lon="0.83994">
        <ele>173.6</ele>
        <time>2022-12-04T09:08:16Z</time>
      </trkpt>
      <trkpt lat="44.80963" lon="0.83984">
        <ele>174.9</ele>
        <time>2022-12-04T09:08:24Z</time>
      </trkpt>
      <trkpt lat="44.80949" lon="0.83971">
        <ele>176.4</ele>
        <time>2022-12-04T09:08:31Z</time>
      </trkpt>
      <trkpt lat="44.80935" lon="0.8396">
        <ele>178</ele>
        <time>2022-12-04T09:08:38Z</time>
      </trkpt>
      <trkpt lat="44.80925" lon="0.83949">
        <ele>179.3</ele>
        <time>2022-12-04T09:08:44Z</time>
      </trkpt>
      <trkpt lat="44.80915" lon="0.83937">
        <ele>180.6</ele>
        <time>2022-12-04T09:08:50Z</time>
      </trkpt>
      <trkpt lat="44.80905" lon="0.83919">
        <ele>181.9</ele>
        <time>2022-12-04T09:08:57Z</time>
      </trkpt>
      <trkpt lat="44.80893" lon="0.839">
        <ele>183.2</ele>
        <time>2022-12-04T09:09:05Z</time>
      </trkpt>
      <trkpt lat="44.80877" lon="0.83889">
        <ele>184.3</ele>
        <time>2022-12-04T09:09:12Z</time>
      </trkpt>
      <trkpt lat="44.80859" lon="0.83876">
        <ele>184.6</ele>
        <time>2022-12-04T09:09:18Z</time>
      </trkpt>
      <trkpt lat="44.80841" lon="0.83859">
        <ele>184.5</ele>
        <time>2022-12-04T09:09:24Z</time>
      </trkpt>
      <trkpt lat="44.80816" lon="0.83838">
        <ele>184.3</ele>
        <time>2022-12-04T09:09:32Z</time>
      </trkpt>
      <trkpt lat="44.80793" lon="0.83819">
        <ele>183.5</ele>
        <time>2022-12-04T09:09:38Z</time>
      </trkpt>
      <trkpt lat="44.8078" lon="0.83808">
        <ele>183.2</ele>
        <time>2022-12-04T09:09:41Z</time>
      </trkpt>
      <trkpt lat="44.80765" lon="0.8379">
        <ele>183</ele>
        <time>2022-12-04T09:09:45Z</time>
      </trkpt>
      <trkpt lat="44.80757" lon="0.8378">
        <ele>183</ele>
        <time>2022-12-04T09:09:47Z</time>
      </trkpt>
      <trkpt lat="44.80745" lon="0.83758">
        <ele>182.8</ele>
        <time>2022-12-04T09:09:51Z</time>
      </trkpt>
      <trkpt lat="44.80726" lon="0.83712">
        <ele>183.2</ele>
        <time>2022-12-04T09:09:59Z</time>
      </trkpt>
      <trkpt lat="44.80717" lon="0.83679">
        <ele>184.2</ele>
        <time>2022-12-04T09:10:05Z</time>
      </trkpt>
      <trkpt lat="44.80717" lon="0.83639">
        <ele>185.9</ele>
        <time>2022-12-04T09:10:12Z</time>
      </trkpt>
      <trkpt lat="44.80718" lon="0.83615">
        <ele>187</ele>
        <time>2022-12-04T09:10:17Z</time>
      </trkpt>
      <trkpt lat="44.80715" lon="0.83594">
        <ele>187.8</ele>
        <time>2022-12-04T09:10:21Z</time>
      </trkpt>
      <trkpt lat="44.80714" lon="0.83576">
        <ele>188.4</ele>
        <time>2022-12-04T09:10:24Z</time>
      </trkpt>
      <trkpt lat="44.80713" lon="0.83569">
        <ele>188.7</ele>
        <time>2022-12-04T09:10:25Z</time>
      </trkpt>
      <trkpt lat="44.80711" lon="0.8353">
        <ele>190.2</ele>
        <time>2022-12-04T09:10:32Z</time>
      </trkpt>
      <trkpt lat="44.80707" lon="0.83497">
        <ele>192</ele>
        <time>2022-12-04T09:10:39Z</time>
      </trkpt>
      <trkpt lat="44.80702" lon="0.8348">
        <ele>192.7</ele>
        <time>2022-12-04T09:10:43Z</time>
      </trkpt>
      <trkpt lat="44.80701" lon="0.83474">
        <ele>192.9</ele>
        <time>2022-12-04T09:10:44Z</time>
      </trkpt>
      <trkpt lat="44.80704" lon="0.83465">
        <ele>193.1</ele>
        <time>2022-12-04T09:10:46Z</time>
      </trkpt>
      <trkpt lat="44.80722" lon="0.83452">
        <ele>193.9</ele>
        <time>2022-12-04T09:10:52Z</time>
      </trkpt>
      <trkpt lat="44.80734" lon="0.83448">
        <ele>194.3</ele>
        <time>2022-12-04T09:10:56Z</time>
      </trkpt>
      <trkpt lat="44.80751" lon="0.83452">
        <ele>194.7</ele>
        <time>2022-12-04T09:11:02Z</time>
      </trkpt>
      <trkpt lat="44.80772" lon="0.83454">
        <ele>194.8</ele>
        <time>2022-12-04T09:11:07Z</time>
      </trkpt>
      <trkpt lat="44.80807" lon="0.83458">
        <ele>192.9</ele>
        <time>2022-12-04T09:11:14Z</time>
      </trkpt>
      <trkpt lat="44.80831" lon="0.83461">
        <ele>191.7</ele>
        <time>2022-12-04T09:11:18Z</time>
      </trkpt>
      <trkpt lat="44.80837" lon="0.83461">
        <ele>191.3</ele>
        <time>2022-12-04T09:11:19Z</time>
      </trkpt>
      <trkpt lat="44.80862" lon="0.83462">
        <ele>189.5</ele>
        <time>2022-12-04T09:11:23Z</time>
      </trkpt>
      <trkpt lat="44.80879" lon="0.83463">
        <ele>188.2</ele>
        <time>2022-12-04T09:11:26Z</time>
      </trkpt>
      <trkpt lat="44.80885" lon="0.83461">
        <ele>187.8</ele>
        <time>2022-12-04T09:11:27Z</time>
      </trkpt>
      <trkpt lat="44.80898" lon="0.83458">
        <ele>187</ele>
        <time>2022-12-04T09:11:29Z</time>
      </trkpt>
      <trkpt lat="44.80915" lon="0.83458">
        <ele>186</ele>
        <time>2022-12-04T09:11:32Z</time>
      </trkpt>
      <trkpt lat="44.80951" lon="0.83457">
        <ele>184.8</ele>
        <time>2022-12-04T09:11:38Z</time>
      </trkpt>
      <trkpt lat="44.80966" lon="0.83457">
        <ele>184.5</ele>
        <time>2022-12-04T09:11:41Z</time>
      </trkpt>
      <trkpt lat="44.80976" lon="0.83456">
        <ele>184.3</ele>
        <time>2022-12-04T09:11:43Z</time>
      </trkpt>
      <trkpt lat="44.80992" lon="0.83456">
        <ele>183.9</ele>
        <time>2022-12-04T09:11:46Z</time>
      </trkpt>
      <trkpt lat="44.81002" lon="0.83451">
        <ele>183.7</ele>
        <time>2022-12-04T09:11:48Z</time>
      </trkpt>
      <trkpt lat="44.81011" lon="0.83441">
        <ele>183.4</ele>
        <time>2022-12-04T09:11:50Z</time>
      </trkpt>
      <trkpt lat="44.81016" lon="0.83427">
        <ele>183.2</ele>
        <time>2022-12-04T09:11:52Z</time>
      </trkpt>
      <trkpt lat="44.81017" lon="0.83421">
        <ele>183.1</ele>
        <time>2022-12-04T09:11:53Z</time>
      </trkpt>
      <trkpt lat="44.81022" lon="0.83403">
        <ele>183</ele>
        <time>2022-12-04T09:11:56Z</time>
      </trkpt>
      <trkpt lat="44.81027" lon="0.83393">
        <ele>182.9</ele>
        <time>2022-12-04T09:11:58Z</time>
      </trkpt>
      <trkpt lat="44.81033" lon="0.83381">
        <ele>182.7</ele>
        <time>2022-12-04T09:12:00Z</time>
      </trkpt>
      <trkpt lat="44.81038" lon="0.83362">
        <ele>182.7</ele>
        <time>2022-12-04T09:12:03Z</time>
      </trkpt>
      <trkpt lat="44.8104" lon="0.83351">
        <ele>182.9</ele>
        <time>2022-12-04T09:12:05Z</time>
      </trkpt>
      <trkpt lat="44.81037" lon="0.83326">
        <ele>183.8</ele>
        <time>2022-12-04T09:12:10Z</time>
      </trkpt>
      <trkpt lat="44.81034" lon="0.83307">
        <ele>184.7</ele>
        <time>2022-12-04T09:12:15Z</time>
      </trkpt>
      <trkpt lat="44.81033" lon="0.83286">
        <ele>185.5</ele>
        <time>2022-12-04T09:12:19Z</time>
      </trkpt>
      <trkpt lat="44.81024" lon="0.83259">
        <ele>187.1</ele>
        <time>2022-12-04T09:12:25Z</time>
      </trkpt>
      <trkpt lat="44.81026" lon="0.83241">
        <ele>187.9</ele>
        <time>2022-12-04T09:12:29Z</time>
      </trkpt>
      <trkpt lat="44.81037" lon="0.83221">
        <ele>188</ele>
        <time>2022-12-04T09:12:34Z</time>
      </trkpt>
      <trkpt lat="44.81051" lon="0.83206">
        <ele>187.9</ele>
        <time>2022-12-04T09:12:39Z</time>
      </trkpt>
      <trkpt lat="44.81068" lon="0.83188">
        <ele>187.8</ele>
        <time>2022-12-04T09:12:45Z</time>
      </trkpt>
      <trkpt lat="44.81082" lon="0.83176">
        <ele>187.5</ele>
        <time>2022-12-04T09:12:50Z</time>
      </trkpt>
      <trkpt lat="44.81104" lon="0.83163">
        <ele>187.3</ele>
        <time>2022-12-04T09:12:56Z</time>
      </trkpt>
      <trkpt lat="44.81126" lon="0.83151">
        <ele>187.4</ele>
        <time>2022-12-04T09:13:02Z</time>
      </trkpt>
      <trkpt lat="44.81147" lon="0.83152">
        <ele>187.1</ele>
        <time>2022-12-04T09:13:08Z</time>
      </trkpt>
      <trkpt lat="44.81154" lon="0.83148">
        <ele>186.9</ele>
        <time>2022-12-04T09:13:10Z</time>
      </trkpt>
      <trkpt lat="44.81158" lon="0.83145">
        <ele>186.7</ele>
        <time>2022-12-04T09:13:11Z</time>
      </trkpt>
      <trkpt lat="44.8116" lon="0.8314">
        <ele>186.5</ele>
        <time>2022-12-04T09:13:12Z</time>
      </trkpt>
      <trkpt lat="44.81163" lon="0.83126">
        <ele>185.6</ele>
        <time>2022-12-04T09:13:14Z</time>
      </trkpt>
      <trkpt lat="44.81165" lon="0.83092">
        <ele>182.2</ele>
        <time>2022-12-04T09:13:18Z</time>
      </trkpt>
      <trkpt lat="44.81167" lon="0.83046">
        <ele>177.2</ele>
        <time>2022-12-04T09:13:23Z</time>
      </trkpt>
      <trkpt lat="44.81166" lon="0.82999">
        <ele>172.3</ele>
        <time>2022-12-04T09:13:28Z</time>
      </trkpt>
      <trkpt lat="44.81166" lon="0.82962">
        <ele>168.8</ele>
        <time>2022-12-04T09:13:32Z</time>
      </trkpt>
      <trkpt lat="44.81163" lon="0.82896">
        <ele>162.4</ele>
        <time>2022-12-04T09:13:38Z</time>
      </trkpt>
      <trkpt lat="44.81161" lon="0.82858">
        <ele>158.8</ele>
        <time>2022-12-04T09:13:42Z</time>
      </trkpt>
      <trkpt lat="44.81161" lon="0.8285">
        <ele>158</ele>
        <time>2022-12-04T09:13:43Z</time>
      </trkpt>
      <trkpt lat="44.81161" lon="0.82815">
        <ele>153.1</ele>
        <time>2022-12-04T09:13:48Z</time>
      </trkpt>
      <trkpt lat="44.81161" lon="0.82809">
        <ele>152.2</ele>
        <time>2022-12-04T09:13:49Z</time>
      </trkpt>
      <trkpt lat="44.81163" lon="0.82774">
        <ele>146.5</ele>
        <time>2022-12-04T09:13:54Z</time>
      </trkpt>
      <trkpt lat="44.81164" lon="0.82766">
        <ele>145.3</ele>
        <time>2022-12-04T09:13:55Z</time>
      </trkpt>
      <trkpt lat="44.81168" lon="0.82743">
        <ele>141.6</ele>
        <time>2022-12-04T09:13:58Z</time>
      </trkpt>
      <trkpt lat="44.81168" lon="0.82734">
        <ele>139.9</ele>
        <time>2022-12-04T09:13:59Z</time>
      </trkpt>
      <trkpt lat="44.8117" lon="0.82711">
        <ele>136.2</ele>
        <time>2022-12-04T09:14:01Z</time>
      </trkpt>
      <trkpt lat="44.8117" lon="0.82697">
        <ele>135.1</ele>
        <time>2022-12-04T09:14:02Z</time>
      </trkpt>
      <trkpt lat="44.81171" lon="0.82671">
        <ele>133.9</ele>
        <time>2022-12-04T09:14:04Z</time>
      </trkpt>
      <trkpt lat="44.81173" lon="0.8266">
        <ele>133.1</ele>
        <time>2022-12-04T09:14:05Z</time>
      </trkpt>
      <trkpt lat="44.81175" lon="0.82653">
        <ele>132.2</ele>
        <time>2022-12-04T09:14:06Z</time>
      </trkpt>
      <trkpt lat="44.81179" lon="0.82649">
        <ele>131.5</ele>
        <time>2022-12-04T09:14:07Z</time>
      </trkpt>
      <trkpt lat="44.81184" lon="0.82649">
        <ele>130.8</ele>
        <time>2022-12-04T09:14:08Z</time>
      </trkpt>
      <trkpt lat="44.81199" lon="0.82654">
        <ele>129.2</ele>
        <time>2022-12-04T09:14:11Z</time>
      </trkpt>
      <trkpt lat="44.81204" lon="0.82655">
        <ele>128.8</ele>
        <time>2022-12-04T09:14:12Z</time>
      </trkpt>
      <trkpt lat="44.81227" lon="0.82658">
        <ele>127.7</ele>
        <time>2022-12-04T09:14:16Z</time>
      </trkpt>
      <trkpt lat="44.81233" lon="0.82657">
        <ele>127.6</ele>
        <time>2022-12-04T09:14:17Z</time>
      </trkpt>
      <trkpt lat="44.81242" lon="0.82652">
        <ele>127.5</ele>
        <time>2022-12-04T09:14:19Z</time>
      </trkpt>
      <trkpt lat="44.81253" lon="0.8264">
        <ele>128.1</ele>
        <time>2022-12-04T09:14:23Z</time>
      </trkpt>
      <trkpt lat="44.81257" lon="0.82637">
        <ele>128.4</ele>
        <time>2022-12-04T09:14:25Z</time>
      </trkpt>
      <trkpt lat="44.81258" lon="0.82635">
        <ele>128.6</ele>
        <time>2022-12-04T09:14:26Z</time>
      </trkpt>
      <trkpt lat="44.81262" lon="0.82629">
        <ele>129.1</ele>
        <time>2022-12-04T09:14:29Z</time>
      </trkpt>
      <trkpt lat="44.81263" lon="0.82627">
        <ele>129.3</ele>
        <time>2022-12-04T09:14:30Z</time>
      </trkpt>
      <trkpt lat="44.81274" lon="0.82611">
        <ele>131.4</ele>
        <time>2022-12-04T09:14:37Z</time>
      </trkpt>
      <trkpt lat="44.8128" lon="0.82595">
        <ele>133.3</ele>
        <time>2022-12-04T09:14:43Z</time>
      </trkpt>
      <trkpt lat="44.81284" lon="0.82587">
        <ele>134.4</ele>
        <time>2022-12-04T09:14:47Z</time>
      </trkpt>
      <trkpt lat="44.81283" lon="0.82585">
        <ele>134.7</ele>
        <time>2022-12-04T09:14:48Z</time>
      </trkpt>
      <trkpt lat="44.81282" lon="0.82582">
        <ele>135.4</ele>
        <time>2022-12-04T09:14:50Z</time>
      </trkpt>
      <trkpt lat="44.8128" lon="0.82581">
        <ele>135.8</ele>
        <time>2022-12-04T09:14:52Z</time>
      </trkpt>
      <trkpt lat="44.81271" lon="0.8258">
        <ele>137.3</ele>
        <time>2022-12-04T09:14:58Z</time>
      </trkpt>
      <trkpt lat="44.81256" lon="0.82578">
        <ele>139.5</ele>
        <time>2022-12-04T09:15:07Z</time>
      </trkpt>
      <trkpt lat="44.81246" lon="0.82574">
        <ele>141</ele>
        <time>2022-12-04T09:15:14Z</time>
      </trkpt>
      <trkpt lat="44.81236" lon="0.82573">
        <ele>142.5</ele>
        <time>2022-12-04T09:15:20Z</time>
      </trkpt>
      <trkpt lat="44.81225" lon="0.82572">
        <ele>144.1</ele>
        <time>2022-12-04T09:15:26Z</time>
      </trkpt>
      <trkpt lat="44.81215" lon="0.8257">
        <ele>145.4</ele>
        <time>2022-12-04T09:15:32Z</time>
      </trkpt>
      <trkpt lat="44.81203" lon="0.82566">
        <ele>146.6</ele>
        <time>2022-12-04T09:15:39Z</time>
      </trkpt>
      <trkpt lat="44.8119" lon="0.82563">
        <ele>147.8</ele>
        <time>2022-12-04T09:15:46Z</time>
      </trkpt>
      <trkpt lat="44.81181" lon="0.82559">
        <ele>149</ele>
        <time>2022-12-04T09:15:51Z</time>
      </trkpt>
      <trkpt lat="44.81178" lon="0.82553">
        <ele>149.9</ele>
        <time>2022-12-04T09:15:54Z</time>
      </trkpt>
      <trkpt lat="44.81178" lon="0.82548">
        <ele>150.6</ele>
        <time>2022-12-04T09:15:56Z</time>
      </trkpt>
      <trkpt lat="44.81182" lon="0.82529">
        <ele>152.8</ele>
        <time>2022-12-04T09:16:03Z</time>
      </trkpt>
      <trkpt lat="44.81185" lon="0.82508">
        <ele>154.9</ele>
        <time>2022-12-04T09:16:10Z</time>
      </trkpt>
      <trkpt lat="44.81187" lon="0.82494">
        <ele>156.3</ele>
        <time>2022-12-04T09:16:16Z</time>
      </trkpt>
      <trkpt lat="44.81186" lon="0.82492">
        <ele>156.5</ele>
        <time>2022-12-04T09:16:17Z</time>
      </trkpt>
      <trkpt lat="44.81181" lon="0.82488">
        <ele>157.2</ele>
        <time>2022-12-04T09:16:20Z</time>
      </trkpt>
      <trkpt lat="44.81168" lon="0.82484">
        <ele>158.7</ele>
        <time>2022-12-04T09:16:27Z</time>
      </trkpt>
      <trkpt lat="44.81153" lon="0.82478">
        <ele>160.3</ele>
        <time>2022-12-04T09:16:34Z</time>
      </trkpt>
      <trkpt lat="44.81138" lon="0.82471">
        <ele>161.6</ele>
        <time>2022-12-04T09:16:41Z</time>
      </trkpt>
      <trkpt lat="44.81125" lon="0.8247">
        <ele>162.8</ele>
        <time>2022-12-04T09:16:47Z</time>
      </trkpt>
      <trkpt lat="44.81114" lon="0.82462">
        <ele>163.1</ele>
        <time>2022-12-04T09:16:52Z</time>
      </trkpt>
      <trkpt lat="44.81095" lon="0.82451">
        <ele>163.1</ele>
        <time>2022-12-04T09:16:59Z</time>
      </trkpt>
      <trkpt lat="44.81091" lon="0.82448">
        <ele>163.1</ele>
        <time>2022-12-04T09:17:01Z</time>
      </trkpt>
      <trkpt lat="44.81079" lon="0.82442">
        <ele>163</ele>
        <time>2022-12-04T09:17:04Z</time>
      </trkpt>
      <trkpt lat="44.81053" lon="0.82424">
        <ele>162.7</ele>
        <time>2022-12-04T09:17:11Z</time>
      </trkpt>
      <trkpt lat="44.81028" lon="0.82403">
        <ele>162.5</ele>
        <time>2022-12-04T09:17:19Z</time>
      </trkpt>
      <trkpt lat="44.81009" lon="0.82386">
        <ele>162.4</ele>
        <time>2022-12-04T09:17:25Z</time>
      </trkpt>
      <trkpt lat="44.81009" lon="0.82371">
        <ele>162.9</ele>
        <time>2022-12-04T09:17:28Z</time>
      </trkpt>
      <trkpt lat="44.81023" lon="0.8234">
        <ele>163.6</ele>
        <time>2022-12-04T09:17:35Z</time>
      </trkpt>
      <trkpt lat="44.8103" lon="0.82318">
        <ele>163.4</ele>
        <time>2022-12-04T09:17:40Z</time>
      </trkpt>
      <trkpt lat="44.81036" lon="0.82297">
        <ele>162.4</ele>
        <time>2022-12-04T09:17:44Z</time>
      </trkpt>
      <trkpt lat="44.81038" lon="0.82291">
        <ele>162</ele>
        <time>2022-12-04T09:17:45Z</time>
      </trkpt>
      <trkpt lat="44.8105" lon="0.82253">
        <ele>159.7</ele>
        <time>2022-12-04T09:17:50Z</time>
      </trkpt>
      <trkpt lat="44.81068" lon="0.82195">
        <ele>156.2</ele>
        <time>2022-12-04T09:17:56Z</time>
      </trkpt>
      <trkpt lat="44.81069" lon="0.82173">
        <ele>155.2</ele>
        <time>2022-12-04T09:17:58Z</time>
      </trkpt>
      <trkpt lat="44.81068" lon="0.82162">
        <ele>154.7</ele>
        <time>2022-12-04T09:17:59Z</time>
      </trkpt>
      <trkpt lat="44.81057" lon="0.82098">
        <ele>152.5</ele>
        <time>2022-12-04T09:18:05Z</time>
      </trkpt>
      <trkpt lat="44.81055" lon="0.82039">
        <ele>152.6</ele>
        <time>2022-12-04T09:18:11Z</time>
      </trkpt>
      <trkpt lat="44.81056" lon="0.81998">
        <ele>153</ele>
        <time>2022-12-04T09:18:16Z</time>
      </trkpt>
      <trkpt lat="44.81061" lon="0.81945">
        <ele>153.4</ele>
        <time>2022-12-04T09:18:23Z</time>
      </trkpt>
      <trkpt lat="44.81065" lon="0.81923">
        <ele>153.6</ele>
        <time>2022-12-04T09:18:26Z</time>
      </trkpt>
      <trkpt lat="44.81073" lon="0.81901">
        <ele>153.8</ele>
        <time>2022-12-04T09:18:29Z</time>
      </trkpt>
      <trkpt lat="44.81094" lon="0.81855">
        <ele>155.2</ele>
        <time>2022-12-04T09:18:36Z</time>
      </trkpt>
      <trkpt lat="44.81096" lon="0.81849">
        <ele>155.5</ele>
        <time>2022-12-04T09:18:37Z</time>
      </trkpt>
      <trkpt lat="44.81102" lon="0.81822">
        <ele>158.3</ele>
        <time>2022-12-04T09:18:42Z</time>
      </trkpt>
      <trkpt lat="44.81108" lon="0.81804">
        <ele>159.7</ele>
        <time>2022-12-04T09:18:48Z</time>
      </trkpt>
      <trkpt lat="44.81114" lon="0.81792">
        <ele>160.9</ele>
        <time>2022-12-04T09:18:54Z</time>
      </trkpt>
      <trkpt lat="44.81117" lon="0.81783">
        <ele>162</ele>
        <time>2022-12-04T09:18:59Z</time>
      </trkpt>
      <trkpt lat="44.81119" lon="0.81778">
        <ele>162.5</ele>
        <time>2022-12-04T09:19:02Z</time>
      </trkpt>
      <trkpt lat="44.81121" lon="0.81773">
        <ele>163.1</ele>
        <time>2022-12-04T09:19:04Z</time>
      </trkpt>
      <trkpt lat="44.81128" lon="0.8176">
        <ele>164.6</ele>
        <time>2022-12-04T09:19:10Z</time>
      </trkpt>
      <trkpt lat="44.81133" lon="0.81746">
        <ele>166</ele>
        <time>2022-12-04T09:19:15Z</time>
      </trkpt>
      <trkpt lat="44.81139" lon="0.81733">
        <ele>167.5</ele>
        <time>2022-12-04T09:19:22Z</time>
      </trkpt>
      <trkpt lat="44.8114" lon="0.81732">
        <ele>167.6</ele>
        <time>2022-12-04T09:19:23Z</time>
      </trkpt>
      <trkpt lat="44.81144" lon="0.81725">
        <ele>168.5</ele>
        <time>2022-12-04T09:19:28Z</time>
      </trkpt>
      <trkpt lat="44.81148" lon="0.81712">
        <ele>169.8</ele>
        <time>2022-12-04T09:19:36Z</time>
      </trkpt>
      <trkpt lat="44.81154" lon="0.817">
        <ele>171</ele>
        <time>2022-12-04T09:19:42Z</time>
      </trkpt>
      <trkpt lat="44.81154" lon="0.81696">
        <ele>171.3</ele>
        <time>2022-12-04T09:19:44Z</time>
      </trkpt>
      <trkpt lat="44.81155" lon="0.8169">
        <ele>171.8</ele>
        <time>2022-12-04T09:19:47Z</time>
      </trkpt>
      <trkpt lat="44.81159" lon="0.81683">
        <ele>172.5</ele>
        <time>2022-12-04T09:19:52Z</time>
      </trkpt>
      <trkpt lat="44.81163" lon="0.81674">
        <ele>173.3</ele>
        <time>2022-12-04T09:19:57Z</time>
      </trkpt>
      <trkpt lat="44.81168" lon="0.81658">
        <ele>174.2</ele>
        <time>2022-12-04T09:20:04Z</time>
      </trkpt>
      <trkpt lat="44.81172" lon="0.81645">
        <ele>174.8</ele>
        <time>2022-12-04T09:20:10Z</time>
      </trkpt>
      <trkpt lat="44.81173" lon="0.8164">
        <ele>175</ele>
        <time>2022-12-04T09:20:12Z</time>
      </trkpt>
      <trkpt lat="44.81175" lon="0.81632">
        <ele>175.3</ele>
        <time>2022-12-04T09:20:15Z</time>
      </trkpt>
      <trkpt lat="44.81177" lon="0.81624">
        <ele>175.7</ele>
        <time>2022-12-04T09:20:19Z</time>
      </trkpt>
      <trkpt lat="44.8118" lon="0.81611">
        <ele>176.2</ele>
        <time>2022-12-04T09:20:24Z</time>
      </trkpt>
      <trkpt lat="44.8118" lon="0.81608">
        <ele>176.3</ele>
        <time>2022-12-04T09:20:25Z</time>
      </trkpt>
      <trkpt lat="44.81182" lon="0.81599">
        <ele>176.7</ele>
        <time>2022-12-04T09:20:28Z</time>
      </trkpt>
      <trkpt lat="44.81183" lon="0.81594">
        <ele>176.9</ele>
        <time>2022-12-04T09:20:30Z</time>
      </trkpt>
      <trkpt lat="44.81184" lon="0.81589">
        <ele>177.2</ele>
        <time>2022-12-04T09:20:32Z</time>
      </trkpt>
      <trkpt lat="44.81186" lon="0.81575">
        <ele>177.9</ele>
        <time>2022-12-04T09:20:37Z</time>
      </trkpt>
      <trkpt lat="44.8119" lon="0.81559">
        <ele>178.7</ele>
        <time>2022-12-04T09:20:43Z</time>
      </trkpt>
      <trkpt lat="44.81191" lon="0.81547">
        <ele>179.2</ele>
        <time>2022-12-04T09:20:48Z</time>
      </trkpt>
      <trkpt lat="44.81192" lon="0.8154">
        <ele>179.5</ele>
        <time>2022-12-04T09:20:51Z</time>
      </trkpt>
      <trkpt lat="44.81193" lon="0.81534">
        <ele>179.7</ele>
        <time>2022-12-04T09:20:53Z</time>
      </trkpt>
      <trkpt lat="44.81195" lon="0.81515">
        <ele>180.6</ele>
        <time>2022-12-04T09:20:59Z</time>
      </trkpt>
      <trkpt lat="44.81197" lon="0.815">
        <ele>181.3</ele>
        <time>2022-12-04T09:21:04Z</time>
      </trkpt>
      <trkpt lat="44.81198" lon="0.81486">
        <ele>182.1</ele>
        <time>2022-12-04T09:21:08Z</time>
      </trkpt>
      <trkpt lat="44.81197" lon="0.81456">
        <ele>183.9</ele>
        <time>2022-12-04T09:21:17Z</time>
      </trkpt>
      <trkpt lat="44.81191" lon="0.81442">
        <ele>184.6</ele>
        <time>2022-12-04T09:21:23Z</time>
      </trkpt>
      <trkpt lat="44.81179" lon="0.81431">
        <ele>185.2</ele>
        <time>2022-12-04T09:21:30Z</time>
      </trkpt>
      <trkpt lat="44.81164" lon="0.81414">
        <ele>185.9</ele>
        <time>2022-12-04T09:21:38Z</time>
      </trkpt>
      <trkpt lat="44.81149" lon="0.81398">
        <ele>186.8</ele>
        <time>2022-12-04T09:21:45Z</time>
      </trkpt>
      <trkpt lat="44.81132" lon="0.8138">
        <ele>187.8</ele>
        <time>2022-12-04T09:21:53Z</time>
      </trkpt>
      <trkpt lat="44.81115" lon="0.8136">
        <ele>188.8</ele>
        <time>2022-12-04T09:22:01Z</time>
      </trkpt>
      <trkpt lat="44.81098" lon="0.81342">
        <ele>189.2</ele>
        <time>2022-12-04T09:22:08Z</time>
      </trkpt>
      <trkpt lat="44.81083" lon="0.81322">
        <ele>189.3</ele>
        <time>2022-12-04T09:22:14Z</time>
      </trkpt>
      <trkpt lat="44.8107" lon="0.81289">
        <ele>189.3</ele>
        <time>2022-12-04T09:22:21Z</time>
      </trkpt>
      <trkpt lat="44.81057" lon="0.81244">
        <ele>189.2</ele>
        <time>2022-12-04T09:22:29Z</time>
      </trkpt>
      <trkpt lat="44.81046" lon="0.81192">
        <ele>189.2</ele>
        <time>2022-12-04T09:22:37Z</time>
      </trkpt>
      <trkpt lat="44.81045" lon="0.81178">
        <ele>189.2</ele>
        <time>2022-12-04T09:22:39Z</time>
      </trkpt>
      <trkpt lat="44.81042" lon="0.81144">
        <ele>189.4</ele>
        <time>2022-12-04T09:22:44Z</time>
      </trkpt>
      <trkpt lat="44.81036" lon="0.81105">
        <ele>189.6</ele>
        <time>2022-12-04T09:22:50Z</time>
      </trkpt>
      <trkpt lat="44.81035" lon="0.81099">
        <ele>189.6</ele>
        <time>2022-12-04T09:22:51Z</time>
      </trkpt>
      <trkpt lat="44.81032" lon="0.81086">
        <ele>189.7</ele>
        <time>2022-12-04T09:22:53Z</time>
      </trkpt>
      <trkpt lat="44.81026" lon="0.81067">
        <ele>189.9</ele>
        <time>2022-12-04T09:22:56Z</time>
      </trkpt>
      <trkpt lat="44.81024" lon="0.8106">
        <ele>190</ele>
        <time>2022-12-04T09:22:57Z</time>
      </trkpt>
      <trkpt lat="44.81015" lon="0.81035">
        <ele>189.8</ele>
        <time>2022-12-04T09:23:01Z</time>
      </trkpt>
      <trkpt lat="44.81007" lon="0.81016">
        <ele>189.5</ele>
        <time>2022-12-04T09:23:04Z</time>
      </trkpt>
      <trkpt lat="44.80999" lon="0.80999">
        <ele>189.3</ele>
        <time>2022-12-04T09:23:07Z</time>
      </trkpt>
      <trkpt lat="44.80974" lon="0.8096">
        <ele>188.7</ele>
        <time>2022-12-04T09:23:14Z</time>
      </trkpt>
      <trkpt lat="44.8096" lon="0.80946">
        <ele>187.8</ele>
        <time>2022-12-04T09:23:17Z</time>
      </trkpt>
      <trkpt lat="44.80948" lon="0.80939">
        <ele>187</ele>
        <time>2022-12-04T09:23:19Z</time>
      </trkpt>
      <trkpt lat="44.80898" lon="0.80911">
        <ele>184.3</ele>
        <time>2022-12-04T09:23:27Z</time>
      </trkpt>
      <trkpt lat="44.80857" lon="0.80882">
        <ele>182.5</ele>
        <time>2022-12-04T09:23:34Z</time>
      </trkpt>
      <trkpt lat="44.80829" lon="0.80853">
        <ele>182.3</ele>
        <time>2022-12-04T09:23:40Z</time>
      </trkpt>
      <trkpt lat="44.80821" lon="0.80843">
        <ele>182.3</ele>
        <time>2022-12-04T09:23:42Z</time>
      </trkpt>
      <trkpt lat="44.80812" lon="0.80824">
        <ele>182.3</ele>
        <time>2022-12-04T09:23:45Z</time>
      </trkpt>
      <trkpt lat="44.80798" lon="0.8079">
        <ele>181.7</ele>
        <time>2022-12-04T09:23:50Z</time>
      </trkpt>
      <trkpt lat="44.80776" lon="0.80739">
        <ele>181.1</ele>
        <time>2022-12-04T09:23:57Z</time>
      </trkpt>
      <trkpt lat="44.8075" lon="0.80682">
        <ele>181.4</ele>
        <time>2022-12-04T09:24:05Z</time>
      </trkpt>
      <trkpt lat="44.80736" lon="0.80649">
        <ele>181.6</ele>
        <time>2022-12-04T09:24:10Z</time>
      </trkpt>
      <trkpt lat="44.80734" lon="0.80644">
        <ele>181.6</ele>
        <time>2022-12-04T09:24:11Z</time>
      </trkpt>
      <trkpt lat="44.80716" lon="0.80601">
        <ele>182.2</ele>
        <time>2022-12-04T09:24:17Z</time>
      </trkpt>
      <trkpt lat="44.80705" lon="0.80568">
        <ele>182.5</ele>
        <time>2022-12-04T09:24:22Z</time>
      </trkpt>
      <trkpt lat="44.80703" lon="0.8056">
        <ele>182.5</ele>
        <time>2022-12-04T09:24:23Z</time>
      </trkpt>
      <trkpt lat="44.80703" lon="0.80544">
        <ele>182.6</ele>
        <time>2022-12-04T09:24:25Z</time>
      </trkpt>
      <trkpt lat="44.8071" lon="0.80529">
        <ele>182.7</ele>
        <time>2022-12-04T09:24:27Z</time>
      </trkpt>
      <trkpt lat="44.80714" lon="0.80523">
        <ele>182.7</ele>
        <time>2022-12-04T09:24:28Z</time>
      </trkpt>
      <trkpt lat="44.80734" lon="0.80493">
        <ele>182.2</ele>
        <time>2022-12-04T09:24:33Z</time>
      </trkpt>
      <trkpt lat="44.80737" lon="0.80485">
        <ele>182</ele>
        <time>2022-12-04T09:24:34Z</time>
      </trkpt>
      <trkpt lat="44.80738" lon="0.80477">
        <ele>181.8</ele>
        <time>2022-12-04T09:24:35Z</time>
      </trkpt>
      <trkpt lat="44.80738" lon="0.80459">
        <ele>181.1</ele>
        <time>2022-12-04T09:24:37Z</time>
      </trkpt>
      <trkpt lat="44.80728" lon="0.80411">
        <ele>178.6</ele>
        <time>2022-12-04T09:24:42Z</time>
      </trkpt>
      <trkpt lat="44.80714" lon="0.80344">
        <ele>174.9</ele>
        <time>2022-12-04T09:24:48Z</time>
      </trkpt>
      <trkpt lat="44.80707" lon="0.80269">
        <ele>170.6</ele>
        <time>2022-12-04T09:24:54Z</time>
      </trkpt>
      <trkpt lat="44.80705" lon="0.802">
        <ele>166.6</ele>
        <time>2022-12-04T09:24:59Z</time>
      </trkpt>
      <trkpt lat="44.80707" lon="0.80171">
        <ele>165</ele>
        <time>2022-12-04T09:25:01Z</time>
      </trkpt>
      <trkpt lat="44.80711" lon="0.80141">
        <ele>162.6</ele>
        <time>2022-12-04T09:25:03Z</time>
      </trkpt>
      <trkpt lat="44.80714" lon="0.80127">
        <ele>161.7</ele>
        <time>2022-12-04T09:25:04Z</time>
      </trkpt>
      <trkpt lat="44.80721" lon="0.801">
        <ele>159.8</ele>
        <time>2022-12-04T09:25:06Z</time>
      </trkpt>
      <trkpt lat="44.80744" lon="0.80029">
        <ele>153.8</ele>
        <time>2022-12-04T09:25:11Z</time>
      </trkpt>
      <trkpt lat="44.80748" lon="0.80014">
        <ele>152.6</ele>
        <time>2022-12-04T09:25:12Z</time>
      </trkpt>
      <trkpt lat="44.80751" lon="0.8">
        <ele>151.6</ele>
        <time>2022-12-04T09:25:13Z</time>
      </trkpt>
      <trkpt lat="44.80753" lon="0.79988">
        <ele>150.8</ele>
        <time>2022-12-04T09:25:14Z</time>
      </trkpt>
      <trkpt lat="44.80752" lon="0.79976">
        <ele>150.3</ele>
        <time>2022-12-04T09:25:15Z</time>
      </trkpt>
      <trkpt lat="44.80746" lon="0.79954">
        <ele>149.6</ele>
        <time>2022-12-04T09:25:17Z</time>
      </trkpt>
      <trkpt lat="44.8073" lon="0.7991">
        <ele>148.4</ele>
        <time>2022-12-04T09:25:21Z</time>
      </trkpt>
      <trkpt lat="44.80725" lon="0.799">
        <ele>148</ele>
        <time>2022-12-04T09:25:22Z</time>
      </trkpt>
      <trkpt lat="44.80719" lon="0.79891">
        <ele>147</ele>
        <time>2022-12-04T09:25:23Z</time>
      </trkpt>
      <trkpt lat="44.80707" lon="0.79877">
        <ele>147.3</ele>
        <time>2022-12-04T09:25:25Z</time>
      </trkpt>
      <trkpt lat="44.80686" lon="0.79851">
        <ele>147.9</ele>
        <time>2022-12-04T09:25:30Z</time>
      </trkpt>
      <trkpt lat="44.80674" lon="0.7983">
        <ele>148.2</ele>
        <time>2022-12-04T09:25:35Z</time>
      </trkpt>
      <trkpt lat="44.80668" lon="0.79811">
        <ele>148.9</ele>
        <time>2022-12-04T09:25:39Z</time>
      </trkpt>
      <trkpt lat="44.80658" lon="0.7978">
        <ele>148</ele>
        <time>2022-12-04T09:25:45Z</time>
      </trkpt>
      <trkpt lat="44.80642" lon="0.79747">
        <ele>149.6</ele>
        <time>2022-12-04T09:25:51Z</time>
      </trkpt>
      <trkpt lat="44.80638" lon="0.79736">
        <ele>149.5</ele>
        <time>2022-12-04T09:25:53Z</time>
      </trkpt>
      <trkpt lat="44.80634" lon="0.79724">
        <ele>149.4</ele>
        <time>2022-12-04T09:25:55Z</time>
      </trkpt>
      <trkpt lat="44.80624" lon="0.79693">
        <ele>149.7</ele>
        <time>2022-12-04T09:26:00Z</time>
      </trkpt>
      <trkpt lat="44.80621" lon="0.79686">
        <ele>149.6</ele>
        <time>2022-12-04T09:26:01Z</time>
      </trkpt>
      <trkpt lat="44.8061" lon="0.79663">
        <ele>148.2</ele>
        <time>2022-12-04T09:26:04Z</time>
      </trkpt>
      <trkpt lat="44.8059" lon="0.79614">
        <ele>145.1</ele>
        <time>2022-12-04T09:26:10Z</time>
      </trkpt>
      <trkpt lat="44.80565" lon="0.79553">
        <ele>140.9</ele>
        <time>2022-12-04T09:26:16Z</time>
      </trkpt>
      <trkpt lat="44.8055" lon="0.79515">
        <ele>138.1</ele>
        <time>2022-12-04T09:26:20Z</time>
      </trkpt>
      <trkpt lat="44.80546" lon="0.79506">
        <ele>136.5</ele>
        <time>2022-12-04T09:26:21Z</time>
      </trkpt>
      <trkpt lat="44.8054" lon="0.79499">
        <ele>136.4</ele>
        <time>2022-12-04T09:26:22Z</time>
      </trkpt>
      <trkpt lat="44.80526" lon="0.79488">
        <ele>134.8</ele>
        <time>2022-12-04T09:26:24Z</time>
      </trkpt>
      <trkpt lat="44.80512" lon="0.79485">
        <ele>134.2</ele>
        <time>2022-12-04T09:26:26Z</time>
      </trkpt>
      <trkpt lat="44.80505" lon="0.79485">
        <ele>133.5</ele>
        <time>2022-12-04T09:26:27Z</time>
      </trkpt>
      <trkpt lat="44.80499" lon="0.79486">
        <ele>133.3</ele>
        <time>2022-12-04T09:26:28Z</time>
      </trkpt>
      <trkpt lat="44.80474" lon="0.79494">
        <ele>131.3</ele>
        <time>2022-12-04T09:26:32Z</time>
      </trkpt>
      <trkpt lat="44.80438" lon="0.79505">
        <ele>129.3</ele>
        <time>2022-12-04T09:26:38Z</time>
      </trkpt>
      <trkpt lat="44.80394" lon="0.79515">
        <ele>126.3</ele>
        <time>2022-12-04T09:26:44Z</time>
      </trkpt>
      <trkpt lat="44.80386" lon="0.79515">
        <ele>124.5</ele>
        <time>2022-12-04T09:26:45Z</time>
      </trkpt>
      <trkpt lat="44.80372" lon="0.79509">
        <ele>122.8</ele>
        <time>2022-12-04T09:26:47Z</time>
      </trkpt>
      <trkpt lat="44.80364" lon="0.79491">
        <ele>121.6</ele>
        <time>2022-12-04T09:26:49Z</time>
      </trkpt>
      <trkpt lat="44.80348" lon="0.79426">
        <ele>120.7</ele>
        <time>2022-12-04T09:26:55Z</time>
      </trkpt>
      <trkpt lat="44.80333" lon="0.79368">
        <ele>118.7</ele>
        <time>2022-12-04T09:27:00Z</time>
      </trkpt>
      <trkpt lat="44.80329" lon="0.79343">
        <ele>118.3</ele>
        <time>2022-12-04T09:27:02Z</time>
      </trkpt>
      <trkpt lat="44.80317" lon="0.79261">
        <ele>112.8</ele>
        <time>2022-12-04T09:27:09Z</time>
      </trkpt>
      <trkpt lat="44.80311" lon="0.79244">
        <ele>110.1</ele>
        <time>2022-12-04T09:27:11Z</time>
      </trkpt>
      <trkpt lat="44.80306" lon="0.79238">
        <ele>108.9</ele>
        <time>2022-12-04T09:27:12Z</time>
      </trkpt>
      <trkpt lat="44.80295" lon="0.79231">
        <ele>108.3</ele>
        <time>2022-12-04T09:27:14Z</time>
      </trkpt>
      <trkpt lat="44.80284" lon="0.79226">
        <ele>108</ele>
        <time>2022-12-04T09:27:16Z</time>
      </trkpt>
      <trkpt lat="44.80274" lon="0.79218">
        <ele>107.6</ele>
        <time>2022-12-04T09:27:18Z</time>
      </trkpt>
      <trkpt lat="44.80271" lon="0.79213">
        <ele>107.5</ele>
        <time>2022-12-04T09:27:19Z</time>
      </trkpt>
      <trkpt lat="44.80268" lon="0.79199">
        <ele>107</ele>
        <time>2022-12-04T09:27:21Z</time>
      </trkpt>
      <trkpt lat="44.80267" lon="0.79177">
        <ele>106.5</ele>
        <time>2022-12-04T09:27:24Z</time>
      </trkpt>
      <trkpt lat="44.80267" lon="0.7917">
        <ele>106.3</ele>
        <time>2022-12-04T09:27:25Z</time>
      </trkpt>
      <trkpt lat="44.80268" lon="0.79134">
        <ele>107.2</ele>
        <time>2022-12-04T09:27:30Z</time>
      </trkpt>
      <trkpt lat="44.80268" lon="0.79104">
        <ele>107.8</ele>
        <time>2022-12-04T09:27:34Z</time>
      </trkpt>
      <trkpt lat="44.80265" lon="0.79079">
        <ele>108.7</ele>
        <time>2022-12-04T09:27:37Z</time>
      </trkpt>
      <trkpt lat="44.80264" lon="0.79062">
        <ele>108.4</ele>
        <time>2022-12-04T09:27:39Z</time>
      </trkpt>
      <trkpt lat="44.80265" lon="0.79044">
        <ele>107.9</ele>
        <time>2022-12-04T09:27:41Z</time>
      </trkpt>
      <trkpt lat="44.80269" lon="0.79028">
        <ele>107.1</ele>
        <time>2022-12-04T09:27:43Z</time>
      </trkpt>
      <trkpt lat="44.80272" lon="0.79022">
        <ele>107</ele>
        <time>2022-12-04T09:27:44Z</time>
      </trkpt>
      <trkpt lat="44.80278" lon="0.79011">
        <ele>106.6</ele>
        <time>2022-12-04T09:27:46Z</time>
      </trkpt>
      <trkpt lat="44.80284" lon="0.79003">
        <ele>106.6</ele>
        <time>2022-12-04T09:27:48Z</time>
      </trkpt>
      <trkpt lat="44.80297" lon="0.78986">
        <ele>107.1</ele>
        <time>2022-12-04T09:27:53Z</time>
      </trkpt>
      <trkpt lat="44.80293" lon="0.78978">
        <ele>107.6</ele>
        <time>2022-12-04T09:27:56Z</time>
      </trkpt>
      <trkpt lat="44.80283" lon="0.78969">
        <ele>108.6</ele>
        <time>2022-12-04T09:28:00Z</time>
      </trkpt>
      <trkpt lat="44.80282" lon="0.78965">
        <ele>108.9</ele>
        <time>2022-12-04T09:28:01Z</time>
      </trkpt>
      <trkpt lat="44.80281" lon="0.78958">
        <ele>109.3</ele>
        <time>2022-12-04T09:28:03Z</time>
      </trkpt>
      <trkpt lat="44.80279" lon="0.78952">
        <ele>109.6</ele>
        <time>2022-12-04T09:28:05Z</time>
      </trkpt>
      <trkpt lat="44.80279" lon="0.78948">
        <ele>109.8</ele>
        <time>2022-12-04T09:28:06Z</time>
      </trkpt>
      <trkpt lat="44.80278" lon="0.7894">
        <ele>110.2</ele>
        <time>2022-12-04T09:28:08Z</time>
      </trkpt>
      <trkpt lat="44.80276" lon="0.78932">
        <ele>110.5</ele>
        <time>2022-12-04T09:28:10Z</time>
      </trkpt>
      <trkpt lat="44.80273" lon="0.78908">
        <ele>111.6</ele>
        <time>2022-12-04T09:28:16Z</time>
      </trkpt>
      <trkpt lat="44.80272" lon="0.78888">
        <ele>112.7</ele>
        <time>2022-12-04T09:28:21Z</time>
      </trkpt>
      <trkpt lat="44.8027" lon="0.7888">
        <ele>113.2</ele>
        <time>2022-12-04T09:28:24Z</time>
      </trkpt>
      <trkpt lat="44.80268" lon="0.78877">
        <ele>113.4</ele>
        <time>2022-12-04T09:28:25Z</time>
      </trkpt>
      <trkpt lat="44.80262" lon="0.78857">
        <ele>114.6</ele>
        <time>2022-12-04T09:28:30Z</time>
      </trkpt>
      <trkpt lat="44.80255" lon="0.78846">
        <ele>115.4</ele>
        <time>2022-12-04T09:28:34Z</time>
      </trkpt>
      <trkpt lat="44.80243" lon="0.78826">
        <ele>116.6</ele>
        <time>2022-12-04T09:28:41Z</time>
      </trkpt>
      <trkpt lat="44.80242" lon="0.78824">
        <ele>117.6</ele>
        <time>2022-12-04T09:28:42Z</time>
      </trkpt>
      <trkpt lat="44.80241" lon="0.78819">
        <ele>117.7</ele>
        <time>2022-12-04T09:28:45Z</time>
      </trkpt>
      <trkpt lat="44.80244" lon="0.78806">
        <ele>118.3</ele>
        <time>2022-12-04T09:28:50Z</time>
      </trkpt>
      <trkpt lat="44.80245" lon="0.78791">
        <ele>119.8</ele>
        <time>2022-12-04T09:28:56Z</time>
      </trkpt>
      <trkpt lat="44.80245" lon="0.7878">
        <ele>119.9</ele>
        <time>2022-12-04T09:29:01Z</time>
      </trkpt>
      <trkpt lat="44.80245" lon="0.78778">
        <ele>120</ele>
        <time>2022-12-04T09:29:02Z</time>
      </trkpt>
      <trkpt lat="44.80245" lon="0.78776">
        <ele>120.1</ele>
        <time>2022-12-04T09:29:03Z</time>
      </trkpt>
      <trkpt lat="44.80246" lon="0.78766">
        <ele>121.7</ele>
        <time>2022-12-04T09:29:07Z</time>
      </trkpt>
      <trkpt lat="44.80248" lon="0.78752">
        <ele>123.2</ele>
        <time>2022-12-04T09:29:13Z</time>
      </trkpt>
      <trkpt lat="44.80248" lon="0.78742">
        <ele>123.3</ele>
        <time>2022-12-04T09:29:18Z</time>
      </trkpt>
      <trkpt lat="44.80249" lon="0.78739">
        <ele>124.8</ele>
        <time>2022-12-04T09:29:19Z</time>
      </trkpt>
      <trkpt lat="44.80251" lon="0.78725">
        <ele>124.9</ele>
        <time>2022-12-04T09:29:23Z</time>
      </trkpt>
      <trkpt lat="44.80253" lon="0.78713">
        <ele>126.3</ele>
        <time>2022-12-04T09:29:28Z</time>
      </trkpt>
      <trkpt lat="44.80252" lon="0.78705">
        <ele>127.3</ele>
        <time>2022-12-04T09:29:31Z</time>
      </trkpt>
      <trkpt lat="44.80253" lon="0.78698">
        <ele>127.4</ele>
        <time>2022-12-04T09:29:33Z</time>
      </trkpt>
      <trkpt lat="44.80257" lon="0.78678">
        <ele>126.7</ele>
        <time>2022-12-04T09:29:39Z</time>
      </trkpt>
      <trkpt lat="44.80261" lon="0.78659">
        <ele>127.8</ele>
        <time>2022-12-04T09:29:45Z</time>
      </trkpt>
      <trkpt lat="44.80262" lon="0.78649">
        <ele>129.3</ele>
        <time>2022-12-04T09:29:48Z</time>
      </trkpt>
      <trkpt lat="44.80263" lon="0.78642">
        <ele>129.4</ele>
        <time>2022-12-04T09:29:50Z</time>
      </trkpt>
      <trkpt lat="44.80265" lon="0.78621">
        <ele>131.2</ele>
        <time>2022-12-04T09:29:56Z</time>
      </trkpt>
      <trkpt lat="44.8027" lon="0.78602">
        <ele>131.8</ele>
        <time>2022-12-04T09:30:02Z</time>
      </trkpt>
      <trkpt lat="44.80271" lon="0.78599">
        <ele>131.9</ele>
        <time>2022-12-04T09:30:03Z</time>
      </trkpt>
      <trkpt lat="44.80272" lon="0.7859">
        <ele>132</ele>
        <time>2022-12-04T09:30:06Z</time>
      </trkpt>
      <trkpt lat="44.80273" lon="0.78588">
        <ele>132.1</ele>
        <time>2022-12-04T09:30:07Z</time>
      </trkpt>
      <trkpt lat="44.80276" lon="0.78574">
        <ele>133.3</ele>
        <time>2022-12-04T09:30:11Z</time>
      </trkpt>
      <trkpt lat="44.80279" lon="0.78555">
        <ele>131.8</ele>
        <time>2022-12-04T09:30:18Z</time>
      </trkpt>
      <trkpt lat="44.8028" lon="0.78544">
        <ele>133.5</ele>
        <time>2022-12-04T09:30:22Z</time>
      </trkpt>
      <trkpt lat="44.80279" lon="0.7854">
        <ele>136.2</ele>
        <time>2022-12-04T09:30:24Z</time>
      </trkpt>
      <trkpt lat="44.80275" lon="0.78535">
        <ele>138</ele>
        <time>2022-12-04T09:30:27Z</time>
      </trkpt>
      <trkpt lat="44.80272" lon="0.78527">
        <ele>138.1</ele>
        <time>2022-12-04T09:30:31Z</time>
      </trkpt>
      <trkpt lat="44.8027" lon="0.7852">
        <ele>138.2</ele>
        <time>2022-12-04T09:30:35Z</time>
      </trkpt>
      <trkpt lat="44.80289" lon="0.7835">
        <ele>156.6</ele>
        <time>2022-12-04T09:32:04Z</time>
      </trkpt>
      <trkpt lat="44.80291" lon="0.78337">
        <ele>157.2</ele>
        <time>2022-12-04T09:32:10Z</time>
      </trkpt>
      <trkpt lat="44.80292" lon="0.78327">
        <ele>157.8</ele>
        <time>2022-12-04T09:32:15Z</time>
      </trkpt>
      <trkpt lat="44.80296" lon="0.78317">
        <ele>158.5</ele>
        <time>2022-12-04T09:32:19Z</time>
      </trkpt>
      <trkpt lat="44.80298" lon="0.78315">
        <ele>158.7</ele>
        <time>2022-12-04T09:32:20Z</time>
      </trkpt>
      <trkpt lat="44.80301" lon="0.78306">
        <ele>159.5</ele>
        <time>2022-12-04T09:32:24Z</time>
      </trkpt>
      <trkpt lat="44.80301" lon="0.78302">
        <ele>159.8</ele>
        <time>2022-12-04T09:32:26Z</time>
      </trkpt>
      <trkpt lat="44.8031" lon="0.78263">
        <ele>164</ele>
        <time>2022-12-04T09:32:43Z</time>
      </trkpt>
      <trkpt lat="44.80311" lon="0.78259">
        <ele>164.6</ele>
        <time>2022-12-04T09:32:45Z</time>
      </trkpt>
      <trkpt lat="44.80314" lon="0.78248">
        <ele>165.8</ele>
        <time>2022-12-04T09:32:51Z</time>
      </trkpt>
      <trkpt lat="44.80317" lon="0.78237">
        <ele>167</ele>
        <time>2022-12-04T09:32:57Z</time>
      </trkpt>
      <trkpt lat="44.80318" lon="0.78228">
        <ele>167.7</ele>
        <time>2022-12-04T09:33:02Z</time>
      </trkpt>
      <trkpt lat="44.8032" lon="0.78216">
        <ele>168.4</ele>
        <time>2022-12-04T09:33:08Z</time>
      </trkpt>
      <trkpt lat="44.80322" lon="0.78209">
        <ele>168.8</ele>
        <time>2022-12-04T09:33:11Z</time>
      </trkpt>
      <trkpt lat="44.80324" lon="0.78203">
        <ele>169.1</ele>
        <time>2022-12-04T09:33:14Z</time>
      </trkpt>
      <trkpt lat="44.80328" lon="0.78187">
        <ele>169.8</ele>
        <time>2022-12-04T09:33:22Z</time>
      </trkpt>
      <trkpt lat="44.80332" lon="0.78173">
        <ele>170.4</ele>
        <time>2022-12-04T09:33:28Z</time>
      </trkpt>
      <trkpt lat="44.80334" lon="0.78157">
        <ele>171.1</ele>
        <time>2022-12-04T09:33:35Z</time>
      </trkpt>
      <trkpt lat="44.80337" lon="0.78138">
        <ele>171.7</ele>
        <time>2022-12-04T09:33:42Z</time>
      </trkpt>
      <trkpt lat="44.80341" lon="0.78118">
        <ele>171.8</ele>
        <time>2022-12-04T09:33:48Z</time>
      </trkpt>
      <trkpt lat="44.80342" lon="0.78099">
        <ele>171.4</ele>
        <time>2022-12-04T09:33:53Z</time>
      </trkpt>
      <trkpt lat="44.80344" lon="0.78077">
        <ele>170.6</ele>
        <time>2022-12-04T09:33:58Z</time>
      </trkpt>
      <trkpt lat="44.80349" lon="0.78051">
        <ele>169.7</ele>
        <time>2022-12-04T09:34:03Z</time>
      </trkpt>
      <trkpt lat="44.8036" lon="0.78027">
        <ele>169.1</ele>
        <time>2022-12-04T09:34:08Z</time>
      </trkpt>
      <trkpt lat="44.80372" lon="0.77995">
        <ele>167.5</ele>
        <time>2022-12-04T09:34:14Z</time>
      </trkpt>
      <trkpt lat="44.80389" lon="0.77967">
        <ele>165.5</ele>
        <time>2022-12-04T09:34:19Z</time>
      </trkpt>
      <trkpt lat="44.80412" lon="0.77935">
        <ele>162.9</ele>
        <time>2022-12-04T09:34:25Z</time>
      </trkpt>
      <trkpt lat="44.80421" lon="0.77925">
        <ele>162</ele>
        <time>2022-12-04T09:34:27Z</time>
      </trkpt>
      <trkpt lat="44.8043" lon="0.77914">
        <ele>161.1</ele>
        <time>2022-12-04T09:34:29Z</time>
      </trkpt>
      <trkpt lat="44.80433" lon="0.77908">
        <ele>160.7</ele>
        <time>2022-12-04T09:34:30Z</time>
      </trkpt>
      <trkpt lat="44.80448" lon="0.77874">
        <ele>158.2</ele>
        <time>2022-12-04T09:34:35Z</time>
      </trkpt>
      <trkpt lat="44.80456" lon="0.77866">
        <ele>157.1</ele>
        <time>2022-12-04T09:34:38Z</time>
      </trkpt>
      <trkpt lat="44.80454" lon="0.77856">
        <ele>156.1</ele>
        <time>2022-12-04T09:34:40Z</time>
      </trkpt>
      <trkpt lat="44.80452" lon="0.77849">
        <ele>155.3</ele>
        <time>2022-12-04T09:34:41Z</time>
      </trkpt>
      <trkpt lat="44.80449" lon="0.77843">
        <ele>154.6</ele>
        <time>2022-12-04T09:34:42Z</time>
      </trkpt>
      <trkpt lat="44.8044" lon="0.77811">
        <ele>151.5</ele>
        <time>2022-12-04T09:34:46Z</time>
      </trkpt>
      <trkpt lat="44.80427" lon="0.77763">
        <ele>148.4</ele>
        <time>2022-12-04T09:34:51Z</time>
      </trkpt>
      <trkpt lat="44.8042" lon="0.77742">
        <ele>147.9</ele>
        <time>2022-12-04T09:34:54Z</time>
      </trkpt>
      <trkpt lat="44.80418" lon="0.77737">
        <ele>147.7</ele>
        <time>2022-12-04T09:34:56Z</time>
      </trkpt>
      <trkpt lat="44.80416" lon="0.77736">
        <ele>147.7</ele>
        <time>2022-12-04T09:34:58Z</time>
      </trkpt>
      <trkpt lat="44.80416" lon="0.77736">
        <ele>147.7</ele>
        <time>2022-12-04T09:34:59Z</time>
      </trkpt>
      <trkpt lat="44.8041" lon="0.77721">
        <ele>147.2</ele>
        <time>2022-12-04T09:35:19Z</time>
      </trkpt>
      <trkpt lat="44.80409" lon="0.77717">
        <ele>147.1</ele>
        <time>2022-12-04T09:35:20Z</time>
      </trkpt>
      <trkpt lat="44.80402" lon="0.77696">
        <ele>146.5</ele>
        <time>2022-12-04T09:35:25Z</time>
      </trkpt>
      <trkpt lat="44.80391" lon="0.77668">
        <ele>145.8</ele>
        <time>2022-12-04T09:35:31Z</time>
      </trkpt>
      <trkpt lat="44.80379" lon="0.77648">
        <ele>144.7</ele>
        <time>2022-12-04T09:35:36Z</time>
      </trkpt>
      <trkpt lat="44.80367" lon="0.77624">
        <ele>143</ele>
        <time>2022-12-04T09:35:40Z</time>
      </trkpt>
      <trkpt lat="44.80363" lon="0.77615">
        <ele>142.4</ele>
        <time>2022-12-04T09:35:41Z</time>
      </trkpt>
      <trkpt lat="44.80359" lon="0.77599">
        <ele>141.2</ele>
        <time>2022-12-04T09:35:43Z</time>
      </trkpt>
      <trkpt lat="44.80359" lon="0.77592">
        <ele>140.8</ele>
        <time>2022-12-04T09:35:44Z</time>
      </trkpt>
      <trkpt lat="44.80361" lon="0.77588">
        <ele>140.5</ele>
        <time>2022-12-04T09:35:45Z</time>
      </trkpt>
      <trkpt lat="44.80367" lon="0.77585">
        <ele>140</ele>
        <time>2022-12-04T09:35:47Z</time>
      </trkpt>
      <trkpt lat="44.80384" lon="0.77581">
        <ele>137.1</ele>
        <time>2022-12-04T09:35:51Z</time>
      </trkpt>
      <trkpt lat="44.80393" lon="0.77577">
        <ele>136.9</ele>
        <time>2022-12-04T09:35:53Z</time>
      </trkpt>
      <trkpt lat="44.80407" lon="0.77566">
        <ele>136.8</ele>
        <time>2022-12-04T09:35:56Z</time>
      </trkpt>
      <trkpt lat="44.8042" lon="0.77555">
        <ele>137</ele>
        <time>2022-12-04T09:35:59Z</time>
      </trkpt>
      <trkpt lat="44.80446" lon="0.77532">
        <ele>138.2</ele>
        <time>2022-12-04T09:36:06Z</time>
      </trkpt>
      <trkpt lat="44.80465" lon="0.77515">
        <ele>139.8</ele>
        <time>2022-12-04T09:36:13Z</time>
      </trkpt>
      <trkpt lat="44.80477" lon="0.77504">
        <ele>141</ele>
        <time>2022-12-04T09:36:19Z</time>
      </trkpt>
      <trkpt lat="44.80491" lon="0.77492">
        <ele>142.6</ele>
        <time>2022-12-04T09:36:26Z</time>
      </trkpt>
      <trkpt lat="44.80507" lon="0.7748">
        <ele>144.5</ele>
        <time>2022-12-04T09:36:35Z</time>
      </trkpt>
      <trkpt lat="44.80524" lon="0.77467">
        <ele>146.3</ele>
        <time>2022-12-04T09:36:42Z</time>
      </trkpt>
      <trkpt lat="44.80538" lon="0.77457">
        <ele>147.9</ele>
        <time>2022-12-04T09:36:49Z</time>
      </trkpt>
      <trkpt lat="44.80553" lon="0.77446">
        <ele>149.7</ele>
        <time>2022-12-04T09:36:56Z</time>
      </trkpt>
      <trkpt lat="44.80571" lon="0.77435">
        <ele>151.6</ele>
        <time>2022-12-04T09:37:04Z</time>
      </trkpt>
      <trkpt lat="44.80583" lon="0.77428">
        <ele>152.8</ele>
        <time>2022-12-04T09:37:10Z</time>
      </trkpt>
      <trkpt lat="44.80593" lon="0.77423">
        <ele>153.7</ele>
        <time>2022-12-04T09:37:15Z</time>
      </trkpt>
      <trkpt lat="44.80594" lon="0.77422">
        <ele>153.8</ele>
        <time>2022-12-04T09:37:16Z</time>
      </trkpt>
      <trkpt lat="44.80595" lon="0.77421">
        <ele>153.9</ele>
        <time>2022-12-04T09:37:17Z</time>
      </trkpt>
      <trkpt lat="44.80599" lon="0.77422">
        <ele>154.2</ele>
        <time>2022-12-04T09:37:21Z</time>
      </trkpt>
      <trkpt lat="44.80606" lon="0.77415">
        <ele>154.9</ele>
        <time>2022-12-04T09:37:25Z</time>
      </trkpt>
      <trkpt lat="44.80606" lon="0.77412">
        <ele>155.2</ele>
        <time>2022-12-04T09:37:26Z</time>
      </trkpt>
      <trkpt lat="44.80606" lon="0.7739">
        <ele>156</ele>
        <time>2022-12-04T09:37:32Z</time>
      </trkpt>
      <trkpt lat="44.80609" lon="0.77368">
        <ele>157.7</ele>
        <time>2022-12-04T09:37:39Z</time>
      </trkpt>
      <trkpt lat="44.80612" lon="0.77348">
        <ele>158.4</ele>
        <time>2022-12-04T09:37:45Z</time>
      </trkpt>
      <trkpt lat="44.80613" lon="0.77331">
        <ele>159</ele>
        <time>2022-12-04T09:37:50Z</time>
      </trkpt>
      <trkpt lat="44.80616" lon="0.77299">
        <ele>159.7</ele>
        <time>2022-12-04T09:38:00Z</time>
      </trkpt>
      <trkpt lat="44.80618" lon="0.7728">
        <ele>160.2</ele>
        <time>2022-12-04T09:38:06Z</time>
      </trkpt>
      <trkpt lat="44.80623" lon="0.77263">
        <ele>160.6</ele>
        <time>2022-12-04T09:38:12Z</time>
      </trkpt>
      <trkpt lat="44.80636" lon="0.77259">
        <ele>160.8</ele>
        <time>2022-12-04T09:38:17Z</time>
      </trkpt>
      <trkpt lat="44.80655" lon="0.77255">
        <ele>161.1</ele>
        <time>2022-12-04T09:38:23Z</time>
      </trkpt>
      <trkpt lat="44.80673" lon="0.77247">
        <ele>161.2</ele>
        <time>2022-12-04T09:38:29Z</time>
      </trkpt>
      <trkpt lat="44.80697" lon="0.77239">
        <ele>161.4</ele>
        <time>2022-12-04T09:38:37Z</time>
      </trkpt>
      <trkpt lat="44.80725" lon="0.77231">
        <ele>161.6</ele>
        <time>2022-12-04T09:38:46Z</time>
      </trkpt>
      <trkpt lat="44.80727" lon="0.77229">
        <ele>161.6</ele>
        <time>2022-12-04T09:38:47Z</time>
      </trkpt>
      <trkpt lat="44.80729" lon="0.77222">
        <ele>161.6</ele>
        <time>2022-12-04T09:38:49Z</time>
      </trkpt>
      <trkpt lat="44.80724" lon="0.77198">
        <ele>161.2</ele>
        <time>2022-12-04T09:38:54Z</time>
      </trkpt>
      <trkpt lat="44.80716" lon="0.77161">
        <ele>160.2</ele>
        <time>2022-12-04T09:39:01Z</time>
      </trkpt>
      <trkpt lat="44.80715" lon="0.77137">
        <ele>159</ele>
        <time>2022-12-04T09:39:05Z</time>
      </trkpt>
      <trkpt lat="44.80713" lon="0.77129">
        <ele>158.3</ele>
        <time>2022-12-04T09:39:06Z</time>
      </trkpt>
      <trkpt lat="44.8071" lon="0.77121">
        <ele>157.6</ele>
        <time>2022-12-04T09:39:07Z</time>
      </trkpt>
      <trkpt lat="44.80702" lon="0.77105">
        <ele>156.6</ele>
        <time>2022-12-04T09:39:09Z</time>
      </trkpt>
      <trkpt lat="44.80678" lon="0.7706">
        <ele>155.6</ele>
        <time>2022-12-04T09:39:15Z</time>
      </trkpt>
      <trkpt lat="44.80653" lon="0.77015">
        <ele>155.9</ele>
        <time>2022-12-04T09:39:22Z</time>
      </trkpt>
      <trkpt lat="44.80647" lon="0.77004">
        <ele>156.3</ele>
        <time>2022-12-04T09:39:24Z</time>
      </trkpt>
      <trkpt lat="44.8064" lon="0.76996">
        <ele>156.7</ele>
        <time>2022-12-04T09:39:26Z</time>
      </trkpt>
      <trkpt lat="44.80636" lon="0.76993">
        <ele>156.9</ele>
        <time>2022-12-04T09:39:27Z</time>
      </trkpt>
      <trkpt lat="44.80624" lon="0.76992">
        <ele>157.2</ele>
        <time>2022-12-04T09:39:30Z</time>
      </trkpt>
      <trkpt lat="44.8062" lon="0.76992">
        <ele>157.3</ele>
        <time>2022-12-04T09:39:31Z</time>
      </trkpt>
      <trkpt lat="44.80601" lon="0.76994">
        <ele>157.3</ele>
        <time>2022-12-04T09:39:35Z</time>
      </trkpt>
      <trkpt lat="44.80593" lon="0.76989">
        <ele>157.5</ele>
        <time>2022-12-04T09:39:37Z</time>
      </trkpt>
      <trkpt lat="44.80587" lon="0.76965">
        <ele>158.3</ele>
        <time>2022-12-04T09:39:42Z</time>
      </trkpt>
      <trkpt lat="44.80581" lon="0.76949">
        <ele>159.2</ele>
        <time>2022-12-04T09:39:46Z</time>
      </trkpt>
      <trkpt lat="44.80581" lon="0.76944">
        <ele>159.5</ele>
        <time>2022-12-04T09:39:47Z</time>
      </trkpt>
      <trkpt lat="44.80575" lon="0.7692">
        <ele>160.7</ele>
        <time>2022-12-04T09:39:52Z</time>
      </trkpt>
      <trkpt lat="44.80575" lon="0.76916">
        <ele>160.9</ele>
        <time>2022-12-04T09:39:53Z</time>
      </trkpt>
      <trkpt lat="44.80578" lon="0.76902">
        <ele>161.5</ele>
        <time>2022-12-04T09:39:56Z</time>
      </trkpt>
      <trkpt lat="44.80588" lon="0.76885">
        <ele>162.2</ele>
        <time>2022-12-04T09:40:00Z</time>
      </trkpt>
      <trkpt lat="44.8059" lon="0.76883">
        <ele>162.2</ele>
        <time>2022-12-04T09:40:01Z</time>
      </trkpt>
      <trkpt lat="44.80592" lon="0.76874">
        <ele>162.3</ele>
        <time>2022-12-04T09:40:03Z</time>
      </trkpt>
      <trkpt lat="44.8059" lon="0.76867">
        <ele>162.2</ele>
        <time>2022-12-04T09:40:04Z</time>
      </trkpt>
      <trkpt lat="44.80588" lon="0.76861">
        <ele>162.1</ele>
        <time>2022-12-04T09:40:05Z</time>
      </trkpt>
      <trkpt lat="44.80582" lon="0.76849">
        <ele>161.7</ele>
        <time>2022-12-04T09:40:07Z</time>
      </trkpt>
      <trkpt lat="44.80579" lon="0.76843">
        <ele>161.5</ele>
        <time>2022-12-04T09:40:08Z</time>
      </trkpt>
      <trkpt lat="44.80569" lon="0.7682">
        <ele>160.9</ele>
        <time>2022-12-04T09:40:12Z</time>
      </trkpt>
      <trkpt lat="44.8056" lon="0.76797">
        <ele>160.6</ele>
        <time>2022-12-04T09:40:16Z</time>
      </trkpt>
      <trkpt lat="44.80557" lon="0.76785">
        <ele>160.5</ele>
        <time>2022-12-04T09:40:18Z</time>
      </trkpt>
      <trkpt lat="44.80554" lon="0.76773">
        <ele>160.4</ele>
        <time>2022-12-04T09:40:21Z</time>
      </trkpt>
      <trkpt lat="44.80551" lon="0.7677">
        <ele>160.3</ele>
        <time>2022-12-04T09:40:22Z</time>
      </trkpt>
      <trkpt lat="44.80549" lon="0.76767">
        <ele>160.2</ele>
        <time>2022-12-04T09:40:23Z</time>
      </trkpt>
      <trkpt lat="44.80546" lon="0.76756">
        <ele>160</ele>
        <time>2022-12-04T09:40:25Z</time>
      </trkpt>
      <trkpt lat="44.80543" lon="0.76751">
        <ele>159.9</ele>
        <time>2022-12-04T09:40:26Z</time>
      </trkpt>
      <trkpt lat="44.80539" lon="0.76744">
        <ele>159.7</ele>
        <time>2022-12-04T09:40:28Z</time>
      </trkpt>
      <trkpt lat="44.80538" lon="0.76736">
        <ele>159.6</ele>
        <time>2022-12-04T09:40:30Z</time>
      </trkpt>
      <trkpt lat="44.80536" lon="0.76727">
        <ele>159.4</ele>
        <time>2022-12-04T09:40:32Z</time>
      </trkpt>
      <trkpt lat="44.80526" lon="0.76704">
        <ele>159.3</ele>
        <time>2022-12-04T09:40:37Z</time>
      </trkpt>
      <trkpt lat="44.8051" lon="0.76672">
        <ele>159.1</ele>
        <time>2022-12-04T09:40:43Z</time>
      </trkpt>
      <trkpt lat="44.8049" lon="0.76638">
        <ele>160.1</ele>
        <time>2022-12-04T09:40:50Z</time>
      </trkpt>
      <trkpt lat="44.80485" lon="0.7663">
        <ele>160.6</ele>
        <time>2022-12-04T09:40:52Z</time>
      </trkpt>
      <trkpt lat="44.80479" lon="0.76621">
        <ele>161</ele>
        <time>2022-12-04T09:40:54Z</time>
      </trkpt>
      <trkpt lat="44.80467" lon="0.76598">
        <ele>162.1</ele>
        <time>2022-12-04T09:40:59Z</time>
      </trkpt>
      <trkpt lat="44.80458" lon="0.76587">
        <ele>162.6</ele>
        <time>2022-12-04T09:41:03Z</time>
      </trkpt>
      <trkpt lat="44.80455" lon="0.76582">
        <ele>162.5</ele>
        <time>2022-12-04T09:41:05Z</time>
      </trkpt>
      <trkpt lat="44.80456" lon="0.76574">
        <ele>162.4</ele>
        <time>2022-12-04T09:41:07Z</time>
      </trkpt>
      <trkpt lat="44.80463" lon="0.76558">
        <ele>162.1</ele>
        <time>2022-12-04T09:41:11Z</time>
      </trkpt>
      <trkpt lat="44.80483" lon="0.76539">
        <ele>161.2</ele>
        <time>2022-12-04T09:41:17Z</time>
      </trkpt>
      <trkpt lat="44.80505" lon="0.76524">
        <ele>159.9</ele>
        <time>2022-12-04T09:41:22Z</time>
      </trkpt>
      <trkpt lat="44.80511" lon="0.76512">
        <ele>159.5</ele>
        <time>2022-12-04T09:41:24Z</time>
      </trkpt>
      <trkpt lat="44.80511" lon="0.76506">
        <ele>159.4</ele>
        <time>2022-12-04T09:41:25Z</time>
      </trkpt>
      <trkpt lat="44.80511" lon="0.76501">
        <ele>159.3</ele>
        <time>2022-12-04T09:41:26Z</time>
      </trkpt>
      <trkpt lat="44.8051" lon="0.76491">
        <ele>159.3</ele>
        <time>2022-12-04T09:41:28Z</time>
      </trkpt>
      <trkpt lat="44.80507" lon="0.76463">
        <ele>159.5</ele>
        <time>2022-12-04T09:41:33Z</time>
      </trkpt>
      <trkpt lat="44.80502" lon="0.76445">
        <ele>159.7</ele>
        <time>2022-12-04T09:41:36Z</time>
      </trkpt>
      <trkpt lat="44.80498" lon="0.76434">
        <ele>159.7</ele>
        <time>2022-12-04T09:41:38Z</time>
      </trkpt>
      <trkpt lat="44.80494" lon="0.76415">
        <ele>159.6</ele>
        <time>2022-12-04T09:41:41Z</time>
      </trkpt>
      <trkpt lat="44.80491" lon="0.76397">
        <ele>159.3</ele>
        <time>2022-12-04T09:41:44Z</time>
      </trkpt>
      <trkpt lat="44.80486" lon="0.76377">
        <ele>158.7</ele>
        <time>2022-12-04T09:41:47Z</time>
      </trkpt>
      <trkpt lat="44.80483" lon="0.76364">
        <ele>158.1</ele>
        <time>2022-12-04T09:41:49Z</time>
      </trkpt>
      <trkpt lat="44.80486" lon="0.7635">
        <ele>157.5</ele>
        <time>2022-12-04T09:41:51Z</time>
      </trkpt>
      <trkpt lat="44.80495" lon="0.76347">
        <ele>156.8</ele>
        <time>2022-12-04T09:41:53Z</time>
      </trkpt>
      <trkpt lat="44.805" lon="0.76347">
        <ele>156.5</ele>
        <time>2022-12-04T09:41:54Z</time>
      </trkpt>
      <trkpt lat="44.80505" lon="0.76346">
        <ele>156.1</ele>
        <time>2022-12-04T09:41:55Z</time>
      </trkpt>
      <trkpt lat="44.80525" lon="0.76338">
        <ele>154.3</ele>
        <time>2022-12-04T09:41:59Z</time>
      </trkpt>
      <trkpt lat="44.80541" lon="0.76327">
        <ele>152.6</ele>
        <time>2022-12-04T09:42:02Z</time>
      </trkpt>
      <trkpt lat="44.80553" lon="0.76329">
        <ele>151.7</ele>
        <time>2022-12-04T09:42:04Z</time>
      </trkpt>
      <trkpt lat="44.80559" lon="0.76331">
        <ele>151.2</ele>
        <time>2022-12-04T09:42:05Z</time>
      </trkpt>
      <trkpt lat="44.80589" lon="0.76343">
        <ele>148.9</ele>
        <time>2022-12-04T09:42:10Z</time>
      </trkpt>
      <trkpt lat="44.80595" lon="0.76343">
        <ele>148.5</ele>
        <time>2022-12-04T09:42:11Z</time>
      </trkpt>
      <trkpt lat="44.80606" lon="0.7634">
        <ele>147.7</ele>
        <time>2022-12-04T09:42:13Z</time>
      </trkpt>
      <trkpt lat="44.80611" lon="0.76337">
        <ele>147.2</ele>
        <time>2022-12-04T09:42:14Z</time>
      </trkpt>
      <trkpt lat="44.80617" lon="0.76332">
        <ele>146.7</ele>
        <time>2022-12-04T09:42:15Z</time>
      </trkpt>
      <trkpt lat="44.80632" lon="0.76315">
        <ele>145.1</ele>
        <time>2022-12-04T09:42:18Z</time>
      </trkpt>
      <trkpt lat="44.80637" lon="0.7631">
        <ele>144.8</ele>
        <time>2022-12-04T09:42:19Z</time>
      </trkpt>
      <trkpt lat="44.80651" lon="0.76298">
        <ele>144.2</ele>
        <time>2022-12-04T09:42:22Z</time>
      </trkpt>
      <trkpt lat="44.80656" lon="0.76289">
        <ele>144</ele>
        <time>2022-12-04T09:42:24Z</time>
      </trkpt>
      <trkpt lat="44.80657" lon="0.76279">
        <ele>143.7</ele>
        <time>2022-12-04T09:42:26Z</time>
      </trkpt>
      <trkpt lat="44.80655" lon="0.7625">
        <ele>142.5</ele>
        <time>2022-12-04T09:42:30Z</time>
      </trkpt>
      <trkpt lat="44.80652" lon="0.76225">
        <ele>141.4</ele>
        <time>2022-12-04T09:42:33Z</time>
      </trkpt>
      <trkpt lat="44.80646" lon="0.762">
        <ele>140.1</ele>
        <time>2022-12-04T09:42:36Z</time>
      </trkpt>
      <trkpt lat="44.8063" lon="0.76168">
        <ele>138.4</ele>
        <time>2022-12-04T09:42:40Z</time>
      </trkpt>
      <trkpt lat="44.80625" lon="0.76161">
        <ele>138.1</ele>
        <time>2022-12-04T09:42:41Z</time>
      </trkpt>
      <trkpt lat="44.80616" lon="0.76146">
        <ele>137.4</ele>
        <time>2022-12-04T09:42:43Z</time>
      </trkpt>
      <trkpt lat="44.80614" lon="0.76138">
        <ele>137</ele>
        <time>2022-12-04T09:42:44Z</time>
      </trkpt>
      <trkpt lat="44.80615" lon="0.7613">
        <ele>136.7</ele>
        <time>2022-12-04T09:42:45Z</time>
      </trkpt>
      <trkpt lat="44.80618" lon="0.76123">
        <ele>136.8</ele>
        <time>2022-12-04T09:42:46Z</time>
      </trkpt>
      <trkpt lat="44.80622" lon="0.76117">
        <ele>136.9</ele>
        <time>2022-12-04T09:42:47Z</time>
      </trkpt>
      <trkpt lat="44.8064" lon="0.76098">
        <ele>137.8</ele>
        <time>2022-12-04T09:42:51Z</time>
      </trkpt>
      <trkpt lat="44.80647" lon="0.76088">
        <ele>138.4</ele>
        <time>2022-12-04T09:42:53Z</time>
      </trkpt>
      <trkpt lat="44.8066" lon="0.76067">
        <ele>139.5</ele>
        <time>2022-12-04T09:42:57Z</time>
      </trkpt>
      <trkpt lat="44.8067" lon="0.76044">
        <ele>140.6</ele>
        <time>2022-12-04T09:43:01Z</time>
      </trkpt>
      <trkpt lat="44.80673" lon="0.76031">
        <ele>141</ele>
        <time>2022-12-04T09:43:03Z</time>
      </trkpt>
      <trkpt lat="44.80674" lon="0.76007">
        <ele>141.5</ele>
        <time>2022-12-04T09:43:07Z</time>
      </trkpt>
      <trkpt lat="44.80672" lon="0.75996">
        <ele>141.6</ele>
        <time>2022-12-04T09:43:09Z</time>
      </trkpt>
      <trkpt lat="44.80663" lon="0.75962">
        <ele>142.1</ele>
        <time>2022-12-04T09:43:15Z</time>
      </trkpt>
      <trkpt lat="44.80662" lon="0.75956">
        <ele>142.1</ele>
        <time>2022-12-04T09:43:16Z</time>
      </trkpt>
      <trkpt lat="44.80657" lon="0.75919">
        <ele>142.5</ele>
        <time>2022-12-04T09:43:22Z</time>
      </trkpt>
      <trkpt lat="44.80654" lon="0.75874">
        <ele>142.6</ele>
        <time>2022-12-04T09:43:29Z</time>
      </trkpt>
      <trkpt lat="44.80652" lon="0.75851">
        <ele>142.3</ele>
        <time>2022-12-04T09:43:32Z</time>
      </trkpt>
      <trkpt lat="44.80651" lon="0.75826">
        <ele>141.9</ele>
        <time>2022-12-04T09:43:35Z</time>
      </trkpt>
      <trkpt lat="44.80647" lon="0.75768">
        <ele>142.1</ele>
        <time>2022-12-04T09:43:42Z</time>
      </trkpt>
      <trkpt lat="44.80639" lon="0.75732">
        <ele>142.6</ele>
        <time>2022-12-04T09:43:48Z</time>
      </trkpt>
      <trkpt lat="44.80627" lon="0.75705">
        <ele>142.9</ele>
        <time>2022-12-04T09:43:53Z</time>
      </trkpt>
      <trkpt lat="44.80621" lon="0.75696">
        <ele>143.2</ele>
        <time>2022-12-04T09:43:55Z</time>
      </trkpt>
      <trkpt lat="44.80599" lon="0.75665">
        <ele>143.2</ele>
        <time>2022-12-04T09:44:02Z</time>
      </trkpt>
      <trkpt lat="44.80579" lon="0.75631">
        <ele>142.8</ele>
        <time>2022-12-04T09:44:09Z</time>
      </trkpt>
      <trkpt lat="44.80576" lon="0.75625">
        <ele>142.7</ele>
        <time>2022-12-04T09:44:10Z</time>
      </trkpt>
      <trkpt lat="44.80567" lon="0.75594">
        <ele>142.6</ele>
        <time>2022-12-04T09:44:15Z</time>
      </trkpt>
      <trkpt lat="44.80565" lon="0.75587">
        <ele>142.6</ele>
        <time>2022-12-04T09:44:16Z</time>
      </trkpt>
      <trkpt lat="44.80559" lon="0.75551">
        <ele>142.7</ele>
        <time>2022-12-04T09:44:21Z</time>
      </trkpt>
      <trkpt lat="44.80555" lon="0.75504">
        <ele>142.9</ele>
        <time>2022-12-04T09:44:28Z</time>
      </trkpt>
      <trkpt lat="44.80551" lon="0.75464">
        <ele>143.4</ele>
        <time>2022-12-04T09:44:34Z</time>
      </trkpt>
      <trkpt lat="44.80551" lon="0.75458">
        <ele>143.6</ele>
        <time>2022-12-04T09:44:35Z</time>
      </trkpt>
      <trkpt lat="44.80551" lon="0.75436">
        <ele>144</ele>
        <time>2022-12-04T09:44:39Z</time>
      </trkpt>
      <trkpt lat="44.80548" lon="0.75402">
        <ele>145.2</ele>
        <time>2022-12-04T09:44:46Z</time>
      </trkpt>
      <trkpt lat="44.80547" lon="0.75383">
        <ele>145.9</ele>
        <time>2022-12-04T09:44:51Z</time>
      </trkpt>
      <trkpt lat="44.80545" lon="0.75357">
        <ele>146.8</ele>
        <time>2022-12-04T09:44:58Z</time>
      </trkpt>
      <trkpt lat="44.80543" lon="0.75329">
        <ele>147.8</ele>
        <time>2022-12-04T09:45:05Z</time>
      </trkpt>
      <trkpt lat="44.80542" lon="0.75299">
        <ele>148.8</ele>
        <time>2022-12-04T09:45:12Z</time>
      </trkpt>
      <trkpt lat="44.80539" lon="0.75254">
        <ele>150.2</ele>
        <time>2022-12-04T09:45:21Z</time>
      </trkpt>
      <trkpt lat="44.80534" lon="0.75232">
        <ele>150.9</ele>
        <time>2022-12-04T09:45:26Z</time>
      </trkpt>
      <trkpt lat="44.80521" lon="0.75225">
        <ele>149.8</ele>
        <time>2022-12-04T09:45:30Z</time>
      </trkpt>
      <trkpt lat="44.80489" lon="0.75218">
        <ele>148</ele>
        <time>2022-12-04T09:45:37Z</time>
      </trkpt>
      <trkpt lat="44.80461" lon="0.75214">
        <ele>146.4</ele>
        <time>2022-12-04T09:45:42Z</time>
      </trkpt>
      <trkpt lat="44.80437" lon="0.75199">
        <ele>144.9</ele>
        <time>2022-12-04T09:45:46Z</time>
      </trkpt>
      <trkpt lat="44.80405" lon="0.75172">
        <ele>142.8</ele>
        <time>2022-12-04T09:45:51Z</time>
      </trkpt>
      <trkpt lat="44.804" lon="0.75165">
        <ele>142.4</ele>
        <time>2022-12-04T09:45:52Z</time>
      </trkpt>
      <trkpt lat="44.80394" lon="0.75157">
        <ele>141.9</ele>
        <time>2022-12-04T09:45:53Z</time>
      </trkpt>
      <trkpt lat="44.80379" lon="0.75127">
        <ele>140.5</ele>
        <time>2022-12-04T09:45:56Z</time>
      </trkpt>
      <trkpt lat="44.80347" lon="0.75056">
        <ele>137.1</ele>
        <time>2022-12-04T09:46:03Z</time>
      </trkpt>
      <trkpt lat="44.80343" lon="0.75048">
        <ele>136.7</ele>
        <time>2022-12-04T09:46:04Z</time>
      </trkpt>
      <trkpt lat="44.80336" lon="0.75035">
        <ele>136</ele>
        <time>2022-12-04T09:46:06Z</time>
      </trkpt>
      <trkpt lat="44.80327" lon="0.75026">
        <ele>135.4</ele>
        <time>2022-12-04T09:46:08Z</time>
      </trkpt>
      <trkpt lat="44.80304" lon="0.75012">
        <ele>134</ele>
        <time>2022-12-04T09:46:12Z</time>
      </trkpt>
      <trkpt lat="44.80292" lon="0.75005">
        <ele>132.4</ele>
        <time>2022-12-04T09:46:14Z</time>
      </trkpt>
      <trkpt lat="44.80282" lon="0.74996">
        <ele>130</ele>
        <time>2022-12-04T09:46:16Z</time>
      </trkpt>
      <trkpt lat="44.80277" lon="0.74993">
        <ele>127.9</ele>
        <time>2022-12-04T09:46:17Z</time>
      </trkpt>
      <trkpt lat="44.80268" lon="0.74991">
        <ele>127.4</ele>
        <time>2022-12-04T09:46:19Z</time>
      </trkpt>
      <trkpt lat="44.80254" lon="0.74989">
        <ele>123.5</ele>
        <time>2022-12-04T09:46:21Z</time>
      </trkpt>
      <trkpt lat="44.80247" lon="0.74986">
        <ele>123</ele>
        <time>2022-12-04T09:46:22Z</time>
      </trkpt>
      <trkpt lat="44.80236" lon="0.74978">
        <ele>119.5</ele>
        <time>2022-12-04T09:46:24Z</time>
      </trkpt>
      <trkpt lat="44.80227" lon="0.7497">
        <ele>117.1</ele>
        <time>2022-12-04T09:46:26Z</time>
      </trkpt>
      <trkpt lat="44.80215" lon="0.7497">
        <ele>114.8</ele>
        <time>2022-12-04T09:46:28Z</time>
      </trkpt>
      <trkpt lat="44.80177" lon="0.74979">
        <ele>111.4</ele>
        <time>2022-12-04T09:46:33Z</time>
      </trkpt>
      <trkpt lat="44.80149" lon="0.74979">
        <ele>109.5</ele>
        <time>2022-12-04T09:46:38Z</time>
      </trkpt>
      <trkpt lat="44.8013" lon="0.74972">
        <ele>109</ele>
        <time>2022-12-04T09:46:42Z</time>
      </trkpt>
      <trkpt lat="44.80125" lon="0.74971">
        <ele>108.5</ele>
        <time>2022-12-04T09:46:43Z</time>
      </trkpt>
      <trkpt lat="44.80119" lon="0.74971">
        <ele>108</ele>
        <time>2022-12-04T09:46:44Z</time>
      </trkpt>
      <trkpt lat="44.80101" lon="0.74968">
        <ele>107.4</ele>
        <time>2022-12-04T09:46:47Z</time>
      </trkpt>
      <trkpt lat="44.80083" lon="0.74964">
        <ele>105.5</ele>
        <time>2022-12-04T09:46:50Z</time>
      </trkpt>
      <trkpt lat="44.80078" lon="0.74964">
        <ele>105</ele>
        <time>2022-12-04T09:46:51Z</time>
      </trkpt>
      <trkpt lat="44.80051" lon="0.74961">
        <ele>104.9</ele>
        <time>2022-12-04T09:46:57Z</time>
      </trkpt>
      <trkpt lat="44.80028" lon="0.74957">
        <ele>104.4</ele>
        <time>2022-12-04T09:47:03Z</time>
      </trkpt>
      <trkpt lat="44.8001" lon="0.74956">
        <ele>102.7</ele>
        <time>2022-12-04T09:47:08Z</time>
      </trkpt>
      <trkpt lat="44.79988" lon="0.7496">
        <ele>100.7</ele>
        <time>2022-12-04T09:47:14Z</time>
      </trkpt>
      <trkpt lat="44.7997" lon="0.74965">
        <ele>97.5</ele>
        <time>2022-12-04T09:47:19Z</time>
      </trkpt>
      <trkpt lat="44.79956" lon="0.74969">
        <ele>94.9</ele>
        <time>2022-12-04T09:47:24Z</time>
      </trkpt>
      <trkpt lat="44.79953" lon="0.74971">
        <ele>94.4</ele>
        <time>2022-12-04T09:47:25Z</time>
      </trkpt>
      <trkpt lat="44.79945" lon="0.74977">
        <ele>91</ele>
        <time>2022-12-04T09:47:28Z</time>
      </trkpt>
      <trkpt lat="44.79936" lon="0.74988">
        <ele>88.8</ele>
        <time>2022-12-04T09:47:33Z</time>
      </trkpt>
      <trkpt lat="44.79934" lon="0.74989">
        <ele>88.3</ele>
        <time>2022-12-04T09:47:35Z</time>
      </trkpt>
      <trkpt lat="44.79931" lon="0.74991">
        <ele>87.7</ele>
        <time>2022-12-04T09:47:43Z</time>
      </trkpt>
      <trkpt lat="44.79929" lon="0.74993">
        <ele>87.2</ele>
        <time>2022-12-04T09:47:44Z</time>
      </trkpt>
      <trkpt lat="44.79927" lon="0.74995">
        <ele>86.6</ele>
        <time>2022-12-04T09:47:45Z</time>
      </trkpt>
      <trkpt lat="44.79925" lon="0.74998">
        <ele>82.8</ele>
        <time>2022-12-04T09:47:48Z</time>
      </trkpt>
      <trkpt lat="44.79902" lon="0.7501">
        <ele>79.9</ele>
        <time>2022-12-04T09:48:45Z</time>
      </trkpt>
      <trkpt lat="44.799" lon="0.75014">
        <ele>75.4</ele>
        <time>2022-12-04T09:48:46Z</time>
      </trkpt>
      <trkpt lat="44.79897" lon="0.75018">
        <ele>76.8</ele>
        <time>2022-12-04T09:48:47Z</time>
      </trkpt>
      <trkpt lat="44.79886" lon="0.75034">
        <ele>74</ele>
        <time>2022-12-04T09:48:50Z</time>
      </trkpt>
      <trkpt lat="44.79882" lon="0.75038">
        <ele>73.4</ele>
        <time>2022-12-04T09:48:51Z</time>
      </trkpt>
      <trkpt lat="44.79876" lon="0.75047">
        <ele>68.9</ele>
        <time>2022-12-04T09:48:53Z</time>
      </trkpt>
      <trkpt lat="44.79871" lon="0.75052">
        <ele>70.6</ele>
        <time>2022-12-04T09:48:54Z</time>
      </trkpt>
      <trkpt lat="44.79862" lon="0.7506">
        <ele>65.7</ele>
        <time>2022-12-04T09:48:56Z</time>
      </trkpt>
      <trkpt lat="44.79858" lon="0.75065">
        <ele>65.1</ele>
        <time>2022-12-04T09:48:57Z</time>
      </trkpt>
      <trkpt lat="44.79839" lon="0.75085">
        <ele>59</ele>
        <time>2022-12-04T09:49:01Z</time>
      </trkpt>
      <trkpt lat="44.79808" lon="0.75122">
        <ele>60</ele>
        <time>2022-12-04T09:49:07Z</time>
      </trkpt>
      <trkpt lat="44.79779" lon="0.75151">
        <ele>60.7</ele>
        <time>2022-12-04T09:49:12Z</time>
      </trkpt>
      <trkpt lat="44.79768" lon="0.75166">
        <ele>61</ele>
        <time>2022-12-04T09:49:14Z</time>
      </trkpt>
      <trkpt lat="44.79758" lon="0.75181">
        <ele>61.2</ele>
        <time>2022-12-04T09:49:16Z</time>
      </trkpt>
      <trkpt lat="44.79746" lon="0.75201">
        <ele>61.5</ele>
        <time>2022-12-04T09:49:20Z</time>
      </trkpt>
      <trkpt lat="44.79742" lon="0.75209">
        <ele>61.6</ele>
        <time>2022-12-04T09:49:24Z</time>
      </trkpt>
      <trkpt lat="44.79733" lon="0.75224">
        <ele>61.7</ele>
        <time>2022-12-04T09:49:28Z</time>
      </trkpt>
      <trkpt lat="44.79725" lon="0.7525">
        <ele>61.6</ele>
        <time>2022-12-04T09:49:33Z</time>
      </trkpt>
      <trkpt lat="44.79719" lon="0.7527">
        <ele>61.6</ele>
        <time>2022-12-04T09:49:37Z</time>
      </trkpt>
      <trkpt lat="44.79716" lon="0.75274">
        <ele>61.6</ele>
        <time>2022-12-04T09:49:38Z</time>
      </trkpt>
      <trkpt lat="44.79712" lon="0.75274">
        <ele>61.1</ele>
        <time>2022-12-04T09:49:39Z</time>
      </trkpt>
      <trkpt lat="44.79708" lon="0.75272">
        <ele>60.9</ele>
        <time>2022-12-04T09:49:40Z</time>
      </trkpt>
      <trkpt lat="44.79704" lon="0.75267">
        <ele>60.6</ele>
        <time>2022-12-04T09:49:41Z</time>
      </trkpt>
      <trkpt lat="44.79695" lon="0.75249">
        <ele>60</ele>
        <time>2022-12-04T09:49:44Z</time>
      </trkpt>
      <trkpt lat="44.79668" lon="0.75201">
        <ele>59.3</ele>
        <time>2022-12-04T09:49:52Z</time>
      </trkpt>
      <trkpt lat="44.79648" lon="0.75161">
        <ele>59.1</ele>
        <time>2022-12-04T09:49:59Z</time>
      </trkpt>
      <trkpt lat="44.79631" lon="0.75126">
        <ele>59.1</ele>
        <time>2022-12-04T09:50:05Z</time>
      </trkpt>
      <trkpt lat="44.79628" lon="0.7512">
        <ele>59.1</ele>
        <time>2022-12-04T09:50:06Z</time>
      </trkpt>
      <trkpt lat="44.79625" lon="0.75114">
        <ele>59</ele>
        <time>2022-12-04T09:50:07Z</time>
      </trkpt>
      <trkpt lat="44.79618" lon="0.75104">
        <ele>59</ele>
        <time>2022-12-04T09:50:09Z</time>
      </trkpt>
      <trkpt lat="44.79615" lon="0.75098">
        <ele>59</ele>
        <time>2022-12-04T09:50:10Z</time>
      </trkpt>
      <trkpt lat="44.79601" lon="0.75065">
        <ele>59</ele>
        <time>2022-12-04T09:50:16Z</time>
      </trkpt>
      <trkpt lat="44.79582" lon="0.75029">
        <ele>59.4</ele>
        <time>2022-12-04T09:50:23Z</time>
      </trkpt>
      <trkpt lat="44.79566" lon="0.74996">
        <ele>59.9</ele>
        <time>2022-12-04T09:50:29Z</time>
      </trkpt>
      <trkpt lat="44.79562" lon="0.74992">
        <ele>59.9</ele>
        <time>2022-12-04T09:50:30Z</time>
      </trkpt>
      <trkpt lat="44.79559" lon="0.74988">
        <ele>59.9</ele>
        <time>2022-12-04T09:50:31Z</time>
      </trkpt>
      <trkpt lat="44.7955" lon="0.74985">
        <ele>59.9</ele>
        <time>2022-12-04T09:50:33Z</time>
      </trkpt>
      <trkpt lat="44.79541" lon="0.74988">
        <ele>60</ele>
        <time>2022-12-04T09:50:35Z</time>
      </trkpt>
      <trkpt lat="44.79532" lon="0.74991">
        <ele>60.1</ele>
        <time>2022-12-04T09:50:37Z</time>
      </trkpt>
      <trkpt lat="44.79528" lon="0.74993">
        <ele>60.1</ele>
        <time>2022-12-04T09:50:38Z</time>
      </trkpt>
      <trkpt lat="44.79517" lon="0.75">
        <ele>60.2</ele>
        <time>2022-12-04T09:50:41Z</time>
      </trkpt>
      <trkpt lat="44.795" lon="0.75005">
        <ele>60.3</ele>
        <time>2022-12-04T09:50:46Z</time>
      </trkpt>
      <trkpt lat="44.79478" lon="0.75015">
        <ele>60.5</ele>
        <time>2022-12-04T09:50:51Z</time>
      </trkpt>
      <trkpt lat="44.79455" lon="0.75025">
        <ele>60.8</ele>
        <time>2022-12-04T09:50:56Z</time>
      </trkpt>
      <trkpt lat="44.79425" lon="0.75042">
        <ele>61.3</ele>
        <time>2022-12-04T09:51:02Z</time>
      </trkpt>
      <trkpt lat="44.7939" lon="0.7506">
        <ele>62.8</ele>
        <time>2022-12-04T09:51:09Z</time>
      </trkpt>
      <trkpt lat="44.79377" lon="0.75065">
        <ele>63.2</ele>
        <time>2022-12-04T09:51:12Z</time>
      </trkpt>
      <trkpt lat="44.7937" lon="0.75066">
        <ele>63.4</ele>
        <time>2022-12-04T09:51:14Z</time>
      </trkpt>
      <trkpt lat="44.7936" lon="0.75061">
        <ele>64.3</ele>
        <time>2022-12-04T09:51:18Z</time>
      </trkpt>
      <trkpt lat="44.79358" lon="0.75053">
        <ele>64.8</ele>
        <time>2022-12-04T09:51:21Z</time>
      </trkpt>
      <trkpt lat="44.79358" lon="0.75048">
        <ele>65.1</ele>
        <time>2022-12-04T09:51:23Z</time>
      </trkpt>
      <trkpt lat="44.79359" lon="0.75031">
        <ele>66.2</ele>
        <time>2022-12-04T09:51:28Z</time>
      </trkpt>
      <trkpt lat="44.79358" lon="0.75009">
        <ele>67.6</ele>
        <time>2022-12-04T09:51:33Z</time>
      </trkpt>
      <trkpt lat="44.79359" lon="0.75001">
        <ele>68.1</ele>
        <time>2022-12-04T09:51:36Z</time>
      </trkpt>
      <trkpt lat="44.7936" lon="0.7499">
        <ele>68.8</ele>
        <time>2022-12-04T09:52:57Z</time>
      </trkpt>
      <trkpt lat="44.79359" lon="0.74971">
        <ele>69.8</ele>
        <time>2022-12-04T09:53:02Z</time>
      </trkpt>
      <trkpt lat="44.79358" lon="0.74963">
        <ele>70.3</ele>
        <time>2022-12-04T09:53:04Z</time>
      </trkpt>
      <trkpt lat="44.79358" lon="0.74952">
        <ele>70.8</ele>
        <time>2022-12-04T09:53:07Z</time>
      </trkpt>
      <trkpt lat="44.79359" lon="0.74925">
        <ele>72.3</ele>
        <time>2022-12-04T09:53:14Z</time>
      </trkpt>
      <trkpt lat="44.7936" lon="0.74899">
        <ele>73.7</ele>
        <time>2022-12-04T09:53:21Z</time>
      </trkpt>
      <trkpt lat="44.79364" lon="0.74877">
        <ele>75.1</ele>
        <time>2022-12-04T09:53:27Z</time>
      </trkpt>
      <trkpt lat="44.79368" lon="0.74861">
        <ele>76</ele>
        <time>2022-12-04T09:53:32Z</time>
      </trkpt>
      <trkpt lat="44.79376" lon="0.74838">
        <ele>77.4</ele>
        <time>2022-12-04T09:53:38Z</time>
      </trkpt>
      <trkpt lat="44.79385" lon="0.74812">
        <ele>78.9</ele>
        <time>2022-12-04T09:53:45Z</time>
      </trkpt>
      <trkpt lat="44.79394" lon="0.74793">
        <ele>80.1</ele>
        <time>2022-12-04T09:53:50Z</time>
      </trkpt>
      <trkpt lat="44.79396" lon="0.74773">
        <ele>81.1</ele>
        <time>2022-12-04T09:53:56Z</time>
      </trkpt>
      <trkpt lat="44.794" lon="0.74757">
        <ele>81.9</ele>
        <time>2022-12-04T09:54:01Z</time>
      </trkpt>
      <trkpt lat="44.79401" lon="0.74754">
        <ele>82.1</ele>
        <time>2022-12-04T09:54:02Z</time>
      </trkpt>
      <trkpt lat="44.79409" lon="0.74734">
        <ele>83.5</ele>
        <time>2022-12-04T09:54:08Z</time>
      </trkpt>
      <trkpt lat="44.79418" lon="0.74721">
        <ele>84.8</ele>
        <time>2022-12-04T09:54:14Z</time>
      </trkpt>
      <trkpt lat="44.79419" lon="0.7472">
        <ele>85</ele>
        <time>2022-12-04T09:54:15Z</time>
      </trkpt>
      <trkpt lat="44.79427" lon="0.74715">
        <ele>85.8</ele>
        <time>2022-12-04T09:54:19Z</time>
      </trkpt>
      <trkpt lat="44.79438" lon="0.7471">
        <ele>87.1</ele>
        <time>2022-12-04T09:54:24Z</time>
      </trkpt>
      <trkpt lat="44.79456" lon="0.74707">
        <ele>89</ele>
        <time>2022-12-04T09:54:31Z</time>
      </trkpt>
      <trkpt lat="44.79467" lon="0.74705">
        <ele>91.6</ele>
        <time>2022-12-04T09:54:36Z</time>
      </trkpt>
      <trkpt lat="44.7947" lon="0.74705">
        <ele>92</ele>
        <time>2022-12-04T09:54:38Z</time>
      </trkpt>
      <trkpt lat="44.79471" lon="0.74702">
        <ele>92.3</ele>
        <time>2022-12-04T09:54:40Z</time>
      </trkpt>
      <trkpt lat="44.79469" lon="0.74699">
        <ele>92.7</ele>
        <time>2022-12-04T09:54:42Z</time>
      </trkpt>
      <trkpt lat="44.79467" lon="0.74697">
        <ele>93.1</ele>
        <time>2022-12-04T09:54:44Z</time>
      </trkpt>
      <trkpt lat="44.79463" lon="0.74692">
        <ele>93.7</ele>
        <time>2022-12-04T09:54:49Z</time>
      </trkpt>
      <trkpt lat="44.79456" lon="0.74686">
        <ele>94.7</ele>
        <time>2022-12-04T09:54:54Z</time>
      </trkpt>
      <trkpt lat="44.79449" lon="0.74678">
        <ele>95.7</ele>
        <time>2022-12-04T09:55:00Z</time>
      </trkpt>
      <trkpt lat="44.7944" lon="0.74671">
        <ele>97</ele>
        <time>2022-12-04T09:55:06Z</time>
      </trkpt>
      <trkpt lat="44.79439" lon="0.74671">
        <ele>97.2</ele>
        <time>2022-12-04T09:55:07Z</time>
      </trkpt>
      <trkpt lat="44.79433" lon="0.74666">
        <ele>98.1</ele>
        <time>2022-12-04T09:55:12Z</time>
      </trkpt>
      <trkpt lat="44.79428" lon="0.74662">
        <ele>99</ele>
        <time>2022-12-04T09:55:17Z</time>
      </trkpt>
      <trkpt lat="44.7942" lon="0.74656">
        <ele>100.3</ele>
        <time>2022-12-04T09:55:23Z</time>
      </trkpt>
      <trkpt lat="44.79413" lon="0.74653">
        <ele>101.3</ele>
        <time>2022-12-04T09:55:29Z</time>
      </trkpt>
      <trkpt lat="44.79405" lon="0.74646">
        <ele>102.5</ele>
        <time>2022-12-04T09:55:35Z</time>
      </trkpt>
      <trkpt lat="44.79394" lon="0.74642">
        <ele>103.8</ele>
        <time>2022-12-04T09:55:42Z</time>
      </trkpt>
      <trkpt lat="44.79385" lon="0.74635">
        <ele>104.8</ele>
        <time>2022-12-04T09:55:48Z</time>
      </trkpt>
      <trkpt lat="44.79383" lon="0.74633">
        <ele>105</ele>
        <time>2022-12-04T09:55:50Z</time>
      </trkpt>
      <trkpt lat="44.79379" lon="0.74632">
        <ele>105.4</ele>
        <time>2022-12-04T09:55:52Z</time>
      </trkpt>
      <trkpt lat="44.79371" lon="0.74627">
        <ele>106.2</ele>
        <time>2022-12-04T09:55:58Z</time>
      </trkpt>
      <trkpt lat="44.7937" lon="0.74626">
        <ele>106.3</ele>
        <time>2022-12-04T09:55:59Z</time>
      </trkpt>
      <trkpt lat="44.79366" lon="0.74621">
        <ele>106.8</ele>
        <time>2022-12-04T09:56:03Z</time>
      </trkpt>
      <trkpt lat="44.79364" lon="0.74617">
        <ele>107</ele>
        <time>2022-12-04T09:56:05Z</time>
      </trkpt>
      <trkpt lat="44.79364" lon="0.74616">
        <ele>107.1</ele>
        <time>2022-12-04T09:56:07Z</time>
      </trkpt>
      <trkpt lat="44.79359" lon="0.74605">
        <ele>107.7</ele>
        <time>2022-12-04T09:56:15Z</time>
      </trkpt>
      <trkpt lat="44.79355" lon="0.74602">
        <ele>108.1</ele>
        <time>2022-12-04T09:56:18Z</time>
      </trkpt>
      <trkpt lat="44.79345" lon="0.74591">
        <ele>108.8</ele>
        <time>2022-12-04T09:56:25Z</time>
      </trkpt>
      <trkpt lat="44.79334" lon="0.74583">
        <ele>109.2</ele>
        <time>2022-12-04T09:56:32Z</time>
      </trkpt>
      <trkpt lat="44.7933" lon="0.74565">
        <ele>109.5</ele>
        <time>2022-12-04T09:56:39Z</time>
      </trkpt>
      <trkpt lat="44.7933" lon="0.74562">
        <ele>109.7</ele>
        <time>2022-12-04T09:56:40Z</time>
      </trkpt>
      <trkpt lat="44.79332" lon="0.74557">
        <ele>109.8</ele>
        <time>2022-12-04T09:56:43Z</time>
      </trkpt>
      <trkpt lat="44.79335" lon="0.74545">
        <ele>110</ele>
        <time>2022-12-04T09:56:48Z</time>
      </trkpt>
      <trkpt lat="44.79339" lon="0.74528">
        <ele>109.6</ele>
        <time>2022-12-04T09:56:52Z</time>
      </trkpt>
      <trkpt lat="44.79347" lon="0.74508">
        <ele>109</ele>
        <time>2022-12-04T09:56:57Z</time>
      </trkpt>
      <trkpt lat="44.79356" lon="0.74487">
        <ele>108.1</ele>
        <time>2022-12-04T09:57:02Z</time>
      </trkpt>
      <trkpt lat="44.79367" lon="0.74458">
        <ele>106.7</ele>
        <time>2022-12-04T09:57:08Z</time>
      </trkpt>
      <trkpt lat="44.79372" lon="0.74447">
        <ele>106.2</ele>
        <time>2022-12-04T09:57:10Z</time>
      </trkpt>
      <trkpt lat="44.79376" lon="0.74435">
        <ele>105.5</ele>
        <time>2022-12-04T09:57:12Z</time>
      </trkpt>
      <trkpt lat="44.79385" lon="0.74418">
        <ele>104.5</ele>
        <time>2022-12-04T09:57:15Z</time>
      </trkpt>
      <trkpt lat="44.79388" lon="0.74414">
        <ele>104.1</ele>
        <time>2022-12-04T09:57:16Z</time>
      </trkpt>
      <trkpt lat="44.79398" lon="0.74398">
        <ele>102.9</ele>
        <time>2022-12-04T09:57:20Z</time>
      </trkpt>
      <trkpt lat="44.79408" lon="0.74382">
        <ele>101.7</ele>
        <time>2022-12-04T09:57:25Z</time>
      </trkpt>
      <trkpt lat="44.79416" lon="0.74369">
        <ele>100.7</ele>
        <time>2022-12-04T09:57:30Z</time>
      </trkpt>
      <trkpt lat="44.79429" lon="0.74351">
        <ele>99</ele>
        <time>2022-12-04T09:57:35Z</time>
      </trkpt>
      <trkpt lat="44.79445" lon="0.74332">
        <ele>96.7</ele>
        <time>2022-12-04T09:57:39Z</time>
      </trkpt>
      <trkpt lat="44.79453" lon="0.74322">
        <ele>95.1</ele>
        <time>2022-12-04T09:57:41Z</time>
      </trkpt>
      <trkpt lat="44.79463" lon="0.74305">
        <ele>92.8</ele>
        <time>2022-12-04T09:57:44Z</time>
      </trkpt>
      <trkpt lat="44.79466" lon="0.743">
        <ele>92.1</ele>
        <time>2022-12-04T09:57:45Z</time>
      </trkpt>
      <trkpt lat="44.79475" lon="0.74282">
        <ele>90</ele>
        <time>2022-12-04T09:57:48Z</time>
      </trkpt>
      <trkpt lat="44.79478" lon="0.74275">
        <ele>89.3</ele>
        <time>2022-12-04T09:57:49Z</time>
      </trkpt>
      <trkpt lat="44.79485" lon="0.74261">
        <ele>87.7</ele>
        <time>2022-12-04T09:57:51Z</time>
      </trkpt>
      <trkpt lat="44.79487" lon="0.74252">
        <ele>86.9</ele>
        <time>2022-12-04T09:57:52Z</time>
      </trkpt>
      <trkpt lat="44.79488" lon="0.74242">
        <ele>86</ele>
        <time>2022-12-04T09:57:53Z</time>
      </trkpt>
      <trkpt lat="44.79489" lon="0.74212">
        <ele>83.9</ele>
        <time>2022-12-04T09:57:56Z</time>
      </trkpt>
      <trkpt lat="44.79489" lon="0.74202">
        <ele>83.2</ele>
        <time>2022-12-04T09:57:57Z</time>
      </trkpt>
      <trkpt lat="44.7949" lon="0.7418">
        <ele>81.8</ele>
        <time>2022-12-04T09:57:59Z</time>
      </trkpt>
      <trkpt lat="44.7949" lon="0.7417">
        <ele>81.2</ele>
        <time>2022-12-04T09:58:00Z</time>
      </trkpt>
      <trkpt lat="44.7949" lon="0.7416">
        <ele>80.7</ele>
        <time>2022-12-04T09:58:01Z</time>
      </trkpt>
      <trkpt lat="44.79493" lon="0.74139">
        <ele>79.6</ele>
        <time>2022-12-04T09:58:03Z</time>
      </trkpt>
      <trkpt lat="44.79496" lon="0.74129">
        <ele>79.2</ele>
        <time>2022-12-04T09:58:04Z</time>
      </trkpt>
      <trkpt lat="44.79506" lon="0.74068">
        <ele>77.3</ele>
        <time>2022-12-04T09:58:10Z</time>
      </trkpt>
      <trkpt lat="44.79512" lon="0.74043">
        <ele>75.9</ele>
        <time>2022-12-04T09:58:13Z</time>
      </trkpt>
      <trkpt lat="44.79513" lon="0.74034">
        <ele>75.3</ele>
        <time>2022-12-04T09:58:14Z</time>
      </trkpt>
      <trkpt lat="44.79514" lon="0.74025">
        <ele>74.8</ele>
        <time>2022-12-04T09:58:15Z</time>
      </trkpt>
      <trkpt lat="44.79519" lon="0.73996">
        <ele>72.6</ele>
        <time>2022-12-04T09:58:18Z</time>
      </trkpt>
      <trkpt lat="44.7952" lon="0.73988">
        <ele>71.7</ele>
        <time>2022-12-04T09:58:19Z</time>
      </trkpt>
      <trkpt lat="44.79525" lon="0.7396">
        <ele>69.2</ele>
        <time>2022-12-04T09:58:22Z</time>
      </trkpt>
      <trkpt lat="44.79531" lon="0.73933">
        <ele>66.8</ele>
        <time>2022-12-04T09:58:25Z</time>
      </trkpt>
      <trkpt lat="44.79537" lon="0.73913">
        <ele>65.3</ele>
        <time>2022-12-04T09:58:27Z</time>
      </trkpt>
      <trkpt lat="44.79541" lon="0.73904">
        <ele>64.7</ele>
        <time>2022-12-04T09:58:28Z</time>
      </trkpt>
      <trkpt lat="44.79545" lon="0.73885">
        <ele>63.6</ele>
        <time>2022-12-04T09:58:30Z</time>
      </trkpt>
      <trkpt lat="44.79556" lon="0.73849">
        <ele>62.3</ele>
        <time>2022-12-04T09:58:34Z</time>
      </trkpt>
      <trkpt lat="44.79559" lon="0.73841">
        <ele>61.9</ele>
        <time>2022-12-04T09:58:35Z</time>
      </trkpt>
      <trkpt lat="44.79579" lon="0.73807">
        <ele>60.5</ele>
        <time>2022-12-04T09:58:40Z</time>
      </trkpt>
      <trkpt lat="44.79603" lon="0.73784">
        <ele>59.4</ele>
        <time>2022-12-04T09:58:45Z</time>
      </trkpt>
      <trkpt lat="44.79625" lon="0.73763">
        <ele>58.7</ele>
        <time>2022-12-04T09:58:50Z</time>
      </trkpt>
      <trkpt lat="44.79656" lon="0.73733">
        <ele>57.7</ele>
        <time>2022-12-04T09:58:57Z</time>
      </trkpt>
      <trkpt lat="44.79675" lon="0.73716">
        <ele>57.4</ele>
        <time>2022-12-04T09:59:01Z</time>
      </trkpt>
      <trkpt lat="44.79683" lon="0.73708">
        <ele>57.4</ele>
        <time>2022-12-04T09:59:03Z</time>
      </trkpt>
      <trkpt lat="44.79706" lon="0.7368">
        <ele>57.3</ele>
        <time>2022-12-04T09:59:09Z</time>
      </trkpt>
      <trkpt lat="44.79741" lon="0.73643">
        <ele>57.1</ele>
        <time>2022-12-04T09:59:16Z</time>
      </trkpt>
      <trkpt lat="44.79758" lon="0.73622">
        <ele>56.9</ele>
        <time>2022-12-04T09:59:20Z</time>
      </trkpt>
      <trkpt lat="44.79766" lon="0.73611">
        <ele>56.9</ele>
        <time>2022-12-04T09:59:22Z</time>
      </trkpt>
      <trkpt lat="44.79785" lon="0.73582">
        <ele>57</ele>
        <time>2022-12-04T09:59:27Z</time>
      </trkpt>
      <trkpt lat="44.79799" lon="0.73559">
        <ele>57.2</ele>
        <time>2022-12-04T09:59:31Z</time>
      </trkpt>
      <trkpt lat="44.79807" lon="0.7355">
        <ele>57.3</ele>
        <time>2022-12-04T09:59:33Z</time>
      </trkpt>
      <trkpt lat="44.79824" lon="0.73529">
        <ele>57.8</ele>
        <time>2022-12-04T09:59:38Z</time>
      </trkpt>
      <trkpt lat="44.79839" lon="0.73519">
        <ele>58.1</ele>
        <time>2022-12-04T09:59:43Z</time>
      </trkpt>
      <trkpt lat="44.7984" lon="0.73515">
        <ele>58.1</ele>
        <time>2022-12-04T09:59:45Z</time>
      </trkpt>
      <trkpt lat="44.79839" lon="0.7351">
        <ele>58.1</ele>
        <time>2022-12-04T09:59:47Z</time>
      </trkpt>
      <trkpt lat="44.79828" lon="0.73497">
        <ele>58.3</ele>
        <time>2022-12-04T09:59:51Z</time>
      </trkpt>
      <trkpt lat="44.79815" lon="0.73475">
        <ele>58.5</ele>
        <time>2022-12-04T09:59:57Z</time>
      </trkpt>
      <trkpt lat="44.79801" lon="0.73459">
        <ele>58.9</ele>
        <time>2022-12-04T10:00:02Z</time>
      </trkpt>
      <trkpt lat="44.79784" lon="0.73436">
        <ele>59.6</ele>
        <time>2022-12-04T10:00:09Z</time>
      </trkpt>
      <trkpt lat="44.79768" lon="0.73409">
        <ele>60.6</ele>
        <time>2022-12-04T10:00:16Z</time>
      </trkpt>
      <trkpt lat="44.79756" lon="0.73387">
        <ele>61.4</ele>
        <time>2022-12-04T10:00:22Z</time>
      </trkpt>
      <trkpt lat="44.79745" lon="0.73368">
        <ele>62</ele>
        <time>2022-12-04T10:00:27Z</time>
      </trkpt>
      <trkpt lat="44.79733" lon="0.73345">
        <ele>63</ele>
        <time>2022-12-04T10:00:34Z</time>
      </trkpt>
      <trkpt lat="44.79723" lon="0.73327">
        <ele>63.7</ele>
        <time>2022-12-04T10:00:39Z</time>
      </trkpt>
      <trkpt lat="44.79714" lon="0.73311">
        <ele>64.3</ele>
        <time>2022-12-04T10:00:44Z</time>
      </trkpt>
      <trkpt lat="44.79707" lon="0.73301">
        <ele>64.7</ele>
        <time>2022-12-04T10:00:48Z</time>
      </trkpt>
      <trkpt lat="44.79697" lon="0.7329">
        <ele>65.2</ele>
        <time>2022-12-04T10:00:53Z</time>
      </trkpt>
      <trkpt lat="44.79683" lon="0.73276">
        <ele>65.8</ele>
        <time>2022-12-04T10:00:59Z</time>
      </trkpt>
      <trkpt lat="44.79669" lon="0.73261">
        <ele>66.4</ele>
        <time>2022-12-04T10:01:05Z</time>
      </trkpt>
      <trkpt lat="44.79649" lon="0.7324">
        <ele>67.3</ele>
        <time>2022-12-04T10:01:12Z</time>
      </trkpt>
      <trkpt lat="44.79636" lon="0.73221">
        <ele>67.9</ele>
        <time>2022-12-04T10:01:18Z</time>
      </trkpt>
      <trkpt lat="44.79624" lon="0.73204">
        <ele>68.4</ele>
        <time>2022-12-04T10:01:23Z</time>
      </trkpt>
      <trkpt lat="44.79614" lon="0.73188">
        <ele>68.7</ele>
        <time>2022-12-04T10:01:28Z</time>
      </trkpt>
      <trkpt lat="44.79603" lon="0.73166">
        <ele>69.1</ele>
        <time>2022-12-04T10:01:34Z</time>
      </trkpt>
      <trkpt lat="44.79594" lon="0.73141">
        <ele>69.8</ele>
        <time>2022-12-04T10:01:40Z</time>
      </trkpt>
      <trkpt lat="44.79589" lon="0.73121">
        <ele>70.4</ele>
        <time>2022-12-04T10:01:45Z</time>
      </trkpt>
      <trkpt lat="44.79586" lon="0.73104">
        <ele>70.9</ele>
        <time>2022-12-04T10:01:49Z</time>
      </trkpt>
      <trkpt lat="44.79584" lon="0.73082">
        <ele>71.5</ele>
        <time>2022-12-04T10:01:54Z</time>
      </trkpt>
      <trkpt lat="44.7958" lon="0.73051">
        <ele>72.4</ele>
        <time>2022-12-04T10:02:01Z</time>
      </trkpt>
      <trkpt lat="44.7958" lon="0.73034">
        <ele>72.8</ele>
        <time>2022-12-04T10:02:05Z</time>
      </trkpt>
      <trkpt lat="44.79578" lon="0.73016">
        <ele>73.2</ele>
        <time>2022-12-04T10:02:10Z</time>
      </trkpt>
      <trkpt lat="44.79577" lon="0.72988">
        <ele>73.7</ele>
        <time>2022-12-04T10:02:16Z</time>
      </trkpt>
      <trkpt lat="44.79574" lon="0.7296">
        <ele>74.2</ele>
        <time>2022-12-04T10:02:22Z</time>
      </trkpt>
      <trkpt lat="44.7957" lon="0.72937">
        <ele>74.6</ele>
        <time>2022-12-04T10:02:27Z</time>
      </trkpt>
      <trkpt lat="44.79565" lon="0.72918">
        <ele>74.8</ele>
        <time>2022-12-04T10:02:31Z</time>
      </trkpt>
      <trkpt lat="44.79557" lon="0.72897">
        <ele>74.9</ele>
        <time>2022-12-04T10:02:36Z</time>
      </trkpt>
      <trkpt lat="44.79551" lon="0.72879">
        <ele>75.1</ele>
        <time>2022-12-04T10:02:40Z</time>
      </trkpt>
      <trkpt lat="44.79543" lon="0.72859">
        <ele>75.4</ele>
        <time>2022-12-04T10:02:45Z</time>
      </trkpt>
      <trkpt lat="44.79536" lon="0.72843">
        <ele>75.6</ele>
        <time>2022-12-04T10:02:50Z</time>
      </trkpt>
      <trkpt lat="44.79528" lon="0.72825">
        <ele>75.9</ele>
        <time>2022-12-04T10:02:55Z</time>
      </trkpt>
      <trkpt lat="44.79522" lon="0.72803">
        <ele>76.4</ele>
        <time>2022-12-04T10:03:01Z</time>
      </trkpt>
      <trkpt lat="44.79519" lon="0.72791">
        <ele>76.9</ele>
        <time>2022-12-04T10:03:06Z</time>
      </trkpt>
      <trkpt lat="44.79516" lon="0.72781">
        <ele>77.3</ele>
        <time>2022-12-04T10:03:11Z</time>
      </trkpt>
      <trkpt lat="44.79514" lon="0.72763">
        <ele>78.3</ele>
        <time>2022-12-04T10:03:19Z</time>
      </trkpt>
      <trkpt lat="44.7951" lon="0.72739">
        <ele>79.9</ele>
        <time>2022-12-04T10:03:25Z</time>
      </trkpt>
      <trkpt lat="44.79506" lon="0.72722">
        <ele>81</ele>
        <time>2022-12-04T10:03:30Z</time>
      </trkpt>
      <trkpt lat="44.79502" lon="0.72706">
        <ele>81.8</ele>
        <time>2022-12-04T10:03:35Z</time>
      </trkpt>
      <trkpt lat="44.79501" lon="0.72687">
        <ele>82.5</ele>
        <time>2022-12-04T10:03:40Z</time>
      </trkpt>
      <trkpt lat="44.79498" lon="0.72674">
        <ele>83.1</ele>
        <time>2022-12-04T10:03:44Z</time>
      </trkpt>
      <trkpt lat="44.79498" lon="0.72671">
        <ele>83.3</ele>
        <time>2022-12-04T10:03:45Z</time>
      </trkpt>
      <trkpt lat="44.795" lon="0.72662">
        <ele>83.6</ele>
        <time>2022-12-04T10:03:47Z</time>
      </trkpt>
      <trkpt lat="44.79503" lon="0.72652">
        <ele>84</ele>
        <time>2022-12-04T10:03:49Z</time>
      </trkpt>
      <trkpt lat="44.79503" lon="0.72627">
        <ele>84.4</ele>
        <time>2022-12-04T10:03:55Z</time>
      </trkpt>
      <trkpt lat="44.7951" lon="0.72617">
        <ele>84.4</ele>
        <time>2022-12-04T10:03:59Z</time>
      </trkpt>
      <trkpt lat="44.79518" lon="0.72604">
        <ele>84.5</ele>
        <time>2022-12-04T10:04:52Z</time>
      </trkpt>
      <trkpt lat="44.79519" lon="0.72599">
        <ele>84.5</ele>
        <time>2022-12-04T10:04:53Z</time>
      </trkpt>
      <trkpt lat="44.79524" lon="0.72573">
        <ele>84.4</ele>
        <time>2022-12-04T10:04:59Z</time>
      </trkpt>
      <trkpt lat="44.79528" lon="0.7255">
        <ele>84.1</ele>
        <time>2022-12-04T10:05:04Z</time>
      </trkpt>
      <trkpt lat="44.7953" lon="0.72529">
        <ele>84</ele>
        <time>2022-12-04T10:05:09Z</time>
      </trkpt>
      <trkpt lat="44.79527" lon="0.72506">
        <ele>83.9</ele>
        <time>2022-12-04T10:05:14Z</time>
      </trkpt>
      <trkpt lat="44.79517" lon="0.72472">
        <ele>84.4</ele>
        <time>2022-12-04T10:05:21Z</time>
      </trkpt>
      <trkpt lat="44.79517" lon="0.72454">
        <ele>84.8</ele>
        <time>2022-12-04T10:05:24Z</time>
      </trkpt>
      <trkpt lat="44.79517" lon="0.72449">
        <ele>84.9</ele>
        <time>2022-12-04T10:05:25Z</time>
      </trkpt>
      <trkpt lat="44.79517" lon="0.72444">
        <ele>85.1</ele>
        <time>2022-12-04T10:05:26Z</time>
      </trkpt>
      <trkpt lat="44.79514" lon="0.72425">
        <ele>85.7</ele>
        <time>2022-12-04T10:05:29Z</time>
      </trkpt>
      <trkpt lat="44.79509" lon="0.72409">
        <ele>86.4</ele>
        <time>2022-12-04T10:05:32Z</time>
      </trkpt>
      <trkpt lat="44.79509" lon="0.724">
        <ele>86.8</ele>
        <time>2022-12-04T10:05:34Z</time>
      </trkpt>
      <trkpt lat="44.79502" lon="0.72375">
        <ele>87.8</ele>
        <time>2022-12-04T10:05:39Z</time>
      </trkpt>
      <trkpt lat="44.79501" lon="0.72372">
        <ele>87.9</ele>
        <time>2022-12-04T10:05:40Z</time>
      </trkpt>
      <trkpt lat="44.79494" lon="0.72357">
        <ele>88.5</ele>
        <time>2022-12-04T10:05:43Z</time>
      </trkpt>
      <trkpt lat="44.79489" lon="0.72345">
        <ele>89</ele>
        <time>2022-12-04T10:05:46Z</time>
      </trkpt>
      <trkpt lat="44.79487" lon="0.72337">
        <ele>89.3</ele>
        <time>2022-12-04T10:05:48Z</time>
      </trkpt>
      <trkpt lat="44.79479" lon="0.72323">
        <ele>89.8</ele>
        <time>2022-12-04T10:05:52Z</time>
      </trkpt>
      <trkpt lat="44.79471" lon="0.72303">
        <ele>89.9</ele>
        <time>2022-12-04T10:05:56Z</time>
      </trkpt>
      <trkpt lat="44.79463" lon="0.7228">
        <ele>90</ele>
        <time>2022-12-04T10:06:01Z</time>
      </trkpt>
      <trkpt lat="44.79456" lon="0.72263">
        <ele>90.6</ele>
        <time>2022-12-04T10:06:06Z</time>
      </trkpt>
      <trkpt lat="44.79449" lon="0.72244">
        <ele>91.6</ele>
        <time>2022-12-04T10:06:12Z</time>
      </trkpt>
      <trkpt lat="44.79445" lon="0.72234">
        <ele>92.4</ele>
        <time>2022-12-04T10:06:16Z</time>
      </trkpt>
      <trkpt lat="44.79442" lon="0.72223">
        <ele>93.2</ele>
        <time>2022-12-04T10:06:21Z</time>
      </trkpt>
      <trkpt lat="44.7944" lon="0.72214">
        <ele>94.1</ele>
        <time>2022-12-04T10:06:26Z</time>
      </trkpt>
      <trkpt lat="44.79436" lon="0.72208">
        <ele>94.8</ele>
        <time>2022-12-04T10:06:29Z</time>
      </trkpt>
      <trkpt lat="44.79433" lon="0.72207">
        <ele>96.4</ele>
        <time>2022-12-04T10:06:34Z</time>
      </trkpt>
      <trkpt lat="44.79431" lon="0.72209">
        <ele>96.8</ele>
        <time>2022-12-04T10:06:39Z</time>
      </trkpt>
      <trkpt lat="44.7943" lon="0.72213">
        <ele>97.3</ele>
        <time>2022-12-04T10:06:42Z</time>
      </trkpt>
      <trkpt lat="44.79428" lon="0.72215">
        <ele>97.7</ele>
        <time>2022-12-04T10:06:44Z</time>
      </trkpt>
      <trkpt lat="44.79426" lon="0.72224">
        <ele>98.6</ele>
        <time>2022-12-04T10:06:49Z</time>
      </trkpt>
      <trkpt lat="44.79425" lon="0.72225">
        <ele>98.8</ele>
        <time>2022-12-04T10:06:50Z</time>
      </trkpt>
      <trkpt lat="44.79422" lon="0.72232">
        <ele>99.5</ele>
        <time>2022-12-04T10:06:54Z</time>
      </trkpt>
      <trkpt lat="44.79419" lon="0.72234">
        <ele>99.9</ele>
        <time>2022-12-04T10:06:56Z</time>
      </trkpt>
      <trkpt lat="44.79416" lon="0.72237">
        <ele>100.4</ele>
        <time>2022-12-04T10:06:58Z</time>
      </trkpt>
      <trkpt lat="44.79411" lon="0.72237">
        <ele>101.1</ele>
        <time>2022-12-04T10:07:02Z</time>
      </trkpt>
      <trkpt lat="44.79409" lon="0.72236">
        <ele>101.3</ele>
        <time>2022-12-04T10:07:03Z</time>
      </trkpt>
      <trkpt lat="44.79402" lon="0.72233">
        <ele>102.2</ele>
        <time>2022-12-04T10:07:07Z</time>
      </trkpt>
      <trkpt lat="44.79395" lon="0.72229">
        <ele>103</ele>
        <time>2022-12-04T10:07:12Z</time>
      </trkpt>
      <trkpt lat="44.79387" lon="0.72229">
        <ele>103.7</ele>
        <time>2022-12-04T10:07:17Z</time>
      </trkpt>
      <trkpt lat="44.7938" lon="0.7223">
        <ele>104.3</ele>
        <time>2022-12-04T10:07:22Z</time>
      </trkpt>
      <trkpt lat="44.79368" lon="0.72229">
        <ele>105.3</ele>
        <time>2022-12-04T10:07:29Z</time>
      </trkpt>
      <trkpt lat="44.79361" lon="0.72226">
        <ele>106</ele>
        <time>2022-12-04T10:07:33Z</time>
      </trkpt>
      <trkpt lat="44.79358" lon="0.72225">
        <ele>106.4</ele>
        <time>2022-12-04T10:07:35Z</time>
      </trkpt>
      <trkpt lat="44.79349" lon="0.72219">
        <ele>107.6</ele>
        <time>2022-12-04T10:07:41Z</time>
      </trkpt>
      <trkpt lat="44.79343" lon="0.72214">
        <ele>108.6</ele>
        <time>2022-12-04T10:07:46Z</time>
      </trkpt>
      <trkpt lat="44.79336" lon="0.72208">
        <ele>109.7</ele>
        <time>2022-12-04T10:07:51Z</time>
      </trkpt>
      <trkpt lat="44.79329" lon="0.72201">
        <ele>110.9</ele>
        <time>2022-12-04T10:07:57Z</time>
      </trkpt>
      <trkpt lat="44.79322" lon="0.72193">
        <ele>112</ele>
        <time>2022-12-04T10:08:03Z</time>
      </trkpt>
      <trkpt lat="44.79317" lon="0.72186">
        <ele>112.9</ele>
        <time>2022-12-04T10:08:08Z</time>
      </trkpt>
      <trkpt lat="44.79311" lon="0.72175">
        <ele>114.1</ele>
        <time>2022-12-04T10:08:14Z</time>
      </trkpt>
      <trkpt lat="44.79306" lon="0.72169">
        <ele>114.9</ele>
        <time>2022-12-04T10:08:18Z</time>
      </trkpt>
      <trkpt lat="44.79301" lon="0.72159">
        <ele>115.9</ele>
        <time>2022-12-04T10:08:23Z</time>
      </trkpt>
      <trkpt lat="44.79295" lon="0.72139">
        <ele>117.3</ele>
        <time>2022-12-04T10:08:32Z</time>
      </trkpt>
      <trkpt lat="44.79289" lon="0.72128">
        <ele>118.3</ele>
        <time>2022-12-04T10:08:38Z</time>
      </trkpt>
      <trkpt lat="44.79286" lon="0.72121">
        <ele>118.9</ele>
        <time>2022-12-04T10:08:41Z</time>
      </trkpt>
      <trkpt lat="44.79285" lon="0.72117">
        <ele>119.3</ele>
        <time>2022-12-04T10:08:43Z</time>
      </trkpt>
      <trkpt lat="44.79281" lon="0.72105">
        <ele>120.3</ele>
        <time>2022-12-04T10:08:48Z</time>
      </trkpt>
      <trkpt lat="44.7928" lon="0.72104">
        <ele>120.4</ele>
        <time>2022-12-04T10:08:49Z</time>
      </trkpt>
      <trkpt lat="44.79274" lon="0.72092">
        <ele>121.6</ele>
        <time>2022-12-04T10:08:56Z</time>
      </trkpt>
      <trkpt lat="44.79268" lon="0.72083">
        <ele>122.9</ele>
        <time>2022-12-04T10:09:02Z</time>
      </trkpt>
      <trkpt lat="44.79265" lon="0.72075">
        <ele>124</ele>
        <time>2022-12-04T10:09:07Z</time>
      </trkpt>
      <trkpt lat="44.79259" lon="0.72066">
        <ele>125.4</ele>
        <time>2022-12-04T10:09:13Z</time>
      </trkpt>
      <trkpt lat="44.79258" lon="0.72062">
        <ele>125.9</ele>
        <time>2022-12-04T10:09:15Z</time>
      </trkpt>
      <trkpt lat="44.79256" lon="0.72058">
        <ele>126.5</ele>
        <time>2022-12-04T10:09:18Z</time>
      </trkpt>
      <trkpt lat="44.79254" lon="0.72054">
        <ele>127</ele>
        <time>2022-12-04T10:09:20Z</time>
      </trkpt>
      <trkpt lat="44.79253" lon="0.72051">
        <ele>127.4</ele>
        <time>2022-12-04T10:09:22Z</time>
      </trkpt>
      <trkpt lat="44.79251" lon="0.72048">
        <ele>127.8</ele>
        <time>2022-12-04T10:09:24Z</time>
      </trkpt>
      <trkpt lat="44.79244" lon="0.7204">
        <ele>129.1</ele>
        <time>2022-12-04T10:09:30Z</time>
      </trkpt>
      <trkpt lat="44.79238" lon="0.72031">
        <ele>130.4</ele>
        <time>2022-12-04T10:09:37Z</time>
      </trkpt>
      <trkpt lat="44.79237" lon="0.7203">
        <ele>130.6</ele>
        <time>2022-12-04T10:09:38Z</time>
      </trkpt>
      <trkpt lat="44.79236" lon="0.72026">
        <ele>131.1</ele>
        <time>2022-12-04T10:09:40Z</time>
      </trkpt>
      <trkpt lat="44.79232" lon="0.72019">
        <ele>132.1</ele>
        <time>2022-12-04T10:09:45Z</time>
      </trkpt>
      <trkpt lat="44.79229" lon="0.72012">
        <ele>132.8</ele>
        <time>2022-12-04T10:09:50Z</time>
      </trkpt>
      <trkpt lat="44.79225" lon="0.71999">
        <ele>134.2</ele>
        <time>2022-12-04T10:09:57Z</time>
      </trkpt>
      <trkpt lat="44.79223" lon="0.71994">
        <ele>134.7</ele>
        <time>2022-12-04T10:10:00Z</time>
      </trkpt>
      <trkpt lat="44.79221" lon="0.7199">
        <ele>135</ele>
        <time>2022-12-04T10:10:02Z</time>
      </trkpt>
      <trkpt lat="44.7922" lon="0.71989">
        <ele>135.2</ele>
        <time>2022-12-04T10:10:03Z</time>
      </trkpt>
      <trkpt lat="44.79218" lon="0.71978">
        <ele>136.1</ele>
        <time>2022-12-04T10:10:08Z</time>
      </trkpt>
      <trkpt lat="44.79216" lon="0.71969">
        <ele>136.8</ele>
        <time>2022-12-04T10:10:13Z</time>
      </trkpt>
      <trkpt lat="44.79215" lon="0.71968">
        <ele>136.9</ele>
        <time>2022-12-04T10:10:14Z</time>
      </trkpt>
      <trkpt lat="44.79211" lon="0.71959">
        <ele>137.8</ele>
        <time>2022-12-04T10:10:19Z</time>
      </trkpt>
      <trkpt lat="44.7921" lon="0.71954">
        <ele>138.2</ele>
        <time>2022-12-04T10:10:21Z</time>
      </trkpt>
      <trkpt lat="44.79209" lon="0.71945">
        <ele>138.9</ele>
        <time>2022-12-04T10:10:25Z</time>
      </trkpt>
      <trkpt lat="44.79207" lon="0.71941">
        <ele>139.4</ele>
        <time>2022-12-04T10:10:27Z</time>
      </trkpt>
      <trkpt lat="44.79206" lon="0.71933">
        <ele>140</ele>
        <time>2022-12-04T10:10:30Z</time>
      </trkpt>
      <trkpt lat="44.79205" lon="0.71926">
        <ele>140.6</ele>
        <time>2022-12-04T10:10:33Z</time>
      </trkpt>
      <trkpt lat="44.79206" lon="0.71913">
        <ele>141.7</ele>
        <time>2022-12-04T10:10:40Z</time>
      </trkpt>
      <trkpt lat="44.79203" lon="0.719">
        <ele>142.7</ele>
        <time>2022-12-04T10:10:46Z</time>
      </trkpt>
      <trkpt lat="44.79199" lon="0.7189">
        <ele>143.5</ele>
        <time>2022-12-04T10:10:51Z</time>
      </trkpt>
      <trkpt lat="44.79195" lon="0.71882">
        <ele>144.2</ele>
        <time>2022-12-04T10:10:55Z</time>
      </trkpt>
      <trkpt lat="44.79194" lon="0.71878">
        <ele>144.4</ele>
        <time>2022-12-04T10:10:57Z</time>
      </trkpt>
      <trkpt lat="44.7919" lon="0.71866">
        <ele>145.2</ele>
        <time>2022-12-04T10:11:03Z</time>
      </trkpt>
      <trkpt lat="44.79185" lon="0.71852">
        <ele>145.9</ele>
        <time>2022-12-04T10:11:09Z</time>
      </trkpt>
      <trkpt lat="44.79182" lon="0.71846">
        <ele>146.2</ele>
        <time>2022-12-04T10:11:12Z</time>
      </trkpt>
      <trkpt lat="44.7918" lon="0.71842">
        <ele>146.4</ele>
        <time>2022-12-04T10:11:14Z</time>
      </trkpt>
      <trkpt lat="44.79173" lon="0.71832">
        <ele>146.9</ele>
        <time>2022-12-04T10:11:19Z</time>
      </trkpt>
      <trkpt lat="44.79165" lon="0.71818">
        <ele>147.6</ele>
        <time>2022-12-04T10:11:25Z</time>
      </trkpt>
      <trkpt lat="44.7916" lon="0.71812">
        <ele>147.9</ele>
        <time>2022-12-04T10:11:28Z</time>
      </trkpt>
      <trkpt lat="44.79158" lon="0.71809">
        <ele>148.1</ele>
        <time>2022-12-04T10:11:30Z</time>
      </trkpt>
      <trkpt lat="44.79147" lon="0.718">
        <ele>148.7</ele>
        <time>2022-12-04T10:11:36Z</time>
      </trkpt>
      <trkpt lat="44.79134" lon="0.71795">
        <ele>149.3</ele>
        <time>2022-12-04T10:11:42Z</time>
      </trkpt>
      <trkpt lat="44.79118" lon="0.7179">
        <ele>150</ele>
        <time>2022-12-04T10:11:49Z</time>
      </trkpt>
      <trkpt lat="44.79102" lon="0.71786">
        <ele>150.8</ele>
        <time>2022-12-04T10:11:56Z</time>
      </trkpt>
      <trkpt lat="44.79094" lon="0.7178">
        <ele>151.3</ele>
        <time>2022-12-04T10:12:01Z</time>
      </trkpt>
      <trkpt lat="44.79081" lon="0.71772">
        <ele>152.1</ele>
        <time>2022-12-04T10:12:08Z</time>
      </trkpt>
      <trkpt lat="44.79066" lon="0.71766">
        <ele>152.5</ele>
        <time>2022-12-04T10:12:14Z</time>
      </trkpt>
      <trkpt lat="44.7905" lon="0.71761">
        <ele>152.8</ele>
        <time>2022-12-04T10:12:20Z</time>
      </trkpt>
      <trkpt lat="44.79033" lon="0.71758">
        <ele>153.6</ele>
        <time>2022-12-04T10:12:27Z</time>
      </trkpt>
      <trkpt lat="44.79017" lon="0.71752">
        <ele>154.5</ele>
        <time>2022-12-04T10:12:34Z</time>
      </trkpt>
      <trkpt lat="44.79001" lon="0.7174">
        <ele>155.5</ele>
        <time>2022-12-04T10:12:41Z</time>
      </trkpt>
      <trkpt lat="44.78986" lon="0.71729">
        <ele>156.7</ele>
        <time>2022-12-04T10:12:47Z</time>
      </trkpt>
      <trkpt lat="44.78979" lon="0.71727">
        <ele>157.3</ele>
        <time>2022-12-04T10:12:50Z</time>
      </trkpt>
      <trkpt lat="44.78977" lon="0.71729">
        <ele>157.3</ele>
        <time>2022-12-04T10:12:51Z</time>
      </trkpt>
      <trkpt lat="44.78966" lon="0.7175">
        <ele>157.6</ele>
        <time>2022-12-04T10:12:57Z</time>
      </trkpt>
      <trkpt lat="44.78955" lon="0.71771">
        <ele>157.8</ele>
        <time>2022-12-04T10:13:03Z</time>
      </trkpt>
      <trkpt lat="44.78944" lon="0.71786">
        <ele>157.8</ele>
        <time>2022-12-04T10:13:08Z</time>
      </trkpt>
      <trkpt lat="44.78931" lon="0.71796">
        <ele>157.7</ele>
        <time>2022-12-04T10:13:13Z</time>
      </trkpt>
      <trkpt lat="44.78923" lon="0.71798">
        <ele>157.5</ele>
        <time>2022-12-04T10:13:17Z</time>
      </trkpt>
      <trkpt lat="44.78921" lon="0.718">
        <ele>157.4</ele>
        <time>2022-12-04T10:13:19Z</time>
      </trkpt>
      <trkpt lat="44.78918" lon="0.71806">
        <ele>157.1</ele>
        <time>2022-12-04T10:13:34Z</time>
      </trkpt>
      <trkpt lat="44.78915" lon="0.71808">
        <ele>157</ele>
        <time>2022-12-04T10:13:35Z</time>
      </trkpt>
      <trkpt lat="44.78899" lon="0.71823">
        <ele>155.5</ele>
        <time>2022-12-04T10:13:39Z</time>
      </trkpt>
      <trkpt lat="44.78872" lon="0.71843">
        <ele>153</ele>
        <time>2022-12-04T10:13:44Z</time>
      </trkpt>
      <trkpt lat="44.7884" lon="0.71866">
        <ele>150</ele>
        <time>2022-12-04T10:13:49Z</time>
      </trkpt>
      <trkpt lat="44.78825" lon="0.71869">
        <ele>148.8</ele>
        <time>2022-12-04T10:13:51Z</time>
      </trkpt>
      <trkpt lat="44.7881" lon="0.71867">
        <ele>147.7</ele>
        <time>2022-12-04T10:13:53Z</time>
      </trkpt>
      <trkpt lat="44.78794" lon="0.71861">
        <ele>146.9</ele>
        <time>2022-12-04T10:13:55Z</time>
      </trkpt>
      <trkpt lat="44.7878" lon="0.71852">
        <ele>146</ele>
        <time>2022-12-04T10:13:57Z</time>
      </trkpt>
      <trkpt lat="44.78767" lon="0.71846">
        <ele>144.7</ele>
        <time>2022-12-04T10:13:59Z</time>
      </trkpt>
      <trkpt lat="44.78756" lon="0.71843">
        <ele>143.5</ele>
        <time>2022-12-04T10:14:01Z</time>
      </trkpt>
      <trkpt lat="44.78745" lon="0.71838">
        <ele>142.1</ele>
        <time>2022-12-04T10:14:03Z</time>
      </trkpt>
      <trkpt lat="44.78736" lon="0.71832">
        <ele>140.6</ele>
        <time>2022-12-04T10:14:05Z</time>
      </trkpt>
      <trkpt lat="44.78712" lon="0.71811">
        <ele>136.5</ele>
        <time>2022-12-04T10:14:09Z</time>
      </trkpt>
      <trkpt lat="44.787" lon="0.71805">
        <ele>134.5</ele>
        <time>2022-12-04T10:14:11Z</time>
      </trkpt>
      <trkpt lat="44.78695" lon="0.71805">
        <ele>133.8</ele>
        <time>2022-12-04T10:14:12Z</time>
      </trkpt>
      <trkpt lat="44.78693" lon="0.71807">
        <ele>133.5</ele>
        <time>2022-12-04T10:14:13Z</time>
      </trkpt>
      <trkpt lat="44.78689" lon="0.71812">
        <ele>132.6</ele>
        <time>2022-12-04T10:14:15Z</time>
      </trkpt>
      <trkpt lat="44.78676" lon="0.71834">
        <ele>129.3</ele>
        <time>2022-12-04T10:14:22Z</time>
      </trkpt>
      <trkpt lat="44.78667" lon="0.7185">
        <ele>126.9</ele>
        <time>2022-12-04T10:14:26Z</time>
      </trkpt>
      <trkpt lat="44.78652" lon="0.71875">
        <ele>123.4</ele>
        <time>2022-12-04T10:14:31Z</time>
      </trkpt>
      <trkpt lat="44.78631" lon="0.71911">
        <ele>120.8</ele>
        <time>2022-12-04T10:14:36Z</time>
      </trkpt>
      <trkpt lat="44.78623" lon="0.71923">
        <ele>120.8</ele>
        <time>2022-12-04T10:14:38Z</time>
      </trkpt>
      <trkpt lat="44.78615" lon="0.7193">
        <ele>121.4</ele>
        <time>2022-12-04T10:14:40Z</time>
      </trkpt>
      <trkpt lat="44.786" lon="0.71931">
        <ele>123</ele>
        <time>2022-12-04T10:14:44Z</time>
      </trkpt>
      <trkpt lat="44.78592" lon="0.71929">
        <ele>124</ele>
        <time>2022-12-04T10:14:48Z</time>
      </trkpt>
      <trkpt lat="44.78584" lon="0.71928">
        <ele>125.1</ele>
        <time>2022-12-04T10:14:53Z</time>
      </trkpt>
      <trkpt lat="44.78574" lon="0.71923">
        <ele>126.5</ele>
        <time>2022-12-04T10:14:59Z</time>
      </trkpt>
      <trkpt lat="44.78569" lon="0.71918">
        <ele>127.5</ele>
        <time>2022-12-04T10:15:03Z</time>
      </trkpt>
      <trkpt lat="44.78563" lon="0.71915">
        <ele>128.4</ele>
        <time>2022-12-04T10:15:07Z</time>
      </trkpt>
      <trkpt lat="44.78553" lon="0.71908">
        <ele>129.8</ele>
        <time>2022-12-04T10:15:13Z</time>
      </trkpt>
      <trkpt lat="44.78547" lon="0.71902">
        <ele>130.7</ele>
        <time>2022-12-04T10:15:18Z</time>
      </trkpt>
      <trkpt lat="44.78539" lon="0.71898">
        <ele>131.4</ele>
        <time>2022-12-04T10:15:23Z</time>
      </trkpt>
      <trkpt lat="44.78529" lon="0.71892">
        <ele>132.6</ele>
        <time>2022-12-04T10:15:29Z</time>
      </trkpt>
      <trkpt lat="44.78523" lon="0.71885">
        <ele>133.3</ele>
        <time>2022-12-04T10:15:34Z</time>
      </trkpt>
      <trkpt lat="44.78522" lon="0.71884">
        <ele>133.5</ele>
        <time>2022-12-04T10:15:35Z</time>
      </trkpt>
      <trkpt lat="44.78516" lon="0.71876">
        <ele>134.2</ele>
        <time>2022-12-04T10:15:39Z</time>
      </trkpt>
      <trkpt lat="44.78505" lon="0.71871">
        <ele>134.9</ele>
        <time>2022-12-04T10:15:44Z</time>
      </trkpt>
      <trkpt lat="44.78495" lon="0.7187">
        <ele>135.6</ele>
        <time>2022-12-04T10:15:49Z</time>
      </trkpt>
      <trkpt lat="44.78488" lon="0.71869">
        <ele>136.2</ele>
        <time>2022-12-04T10:15:52Z</time>
      </trkpt>
      <trkpt lat="44.78483" lon="0.71868">
        <ele>136.7</ele>
        <time>2022-12-04T10:15:55Z</time>
      </trkpt>
      <trkpt lat="44.78477" lon="0.71866">
        <ele>137.2</ele>
        <time>2022-12-04T10:15:59Z</time>
      </trkpt>
      <trkpt lat="44.78475" lon="0.71867">
        <ele>137.4</ele>
        <time>2022-12-04T10:16:00Z</time>
      </trkpt>
      <trkpt lat="44.78468" lon="0.71866">
        <ele>138</ele>
        <time>2022-12-04T10:16:03Z</time>
      </trkpt>
      <trkpt lat="44.78464" lon="0.71866">
        <ele>138.4</ele>
        <time>2022-12-04T10:16:05Z</time>
      </trkpt>
      <trkpt lat="44.78451" lon="0.71863">
        <ele>139.4</ele>
        <time>2022-12-04T10:16:11Z</time>
      </trkpt>
      <trkpt lat="44.78436" lon="0.71861">
        <ele>140.5</ele>
        <time>2022-12-04T10:16:18Z</time>
      </trkpt>
      <trkpt lat="44.78423" lon="0.7186">
        <ele>141.6</ele>
        <time>2022-12-04T10:16:24Z</time>
      </trkpt>
      <trkpt lat="44.78417" lon="0.71861">
        <ele>142</ele>
        <time>2022-12-04T10:16:27Z</time>
      </trkpt>
      <trkpt lat="44.78415" lon="0.7186">
        <ele>142.1</ele>
        <time>2022-12-04T10:16:28Z</time>
      </trkpt>
      <trkpt lat="44.78404" lon="0.71856">
        <ele>143</ele>
        <time>2022-12-04T10:16:34Z</time>
      </trkpt>
      <trkpt lat="44.78396" lon="0.71851">
        <ele>143.9</ele>
        <time>2022-12-04T10:16:39Z</time>
      </trkpt>
      <trkpt lat="44.7839" lon="0.71846">
        <ele>144.6</ele>
        <time>2022-12-04T10:16:44Z</time>
      </trkpt>
      <trkpt lat="44.78386" lon="0.71843">
        <ele>144.9</ele>
        <time>2022-12-04T10:16:47Z</time>
      </trkpt>
      <trkpt lat="44.78371" lon="0.71835">
        <ele>146.3</ele>
        <time>2022-12-04T10:16:57Z</time>
      </trkpt>
      <trkpt lat="44.78369" lon="0.71836">
        <ele>146.5</ele>
        <time>2022-12-04T10:16:58Z</time>
      </trkpt>
      <trkpt lat="44.78357" lon="0.71838">
        <ele>147</ele>
        <time>2022-12-04T10:17:03Z</time>
      </trkpt>
      <trkpt lat="44.78342" lon="0.71841">
        <ele>147.2</ele>
        <time>2022-12-04T10:17:09Z</time>
      </trkpt>
      <trkpt lat="44.78329" lon="0.71841">
        <ele>147.5</ele>
        <time>2022-12-04T10:17:14Z</time>
      </trkpt>
      <trkpt lat="44.78318" lon="0.71839">
        <ele>147.9</ele>
        <time>2022-12-04T10:17:19Z</time>
      </trkpt>
      <trkpt lat="44.78303" lon="0.71833">
        <ele>148.6</ele>
        <time>2022-12-04T10:17:25Z</time>
      </trkpt>
      <trkpt lat="44.78292" lon="0.71832">
        <ele>149</ele>
        <time>2022-12-04T10:17:29Z</time>
      </trkpt>
      <trkpt lat="44.7828" lon="0.71829">
        <ele>149.4</ele>
        <time>2022-12-04T10:17:34Z</time>
      </trkpt>
      <trkpt lat="44.78264" lon="0.7183">
        <ele>149.6</ele>
        <time>2022-12-04T10:17:40Z</time>
      </trkpt>
      <trkpt lat="44.78246" lon="0.71833">
        <ele>149.4</ele>
        <time>2022-12-04T10:17:46Z</time>
      </trkpt>
      <trkpt lat="44.78234" lon="0.71833">
        <ele>149.1</ele>
        <time>2022-12-04T10:17:50Z</time>
      </trkpt>
      <trkpt lat="44.78218" lon="0.71834">
        <ele>148.4</ele>
        <time>2022-12-04T10:17:54Z</time>
      </trkpt>
      <trkpt lat="44.78202" lon="0.71835">
        <ele>147.6</ele>
        <time>2022-12-04T10:17:57Z</time>
      </trkpt>
      <trkpt lat="44.78193" lon="0.71836">
        <ele>147.2</ele>
        <time>2022-12-04T10:17:59Z</time>
      </trkpt>
      <trkpt lat="44.78179" lon="0.7184">
        <ele>146.4</ele>
        <time>2022-12-04T10:18:02Z</time>
      </trkpt>
      <trkpt lat="44.78174" lon="0.71841">
        <ele>146.1</ele>
        <time>2022-12-04T10:18:03Z</time>
      </trkpt>
      <trkpt lat="44.78148" lon="0.71841">
        <ele>144.6</ele>
        <time>2022-12-04T10:18:08Z</time>
      </trkpt>
      <trkpt lat="44.78122" lon="0.71839">
        <ele>143.6</ele>
        <time>2022-12-04T10:18:13Z</time>
      </trkpt>
      <trkpt lat="44.78114" lon="0.71839">
        <ele>143.4</ele>
        <time>2022-12-04T10:18:16Z</time>
      </trkpt>
      <trkpt lat="44.78113" lon="0.71839">
        <ele>143.4</ele>
        <time>2022-12-04T10:18:17Z</time>
      </trkpt>
      <trkpt lat="44.78112" lon="0.71847">
        <ele>143.1</ele>
        <time>2022-12-04T10:18:20Z</time>
      </trkpt>
      <trkpt lat="44.78112" lon="0.71852">
        <ele>142.8</ele>
        <time>2022-12-04T10:18:21Z</time>
      </trkpt>
      <trkpt lat="44.78107" lon="0.71889">
        <ele>141.1</ele>
        <time>2022-12-04T10:18:26Z</time>
      </trkpt>
      <trkpt lat="44.78098" lon="0.71934">
        <ele>140.6</ele>
        <time>2022-12-04T10:18:32Z</time>
      </trkpt>
      <trkpt lat="44.78096" lon="0.71941">
        <ele>140.7</ele>
        <time>2022-12-04T10:18:33Z</time>
      </trkpt>
      <trkpt lat="44.78096" lon="0.71976">
        <ele>141.7</ele>
        <time>2022-12-04T10:18:38Z</time>
      </trkpt>
      <trkpt lat="44.78095" lon="0.71995">
        <ele>142.9</ele>
        <time>2022-12-04T10:18:42Z</time>
      </trkpt>
      <trkpt lat="44.78096" lon="0.72015">
        <ele>144.4</ele>
        <time>2022-12-04T10:18:48Z</time>
      </trkpt>
      <trkpt lat="44.78093" lon="0.72036">
        <ele>146.1</ele>
        <time>2022-12-04T10:18:54Z</time>
      </trkpt>
      <trkpt lat="44.78091" lon="0.72056">
        <ele>147.6</ele>
        <time>2022-12-04T10:18:59Z</time>
      </trkpt>
      <trkpt lat="44.78093" lon="0.72082">
        <ele>149.4</ele>
        <time>2022-12-04T10:19:06Z</time>
      </trkpt>
      <trkpt lat="44.78092" lon="0.72109">
        <ele>151.1</ele>
        <time>2022-12-04T10:19:13Z</time>
      </trkpt>
      <trkpt lat="44.78093" lon="0.72112">
        <ele>151.4</ele>
        <time>2022-12-04T10:19:14Z</time>
      </trkpt>
      <trkpt lat="44.78094" lon="0.72126">
        <ele>152.4</ele>
        <time>2022-12-04T10:19:18Z</time>
      </trkpt>
      <trkpt lat="44.78094" lon="0.72147">
        <ele>153.8</ele>
        <time>2022-12-04T10:19:24Z</time>
      </trkpt>
      <trkpt lat="44.78095" lon="0.7217">
        <ele>155.1</ele>
        <time>2022-12-04T10:19:30Z</time>
      </trkpt>
      <trkpt lat="44.78094" lon="0.7219">
        <ele>156.1</ele>
        <time>2022-12-04T10:19:36Z</time>
      </trkpt>
      <trkpt lat="44.78095" lon="0.7222">
        <ele>156.9</ele>
        <time>2022-12-04T10:19:44Z</time>
      </trkpt>
      <trkpt lat="44.78093" lon="0.72239">
        <ele>157.1</ele>
        <time>2022-12-04T10:19:50Z</time>
      </trkpt>
      <trkpt lat="44.78093" lon="0.72239">
        <ele>157.1</ele>
        <time>2022-12-04T10:19:51Z</time>
      </trkpt>
      <trkpt lat="44.78093" lon="0.72245">
        <ele>157.2</ele>
        <time>2022-12-04T10:20:04Z</time>
      </trkpt>
      <trkpt lat="44.78093" lon="0.72252">
        <ele>157.2</ele>
        <time>2022-12-04T10:20:06Z</time>
      </trkpt>
      <trkpt lat="44.78091" lon="0.72278">
        <ele>156.5</ele>
        <time>2022-12-04T10:20:11Z</time>
      </trkpt>
      <trkpt lat="44.7809" lon="0.72291">
        <ele>155.8</ele>
        <time>2022-12-04T10:20:13Z</time>
      </trkpt>
      <trkpt lat="44.78088" lon="0.72306">
        <ele>155</ele>
        <time>2022-12-04T10:20:15Z</time>
      </trkpt>
      <trkpt lat="44.78083" lon="0.7233">
        <ele>153.5</ele>
        <time>2022-12-04T10:20:18Z</time>
      </trkpt>
      <trkpt lat="44.78079" lon="0.72347">
        <ele>152.4</ele>
        <time>2022-12-04T10:20:20Z</time>
      </trkpt>
      <trkpt lat="44.78077" lon="0.72356">
        <ele>151.8</ele>
        <time>2022-12-04T10:20:21Z</time>
      </trkpt>
      <trkpt lat="44.78075" lon="0.72378">
        <ele>150.4</ele>
        <time>2022-12-04T10:20:23Z</time>
      </trkpt>
      <trkpt lat="44.78078" lon="0.72431">
        <ele>148.5</ele>
        <time>2022-12-04T10:20:28Z</time>
      </trkpt>
      <trkpt lat="44.78081" lon="0.72457">
        <ele>148</ele>
        <time>2022-12-04T10:20:32Z</time>
      </trkpt>
      <trkpt lat="44.78085" lon="0.72483">
        <ele>147.7</ele>
        <time>2022-12-04T10:20:37Z</time>
      </trkpt>
      <trkpt lat="44.78086" lon="0.72495">
        <ele>147.7</ele>
        <time>2022-12-04T10:20:39Z</time>
      </trkpt>
      <trkpt lat="44.78086" lon="0.72513">
        <ele>148</ele>
        <time>2022-12-04T10:20:42Z</time>
      </trkpt>
      <trkpt lat="44.78091" lon="0.72548">
        <ele>149.2</ele>
        <time>2022-12-04T10:20:48Z</time>
      </trkpt>
      <trkpt lat="44.78094" lon="0.72571">
        <ele>150.3</ele>
        <time>2022-12-04T10:20:53Z</time>
      </trkpt>
      <trkpt lat="44.78098" lon="0.72604">
        <ele>151.7</ele>
        <time>2022-12-04T10:21:00Z</time>
      </trkpt>
      <trkpt lat="44.78101" lon="0.72634">
        <ele>152.5</ele>
        <time>2022-12-04T10:21:07Z</time>
      </trkpt>
      <trkpt lat="44.78104" lon="0.72656">
        <ele>152.7</ele>
        <time>2022-12-04T10:21:12Z</time>
      </trkpt>
      <trkpt lat="44.78106" lon="0.72681">
        <ele>152.3</ele>
        <time>2022-12-04T10:21:18Z</time>
      </trkpt>
      <trkpt lat="44.78108" lon="0.72705">
        <ele>151.2</ele>
        <time>2022-12-04T10:21:22Z</time>
      </trkpt>
      <trkpt lat="44.78109" lon="0.72711">
        <ele>150.8</ele>
        <time>2022-12-04T10:21:23Z</time>
      </trkpt>
      <trkpt lat="44.78113" lon="0.72732">
        <ele>149.6</ele>
        <time>2022-12-04T10:21:26Z</time>
      </trkpt>
      <trkpt lat="44.78115" lon="0.72747">
        <ele>148.8</ele>
        <time>2022-12-04T10:21:28Z</time>
      </trkpt>
      <trkpt lat="44.78119" lon="0.72791">
        <ele>146.5</ele>
        <time>2022-12-04T10:21:33Z</time>
      </trkpt>
      <trkpt lat="44.78119" lon="0.728">
        <ele>146</ele>
        <time>2022-12-04T10:21:34Z</time>
      </trkpt>
      <trkpt lat="44.78116" lon="0.72829">
        <ele>144.6</ele>
        <time>2022-12-04T10:21:37Z</time>
      </trkpt>
      <trkpt lat="44.78115" lon="0.72848">
        <ele>143.5</ele>
        <time>2022-12-04T10:21:39Z</time>
      </trkpt>
      <trkpt lat="44.78111" lon="0.72888">
        <ele>141.5</ele>
        <time>2022-12-04T10:21:43Z</time>
      </trkpt>
      <trkpt lat="44.7811" lon="0.72908">
        <ele>140.5</ele>
        <time>2022-12-04T10:21:45Z</time>
      </trkpt>
      <trkpt lat="44.78104" lon="0.72974">
        <ele>136.9</ele>
        <time>2022-12-04T10:21:51Z</time>
      </trkpt>
      <trkpt lat="44.78095" lon="0.7304">
        <ele>132.7</ele>
        <time>2022-12-04T10:21:57Z</time>
      </trkpt>
      <trkpt lat="44.78086" lon="0.73099">
        <ele>129.4</ele>
        <time>2022-12-04T10:22:02Z</time>
      </trkpt>
      <trkpt lat="44.78073" lon="0.73169">
        <ele>126.7</ele>
        <time>2022-12-04T10:22:08Z</time>
      </trkpt>
      <trkpt lat="44.78071" lon="0.7318">
        <ele>126.4</ele>
        <time>2022-12-04T10:22:09Z</time>
      </trkpt>
      <trkpt lat="44.78071" lon="0.73202">
        <ele>125.7</ele>
        <time>2022-12-04T10:22:11Z</time>
      </trkpt>
      <trkpt lat="44.7807" lon="0.73213">
        <ele>125.3</ele>
        <time>2022-12-04T10:22:12Z</time>
      </trkpt>
      <trkpt lat="44.78067" lon="0.73231">
        <ele>124.3</ele>
        <time>2022-12-04T10:22:14Z</time>
      </trkpt>
      <trkpt lat="44.78057" lon="0.73267">
        <ele>121.5</ele>
        <time>2022-12-04T10:22:18Z</time>
      </trkpt>
      <trkpt lat="44.78055" lon="0.73283">
        <ele>120.2</ele>
        <time>2022-12-04T10:22:20Z</time>
      </trkpt>
      <trkpt lat="44.78052" lon="0.73301">
        <ele>118.7</ele>
        <time>2022-12-04T10:22:22Z</time>
      </trkpt>
      <trkpt lat="44.78048" lon="0.73319">
        <ele>117.4</ele>
        <time>2022-12-04T10:22:24Z</time>
      </trkpt>
      <trkpt lat="44.78048" lon="0.73328">
        <ele>116.8</ele>
        <time>2022-12-04T10:22:25Z</time>
      </trkpt>
      <trkpt lat="44.7805" lon="0.73337">
        <ele>116.3</ele>
        <time>2022-12-04T10:22:26Z</time>
      </trkpt>
      <trkpt lat="44.78058" lon="0.73362">
        <ele>115.2</ele>
        <time>2022-12-04T10:22:29Z</time>
      </trkpt>
      <trkpt lat="44.78066" lon="0.73387">
        <ele>115</ele>
        <time>2022-12-04T10:22:33Z</time>
      </trkpt>
      <trkpt lat="44.78081" lon="0.73406">
        <ele>115.6</ele>
        <time>2022-12-04T10:22:38Z</time>
      </trkpt>
      <trkpt lat="44.78098" lon="0.73425">
        <ele>117</ele>
        <time>2022-12-04T10:22:43Z</time>
      </trkpt>
      <trkpt lat="44.78108" lon="0.73436">
        <ele>118</ele>
        <time>2022-12-04T10:22:47Z</time>
      </trkpt>
      <trkpt lat="44.78121" lon="0.73452">
        <ele>119.8</ele>
        <time>2022-12-04T10:22:53Z</time>
      </trkpt>
      <trkpt lat="44.78129" lon="0.73461">
        <ele>120.9</ele>
        <time>2022-12-04T10:22:57Z</time>
      </trkpt>
      <trkpt lat="44.78138" lon="0.73471">
        <ele>122.2</ele>
        <time>2022-12-04T10:23:02Z</time>
      </trkpt>
      <trkpt lat="44.78151" lon="0.73484">
        <ele>123.5</ele>
        <time>2022-12-04T10:23:09Z</time>
      </trkpt>
      <trkpt lat="44.7816" lon="0.73493">
        <ele>124.4</ele>
        <time>2022-12-04T10:23:14Z</time>
      </trkpt>
      <trkpt lat="44.78169" lon="0.73504">
        <ele>125.2</ele>
        <time>2022-12-04T10:23:20Z</time>
      </trkpt>
      <trkpt lat="44.78178" lon="0.73516">
        <ele>126.1</ele>
        <time>2022-12-04T10:23:26Z</time>
      </trkpt>
      <trkpt lat="44.78187" lon="0.73524">
        <ele>127</ele>
        <time>2022-12-04T10:23:31Z</time>
      </trkpt>
      <trkpt lat="44.78195" lon="0.73534">
        <ele>127.8</ele>
        <time>2022-12-04T10:23:36Z</time>
      </trkpt>
      <trkpt lat="44.78205" lon="0.7355">
        <ele>128.8</ele>
        <time>2022-12-04T10:23:42Z</time>
      </trkpt>
      <trkpt lat="44.78211" lon="0.73562">
        <ele>129.4</ele>
        <time>2022-12-04T10:23:47Z</time>
      </trkpt>
      <trkpt lat="44.78218" lon="0.73585">
        <ele>130.4</ele>
        <time>2022-12-04T10:23:54Z</time>
      </trkpt>
      <trkpt lat="44.78223" lon="0.73602">
        <ele>131</ele>
        <time>2022-12-04T10:23:59Z</time>
      </trkpt>
      <trkpt lat="44.78228" lon="0.73619">
        <ele>131.4</ele>
        <time>2022-12-04T10:24:04Z</time>
      </trkpt>
      <trkpt lat="44.78238" lon="0.73643">
        <ele>132.1</ele>
        <time>2022-12-04T10:24:10Z</time>
      </trkpt>
      <trkpt lat="44.78246" lon="0.73663">
        <ele>133</ele>
        <time>2022-12-04T10:24:15Z</time>
      </trkpt>
      <trkpt lat="44.78254" lon="0.73681">
        <ele>134.1</ele>
        <time>2022-12-04T10:24:20Z</time>
      </trkpt>
      <trkpt lat="44.78261" lon="0.73703">
        <ele>135.4</ele>
        <time>2022-12-04T10:24:26Z</time>
      </trkpt>
      <trkpt lat="44.78265" lon="0.73723">
        <ele>136.5</ele>
        <time>2022-12-04T10:24:33Z</time>
      </trkpt>
      <trkpt lat="44.78266" lon="0.73726">
        <ele>136.7</ele>
        <time>2022-12-04T10:24:34Z</time>
      </trkpt>
      <trkpt lat="44.78268" lon="0.73736">
        <ele>137.1</ele>
        <time>2022-12-04T10:24:37Z</time>
      </trkpt>
      <trkpt lat="44.78269" lon="0.73739">
        <ele>137.2</ele>
        <time>2022-12-04T10:24:38Z</time>
      </trkpt>
      <trkpt lat="44.78268" lon="0.73751">
        <ele>137.8</ele>
        <time>2022-12-04T10:24:42Z</time>
      </trkpt>
      <trkpt lat="44.78268" lon="0.73765">
        <ele>138.3</ele>
        <time>2022-12-04T10:24:46Z</time>
      </trkpt>
      <trkpt lat="44.78268" lon="0.73768">
        <ele>138.4</ele>
        <time>2022-12-04T10:24:47Z</time>
      </trkpt>
      <trkpt lat="44.78267" lon="0.73787">
        <ele>139.1</ele>
        <time>2022-12-04T10:24:52Z</time>
      </trkpt>
      <trkpt lat="44.78264" lon="0.73804">
        <ele>139.5</ele>
        <time>2022-12-04T10:24:57Z</time>
      </trkpt>
      <trkpt lat="44.78263" lon="0.73809">
        <ele>139.5</ele>
        <time>2022-12-04T10:24:58Z</time>
      </trkpt>
      <trkpt lat="44.78262" lon="0.73824">
        <ele>139.4</ele>
        <time>2022-12-04T10:25:02Z</time>
      </trkpt>
      <trkpt lat="44.78256" lon="0.7385">
        <ele>139</ele>
        <time>2022-12-04T10:25:07Z</time>
      </trkpt>
      <trkpt lat="44.78251" lon="0.7388">
        <ele>138.1</ele>
        <time>2022-12-04T10:25:12Z</time>
      </trkpt>
      <trkpt lat="44.7825" lon="0.73887">
        <ele>137.8</ele>
        <time>2022-12-04T10:25:13Z</time>
      </trkpt>
      <trkpt lat="44.78246" lon="0.73909">
        <ele>136.9</ele>
        <time>2022-12-04T10:25:16Z</time>
      </trkpt>
      <trkpt lat="44.78236" lon="0.73957">
        <ele>134.6</ele>
        <time>2022-12-04T10:25:22Z</time>
      </trkpt>
      <trkpt lat="44.78227" lon="0.7399">
        <ele>132.4</ele>
        <time>2022-12-04T10:25:26Z</time>
      </trkpt>
      <trkpt lat="44.78224" lon="0.74">
        <ele>131.6</ele>
        <time>2022-12-04T10:25:27Z</time>
      </trkpt>
      <trkpt lat="44.78208" lon="0.74047">
        <ele>126.9</ele>
        <time>2022-12-04T10:25:31Z</time>
      </trkpt>
      <trkpt lat="44.78198" lon="0.74072">
        <ele>124.5</ele>
        <time>2022-12-04T10:25:33Z</time>
      </trkpt>
      <trkpt lat="44.78185" lon="0.74097">
        <ele>122.3</ele>
        <time>2022-12-04T10:25:35Z</time>
      </trkpt>
      <trkpt lat="44.78149" lon="0.74159">
        <ele>116.9</ele>
        <time>2022-12-04T10:25:40Z</time>
      </trkpt>
      <trkpt lat="44.78111" lon="0.74223">
        <ele>110.9</ele>
        <time>2022-12-04T10:25:45Z</time>
      </trkpt>
      <trkpt lat="44.78097" lon="0.74249">
        <ele>108.2</ele>
        <time>2022-12-04T10:25:47Z</time>
      </trkpt>
      <trkpt lat="44.78078" lon="0.74294">
        <ele>103.8</ele>
        <time>2022-12-04T10:25:50Z</time>
      </trkpt>
      <trkpt lat="44.78074" lon="0.74311">
        <ele>102.4</ele>
        <time>2022-12-04T10:25:51Z</time>
      </trkpt>
      <trkpt lat="44.78073" lon="0.74328">
        <ele>101.1</ele>
        <time>2022-12-04T10:25:52Z</time>
      </trkpt>
      <trkpt lat="44.78074" lon="0.74346">
        <ele>99.9</ele>
        <time>2022-12-04T10:25:53Z</time>
      </trkpt>
      <trkpt lat="44.78076" lon="0.74363">
        <ele>99</ele>
        <time>2022-12-04T10:25:54Z</time>
      </trkpt>
      <trkpt lat="44.78082" lon="0.74396">
        <ele>97.7</ele>
        <time>2022-12-04T10:25:56Z</time>
      </trkpt>
      <trkpt lat="44.78091" lon="0.74442">
        <ele>96.8</ele>
        <time>2022-12-04T10:25:59Z</time>
      </trkpt>
      <trkpt lat="44.7809" lon="0.74457">
        <ele>96.9</ele>
        <time>2022-12-04T10:26:00Z</time>
      </trkpt>
      <trkpt lat="44.78087" lon="0.7447">
        <ele>97</ele>
        <time>2022-12-04T10:26:01Z</time>
      </trkpt>
      <trkpt lat="44.78081" lon="0.74481">
        <ele>97.3</ele>
        <time>2022-12-04T10:26:02Z</time>
      </trkpt>
      <trkpt lat="44.78075" lon="0.74489">
        <ele>97.6</ele>
        <time>2022-12-04T10:26:03Z</time>
      </trkpt>
      <trkpt lat="44.7806" lon="0.74501">
        <ele>98.5</ele>
        <time>2022-12-04T10:26:05Z</time>
      </trkpt>
      <trkpt lat="44.78033" lon="0.74521">
        <ele>100.5</ele>
        <time>2022-12-04T10:26:09Z</time>
      </trkpt>
      <trkpt lat="44.78011" lon="0.74547">
        <ele>102.7</ele>
        <time>2022-12-04T10:26:14Z</time>
      </trkpt>
      <trkpt lat="44.77996" lon="0.74571">
        <ele>104.6</ele>
        <time>2022-12-04T10:26:20Z</time>
      </trkpt>
      <trkpt lat="44.77985" lon="0.74592">
        <ele>106.3</ele>
        <time>2022-12-04T10:26:27Z</time>
      </trkpt>
      <trkpt lat="44.77968" lon="0.74615">
        <ele>108.4</ele>
        <time>2022-12-04T10:26:34Z</time>
      </trkpt>
      <trkpt lat="44.77956" lon="0.74633">
        <ele>109.8</ele>
        <time>2022-12-04T10:26:40Z</time>
      </trkpt>
      <trkpt lat="44.77949" lon="0.74649">
        <ele>110.8</ele>
        <time>2022-12-04T10:26:45Z</time>
      </trkpt>
      <trkpt lat="44.7794" lon="0.7467">
        <ele>111.7</ele>
        <time>2022-12-04T10:26:51Z</time>
      </trkpt>
      <trkpt lat="44.77933" lon="0.74701">
        <ele>112.7</ele>
        <time>2022-12-04T10:26:58Z</time>
      </trkpt>
      <trkpt lat="44.77928" lon="0.74731">
        <ele>113.3</ele>
        <time>2022-12-04T10:27:04Z</time>
      </trkpt>
      <trkpt lat="44.77924" lon="0.74757">
        <ele>113.5</ele>
        <time>2022-12-04T10:27:10Z</time>
      </trkpt>
      <trkpt lat="44.77921" lon="0.74792">
        <ele>112.9</ele>
        <time>2022-12-04T10:27:18Z</time>
      </trkpt>
      <trkpt lat="44.7792" lon="0.74815">
        <ele>111.5</ele>
        <time>2022-12-04T10:27:22Z</time>
      </trkpt>
      <trkpt lat="44.7792" lon="0.74822">
        <ele>111</ele>
        <time>2022-12-04T10:27:23Z</time>
      </trkpt>
      <trkpt lat="44.7792" lon="0.7483">
        <ele>110.4</ele>
        <time>2022-12-04T10:27:24Z</time>
      </trkpt>
      <trkpt lat="44.77922" lon="0.74859">
        <ele>107.7</ele>
        <time>2022-12-04T10:27:27Z</time>
      </trkpt>
      <trkpt lat="44.77929" lon="0.74911">
        <ele>102.6</ele>
        <time>2022-12-04T10:27:31Z</time>
      </trkpt>
      <trkpt lat="44.77947" lon="0.74967">
        <ele>97.4</ele>
        <time>2022-12-04T10:27:35Z</time>
      </trkpt>
      <trkpt lat="44.77972" lon="0.7504">
        <ele>91.8</ele>
        <time>2022-12-04T10:27:40Z</time>
      </trkpt>
      <trkpt lat="44.77988" lon="0.75083">
        <ele>88.7</ele>
        <time>2022-12-04T10:27:43Z</time>
      </trkpt>
      <trkpt lat="44.77995" lon="0.75122">
        <ele>86.4</ele>
        <time>2022-12-04T10:27:46Z</time>
      </trkpt>
      <trkpt lat="44.77996" lon="0.75132">
        <ele>85.8</ele>
        <time>2022-12-04T10:27:47Z</time>
      </trkpt>
      <trkpt lat="44.77994" lon="0.7515">
        <ele>85.1</ele>
        <time>2022-12-04T10:27:49Z</time>
      </trkpt>
      <trkpt lat="44.77988" lon="0.75167">
        <ele>84.6</ele>
        <time>2022-12-04T10:27:51Z</time>
      </trkpt>
      <trkpt lat="44.7798" lon="0.75183">
        <ele>84.1</ele>
        <time>2022-12-04T10:27:53Z</time>
      </trkpt>
      <trkpt lat="44.77975" lon="0.75191">
        <ele>83.9</ele>
        <time>2022-12-04T10:27:54Z</time>
      </trkpt>
      <trkpt lat="44.77959" lon="0.7521">
        <ele>83.4</ele>
        <time>2022-12-04T10:27:57Z</time>
      </trkpt>
      <trkpt lat="44.77913" lon="0.75258">
        <ele>82.4</ele>
        <time>2022-12-04T10:28:05Z</time>
      </trkpt>
      <trkpt lat="44.77879" lon="0.75299">
        <ele>81.6</ele>
        <time>2022-12-04T10:28:12Z</time>
      </trkpt>
      <trkpt lat="44.77855" lon="0.75334">
        <ele>80</ele>
        <time>2022-12-04T10:28:17Z</time>
      </trkpt>
      <trkpt lat="44.77824" lon="0.75371">
        <ele>77.4</ele>
        <time>2022-12-04T10:28:22Z</time>
      </trkpt>
      <trkpt lat="44.77783" lon="0.75399">
        <ele>75.2</ele>
        <time>2022-12-04T10:28:27Z</time>
      </trkpt>
      <trkpt lat="44.77744" lon="0.75429">
        <ele>74.6</ele>
        <time>2022-12-04T10:28:32Z</time>
      </trkpt>
      <trkpt lat="44.77738" lon="0.75437">
        <ele>74.6</ele>
        <time>2022-12-04T10:28:33Z</time>
      </trkpt>
      <trkpt lat="44.77734" lon="0.75445">
        <ele>74.6</ele>
        <time>2022-12-04T10:28:34Z</time>
      </trkpt>
      <trkpt lat="44.77728" lon="0.75465">
        <ele>74.6</ele>
        <time>2022-12-04T10:28:36Z</time>
      </trkpt>
      <trkpt lat="44.77726" lon="0.75474">
        <ele>74.6</ele>
        <time>2022-12-04T10:28:37Z</time>
      </trkpt>
      <trkpt lat="44.77723" lon="0.75501">
        <ele>74.4</ele>
        <time>2022-12-04T10:28:40Z</time>
      </trkpt>
      <trkpt lat="44.77717" lon="0.75547">
        <ele>74.1</ele>
        <time>2022-12-04T10:28:45Z</time>
      </trkpt>
      <trkpt lat="44.77712" lon="0.75574">
        <ele>74.1</ele>
        <time>2022-12-04T10:28:49Z</time>
      </trkpt>
      <trkpt lat="44.77709" lon="0.7558">
        <ele>74.1</ele>
        <time>2022-12-04T10:28:51Z</time>
      </trkpt>
      <trkpt lat="44.77706" lon="0.75583">
        <ele>74.1</ele>
        <time>2022-12-04T10:28:52Z</time>
      </trkpt>
      <trkpt lat="44.77683" lon="0.75599">
        <ele>74.2</ele>
        <time>2022-12-04T10:28:58Z</time>
      </trkpt>
      <trkpt lat="44.77654" lon="0.75621">
        <ele>74.9</ele>
        <time>2022-12-04T10:29:05Z</time>
      </trkpt>
      <trkpt lat="44.77629" lon="0.7564">
        <ele>75.7</ele>
        <time>2022-12-04T10:29:11Z</time>
      </trkpt>
      <trkpt lat="44.77599" lon="0.75664">
        <ele>76.8</ele>
        <time>2022-12-04T10:29:18Z</time>
      </trkpt>
      <trkpt lat="44.77594" lon="0.75666">
        <ele>76.9</ele>
        <time>2022-12-04T10:29:19Z</time>
      </trkpt>
      <trkpt lat="44.77571" lon="0.75674">
        <ele>77.7</ele>
        <time>2022-12-04T10:29:24Z</time>
      </trkpt>
      <trkpt lat="44.7754" lon="0.7568">
        <ele>78.5</ele>
        <time>2022-12-04T10:29:31Z</time>
      </trkpt>
      <trkpt lat="44.77527" lon="0.75686">
        <ele>78.7</ele>
        <time>2022-12-04T10:29:34Z</time>
      </trkpt>
      <trkpt lat="44.77518" lon="0.7569">
        <ele>78.9</ele>
        <time>2022-12-04T10:29:36Z</time>
      </trkpt>
      <trkpt lat="44.77493" lon="0.757">
        <ele>79.1</ele>
        <time>2022-12-04T10:29:42Z</time>
      </trkpt>
      <trkpt lat="44.77489" lon="0.75702">
        <ele>79.2</ele>
        <time>2022-12-04T10:29:43Z</time>
      </trkpt>
      <trkpt lat="44.77472" lon="0.7571">
        <ele>79.2</ele>
        <time>2022-12-04T10:29:47Z</time>
      </trkpt>
      <trkpt lat="44.77461" lon="0.75716">
        <ele>79.3</ele>
        <time>2022-12-04T10:29:50Z</time>
      </trkpt>
      <trkpt lat="44.77453" lon="0.75719">
        <ele>79.3</ele>
        <time>2022-12-04T10:29:52Z</time>
      </trkpt>
      <trkpt lat="44.77437" lon="0.75727">
        <ele>79.3</ele>
        <time>2022-12-04T10:29:56Z</time>
      </trkpt>
      <trkpt lat="44.77428" lon="0.75731">
        <ele>79.3</ele>
        <time>2022-12-04T10:29:58Z</time>
      </trkpt>
      <trkpt lat="44.77411" lon="0.7574">
        <ele>79.3</ele>
        <time>2022-12-04T10:30:02Z</time>
      </trkpt>
      <trkpt lat="44.77402" lon="0.75745">
        <ele>79.3</ele>
        <time>2022-12-04T10:30:04Z</time>
      </trkpt>
      <trkpt lat="44.77374" lon="0.75767">
        <ele>79.7</ele>
        <time>2022-12-04T10:30:11Z</time>
      </trkpt>
      <trkpt lat="44.7735" lon="0.75797">
        <ele>80.2</ele>
        <time>2022-12-04T10:30:18Z</time>
      </trkpt>
      <trkpt lat="44.7733" lon="0.75819">
        <ele>80.4</ele>
        <time>2022-12-04T10:30:24Z</time>
      </trkpt>
      <trkpt lat="44.77325" lon="0.75824">
        <ele>80.3</ele>
        <time>2022-12-04T10:30:26Z</time>
      </trkpt>
      <trkpt lat="44.77322" lon="0.75823">
        <ele>80.2</ele>
        <time>2022-12-04T10:30:27Z</time>
      </trkpt>
      <trkpt lat="44.77308" lon="0.75823">
        <ele>80</ele>
        <time>2022-12-04T10:30:31Z</time>
      </trkpt>
      <trkpt lat="44.77289" lon="0.75829">
        <ele>79.6</ele>
        <time>2022-12-04T10:30:35Z</time>
      </trkpt>
      <trkpt lat="44.77251" lon="0.75841">
        <ele>79.3</ele>
        <time>2022-12-04T10:30:43Z</time>
      </trkpt>
      <trkpt lat="44.77217" lon="0.7585">
        <ele>79.7</ele>
        <time>2022-12-04T10:30:50Z</time>
      </trkpt>
      <trkpt lat="44.77203" lon="0.75854">
        <ele>80.2</ele>
        <time>2022-12-04T10:30:53Z</time>
      </trkpt>
      <trkpt lat="44.77195" lon="0.75852">
        <ele>80.5</ele>
        <time>2022-12-04T10:30:55Z</time>
      </trkpt>
      <trkpt lat="44.77191" lon="0.75842">
        <ele>80.6</ele>
        <time>2022-12-04T10:30:57Z</time>
      </trkpt>
      <trkpt lat="44.77189" lon="0.75836">
        <ele>80.6</ele>
        <time>2022-12-04T10:30:58Z</time>
      </trkpt>
      <trkpt lat="44.77188" lon="0.7583">
        <ele>80.6</ele>
        <time>2022-12-04T10:30:59Z</time>
      </trkpt>
      <trkpt lat="44.77181" lon="0.75804">
        <ele>80.6</ele>
        <time>2022-12-04T10:31:03Z</time>
      </trkpt>
      <trkpt lat="44.77164" lon="0.75751">
        <ele>80.5</ele>
        <time>2022-12-04T10:31:11Z</time>
      </trkpt>
      <trkpt lat="44.77152" lon="0.75712">
        <ele>81</ele>
        <time>2022-12-04T10:31:17Z</time>
      </trkpt>
      <trkpt lat="44.77143" lon="0.75679">
        <ele>81.8</ele>
        <time>2022-12-04T10:31:23Z</time>
      </trkpt>
      <trkpt lat="44.77138" lon="0.75668">
        <ele>82.1</ele>
        <time>2022-12-04T10:31:26Z</time>
      </trkpt>
      <trkpt lat="44.77137" lon="0.75668">
        <ele>82.2</ele>
        <time>2022-12-04T10:31:27Z</time>
      </trkpt>
      <trkpt lat="44.77126" lon="0.75683">
        <ele>82.5</ele>
        <time>2022-12-04T10:31:33Z</time>
      </trkpt>
      <trkpt lat="44.77113" lon="0.75706">
        <ele>83.2</ele>
        <time>2022-12-04T10:31:39Z</time>
      </trkpt>
      <trkpt lat="44.77102" lon="0.75731">
        <ele>83.9</ele>
        <time>2022-12-04T10:31:44Z</time>
      </trkpt>
      <trkpt lat="44.77094" lon="0.7575">
        <ele>85</ele>
        <time>2022-12-04T10:31:49Z</time>
      </trkpt>
      <trkpt lat="44.77088" lon="0.7576">
        <ele>85.8</ele>
        <time>2022-12-04T10:31:52Z</time>
      </trkpt>
      <trkpt lat="44.77073" lon="0.75775">
        <ele>86.5</ele>
        <time>2022-12-04T10:31:58Z</time>
      </trkpt>
      <trkpt lat="44.77055" lon="0.75792">
        <ele>87</ele>
        <time>2022-12-04T10:32:04Z</time>
      </trkpt>
      <trkpt lat="44.77042" lon="0.75801">
        <ele>87.2</ele>
        <time>2022-12-04T10:32:08Z</time>
      </trkpt>
      <trkpt lat="44.77022" lon="0.75814">
        <ele>87.5</ele>
        <time>2022-12-04T10:32:13Z</time>
      </trkpt>
      <trkpt lat="44.77004" lon="0.75828">
        <ele>87.5</ele>
        <time>2022-12-04T10:32:17Z</time>
      </trkpt>
      <trkpt lat="44.76977" lon="0.75848">
        <ele>87.5</ele>
        <time>2022-12-04T10:32:24Z</time>
      </trkpt>
      <trkpt lat="44.7696" lon="0.75857">
        <ele>87.6</ele>
        <time>2022-12-04T10:32:29Z</time>
      </trkpt>
      <trkpt lat="44.76945" lon="0.75868">
        <ele>87.3</ele>
        <time>2022-12-04T10:32:34Z</time>
      </trkpt>
      <trkpt lat="44.76926" lon="0.75877">
        <ele>88</ele>
        <time>2022-12-04T10:32:39Z</time>
      </trkpt>
      <trkpt lat="44.76922" lon="0.75875">
        <ele>88.9</ele>
        <time>2022-12-04T10:32:41Z</time>
      </trkpt>
      <trkpt lat="44.76919" lon="0.75871">
        <ele>89.6</ele>
        <time>2022-12-04T10:32:43Z</time>
      </trkpt>
      <trkpt lat="44.76917" lon="0.75853">
        <ele>92.1</ele>
        <time>2022-12-04T10:32:50Z</time>
      </trkpt>
      <trkpt lat="44.76915" lon="0.7584">
        <ele>93.8</ele>
        <time>2022-12-04T10:32:55Z</time>
      </trkpt>
      <trkpt lat="44.76914" lon="0.75837">
        <ele>94.1</ele>
        <time>2022-12-04T10:32:56Z</time>
      </trkpt>
      <trkpt lat="44.76912" lon="0.75829">
        <ele>95.2</ele>
        <time>2022-12-04T10:32:59Z</time>
      </trkpt>
      <trkpt lat="44.76911" lon="0.75827">
        <ele>95.5</ele>
        <time>2022-12-04T10:33:00Z</time>
      </trkpt>
      <trkpt lat="44.76911" lon="0.75818">
        <ele>96.6</ele>
        <time>2022-12-04T10:33:04Z</time>
      </trkpt>
      <trkpt lat="44.76911" lon="0.75809">
        <ele>97.5</ele>
        <time>2022-12-04T10:33:07Z</time>
      </trkpt>
      <trkpt lat="44.76908" lon="0.75803">
        <ele>98.4</ele>
        <time>2022-12-04T10:33:10Z</time>
      </trkpt>
      <trkpt lat="44.76902" lon="0.7579">
        <ele>100.2</ele>
        <time>2022-12-04T10:33:16Z</time>
      </trkpt>
      <trkpt lat="44.76901" lon="0.75784">
        <ele>101</ele>
        <time>2022-12-04T10:33:19Z</time>
      </trkpt>
      <trkpt lat="44.769" lon="0.75777">
        <ele>101.8</ele>
        <time>2022-12-04T10:33:22Z</time>
      </trkpt>
      <trkpt lat="44.76899" lon="0.75769">
        <ele>102.9</ele>
        <time>2022-12-04T10:33:26Z</time>
      </trkpt>
      <trkpt lat="44.76899" lon="0.75766">
        <ele>103.1</ele>
        <time>2022-12-04T10:33:27Z</time>
      </trkpt>
      <trkpt lat="44.76899" lon="0.75761">
        <ele>103.9</ele>
        <time>2022-12-04T10:33:30Z</time>
      </trkpt>
      <trkpt lat="44.76899" lon="0.75756">
        <ele>104.4</ele>
        <time>2022-12-04T10:33:32Z</time>
      </trkpt>
      <trkpt lat="44.76901" lon="0.75747">
        <ele>105.6</ele>
        <time>2022-12-04T10:33:36Z</time>
      </trkpt>
      <trkpt lat="44.76901" lon="0.75743">
        <ele>106.1</ele>
        <time>2022-12-04T10:33:38Z</time>
      </trkpt>
      <trkpt lat="44.76898" lon="0.7573">
        <ele>107.7</ele>
        <time>2022-12-04T10:33:44Z</time>
      </trkpt>
      <trkpt lat="44.76897" lon="0.75719">
        <ele>108.9</ele>
        <time>2022-12-04T10:33:49Z</time>
      </trkpt>
      <trkpt lat="44.76894" lon="0.75707">
        <ele>109.9</ele>
        <time>2022-12-04T10:33:54Z</time>
      </trkpt>
      <trkpt lat="44.76895" lon="0.75704">
        <ele>110.2</ele>
        <time>2022-12-04T10:33:56Z</time>
      </trkpt>
      <trkpt lat="44.76895" lon="0.75698">
        <ele>110.5</ele>
        <time>2022-12-04T10:33:58Z</time>
      </trkpt>
      <trkpt lat="44.76895" lon="0.75695">
        <ele>110.7</ele>
        <time>2022-12-04T10:33:59Z</time>
      </trkpt>
      <trkpt lat="44.76894" lon="0.75686">
        <ele>111</ele>
        <time>2022-12-04T10:34:02Z</time>
      </trkpt>
      <trkpt lat="44.76894" lon="0.7567">
        <ele>111</ele>
        <time>2022-12-04T10:34:07Z</time>
      </trkpt>
      <trkpt lat="44.76896" lon="0.7565">
        <ele>110.8</ele>
        <time>2022-12-04T10:34:11Z</time>
      </trkpt>
      <trkpt lat="44.76898" lon="0.75624">
        <ele>109.8</ele>
        <time>2022-12-04T10:34:15Z</time>
      </trkpt>
      <trkpt lat="44.769" lon="0.7558">
        <ele>106.5</ele>
        <time>2022-12-04T10:34:20Z</time>
      </trkpt>
      <trkpt lat="44.76898" lon="0.75545">
        <ele>103.5</ele>
        <time>2022-12-04T10:34:23Z</time>
      </trkpt>
      <trkpt lat="44.76893" lon="0.7552">
        <ele>101.1</ele>
        <time>2022-12-04T10:34:25Z</time>
      </trkpt>
      <trkpt lat="44.76876" lon="0.75475">
        <ele>97.4</ele>
        <time>2022-12-04T10:34:29Z</time>
      </trkpt>
      <trkpt lat="44.76867" lon="0.75455">
        <ele>96.2</ele>
        <time>2022-12-04T10:34:32Z</time>
      </trkpt>
      <trkpt lat="44.7686" lon="0.75414">
        <ele>95.3</ele>
        <time>2022-12-04T10:34:37Z</time>
      </trkpt>
      <trkpt lat="44.76858" lon="0.75383">
        <ele>95.5</ele>
        <time>2022-12-04T10:34:41Z</time>
      </trkpt>
      <trkpt lat="44.76857" lon="0.7537">
        <ele>95.8</ele>
        <time>2022-12-04T10:34:43Z</time>
      </trkpt>
      <trkpt lat="44.7685" lon="0.75349">
        <ele>96.6</ele>
        <time>2022-12-04T10:34:47Z</time>
      </trkpt>
      <trkpt lat="44.76841" lon="0.75336">
        <ele>97.5</ele>
        <time>2022-12-04T10:34:52Z</time>
      </trkpt>
      <trkpt lat="44.76831" lon="0.75325">
        <ele>98.7</ele>
        <time>2022-12-04T10:34:58Z</time>
      </trkpt>
      <trkpt lat="44.76824" lon="0.75318">
        <ele>99.6</ele>
        <time>2022-12-04T10:35:02Z</time>
      </trkpt>
      <trkpt lat="44.76818" lon="0.75308">
        <ele>101.1</ele>
        <time>2022-12-04T10:35:06Z</time>
      </trkpt>
      <trkpt lat="44.76813" lon="0.75294">
        <ele>101.7</ele>
        <time>2022-12-04T10:35:11Z</time>
      </trkpt>
      <trkpt lat="44.76802" lon="0.7528">
        <ele>102.5</ele>
        <time>2022-12-04T10:35:16Z</time>
      </trkpt>
      <trkpt lat="44.76794" lon="0.75265">
        <ele>103.1</ele>
        <time>2022-12-04T10:35:21Z</time>
      </trkpt>
      <trkpt lat="44.76785" lon="0.75249">
        <ele>103.8</ele>
        <time>2022-12-04T10:35:26Z</time>
      </trkpt>
      <trkpt lat="44.76777" lon="0.75235">
        <ele>104.4</ele>
        <time>2022-12-04T10:35:30Z</time>
      </trkpt>
      <trkpt lat="44.76767" lon="0.75214">
        <ele>105.3</ele>
        <time>2022-12-04T10:35:36Z</time>
      </trkpt>
      <trkpt lat="44.76764" lon="0.75198">
        <ele>105.9</ele>
        <time>2022-12-04T10:35:40Z</time>
      </trkpt>
      <trkpt lat="44.76764" lon="0.75194">
        <ele>106.1</ele>
        <time>2022-12-04T10:35:41Z</time>
      </trkpt>
      <trkpt lat="44.76764" lon="0.75173">
        <ele>106.8</ele>
        <time>2022-12-04T10:35:46Z</time>
      </trkpt>
      <trkpt lat="44.76763" lon="0.75146">
        <ele>107.7</ele>
        <time>2022-12-04T10:35:52Z</time>
      </trkpt>
      <trkpt lat="44.76763" lon="0.75124">
        <ele>108.5</ele>
        <time>2022-12-04T10:35:57Z</time>
      </trkpt>
      <trkpt lat="44.76762" lon="0.75103">
        <ele>109.2</ele>
        <time>2022-12-04T10:36:02Z</time>
      </trkpt>
      <trkpt lat="44.76759" lon="0.75072">
        <ele>110</ele>
        <time>2022-12-04T10:36:09Z</time>
      </trkpt>
      <trkpt lat="44.76751" lon="0.75042">
        <ele>110.8</ele>
        <time>2022-12-04T10:36:16Z</time>
      </trkpt>
      <trkpt lat="44.76747" lon="0.75022">
        <ele>111.2</ele>
        <time>2022-12-04T10:36:21Z</time>
      </trkpt>
      <trkpt lat="44.76744" lon="0.75">
        <ele>111.6</ele>
        <time>2022-12-04T10:36:26Z</time>
      </trkpt>
      <trkpt lat="44.76743" lon="0.74982">
        <ele>111.9</ele>
        <time>2022-12-04T10:36:30Z</time>
      </trkpt>
      <trkpt lat="44.76734" lon="0.74962">
        <ele>112.4</ele>
        <time>2022-12-04T10:36:35Z</time>
      </trkpt>
      <trkpt lat="44.76719" lon="0.74942">
        <ele>112.7</ele>
        <time>2022-12-04T10:36:42Z</time>
      </trkpt>
      <trkpt lat="44.76708" lon="0.74923">
        <ele>113</ele>
        <time>2022-12-04T10:36:48Z</time>
      </trkpt>
      <trkpt lat="44.76692" lon="0.74897">
        <ele>114</ele>
        <time>2022-12-04T10:36:56Z</time>
      </trkpt>
      <trkpt lat="44.76679" lon="0.74883">
        <ele>115.5</ele>
        <time>2022-12-04T10:37:02Z</time>
      </trkpt>
      <trkpt lat="44.76662" lon="0.74874">
        <ele>117.4</ele>
        <time>2022-12-04T10:37:09Z</time>
      </trkpt>
      <trkpt lat="44.76654" lon="0.74872">
        <ele>118.4</ele>
        <time>2022-12-04T10:37:14Z</time>
      </trkpt>
      <trkpt lat="44.76644" lon="0.74864">
        <ele>119.7</ele>
        <time>2022-12-04T10:37:20Z</time>
      </trkpt>
      <trkpt lat="44.76629" lon="0.74855">
        <ele>121.5</ele>
        <time>2022-12-04T10:37:27Z</time>
      </trkpt>
      <trkpt lat="44.76618" lon="0.74846">
        <ele>122.8</ele>
        <time>2022-12-04T10:37:33Z</time>
      </trkpt>
      <trkpt lat="44.76606" lon="0.74834">
        <ele>124</ele>
        <time>2022-12-04T10:37:39Z</time>
      </trkpt>
      <trkpt lat="44.76598" lon="0.74827">
        <ele>124.8</ele>
        <time>2022-12-04T10:37:43Z</time>
      </trkpt>
      <trkpt lat="44.76579" lon="0.7481">
        <ele>126.3</ele>
        <time>2022-12-04T10:37:51Z</time>
      </trkpt>
      <trkpt lat="44.76566" lon="0.74792">
        <ele>127.4</ele>
        <time>2022-12-04T10:37:58Z</time>
      </trkpt>
      <trkpt lat="44.76548" lon="0.74768">
        <ele>128.3</ele>
        <time>2022-12-04T10:38:07Z</time>
      </trkpt>
      <trkpt lat="44.76542" lon="0.74759">
        <ele>128.6</ele>
        <time>2022-12-04T10:38:10Z</time>
      </trkpt>
      <trkpt lat="44.76542" lon="0.74752">
        <ele>128.7</ele>
        <time>2022-12-04T10:38:12Z</time>
      </trkpt>
      <trkpt lat="44.76548" lon="0.74737">
        <ele>128.6</ele>
        <time>2022-12-04T10:38:17Z</time>
      </trkpt>
      <trkpt lat="44.76552" lon="0.74737">
        <ele>128.3</ele>
        <time>2022-12-04T10:38:20Z</time>
      </trkpt>
      <trkpt lat="44.76552" lon="0.74738">
        <ele>128.2</ele>
        <time>2022-12-04T10:38:21Z</time>
      </trkpt>
      <trkpt lat="44.76552" lon="0.74738">
        <ele>128.2</ele>
        <time>2022-12-04T10:38:22Z</time>
      </trkpt>
      <trkpt lat="44.76552" lon="0.74734">
        <ele>127.9</ele>
        <time>2022-12-04T10:41:11Z</time>
      </trkpt>
      <trkpt lat="44.76552" lon="0.74728">
        <ele>127.3</ele>
        <time>2022-12-04T10:41:13Z</time>
      </trkpt>
      <trkpt lat="44.76551" lon="0.74715">
        <ele>125.3</ele>
        <time>2022-12-04T10:41:18Z</time>
      </trkpt>
      <trkpt lat="44.76551" lon="0.74712">
        <ele>124.8</ele>
        <time>2022-12-04T10:41:19Z</time>
      </trkpt>
      <trkpt lat="44.76552" lon="0.74702">
        <ele>123</ele>
        <time>2022-12-04T10:41:21Z</time>
      </trkpt>
      <trkpt lat="44.76558" lon="0.74685">
        <ele>119.5</ele>
        <time>2022-12-04T10:41:24Z</time>
      </trkpt>
      <trkpt lat="44.76567" lon="0.74662">
        <ele>115.8</ele>
        <time>2022-12-04T10:41:29Z</time>
      </trkpt>
      <trkpt lat="44.76568" lon="0.74656">
        <ele>115.2</ele>
        <time>2022-12-04T10:41:30Z</time>
      </trkpt>
      <trkpt lat="44.76568" lon="0.74634">
        <ele>113.9</ele>
        <time>2022-12-04T10:41:33Z</time>
      </trkpt>
      <trkpt lat="44.76571" lon="0.74619">
        <ele>113.2</ele>
        <time>2022-12-04T10:41:35Z</time>
      </trkpt>
      <trkpt lat="44.76573" lon="0.74605">
        <ele>112.8</ele>
        <time>2022-12-04T10:41:37Z</time>
      </trkpt>
      <trkpt lat="44.76576" lon="0.74591">
        <ele>112.9</ele>
        <time>2022-12-04T10:41:40Z</time>
      </trkpt>
      <trkpt lat="44.76578" lon="0.74577">
        <ele>113.2</ele>
        <time>2022-12-04T10:41:45Z</time>
      </trkpt>
      <trkpt lat="44.76574" lon="0.74555">
        <ele>114.3</ele>
        <time>2022-12-04T10:41:50Z</time>
      </trkpt>
      <trkpt lat="44.76568" lon="0.74539">
        <ele>115.5</ele>
        <time>2022-12-04T10:41:55Z</time>
      </trkpt>
      <trkpt lat="44.76567" lon="0.74534">
        <ele>115.8</ele>
        <time>2022-12-04T10:41:57Z</time>
      </trkpt>
      <trkpt lat="44.76567" lon="0.74526">
        <ele>116.2</ele>
        <time>2022-12-04T10:42:00Z</time>
      </trkpt>
      <trkpt lat="44.76567" lon="0.7452">
        <ele>116.5</ele>
        <time>2022-12-04T10:42:02Z</time>
      </trkpt>
      <trkpt lat="44.76569" lon="0.74511">
        <ele>116.7</ele>
        <time>2022-12-04T10:42:05Z</time>
      </trkpt>
      <trkpt lat="44.76569" lon="0.74504">
        <ele>116.9</ele>
        <time>2022-12-04T10:42:07Z</time>
      </trkpt>
      <trkpt lat="44.7657" lon="0.74496">
        <ele>117.1</ele>
        <time>2022-12-04T10:42:10Z</time>
      </trkpt>
      <trkpt lat="44.76569" lon="0.74484">
        <ele>117.3</ele>
        <time>2022-12-04T10:42:14Z</time>
      </trkpt>
      <trkpt lat="44.7657" lon="0.74473">
        <ele>117.5</ele>
        <time>2022-12-04T10:42:17Z</time>
      </trkpt>
      <trkpt lat="44.76571" lon="0.74464">
        <ele>117.5</ele>
        <time>2022-12-04T10:42:19Z</time>
      </trkpt>
      <trkpt lat="44.76569" lon="0.74444">
        <ele>117.6</ele>
        <time>2022-12-04T10:42:24Z</time>
      </trkpt>
      <trkpt lat="44.76569" lon="0.74421">
        <ele>117.4</ele>
        <time>2022-12-04T10:42:29Z</time>
      </trkpt>
      <trkpt lat="44.76563" lon="0.74393">
        <ele>117.1</ele>
        <time>2022-12-04T10:42:35Z</time>
      </trkpt>
      <trkpt lat="44.76557" lon="0.7436">
        <ele>116.8</ele>
        <time>2022-12-04T10:42:41Z</time>
      </trkpt>
      <trkpt lat="44.76552" lon="0.74329">
        <ele>116.6</ele>
        <time>2022-12-04T10:42:47Z</time>
      </trkpt>
      <trkpt lat="44.76542" lon="0.743">
        <ele>116.2</ele>
        <time>2022-12-04T10:42:53Z</time>
      </trkpt>
      <trkpt lat="44.76529" lon="0.74273">
        <ele>115.6</ele>
        <time>2022-12-04T10:42:59Z</time>
      </trkpt>
      <trkpt lat="44.76517" lon="0.74255">
        <ele>115.1</ele>
        <time>2022-12-04T10:43:04Z</time>
      </trkpt>
      <trkpt lat="44.76502" lon="0.7423">
        <ele>114.4</ele>
        <time>2022-12-04T10:43:09Z</time>
      </trkpt>
      <trkpt lat="44.76493" lon="0.74206">
        <ele>114.4</ele>
        <time>2022-12-04T10:43:14Z</time>
      </trkpt>
      <trkpt lat="44.76484" lon="0.74177">
        <ele>113.7</ele>
        <time>2022-12-04T10:43:20Z</time>
      </trkpt>
      <trkpt lat="44.76481" lon="0.74167">
        <ele>113.1</ele>
        <time>2022-12-04T10:43:22Z</time>
      </trkpt>
      <trkpt lat="44.76477" lon="0.74155">
        <ele>112.3</ele>
        <time>2022-12-04T10:43:24Z</time>
      </trkpt>
      <trkpt lat="44.76471" lon="0.74143">
        <ele>111.3</ele>
        <time>2022-12-04T10:43:26Z</time>
      </trkpt>
      <trkpt lat="44.76464" lon="0.74134">
        <ele>110.8</ele>
        <time>2022-12-04T10:43:28Z</time>
      </trkpt>
      <trkpt lat="44.76462" lon="0.7413">
        <ele>110.6</ele>
        <time>2022-12-04T10:43:29Z</time>
      </trkpt>
      <trkpt lat="44.76456" lon="0.74116">
        <ele>110.1</ele>
        <time>2022-12-04T10:43:31Z</time>
      </trkpt>
      <trkpt lat="44.76449" lon="0.74096">
        <ele>109.7</ele>
        <time>2022-12-04T10:43:34Z</time>
      </trkpt>
      <trkpt lat="44.76441" lon="0.7408">
        <ele>109.7</ele>
        <time>2022-12-04T10:43:37Z</time>
      </trkpt>
      <trkpt lat="44.76418" lon="0.74045">
        <ele>109.6</ele>
        <time>2022-12-04T10:43:44Z</time>
      </trkpt>
      <trkpt lat="44.76414" lon="0.74041">
        <ele>109.6</ele>
        <time>2022-12-04T10:43:45Z</time>
      </trkpt>
      <trkpt lat="44.76394" lon="0.74024">
        <ele>109.5</ele>
        <time>2022-12-04T10:43:50Z</time>
      </trkpt>
      <trkpt lat="44.76376" lon="0.74006">
        <ele>108.6</ele>
        <time>2022-12-04T10:43:55Z</time>
      </trkpt>
      <trkpt lat="44.76353" lon="0.73978">
        <ele>106.6</ele>
        <time>2022-12-04T10:44:00Z</time>
      </trkpt>
      <trkpt lat="44.76338" lon="0.73958">
        <ele>105.7</ele>
        <time>2022-12-04T10:44:04Z</time>
      </trkpt>
      <trkpt lat="44.76335" lon="0.73952">
        <ele>105.5</ele>
        <time>2022-12-04T10:44:05Z</time>
      </trkpt>
      <trkpt lat="44.76328" lon="0.7393">
        <ele>104.8</ele>
        <time>2022-12-04T10:44:09Z</time>
      </trkpt>
      <trkpt lat="44.76326" lon="0.73925">
        <ele>104.6</ele>
        <time>2022-12-04T10:44:10Z</time>
      </trkpt>
      <trkpt lat="44.76313" lon="0.73899">
        <ele>103.7</ele>
        <time>2022-12-04T10:44:15Z</time>
      </trkpt>
      <trkpt lat="44.76298" lon="0.7387">
        <ele>102.9</ele>
        <time>2022-12-04T10:44:20Z</time>
      </trkpt>
      <trkpt lat="44.76284" lon="0.73844">
        <ele>102.5</ele>
        <time>2022-12-04T10:44:25Z</time>
      </trkpt>
      <trkpt lat="44.7628" lon="0.73835">
        <ele>102.5</ele>
        <time>2022-12-04T10:44:27Z</time>
      </trkpt>
      <trkpt lat="44.76277" lon="0.73829">
        <ele>102.5</ele>
        <time>2022-12-04T10:44:28Z</time>
      </trkpt>
      <trkpt lat="44.76272" lon="0.73818">
        <ele>102.5</ele>
        <time>2022-12-04T10:44:30Z</time>
      </trkpt>
      <trkpt lat="44.76264" lon="0.73803">
        <ele>102.6</ele>
        <time>2022-12-04T10:44:33Z</time>
      </trkpt>
      <trkpt lat="44.76252" lon="0.73779">
        <ele>102.7</ele>
        <time>2022-12-04T10:44:38Z</time>
      </trkpt>
      <trkpt lat="44.76244" lon="0.73764">
        <ele>102.8</ele>
        <time>2022-12-04T10:44:41Z</time>
      </trkpt>
      <trkpt lat="44.76242" lon="0.73759">
        <ele>102.8</ele>
        <time>2022-12-04T10:44:42Z</time>
      </trkpt>
      <trkpt lat="44.7623" lon="0.73737">
        <ele>102.8</ele>
        <time>2022-12-04T10:44:47Z</time>
      </trkpt>
      <trkpt lat="44.76222" lon="0.73716">
        <ele>102.9</ele>
        <time>2022-12-04T10:44:52Z</time>
      </trkpt>
      <trkpt lat="44.76215" lon="0.73695">
        <ele>103</ele>
        <time>2022-12-04T10:44:56Z</time>
      </trkpt>
      <trkpt lat="44.7621" lon="0.73665">
        <ele>103.1</ele>
        <time>2022-12-04T10:45:01Z</time>
      </trkpt>
      <trkpt lat="44.76211" lon="0.73644">
        <ele>103.2</ele>
        <time>2022-12-04T10:45:05Z</time>
      </trkpt>
      <trkpt lat="44.76215" lon="0.73618">
        <ele>103.4</ele>
        <time>2022-12-04T10:45:10Z</time>
      </trkpt>
      <trkpt lat="44.76218" lon="0.73591">
        <ele>104</ele>
        <time>2022-12-04T10:45:15Z</time>
      </trkpt>
      <trkpt lat="44.7622" lon="0.73576">
        <ele>104.6</ele>
        <time>2022-12-04T10:45:20Z</time>
      </trkpt>
      <trkpt lat="44.76221" lon="0.73567">
        <ele>105.1</ele>
        <time>2022-12-04T10:45:23Z</time>
      </trkpt>
      <trkpt lat="44.76223" lon="0.73561">
        <ele>105.6</ele>
        <time>2022-12-04T10:45:25Z</time>
      </trkpt>
      <trkpt lat="44.76231" lon="0.73547">
        <ele>107.2</ele>
        <time>2022-12-04T10:45:30Z</time>
      </trkpt>
      <trkpt lat="44.76234" lon="0.73532">
        <ele>108.5</ele>
        <time>2022-12-04T10:45:37Z</time>
      </trkpt>
      <trkpt lat="44.76227" lon="0.73519">
        <ele>109.3</ele>
        <time>2022-12-04T10:45:44Z</time>
      </trkpt>
      <trkpt lat="44.76222" lon="0.73508">
        <ele>109.7</ele>
        <time>2022-12-04T10:45:50Z</time>
      </trkpt>
      <trkpt lat="44.76215" lon="0.73492">
        <ele>110.1</ele>
        <time>2022-12-04T10:45:57Z</time>
      </trkpt>
      <trkpt lat="44.76206" lon="0.73477">
        <ele>110.3</ele>
        <time>2022-12-04T10:46:03Z</time>
      </trkpt>
      <trkpt lat="44.76196" lon="0.73461">
        <ele>110.1</ele>
        <time>2022-12-04T10:46:08Z</time>
      </trkpt>
      <trkpt lat="44.76179" lon="0.73443">
        <ele>109.8</ele>
        <time>2022-12-04T10:46:14Z</time>
      </trkpt>
      <trkpt lat="44.76165" lon="0.7343">
        <ele>109.7</ele>
        <time>2022-12-04T10:46:19Z</time>
      </trkpt>
      <trkpt lat="44.76154" lon="0.73416">
        <ele>109.9</ele>
        <time>2022-12-04T10:46:23Z</time>
      </trkpt>
      <trkpt lat="44.76145" lon="0.73403">
        <ele>110.1</ele>
        <time>2022-12-04T10:46:27Z</time>
      </trkpt>
      <trkpt lat="44.76129" lon="0.73382">
        <ele>110.7</ele>
        <time>2022-12-04T10:46:33Z</time>
      </trkpt>
      <trkpt lat="44.76116" lon="0.73362">
        <ele>111.6</ele>
        <time>2022-12-04T10:46:39Z</time>
      </trkpt>
      <trkpt lat="44.76106" lon="0.73347">
        <ele>112.3</ele>
        <time>2022-12-04T10:46:44Z</time>
      </trkpt>
      <trkpt lat="44.76097" lon="0.73331">
        <ele>112.8</ele>
        <time>2022-12-04T10:46:49Z</time>
      </trkpt>
      <trkpt lat="44.7609" lon="0.73318">
        <ele>113.2</ele>
        <time>2022-12-04T10:46:53Z</time>
      </trkpt>
      <trkpt lat="44.76081" lon="0.73303">
        <ele>113.5</ele>
        <time>2022-12-04T10:46:57Z</time>
      </trkpt>
      <trkpt lat="44.76068" lon="0.7329">
        <ele>113.7</ele>
        <time>2022-12-04T10:47:02Z</time>
      </trkpt>
      <trkpt lat="44.76048" lon="0.73277">
        <ele>113.7</ele>
        <time>2022-12-04T10:47:08Z</time>
      </trkpt>
      <trkpt lat="44.76031" lon="0.73265">
        <ele>113.6</ele>
        <time>2022-12-04T10:47:13Z</time>
      </trkpt>
      <trkpt lat="44.7601" lon="0.73245">
        <ele>113.3</ele>
        <time>2022-12-04T10:47:19Z</time>
      </trkpt>
      <trkpt lat="44.75988" lon="0.73227">
        <ele>113.1</ele>
        <time>2022-12-04T10:47:26Z</time>
      </trkpt>
      <trkpt lat="44.75973" lon="0.73214">
        <ele>113.5</ele>
        <time>2022-12-04T10:47:31Z</time>
      </trkpt>
      <trkpt lat="44.75956" lon="0.73204">
        <ele>114.2</ele>
        <time>2022-12-04T10:47:36Z</time>
      </trkpt>
      <trkpt lat="44.75945" lon="0.73194">
        <ele>114.6</ele>
        <time>2022-12-04T10:47:40Z</time>
      </trkpt>
      <trkpt lat="44.75932" lon="0.73185">
        <ele>115</ele>
        <time>2022-12-04T10:47:44Z</time>
      </trkpt>
      <trkpt lat="44.75912" lon="0.73175">
        <ele>115.1</ele>
        <time>2022-12-04T10:47:50Z</time>
      </trkpt>
      <trkpt lat="44.75904" lon="0.73172">
        <ele>115.1</ele>
        <time>2022-12-04T10:47:52Z</time>
      </trkpt>
      <trkpt lat="44.75896" lon="0.7317">
        <ele>115.1</ele>
        <time>2022-12-04T10:47:54Z</time>
      </trkpt>
      <trkpt lat="44.75877" lon="0.7316">
        <ele>115.2</ele>
        <time>2022-12-04T10:47:59Z</time>
      </trkpt>
      <trkpt lat="44.75856" lon="0.73149">
        <ele>115.3</ele>
        <time>2022-12-04T10:48:05Z</time>
      </trkpt>
      <trkpt lat="44.75838" lon="0.73139">
        <ele>115.5</ele>
        <time>2022-12-04T10:48:10Z</time>
      </trkpt>
      <trkpt lat="44.75823" lon="0.73128">
        <ele>116.1</ele>
        <time>2022-12-04T10:48:15Z</time>
      </trkpt>
      <trkpt lat="44.7581" lon="0.73116">
        <ele>116.7</ele>
        <time>2022-12-04T10:48:20Z</time>
      </trkpt>
      <trkpt lat="44.75794" lon="0.73104">
        <ele>117.4</ele>
        <time>2022-12-04T10:48:26Z</time>
      </trkpt>
      <trkpt lat="44.7578" lon="0.73093">
        <ele>117.9</ele>
        <time>2022-12-04T10:48:31Z</time>
      </trkpt>
      <trkpt lat="44.7577" lon="0.73082">
        <ele>118.4</ele>
        <time>2022-12-04T10:48:36Z</time>
      </trkpt>
      <trkpt lat="44.75761" lon="0.73075">
        <ele>118.8</ele>
        <time>2022-12-04T10:48:41Z</time>
      </trkpt>
      <trkpt lat="44.75749" lon="0.73065">
        <ele>119.1</ele>
        <time>2022-12-04T10:48:46Z</time>
      </trkpt>
      <trkpt lat="44.75738" lon="0.73053">
        <ele>119.4</ele>
        <time>2022-12-04T10:48:51Z</time>
      </trkpt>
      <trkpt lat="44.75725" lon="0.73029">
        <ele>120.1</ele>
        <time>2022-12-04T10:48:57Z</time>
      </trkpt>
      <trkpt lat="44.75721" lon="0.73017">
        <ele>120.5</ele>
        <time>2022-12-04T10:49:00Z</time>
      </trkpt>
      <trkpt lat="44.7572" lon="0.73009">
        <ele>120.7</ele>
        <time>2022-12-04T10:49:02Z</time>
      </trkpt>
      <trkpt lat="44.75723" lon="0.73">
        <ele>120.9</ele>
        <time>2022-12-04T10:49:04Z</time>
      </trkpt>
      <trkpt lat="44.75726" lon="0.7299">
        <ele>121.2</ele>
        <time>2022-12-04T10:49:06Z</time>
      </trkpt>
      <trkpt lat="44.75735" lon="0.72974">
        <ele>121.8</ele>
        <time>2022-12-04T10:49:11Z</time>
      </trkpt>
      <trkpt lat="44.75745" lon="0.72963">
        <ele>122.5</ele>
        <time>2022-12-04T10:49:16Z</time>
      </trkpt>
      <trkpt lat="44.75751" lon="0.72954">
        <ele>123.1</ele>
        <time>2022-12-04T10:49:20Z</time>
      </trkpt>
      <trkpt lat="44.7576" lon="0.7294">
        <ele>124.1</ele>
        <time>2022-12-04T10:49:26Z</time>
      </trkpt>
      <trkpt lat="44.75767" lon="0.72928">
        <ele>124.9</ele>
        <time>2022-12-04T10:49:31Z</time>
      </trkpt>
      <trkpt lat="44.75768" lon="0.72922">
        <ele>125.3</ele>
        <time>2022-12-04T10:49:34Z</time>
      </trkpt>
      <trkpt lat="44.7577" lon="0.72916">
        <ele>125.7</ele>
        <time>2022-12-04T10:49:36Z</time>
      </trkpt>
      <trkpt lat="44.75773" lon="0.72907">
        <ele>126.2</ele>
        <time>2022-12-04T10:49:39Z</time>
      </trkpt>
      <trkpt lat="44.75774" lon="0.72903">
        <ele>126.4</ele>
        <time>2022-12-04T10:49:40Z</time>
      </trkpt>
      <trkpt lat="44.75779" lon="0.72884">
        <ele>127.5</ele>
        <time>2022-12-04T10:49:46Z</time>
      </trkpt>
      <trkpt lat="44.75781" lon="0.72875">
        <ele>127.9</ele>
        <time>2022-12-04T10:49:49Z</time>
      </trkpt>
      <trkpt lat="44.75782" lon="0.72871">
        <ele>128.1</ele>
        <time>2022-12-04T10:49:51Z</time>
      </trkpt>
      <trkpt lat="44.75783" lon="0.72858">
        <ele>128.8</ele>
        <time>2022-12-04T10:49:56Z</time>
      </trkpt>
      <trkpt lat="44.75786" lon="0.72846">
        <ele>129.6</ele>
        <time>2022-12-04T10:50:01Z</time>
      </trkpt>
      <trkpt lat="44.75788" lon="0.72832">
        <ele>130.6</ele>
        <time>2022-12-04T10:50:07Z</time>
      </trkpt>
      <trkpt lat="44.7579" lon="0.72826">
        <ele>131</ele>
        <time>2022-12-04T10:50:09Z</time>
      </trkpt>
      <trkpt lat="44.75792" lon="0.7282">
        <ele>131.6</ele>
        <time>2022-12-04T10:50:12Z</time>
      </trkpt>
      <trkpt lat="44.75793" lon="0.72817">
        <ele>131.8</ele>
        <time>2022-12-04T10:50:13Z</time>
      </trkpt>
      <trkpt lat="44.75796" lon="0.72809">
        <ele>132.5</ele>
        <time>2022-12-04T10:50:16Z</time>
      </trkpt>
      <trkpt lat="44.75799" lon="0.72799">
        <ele>133.4</ele>
        <time>2022-12-04T10:50:21Z</time>
      </trkpt>
      <trkpt lat="44.75803" lon="0.7279">
        <ele>134.1</ele>
        <time>2022-12-04T10:50:26Z</time>
      </trkpt>
      <trkpt lat="44.75806" lon="0.72784">
        <ele>134.7</ele>
        <time>2022-12-04T10:50:30Z</time>
      </trkpt>
      <trkpt lat="44.75807" lon="0.72782">
        <ele>134.9</ele>
        <time>2022-12-04T10:50:31Z</time>
      </trkpt>
      <trkpt lat="44.75814" lon="0.72765">
        <ele>136.3</ele>
        <time>2022-12-04T10:50:38Z</time>
      </trkpt>
      <trkpt lat="44.75816" lon="0.72758">
        <ele>137</ele>
        <time>2022-12-04T10:50:42Z</time>
      </trkpt>
      <trkpt lat="44.75824" lon="0.72736">
        <ele>139.1</ele>
        <time>2022-12-04T10:50:54Z</time>
      </trkpt>
      <trkpt lat="44.75824" lon="0.72734">
        <ele>139.4</ele>
        <time>2022-12-04T10:50:55Z</time>
      </trkpt>
      <trkpt lat="44.75829" lon="0.72724">
        <ele>140.4</ele>
        <time>2022-12-04T10:51:00Z</time>
      </trkpt>
      <trkpt lat="44.75833" lon="0.72708">
        <ele>141.8</ele>
        <time>2022-12-04T10:51:07Z</time>
      </trkpt>
      <trkpt lat="44.75836" lon="0.72697">
        <ele>142.7</ele>
        <time>2022-12-04T10:51:12Z</time>
      </trkpt>
      <trkpt lat="44.75836" lon="0.72693">
        <ele>143.3</ele>
        <time>2022-12-04T10:51:14Z</time>
      </trkpt>
      <trkpt lat="44.75835" lon="0.72689">
        <ele>143.5</ele>
        <time>2022-12-04T10:51:16Z</time>
      </trkpt>
      <trkpt lat="44.7583" lon="0.72679">
        <ele>144.1</ele>
        <time>2022-12-04T10:51:21Z</time>
      </trkpt>
      <trkpt lat="44.75824" lon="0.72668">
        <ele>144.5</ele>
        <time>2022-12-04T10:51:26Z</time>
      </trkpt>
      <trkpt lat="44.7582" lon="0.72655">
        <ele>144.9</ele>
        <time>2022-12-04T10:51:32Z</time>
      </trkpt>
      <trkpt lat="44.75814" lon="0.7264">
        <ele>145.3</ele>
        <time>2022-12-04T10:51:38Z</time>
      </trkpt>
      <trkpt lat="44.75806" lon="0.72626">
        <ele>145.9</ele>
        <time>2022-12-04T10:51:44Z</time>
      </trkpt>
      <trkpt lat="44.758" lon="0.72609">
        <ele>146.6</ele>
        <time>2022-12-04T10:51:51Z</time>
      </trkpt>
      <trkpt lat="44.75793" lon="0.72593">
        <ele>147.3</ele>
        <time>2022-12-04T10:51:57Z</time>
      </trkpt>
      <trkpt lat="44.75788" lon="0.72581">
        <ele>147.8</ele>
        <time>2022-12-04T10:52:02Z</time>
      </trkpt>
      <trkpt lat="44.7578" lon="0.72563">
        <ele>148.4</ele>
        <time>2022-12-04T10:52:09Z</time>
      </trkpt>
      <trkpt lat="44.75774" lon="0.72551">
        <ele>148.7</ele>
        <time>2022-12-04T10:52:14Z</time>
      </trkpt>
      <trkpt lat="44.75766" lon="0.72535">
        <ele>149.3</ele>
        <time>2022-12-04T10:52:20Z</time>
      </trkpt>
      <trkpt lat="44.7576" lon="0.72524">
        <ele>149.8</ele>
        <time>2022-12-04T10:52:25Z</time>
      </trkpt>
      <trkpt lat="44.75758" lon="0.72517">
        <ele>150.2</ele>
        <time>2022-12-04T10:52:28Z</time>
      </trkpt>
      <trkpt lat="44.75756" lon="0.72512">
        <ele>150.4</ele>
        <time>2022-12-04T10:52:30Z</time>
      </trkpt>
      <trkpt lat="44.75753" lon="0.72499">
        <ele>151</ele>
        <time>2022-12-04T10:52:35Z</time>
      </trkpt>
      <trkpt lat="44.7575" lon="0.7249">
        <ele>151.3</ele>
        <time>2022-12-04T10:52:38Z</time>
      </trkpt>
      <trkpt lat="44.75749" lon="0.72484">
        <ele>151.5</ele>
        <time>2022-12-04T10:52:40Z</time>
      </trkpt>
      <trkpt lat="44.75742" lon="0.7247">
        <ele>151.7</ele>
        <time>2022-12-04T10:52:45Z</time>
      </trkpt>
      <trkpt lat="44.75738" lon="0.72457">
        <ele>151.5</ele>
        <time>2022-12-04T10:52:48Z</time>
      </trkpt>
      <trkpt lat="44.75738" lon="0.72452">
        <ele>151.5</ele>
        <time>2022-12-04T10:52:49Z</time>
      </trkpt>
      <trkpt lat="44.75744" lon="0.72435">
        <ele>151.6</ele>
        <time>2022-12-04T10:52:54Z</time>
      </trkpt>
      <trkpt lat="44.75752" lon="0.72426">
        <ele>151.6</ele>
        <time>2022-12-04T10:52:58Z</time>
      </trkpt>
      <trkpt lat="44.75756" lon="0.72426">
        <ele>151.6</ele>
        <time>2022-12-04T10:53:00Z</time>
      </trkpt>
      <trkpt lat="44.75757" lon="0.72428">
        <ele>151.6</ele>
        <time>2022-12-04T10:53:02Z</time>
      </trkpt>
    </trkseg>
  </trk>
</gpx>